<?xml version='1.0' encoding='UTF-8'?><gpx version="1.1" creator="JPX - https://github.com/jenetics/jpx" xmlns="http://www.topografix.com/GPX/1/1"><trk><trkseg><trkpt lat="43.37572" lon="11.7879267"><ele>271.99999999999994</ele><time>2026-04-10T15:21:02.973Z</time></trkpt><trkpt lat="43.3757933" lon="11.787955"><ele>272.0</ele><time>2026-04-10T15:21:05.973Z</time></trkpt><trkpt lat="43.3758567" lon="11.7879733"><ele>272.0</ele><time>2026-04-10T15:21:16.973Z</time></trkpt><trkpt lat="43.3758883" lon="11.7878917"><ele>272.0</ele><time>2026-04-10T15:22:31.977Z</time></trkpt><trkpt lat="43.3759467" lon="11.787825"><ele>272.0</ele><time>2026-04-10T15:22:37.974Z</time></trkpt><trkpt lat="43.3759" lon="11.7877483"><ele>271.99999999999994</ele><time>2026-04-10T15:22:44.983Z</time></trkpt><trkpt lat="43.3758267" lon="11.7877233"><ele>272.0</ele><time>2026-04-10T15:22:50.978Z</time></trkpt><trkpt lat="43.3757583" lon="11.7877283"><ele>272.0</ele><time>2026-04-10T15:22:55.978Z</time></trkpt><trkpt lat="43.3758883" lon="11.7878917"><ele>272.0</ele><time>2026-04-10T15:22:31.977Z</time></trkpt><trkpt lat="43.3759467" lon="11.787825"><ele>272.0</ele><time>2026-04-10T15:22:37.974Z</time></trkpt><trkpt lat="43.3759" lon="11.7877483"><ele>272.0</ele><time>2026-04-10T15:22:44.983Z</time></trkpt><trkpt lat="43.3758267" lon="11.7877233"><ele>272.0</ele><time>2026-04-10T15:22:50.978Z</time></trkpt><trkpt lat="43.3757583" lon="11.7877283"><ele>272.0</ele><time>2026-04-10T15:22:55.978Z</time></trkpt><trkpt lat="43.3756867" lon="11.787715"><ele>272.0</ele><time>2026-04-10T15:23:00.976Z</time></trkpt><trkpt lat="43.3756333" lon="11.7876667"><ele>272.0</ele><time>2026-04-10T15:23:05.979Z</time></trkpt><trkpt lat="43.37558" lon="11.78761"><ele>272.0</ele><time>2026-04-10T15:23:09.977Z</time></trkpt><trkpt lat="43.37548" lon="11.7875617"><ele>272.0</ele><time>2026-04-10T15:23:28.978Z</time></trkpt><trkpt lat="43.3754617" lon="11.787465"><ele>272.0</ele><time>2026-04-10T15:23:33.976Z</time></trkpt><trkpt lat="43.3754567" lon="11.7873467"><ele>272.4285714285714</ele><time>2026-04-10T15:23:37.978Z</time></trkpt><trkpt lat="43.3754483" lon="11.7872467"><ele>272.85714285714283</ele><time>2026-04-10T15:23:40.976Z</time></trkpt><trkpt lat="43.3754533" lon="11.78715"><ele>273.2857142857143</ele><time>2026-04-10T15:23:43.979Z</time></trkpt><trkpt lat="43.37545" lon="11.7870583"><ele>273.71428571428567</ele><time>2026-04-10T15:23:46.976Z</time></trkpt><trkpt lat="43.375445" lon="11.7869567"><ele>274.1428571428571</ele><time>2026-04-10T15:23:49.977Z</time></trkpt><trkpt lat="43.3754517" lon="11.7868517"><ele>274.57142857142856</ele><time>2026-04-10T15:23:52.977Z</time></trkpt><trkpt lat="43.3754567" lon="11.7867567"><ele>275.0</ele><time>2026-04-10T15:23:55.976Z</time></trkpt><trkpt lat="43.3754567" lon="11.786665"><ele>275.1666666666667</ele><time>2026-04-10T15:24:00.977Z</time></trkpt><trkpt lat="43.375495" lon="11.786575"><ele>275.33333333333337</ele><time>2026-04-10T15:24:08.978Z</time></trkpt><trkpt lat="43.3755617" lon="11.7865"><ele>275.5</ele><time>2026-04-10T15:24:11.977Z</time></trkpt><trkpt lat="43.375635" lon="11.786425"><ele>275.6666666666667</ele><time>2026-04-10T15:24:14.977Z</time></trkpt><trkpt lat="43.3756833" lon="11.7863683"><ele>275.8333333333333</ele><time>2026-04-10T15:24:16.977Z</time></trkpt><trkpt lat="43.3757333" lon="11.786305"><ele>276.0</ele><time>2026-04-10T15:24:18.976Z</time></trkpt><trkpt lat="43.3758017" lon="11.78622"><ele>275.8571428571429</ele><time>2026-04-10T15:24:21.978Z</time></trkpt><trkpt lat="43.3758533" lon="11.7861617"><ele>275.7142857142857</ele><time>2026-04-10T15:24:23.974Z</time></trkpt><trkpt lat="43.3759033" lon="11.786095"><ele>275.57142857142856</ele><time>2026-04-10T15:24:25.977Z</time></trkpt><trkpt lat="43.3759533" lon="11.7860383"><ele>275.42857142857144</ele><time>2026-04-10T15:24:27.979Z</time></trkpt><trkpt lat="43.3760117" lon="11.7860033"><ele>275.2857142857143</ele><time>2026-04-10T15:24:29.978Z</time></trkpt><trkpt lat="43.3760917" lon="11.7860067"><ele>275.14285714285717</ele><time>2026-04-10T15:24:32.984Z</time></trkpt><trkpt lat="43.37617" lon="11.7860117"><ele>275.0</ele><time>2026-04-10T15:24:35.979Z</time></trkpt><trkpt lat="43.3762433" lon="11.78601"><ele>275.0</ele><time>2026-04-10T15:24:38.979Z</time></trkpt><trkpt lat="43.3763133" lon="11.78599"><ele>275.0</ele><time>2026-04-10T15:24:41.978Z</time></trkpt><trkpt lat="43.3763883" lon="11.785975"><ele>275.0</ele><time>2026-04-10T15:24:44.98Z</time></trkpt><trkpt lat="43.3764667" lon="11.7859583"><ele>275.0</ele><time>2026-04-10T15:24:47.98Z</time></trkpt><trkpt lat="43.3765433" lon="11.785955"><ele>275.0</ele><time>2026-04-10T15:24:50.981Z</time></trkpt><trkpt lat="43.3766233" lon="11.7859433"><ele>275.0</ele><time>2026-04-10T15:24:53.976Z</time></trkpt><trkpt lat="43.3767083" lon="11.7859383"><ele>275.33333333333337</ele><time>2026-04-10T15:24:56.978Z</time></trkpt><trkpt lat="43.3767917" lon="11.785935"><ele>275.6666666666667</ele><time>2026-04-10T15:24:59.977Z</time></trkpt><trkpt lat="43.376885" lon="11.7859083"><ele>276.0</ele><time>2026-04-10T15:25:02.98Z</time></trkpt><trkpt lat="43.3769517" lon="11.78589"><ele>276.3333333333333</ele><time>2026-04-10T15:25:04.977Z</time></trkpt><trkpt lat="43.37704" lon="11.7858617"><ele>276.66666666666663</ele><time>2026-04-10T15:25:07.978Z</time></trkpt><trkpt lat="43.3771233" lon="11.7858383"><ele>277.0</ele><time>2026-04-10T15:25:10.978Z</time></trkpt><trkpt lat="43.3771933" lon="11.7858067"><ele>277.0</ele><time>2026-04-10T15:25:12.981Z</time></trkpt><trkpt lat="43.3772783" lon="11.7857733"><ele>277.0</ele><time>2026-04-10T15:25:15.978Z</time></trkpt><trkpt lat="43.3773633" lon="11.78574"><ele>277.0</ele><time>2026-04-10T15:25:18.98Z</time></trkpt><trkpt lat="43.3774483" lon="11.785705"><ele>277.0</ele><time>2026-04-10T15:25:21.974Z</time></trkpt><trkpt lat="43.37753" lon="11.785675"><ele>277.0</ele><time>2026-04-10T15:25:24.982Z</time></trkpt><trkpt lat="43.3776183" lon="11.78563"><ele>277.0</ele><time>2026-04-10T15:25:27.979Z</time></trkpt><trkpt lat="43.3777033" lon="11.7855883"><ele>277.0</ele><time>2026-04-10T15:25:30.979Z</time></trkpt><trkpt lat="43.3777667" lon="11.7855633"><ele>277.0</ele><time>2026-04-10T15:25:32.978Z</time></trkpt><trkpt lat="43.3778567" lon="11.7855483"><ele>277.0</ele><time>2026-04-10T15:25:35.981Z</time></trkpt><trkpt lat="43.37794" lon="11.7855333"><ele>277.0</ele><time>2026-04-10T15:25:38.979Z</time></trkpt><trkpt lat="43.3780233" lon="11.7855283"><ele>277.0</ele><time>2026-04-10T15:25:41.978Z</time></trkpt><trkpt lat="43.3781133" lon="11.785515"><ele>277.0</ele><time>2026-04-10T15:25:44.978Z</time></trkpt><trkpt lat="43.378185" lon="11.7855"><ele>276.8333333333333</ele><time>2026-04-10T15:25:46.979Z</time></trkpt><trkpt lat="43.3782867" lon="11.7854783"><ele>276.66666666666663</ele><time>2026-04-10T15:25:49.977Z</time></trkpt><trkpt lat="43.3783617" lon="11.7854633"><ele>276.5</ele><time>2026-04-10T15:25:51.979Z</time></trkpt><trkpt lat="43.378435" lon="11.7854533"><ele>276.3333333333333</ele><time>2026-04-10T15:25:53.976Z</time></trkpt><trkpt lat="43.3785033" lon="11.78545"><ele>276.1666666666667</ele><time>2026-04-10T15:25:55.978Z</time></trkpt><trkpt lat="43.3785683" lon="11.7854517"><ele>276.0</ele><time>2026-04-10T15:25:57.98Z</time></trkpt><trkpt lat="43.3786467" lon="11.7854567"><ele>276.0</ele><time>2026-04-10T15:25:59.977Z</time></trkpt><trkpt lat="43.3787183" lon="11.7854483"><ele>276.0</ele><time>2026-04-10T15:26:01.978Z</time></trkpt><trkpt lat="43.3787883" lon="11.785445"><ele>276.0</ele><time>2026-04-10T15:26:03.978Z</time></trkpt><trkpt lat="43.3788617" lon="11.7854433"><ele>276.0</ele><time>2026-04-10T15:26:05.978Z</time></trkpt><trkpt lat="43.37893" lon="11.7854383"><ele>276.0</ele><time>2026-04-10T15:26:07.98Z</time></trkpt><trkpt lat="43.3789983" lon="11.7854367"><ele>276.0</ele><time>2026-04-10T15:26:09.977Z</time></trkpt><trkpt lat="43.3790833" lon="11.7854267"><ele>276.0</ele><time>2026-04-10T15:26:11.98Z</time></trkpt><trkpt lat="43.3791617" lon="11.785425"><ele>275.8571428571429</ele><time>2026-04-10T15:26:13.977Z</time></trkpt><trkpt lat="43.3792333" lon="11.7854167"><ele>275.7142857142857</ele><time>2026-04-10T15:26:15.977Z</time></trkpt><trkpt lat="43.379305" lon="11.78541"><ele>275.57142857142856</ele><time>2026-04-10T15:26:17.98Z</time></trkpt><trkpt lat="43.3793817" lon="11.7854067"><ele>275.42857142857144</ele><time>2026-04-10T15:26:19.982Z</time></trkpt><trkpt lat="43.3794583" lon="11.7854"><ele>275.2857142857143</ele><time>2026-04-10T15:26:21.976Z</time></trkpt><trkpt lat="43.379535" lon="11.7853933"><ele>275.14285714285717</ele><time>2026-04-10T15:26:23.98Z</time></trkpt><trkpt lat="43.3796067" lon="11.7853883"><ele>275.0</ele><time>2026-04-10T15:26:25.979Z</time></trkpt><trkpt lat="43.3796933" lon="11.7853783"><ele>274.83333333333337</ele><time>2026-04-10T15:26:27.978Z</time></trkpt><trkpt lat="43.37977" lon="11.785385"><ele>274.6666666666667</ele><time>2026-04-10T15:26:29.979Z</time></trkpt><trkpt lat="43.3798617" lon="11.7853783"><ele>274.5</ele><time>2026-04-10T15:26:31.976Z</time></trkpt><trkpt lat="43.3799467" lon="11.78537"><ele>274.3333333333333</ele><time>2026-04-10T15:26:33.981Z</time></trkpt><trkpt lat="43.38004" lon="11.7853617"><ele>274.16666666666663</ele><time>2026-04-10T15:26:35.978Z</time></trkpt><trkpt lat="43.3801333" lon="11.7853467"><ele>274.0</ele><time>2026-04-10T15:26:37.981Z</time></trkpt><trkpt lat="43.3802217" lon="11.78534"><ele>274.0</ele><time>2026-04-10T15:26:39.981Z</time></trkpt><trkpt lat="43.38031" lon="11.7853267"><ele>274.0</ele><time>2026-04-10T15:26:41.976Z</time></trkpt><trkpt lat="43.3803917" lon="11.7853183"><ele>274.0</ele><time>2026-04-10T15:26:43.975Z</time></trkpt><trkpt lat="43.3804717" lon="11.785305"><ele>274.0</ele><time>2026-04-10T15:26:45.979Z</time></trkpt><trkpt lat="43.3805567" lon="11.785285"><ele>274.0</ele><time>2026-04-10T15:26:47.98Z</time></trkpt><trkpt lat="43.3806433" lon="11.7852483"><ele>274.0</ele><time>2026-04-10T15:26:49.978Z</time></trkpt><trkpt lat="43.3807267" lon="11.785225"><ele>273.59999999999997</ele><time>2026-04-10T15:26:51.977Z</time></trkpt><trkpt lat="43.3808217" lon="11.78521"><ele>273.2</ele><time>2026-04-10T15:26:53.979Z</time></trkpt><trkpt lat="43.3809" lon="11.7851783"><ele>272.79999999999995</ele><time>2026-04-10T15:26:55.983Z</time></trkpt><trkpt lat="43.3809983" lon="11.785155"><ele>272.4</ele><time>2026-04-10T15:26:57.977Z</time></trkpt><trkpt lat="43.3810833" lon="11.78514"><ele>272.0</ele><time>2026-04-10T15:26:59.977Z</time></trkpt><trkpt lat="43.3811683" lon="11.78511"><ele>272.0</ele><time>2026-04-10T15:27:01.978Z</time></trkpt><trkpt lat="43.3812533" lon="11.78508"><ele>272.0</ele><time>2026-04-10T15:27:03.979Z</time></trkpt><trkpt lat="43.3813383" lon="11.7850567"><ele>272.0</ele><time>2026-04-10T15:27:05.979Z</time></trkpt><trkpt lat="43.3814167" lon="11.7850183"><ele>272.0</ele><time>2026-04-10T15:27:07.976Z</time></trkpt><trkpt lat="43.3814967" lon="11.7849917"><ele>272.0</ele><time>2026-04-10T15:27:09.977Z</time></trkpt><trkpt lat="43.381575" lon="11.7849667"><ele>272.0</ele><time>2026-04-10T15:27:11.978Z</time></trkpt><trkpt lat="43.3816567" lon="11.784945"><ele>271.8</ele><time>2026-04-10T15:27:13.977Z</time></trkpt><trkpt lat="43.3817433" lon="11.7849217"><ele>271.6</ele><time>2026-04-10T15:27:15.979Z</time></trkpt><trkpt lat="43.381835" lon="11.7849033"><ele>271.40000000000003</ele><time>2026-04-10T15:27:17.979Z</time></trkpt><trkpt lat="43.3819183" lon="11.7848733"><ele>271.2</ele><time>2026-04-10T15:27:19.981Z</time></trkpt><trkpt lat="43.3820167" lon="11.78483"><ele>271.0</ele><time>2026-04-10T15:27:21.976Z</time></trkpt><trkpt lat="43.3821167" lon="11.7847917"><ele>271.0</ele><time>2026-04-10T15:27:23.981Z</time></trkpt><trkpt lat="43.382205" lon="11.78477"><ele>271.0</ele><time>2026-04-10T15:27:25.979Z</time></trkpt><trkpt lat="43.38229" lon="11.7847533"><ele>271.0</ele><time>2026-04-10T15:27:27.979Z</time></trkpt><trkpt lat="43.3823583" lon="11.784735"><ele>271.0</ele><time>2026-04-10T15:27:29.973Z</time></trkpt><trkpt lat="43.3824433" lon="11.7846883"><ele>271.0</ele><time>2026-04-10T15:27:31.973Z</time></trkpt><trkpt lat="43.38254" lon="11.7846733"><ele>271.0</ele><time>2026-04-10T15:27:33.974Z</time></trkpt><trkpt lat="43.382615" lon="11.78467"><ele>271.0</ele><time>2026-04-10T15:27:35.978Z</time></trkpt><trkpt lat="43.3826833" lon="11.7846617"><ele>271.0</ele><time>2026-04-10T15:27:37.974Z</time></trkpt><trkpt lat="43.3827583" lon="11.784655"><ele>271.0</ele><time>2026-04-10T15:27:39.975Z</time></trkpt><trkpt lat="43.3828367" lon="11.784645"><ele>271.0</ele><time>2026-04-10T15:27:41.98Z</time></trkpt><trkpt lat="43.3829267" lon="11.7846383"><ele>271.0</ele><time>2026-04-10T15:27:43.977Z</time></trkpt><trkpt lat="43.383015" lon="11.7846217"><ele>271.0</ele><time>2026-04-10T15:27:45.979Z</time></trkpt><trkpt lat="43.383105" lon="11.7846133"><ele>270.8333333333333</ele><time>2026-04-10T15:27:47.978Z</time></trkpt><trkpt lat="43.383195" lon="11.78462"><ele>270.66666666666663</ele><time>2026-04-10T15:27:49.979Z</time></trkpt><trkpt lat="43.3832783" lon="11.78463"><ele>270.5</ele><time>2026-04-10T15:27:51.98Z</time></trkpt><trkpt lat="43.3833683" lon="11.7846267"><ele>270.3333333333333</ele><time>2026-04-10T15:27:53.978Z</time></trkpt><trkpt lat="43.3834617" lon="11.78458"><ele>270.1666666666667</ele><time>2026-04-10T15:27:55.977Z</time></trkpt><trkpt lat="43.3835383" lon="11.78453"><ele>270.0</ele><time>2026-04-10T15:27:57.978Z</time></trkpt><trkpt lat="43.3836217" lon="11.78449"><ele>270.0</ele><time>2026-04-10T15:27:59.979Z</time></trkpt><trkpt lat="43.3837" lon="11.784435"><ele>270.0</ele><time>2026-04-10T15:28:01.976Z</time></trkpt><trkpt lat="43.3837683" lon="11.7843883"><ele>270.0</ele><time>2026-04-10T15:28:03.977Z</time></trkpt><trkpt lat="43.3838433" lon="11.7843283"><ele>270.0</ele><time>2026-04-10T15:28:05.977Z</time></trkpt><trkpt lat="43.38391" lon="11.7842683"><ele>270.0</ele><time>2026-04-10T15:28:07.979Z</time></trkpt><trkpt lat="43.3839783" lon="11.78421"><ele>270.0</ele><time>2026-04-10T15:28:09.979Z</time></trkpt><trkpt lat="43.384055" lon="11.7841483"><ele>270.1666666666667</ele><time>2026-04-10T15:28:11.978Z</time></trkpt><trkpt lat="43.3841233" lon="11.7841"><ele>270.3333333333333</ele><time>2026-04-10T15:28:13.978Z</time></trkpt><trkpt lat="43.3841983" lon="11.7840517"><ele>270.5</ele><time>2026-04-10T15:28:15.978Z</time></trkpt><trkpt lat="43.3842717" lon="11.7840283"><ele>270.66666666666663</ele><time>2026-04-10T15:28:17.979Z</time></trkpt><trkpt lat="43.3843517" lon="11.78402"><ele>270.8333333333333</ele><time>2026-04-10T15:28:19.978Z</time></trkpt><trkpt lat="43.384435" lon="11.7840317"><ele>271.0</ele><time>2026-04-10T15:28:21.979Z</time></trkpt><trkpt lat="43.3845133" lon="11.7840583"><ele>271.0</ele><time>2026-04-10T15:28:23.976Z</time></trkpt><trkpt lat="43.38456" lon="11.7841367"><ele>271.0</ele><time>2026-04-10T15:28:25.976Z</time></trkpt><trkpt lat="43.3846067" lon="11.7842217"><ele>271.0</ele><time>2026-04-10T15:28:27.976Z</time></trkpt><trkpt lat="43.384645" lon="11.7843233"><ele>271.0</ele><time>2026-04-10T15:28:29.976Z</time></trkpt><trkpt lat="43.3847" lon="11.784415"><ele>271.0</ele><time>2026-04-10T15:28:31.979Z</time></trkpt><trkpt lat="43.38475" lon="11.7844933"><ele>271.0</ele><time>2026-04-10T15:28:33.976Z</time></trkpt><trkpt lat="43.3848017" lon="11.7845683"><ele>270.85714285714283</ele><time>2026-04-10T15:28:35.98Z</time></trkpt><trkpt lat="43.3848517" lon="11.7846467"><ele>270.7142857142857</ele><time>2026-04-10T15:28:37.979Z</time></trkpt><trkpt lat="43.3849017" lon="11.78472"><ele>270.57142857142856</ele><time>2026-04-10T15:28:39.977Z</time></trkpt><trkpt lat="43.3849467" lon="11.7847917"><ele>270.42857142857144</ele><time>2026-04-10T15:28:41.975Z</time></trkpt><trkpt lat="43.38499" lon="11.7848617"><ele>270.2857142857143</ele><time>2026-04-10T15:28:43.978Z</time></trkpt><trkpt lat="43.3850267" lon="11.7849333"><ele>270.1428571428571</ele><time>2026-04-10T15:28:45.979Z</time></trkpt><trkpt lat="43.38507" lon="11.78501"><ele>270.0</ele><time>2026-04-10T15:28:47.981Z</time></trkpt><trkpt lat="43.3851417" lon="11.7850917"><ele>270.0</ele><time>2026-04-10T15:28:50.979Z</time></trkpt><trkpt lat="43.3851967" lon="11.7851367"><ele>270.0</ele><time>2026-04-10T15:28:52.979Z</time></trkpt><trkpt lat="43.3852817" lon="11.7851733"><ele>270.0</ele><time>2026-04-10T15:28:55.977Z</time></trkpt><trkpt lat="43.3853717" lon="11.7851633"><ele>270.0</ele><time>2026-04-10T15:28:58.976Z</time></trkpt><trkpt lat="43.3854483" lon="11.7851033"><ele>270.0</ele><time>2026-04-10T15:29:01.977Z</time></trkpt><trkpt lat="43.3855183" lon="11.7850417"><ele>270.0</ele><time>2026-04-10T15:29:04.98Z</time></trkpt><trkpt lat="43.3855767" lon="11.78497"><ele>270.0</ele><time>2026-04-10T15:29:07.977Z</time></trkpt><trkpt lat="43.38562" lon="11.7848683"><ele>270.0</ele><time>2026-04-10T15:29:10.977Z</time></trkpt><trkpt lat="43.385665" lon="11.784765"><ele>270.0</ele><time>2026-04-10T15:29:13.979Z</time></trkpt><trkpt lat="43.385715" lon="11.7846483"><ele>270.0</ele><time>2026-04-10T15:29:16.978Z</time></trkpt><trkpt lat="43.3857517" lon="11.7845467"><ele>270.0</ele><time>2026-04-10T15:29:18.98Z</time></trkpt><trkpt lat="43.3858217" lon="11.7844367"><ele>270.6</ele><time>2026-04-10T15:29:20.978Z</time></trkpt><trkpt lat="43.3859083" lon="11.7843333"><ele>271.2</ele><time>2026-04-10T15:29:22.977Z</time></trkpt><trkpt lat="43.3860133" lon="11.7842367"><ele>271.8</ele><time>2026-04-10T15:29:24.977Z</time></trkpt><trkpt lat="43.3860767" lon="11.7841983"><ele>272.4</ele><time>2026-04-10T15:29:25.977Z</time></trkpt><trkpt lat="43.3861383" lon="11.7841717"><ele>273.0</ele><time>2026-04-10T15:29:26.979Z</time></trkpt><trkpt lat="43.3862517" lon="11.7841333"><ele>272.6</ele><time>2026-04-10T15:29:28.977Z</time></trkpt><trkpt lat="43.3863567" lon="11.7840867"><ele>272.20000000000005</ele><time>2026-04-10T15:29:30.979Z</time></trkpt><trkpt lat="43.38647" lon="11.784045"><ele>271.8</ele><time>2026-04-10T15:29:32.978Z</time></trkpt><trkpt lat="43.3865867" lon="11.7839883"><ele>271.40000000000003</ele><time>2026-04-10T15:29:34.977Z</time></trkpt><trkpt lat="43.3866483" lon="11.7839617"><ele>271.0</ele><time>2026-04-10T15:29:35.983Z</time></trkpt><trkpt lat="43.3867633" lon="11.7839317"><ele>271.0</ele><time>2026-04-10T15:29:37.978Z</time></trkpt><trkpt lat="43.386875" lon="11.7838983"><ele>271.0</ele><time>2026-04-10T15:29:39.979Z</time></trkpt><trkpt lat="43.3869917" lon="11.7838533"><ele>271.0</ele><time>2026-04-10T15:29:41.985Z</time></trkpt><trkpt lat="43.387105" lon="11.7838067"><ele>271.0</ele><time>2026-04-10T15:29:43.977Z</time></trkpt><trkpt lat="43.38721" lon="11.7837633"><ele>271.2</ele><time>2026-04-10T15:29:45.983Z</time></trkpt><trkpt lat="43.3873133" lon="11.78372"><ele>271.40000000000003</ele><time>2026-04-10T15:29:47.975Z</time></trkpt><trkpt lat="43.38742" lon="11.7836783"><ele>271.6</ele><time>2026-04-10T15:29:49.979Z</time></trkpt><trkpt lat="43.38752" lon="11.7836367"><ele>271.8</ele><time>2026-04-10T15:29:51.977Z</time></trkpt><trkpt lat="43.3876183" lon="11.7836"><ele>272.0</ele><time>2026-04-10T15:29:53.977Z</time></trkpt><trkpt lat="43.3877233" lon="11.7835583"><ele>272.0</ele><time>2026-04-10T15:29:55.981Z</time></trkpt><trkpt lat="43.3878283" lon="11.7835217"><ele>272.0</ele><time>2026-04-10T15:29:57.979Z</time></trkpt><trkpt lat="43.38793" lon="11.783475"><ele>272.0</ele><time>2026-04-10T15:29:59.981Z</time></trkpt><trkpt lat="43.3880333" lon="11.7834217"><ele>272.0</ele><time>2026-04-10T15:30:01.979Z</time></trkpt><trkpt lat="43.3881383" lon="11.783385"><ele>272.0</ele><time>2026-04-10T15:30:03.978Z</time></trkpt><trkpt lat="43.38824" lon="11.7833467"><ele>271.6</ele><time>2026-04-10T15:30:05.981Z</time></trkpt><trkpt lat="43.388345" lon="11.7833033"><ele>271.2</ele><time>2026-04-10T15:30:07.976Z</time></trkpt><trkpt lat="43.3884533" lon="11.7832567"><ele>270.8</ele><time>2026-04-10T15:30:09.976Z</time></trkpt><trkpt lat="43.3885567" lon="11.783215"><ele>270.4</ele><time>2026-04-10T15:30:11.979Z</time></trkpt><trkpt lat="43.3886467" lon="11.7831683"><ele>270.0</ele><time>2026-04-10T15:30:13.979Z</time></trkpt><trkpt lat="43.3887233" lon="11.7831033"><ele>270.0</ele><time>2026-04-10T15:30:15.98Z</time></trkpt><trkpt lat="43.3887917" lon="11.7830333"><ele>270.0</ele><time>2026-04-10T15:30:17.977Z</time></trkpt><trkpt lat="43.3888533" lon="11.78296"><ele>270.0</ele><time>2026-04-10T15:30:19.982Z</time></trkpt><trkpt lat="43.38891" lon="11.7828917"><ele>270.0</ele><time>2026-04-10T15:30:21.977Z</time></trkpt><trkpt lat="43.3889567" lon="11.7828233"><ele>270.0</ele><time>2026-04-10T15:30:23.976Z</time></trkpt><trkpt lat="43.389005" lon="11.78276"><ele>270.0</ele><time>2026-04-10T15:30:25.975Z</time></trkpt><trkpt lat="43.3890583" lon="11.7826983"><ele>270.0</ele><time>2026-04-10T15:30:27.977Z</time></trkpt><trkpt lat="43.38911" lon="11.7826467"><ele>270.1666666666667</ele><time>2026-04-10T15:30:29.977Z</time></trkpt><trkpt lat="43.3891617" lon="11.7825883"><ele>270.3333333333333</ele><time>2026-04-10T15:30:31.976Z</time></trkpt><trkpt lat="43.3892267" lon="11.7825"><ele>270.5</ele><time>2026-04-10T15:30:34.977Z</time></trkpt><trkpt lat="43.3892933" lon="11.782415"><ele>270.66666666666663</ele><time>2026-04-10T15:30:37.975Z</time></trkpt><trkpt lat="43.38934" lon="11.782355"><ele>270.8333333333333</ele><time>2026-04-10T15:30:39.977Z</time></trkpt><trkpt lat="43.3893933" lon="11.782285"><ele>271.0</ele><time>2026-04-10T15:30:41.977Z</time></trkpt><trkpt lat="43.3894467" lon="11.78222"><ele>271.0</ele><time>2026-04-10T15:30:43.977Z</time></trkpt><trkpt lat="43.3894967" lon="11.7821567"><ele>271.0</ele><time>2026-04-10T15:30:45.977Z</time></trkpt><trkpt lat="43.3895583" lon="11.7821"><ele>271.0</ele><time>2026-04-10T15:30:48.978Z</time></trkpt><trkpt lat="43.38964" lon="11.7821367"><ele>271.0</ele><time>2026-04-10T15:30:52.976Z</time></trkpt><trkpt lat="43.3896933" lon="11.7821883"><ele>271.0</ele><time>2026-04-10T15:30:54.979Z</time></trkpt><trkpt lat="43.3897517" lon="11.782245"><ele>271.0</ele><time>2026-04-10T15:30:56.981Z</time></trkpt><trkpt lat="43.3898083" lon="11.78231"><ele>271.0</ele><time>2026-04-10T15:30:58.977Z</time></trkpt><trkpt lat="43.3898733" lon="11.7823767"><ele>271.0</ele><time>2026-04-10T15:31:00.979Z</time></trkpt><trkpt lat="43.3899367" lon="11.78245"><ele>271.0</ele><time>2026-04-10T15:31:02.979Z</time></trkpt><trkpt lat="43.3900067" lon="11.782525"><ele>271.0</ele><time>2026-04-10T15:31:04.98Z</time></trkpt><trkpt lat="43.3900767" lon="11.7825967"><ele>271.0</ele><time>2026-04-10T15:31:06.979Z</time></trkpt><trkpt lat="43.3901483" lon="11.7826633"><ele>271.0</ele><time>2026-04-10T15:31:08.981Z</time></trkpt><trkpt lat="43.39022" lon="11.7827333"><ele>271.0</ele><time>2026-04-10T15:31:10.975Z</time></trkpt><trkpt lat="43.3902967" lon="11.7828083"><ele>270.8</ele><time>2026-04-10T15:31:12.978Z</time></trkpt><trkpt lat="43.39038" lon="11.7828817"><ele>270.6</ele><time>2026-04-10T15:31:14.977Z</time></trkpt><trkpt lat="43.390465" lon="11.78296"><ele>270.4</ele><time>2026-04-10T15:31:16.979Z</time></trkpt><trkpt lat="43.3905533" lon="11.7830383"><ele>270.2</ele><time>2026-04-10T15:31:18.98Z</time></trkpt><trkpt lat="43.3906383" lon="11.7831233"><ele>270.0</ele><time>2026-04-10T15:31:20.982Z</time></trkpt><trkpt lat="43.3907183" lon="11.783215"><ele>269.75</ele><time>2026-04-10T15:31:22.98Z</time></trkpt><trkpt lat="43.3908033" lon="11.78331"><ele>269.5</ele><time>2026-04-10T15:31:24.979Z</time></trkpt><trkpt lat="43.3908917" lon="11.7834117"><ele>269.25</ele><time>2026-04-10T15:31:26.978Z</time></trkpt><trkpt lat="43.39098" lon="11.7835117"><ele>269.0</ele><time>2026-04-10T15:31:28.98Z</time></trkpt><trkpt lat="43.3910767" lon="11.7836167"><ele>268.8571428571429</ele><time>2026-04-10T15:31:30.979Z</time></trkpt><trkpt lat="43.391125" lon="11.7836733"><ele>268.7142857142857</ele><time>2026-04-10T15:31:31.976Z</time></trkpt><trkpt lat="43.3911717" lon="11.7837367"><ele>268.57142857142856</ele><time>2026-04-10T15:31:32.978Z</time></trkpt><trkpt lat="43.3912183" lon="11.7837983"><ele>268.42857142857144</ele><time>2026-04-10T15:31:33.976Z</time></trkpt><trkpt lat="43.39127" lon="11.78386"><ele>268.2857142857143</ele><time>2026-04-10T15:31:34.978Z</time></trkpt><trkpt lat="43.3913217" lon="11.78392"><ele>268.14285714285717</ele><time>2026-04-10T15:31:35.98Z</time></trkpt><trkpt lat="43.3913717" lon="11.783985"><ele>268.0</ele><time>2026-04-10T15:31:36.981Z</time></trkpt><trkpt lat="43.3914217" lon="11.7840483"><ele>267.8571428571429</ele><time>2026-04-10T15:31:37.977Z</time></trkpt><trkpt lat="43.39147" lon="11.78411"><ele>267.7142857142857</ele><time>2026-04-10T15:31:38.98Z</time></trkpt><trkpt lat="43.3915183" lon="11.7841717"><ele>267.57142857142856</ele><time>2026-04-10T15:31:39.978Z</time></trkpt><trkpt lat="43.3915617" lon="11.784235"><ele>267.42857142857144</ele><time>2026-04-10T15:31:40.975Z</time></trkpt><trkpt lat="43.3916117" lon="11.7842933"><ele>267.2857142857143</ele><time>2026-04-10T15:31:41.978Z</time></trkpt><trkpt lat="43.3916617" lon="11.78435"><ele>267.14285714285717</ele><time>2026-04-10T15:31:42.976Z</time></trkpt><trkpt lat="43.3917083" lon="11.7844083"><ele>267.0</ele><time>2026-04-10T15:31:43.98Z</time></trkpt><trkpt lat="43.3917567" lon="11.7844667"><ele>267.0</ele><time>2026-04-10T15:31:44.979Z</time></trkpt><trkpt lat="43.3918483" lon="11.78458"><ele>267.0</ele><time>2026-04-10T15:31:46.979Z</time></trkpt><trkpt lat="43.3919317" lon="11.7846967"><ele>267.0</ele><time>2026-04-10T15:31:48.977Z</time></trkpt><trkpt lat="43.3920017" lon="11.78482"><ele>267.0</ele><time>2026-04-10T15:31:50.977Z</time></trkpt><trkpt lat="43.3920733" lon="11.78494"><ele>267.0</ele><time>2026-04-10T15:31:52.977Z</time></trkpt><trkpt lat="43.3921433" lon="11.7850483"><ele>267.0</ele><time>2026-04-10T15:31:54.979Z</time></trkpt><trkpt lat="43.3921967" lon="11.785165"><ele>267.0</ele><time>2026-04-10T15:31:56.98Z</time></trkpt><trkpt lat="43.3922367" lon="11.7852867"><ele>267.0</ele><time>2026-04-10T15:31:58.978Z</time></trkpt><trkpt lat="43.39227" lon="11.7854083"><ele>267.0</ele><time>2026-04-10T15:32:00.984Z</time></trkpt><trkpt lat="43.3923133" lon="11.7855217"><ele>267.0</ele><time>2026-04-10T15:32:02.981Z</time></trkpt><trkpt lat="43.392355" lon="11.7856433"><ele>267.0</ele><time>2026-04-10T15:32:04.976Z</time></trkpt><trkpt lat="43.3924017" lon="11.7857683"><ele>267.0</ele><time>2026-04-10T15:32:06.979Z</time></trkpt><trkpt lat="43.3924567" lon="11.7858967"><ele>267.0</ele><time>2026-04-10T15:32:08.978Z</time></trkpt><trkpt lat="43.3925383" lon="11.7860017"><ele>267.0</ele><time>2026-04-10T15:32:10.98Z</time></trkpt><trkpt lat="43.39263" lon="11.7860983"><ele>266.6666666666667</ele><time>2026-04-10T15:32:12.977Z</time></trkpt><trkpt lat="43.39271" lon="11.7861933"><ele>266.3333333333333</ele><time>2026-04-10T15:32:14.98Z</time></trkpt><trkpt lat="43.3927767" lon="11.7862767"><ele>266.0</ele><time>2026-04-10T15:32:16.98Z</time></trkpt><trkpt lat="43.3928583" lon="11.7862817"><ele>265.66666666666663</ele><time>2026-04-10T15:32:18.979Z</time></trkpt><trkpt lat="43.39291" lon="11.786205"><ele>265.3333333333333</ele><time>2026-04-10T15:32:20.979Z</time></trkpt><trkpt lat="43.392945" lon="11.7861267"><ele>265.0</ele><time>2026-04-10T15:32:23.978Z</time></trkpt><trkpt lat="43.3929967" lon="11.786055"><ele>264.0</ele><time>2026-04-10T15:32:29.976Z</time></trkpt><trkpt lat="43.39304" lon="11.7859867"><ele>263.0</ele><time>2026-04-10T15:32:32.978Z</time></trkpt><trkpt lat="43.3930583" lon="11.7858767"><ele>262.0</ele><time>2026-04-10T15:32:35.978Z</time></trkpt><trkpt lat="43.393075" lon="11.7857533"><ele>261.0</ele><time>2026-04-10T15:32:38.981Z</time></trkpt><trkpt lat="43.3930983" lon="11.7856483"><ele>260.0</ele><time>2026-04-10T15:32:40.976Z</time></trkpt><trkpt lat="43.393145" lon="11.7855183"><ele>259.0</ele><time>2026-04-10T15:32:42.976Z</time></trkpt><trkpt lat="43.3931883" lon="11.785355"><ele>259.0</ele><time>2026-04-10T15:32:44.976Z</time></trkpt><trkpt lat="43.3932033" lon="11.7852683"><ele>259.0</ele><time>2026-04-10T15:32:45.981Z</time></trkpt><trkpt lat="43.39321" lon="11.7851767"><ele>259.0</ele><time>2026-04-10T15:32:46.978Z</time></trkpt><trkpt lat="43.3932083" lon="11.785085"><ele>259.0</ele><time>2026-04-10T15:32:47.98Z</time></trkpt><trkpt lat="43.3931933" lon="11.7849183"><ele>259.0</ele><time>2026-04-10T15:32:49.977Z</time></trkpt><trkpt lat="43.3931917" lon="11.7847517"><ele>259.0</ele><time>2026-04-10T15:32:51.983Z</time></trkpt><trkpt lat="43.3932167" lon="11.7845883"><ele>259.0</ele><time>2026-04-10T15:32:53.978Z</time></trkpt><trkpt lat="43.3932367" lon="11.7844983"><ele>259.0</ele><time>2026-04-10T15:32:54.978Z</time></trkpt><trkpt lat="43.3932533" lon="11.7844017"><ele>259.0</ele><time>2026-04-10T15:32:55.981Z</time></trkpt><trkpt lat="43.39327" lon="11.784305"><ele>259.0</ele><time>2026-04-10T15:32:56.979Z</time></trkpt><trkpt lat="43.3932833" lon="11.78421"><ele>259.0</ele><time>2026-04-10T15:32:57.981Z</time></trkpt><trkpt lat="43.393295" lon="11.7841167"><ele>259.0</ele><time>2026-04-10T15:32:58.976Z</time></trkpt><trkpt lat="43.3933083" lon="11.7840267"><ele>259.0</ele><time>2026-04-10T15:32:59.977Z</time></trkpt><trkpt lat="43.3933167" lon="11.7839383"><ele>258.8</ele><time>2026-04-10T15:33:00.98Z</time></trkpt><trkpt lat="43.3933367" lon="11.783775"><ele>258.59999999999997</ele><time>2026-04-10T15:33:02.979Z</time></trkpt><trkpt lat="43.393355" lon="11.78363"><ele>258.4</ele><time>2026-04-10T15:33:04.982Z</time></trkpt><trkpt lat="43.3933817" lon="11.78352"><ele>258.2</ele><time>2026-04-10T15:33:06.981Z</time></trkpt><trkpt lat="43.3934033" lon="11.7834017"><ele>258.0</ele><time>2026-04-10T15:33:08.978Z</time></trkpt><trkpt lat="43.3934217" lon="11.7832883"><ele>258.2857142857143</ele><time>2026-04-10T15:33:10.978Z</time></trkpt><trkpt lat="43.3934433" lon="11.7831833"><ele>258.57142857142856</ele><time>2026-04-10T15:33:12.98Z</time></trkpt><trkpt lat="43.3934633" lon="11.7830967"><ele>258.8571428571429</ele><time>2026-04-10T15:33:14.985Z</time></trkpt><trkpt lat="43.3934833" lon="11.7829883"><ele>259.1428571428571</ele><time>2026-04-10T15:33:17.978Z</time></trkpt><trkpt lat="43.3935017" lon="11.7829"><ele>259.42857142857144</ele><time>2026-04-10T15:33:20.977Z</time></trkpt><trkpt lat="43.3935217" lon="11.7827983"><ele>259.7142857142857</ele><time>2026-04-10T15:33:24.981Z</time></trkpt><trkpt lat="43.3935417" lon="11.78271"><ele>260.0</ele><time>2026-04-10T15:33:27.979Z</time></trkpt><trkpt lat="43.3935583" lon="11.7826233"><ele>260.5714285714286</ele><time>2026-04-10T15:33:30.977Z</time></trkpt><trkpt lat="43.3935833" lon="11.7825433"><ele>261.14285714285717</ele><time>2026-04-10T15:33:33.977Z</time></trkpt><trkpt lat="43.3935967" lon="11.78245"><ele>261.7142857142857</ele><time>2026-04-10T15:33:36.978Z</time></trkpt><trkpt lat="43.3936067" lon="11.7823417"><ele>262.28571428571433</ele><time>2026-04-10T15:33:40.978Z</time></trkpt><trkpt lat="43.3936117" lon="11.7822367"><ele>262.8571428571429</ele><time>2026-04-10T15:33:44.979Z</time></trkpt><trkpt lat="43.3936333" lon="11.782155"><ele>263.42857142857144</ele><time>2026-04-10T15:33:47.98Z</time></trkpt><trkpt lat="43.3936533" lon="11.78207"><ele>264.0</ele><time>2026-04-10T15:33:50.981Z</time></trkpt><trkpt lat="43.393665" lon="11.781975"><ele>264.0</ele><time>2026-04-10T15:33:53.985Z</time></trkpt><trkpt lat="43.3936717" lon="11.7818833"><ele>264.0</ele><time>2026-04-10T15:33:56.979Z</time></trkpt><trkpt lat="43.3936883" lon="11.7817833"><ele>264.0</ele><time>2026-04-10T15:34:00.976Z</time></trkpt><trkpt lat="43.3936967" lon="11.7816833"><ele>264.0</ele><time>2026-04-10T15:34:04.978Z</time></trkpt><trkpt lat="43.3937067" lon="11.781585"><ele>264.0</ele><time>2026-04-10T15:34:07.978Z</time></trkpt><trkpt lat="43.393725" lon="11.781485"><ele>264.0</ele><time>2026-04-10T15:34:10.978Z</time></trkpt><trkpt lat="43.3937233" lon="11.7813833"><ele>264.0</ele><time>2026-04-10T15:34:13.978Z</time></trkpt><trkpt lat="43.3937167" lon="11.78127"><ele>264.59999999999997</ele><time>2026-04-10T15:34:16.977Z</time></trkpt><trkpt lat="43.3937167" lon="11.7811583"><ele>265.2</ele><time>2026-04-10T15:34:19.984Z</time></trkpt><trkpt lat="43.3937067" lon="11.781035"><ele>265.79999999999995</ele><time>2026-04-10T15:34:22.977Z</time></trkpt><trkpt lat="43.3936917" lon="11.7809317"><ele>266.4</ele><time>2026-04-10T15:34:24.978Z</time></trkpt><trkpt lat="43.393685" lon="11.7808067"><ele>267.0</ele><time>2026-04-10T15:34:26.978Z</time></trkpt><trkpt lat="43.3936917" lon="11.7806433"><ele>267.1666666666667</ele><time>2026-04-10T15:34:28.977Z</time></trkpt><trkpt lat="43.3937033" lon="11.7805517"><ele>267.3333333333333</ele><time>2026-04-10T15:34:29.978Z</time></trkpt><trkpt lat="43.3937217" lon="11.7804533"><ele>267.5</ele><time>2026-04-10T15:34:30.978Z</time></trkpt><trkpt lat="43.39374" lon="11.78035"><ele>267.66666666666663</ele><time>2026-04-10T15:34:31.978Z</time></trkpt><trkpt lat="43.3937633" lon="11.7802433"><ele>267.8333333333333</ele><time>2026-04-10T15:34:32.983Z</time></trkpt><trkpt lat="43.3937883" lon="11.7801283"><ele>268.0</ele><time>2026-04-10T15:34:33.977Z</time></trkpt><trkpt lat="43.3938167" lon="11.7800133"><ele>266.6</ele><time>2026-04-10T15:34:34.979Z</time></trkpt><trkpt lat="43.3938433" lon="11.779895"><ele>265.20000000000005</ele><time>2026-04-10T15:34:35.976Z</time></trkpt><trkpt lat="43.3938717" lon="11.7797717"><ele>263.8</ele><time>2026-04-10T15:34:36.978Z</time></trkpt><trkpt lat="43.3938983" lon="11.77965"><ele>262.40000000000003</ele><time>2026-04-10T15:34:37.979Z</time></trkpt><trkpt lat="43.3939283" lon="11.77953"><ele>261.0</ele><time>2026-04-10T15:34:38.98Z</time></trkpt><trkpt lat="43.3939567" lon="11.77941"><ele>260.8333333333333</ele><time>2026-04-10T15:34:39.977Z</time></trkpt><trkpt lat="43.39399" lon="11.7792983"><ele>260.6666666666667</ele><time>2026-04-10T15:34:40.98Z</time></trkpt><trkpt lat="43.3940267" lon="11.7791933"><ele>260.5</ele><time>2026-04-10T15:34:41.976Z</time></trkpt><trkpt lat="43.3940667" lon="11.7790983"><ele>260.33333333333337</ele><time>2026-04-10T15:34:42.98Z</time></trkpt><trkpt lat="43.3941033" lon="11.7790083"><ele>260.1666666666667</ele><time>2026-04-10T15:34:43.977Z</time></trkpt><trkpt lat="43.3941433" lon="11.7789233"><ele>260.0</ele><time>2026-04-10T15:34:44.982Z</time></trkpt><trkpt lat="43.3941783" lon="11.7788417"><ele>260.0</ele><time>2026-04-10T15:34:45.979Z</time></trkpt><trkpt lat="43.3942467" lon="11.7787117"><ele>260.0</ele><time>2026-04-10T15:34:47.977Z</time></trkpt><trkpt lat="43.3943017" lon="11.7786167"><ele>260.0</ele><time>2026-04-10T15:34:49.98Z</time></trkpt><trkpt lat="43.3943667" lon="11.77856"><ele>260.0</ele><time>2026-04-10T15:34:52.977Z</time></trkpt><trkpt lat="43.3944383" lon="11.778535"><ele>260.0</ele><time>2026-04-10T15:34:56.979Z</time></trkpt><trkpt lat="43.3945033" lon="11.7785467"><ele>260.0</ele><time>2026-04-10T15:34:59.978Z</time></trkpt><trkpt lat="43.394575" lon="11.778565"><ele>260.0</ele><time>2026-04-10T15:35:03.98Z</time></trkpt><trkpt lat="43.3946567" lon="11.7785733"><ele>260.0</ele><time>2026-04-10T15:35:07.981Z</time></trkpt><trkpt lat="43.394735" lon="11.778575"><ele>260.0</ele><time>2026-04-10T15:35:11.978Z</time></trkpt><trkpt lat="43.3948133" lon="11.778575"><ele>260.0</ele><time>2026-04-10T15:35:15.977Z</time></trkpt><trkpt lat="43.394895" lon="11.77858"><ele>260.0</ele><time>2026-04-10T15:35:19.975Z</time></trkpt><trkpt lat="43.3949583" lon="11.7785767"><ele>260.0</ele><time>2026-04-10T15:35:22.978Z</time></trkpt><trkpt lat="43.3950283" lon="11.77858"><ele>260.14285714285717</ele><time>2026-04-10T15:35:25.982Z</time></trkpt><trkpt lat="43.3951" lon="11.77858"><ele>260.2857142857143</ele><time>2026-04-10T15:35:28.98Z</time></trkpt><trkpt lat="43.3951733" lon="11.7785717"><ele>260.42857142857144</ele><time>2026-04-10T15:35:31.976Z</time></trkpt><trkpt lat="43.3952383" lon="11.778545"><ele>260.57142857142856</ele><time>2026-04-10T15:35:34.977Z</time></trkpt><trkpt lat="43.3953017" lon="11.778495"><ele>260.7142857142857</ele><time>2026-04-10T15:35:37.98Z</time></trkpt><trkpt lat="43.395365" lon="11.77843"><ele>260.8571428571429</ele><time>2026-04-10T15:35:41.979Z</time></trkpt><trkpt lat="43.3954283" lon="11.7783583"><ele>261.0</ele><time>2026-04-10T15:35:46.979Z</time></trkpt><trkpt lat="43.3954683" lon="11.7782833"><ele>261.7142857142857</ele><time>2026-04-10T15:35:49.98Z</time></trkpt><trkpt lat="43.3955133" lon="11.7782117"><ele>262.42857142857144</ele><time>2026-04-10T15:35:52.977Z</time></trkpt><trkpt lat="43.395565" lon="11.778145"><ele>263.1428571428571</ele><time>2026-04-10T15:35:55.977Z</time></trkpt><trkpt lat="43.3956217" lon="11.7780633"><ele>263.8571428571429</ele><time>2026-04-10T15:35:59.978Z</time></trkpt><trkpt lat="43.3956633" lon="11.7779967"><ele>264.57142857142856</ele><time>2026-04-10T15:36:02.978Z</time></trkpt><trkpt lat="43.3957067" lon="11.7779133"><ele>265.2857142857143</ele><time>2026-04-10T15:36:05.98Z</time></trkpt><trkpt lat="43.3957633" lon="11.77782"><ele>266.0</ele><time>2026-04-10T15:36:08.976Z</time></trkpt><trkpt lat="43.3958217" lon="11.7777167"><ele>266.2</ele><time>2026-04-10T15:36:11.976Z</time></trkpt><trkpt lat="43.395875" lon="11.7776233"><ele>266.40000000000003</ele><time>2026-04-10T15:36:13.98Z</time></trkpt><trkpt lat="43.3959167" lon="11.7775567"><ele>266.6</ele><time>2026-04-10T15:36:14.978Z</time></trkpt><trkpt lat="43.395985" lon="11.7774583"><ele>266.8</ele><time>2026-04-10T15:36:16.977Z</time></trkpt><trkpt lat="43.3960567" lon="11.77737"><ele>267.0</ele><time>2026-04-10T15:36:18.977Z</time></trkpt><trkpt lat="43.3961383" lon="11.77726"><ele>267.0</ele><time>2026-04-10T15:36:20.981Z</time></trkpt><trkpt lat="43.3962083" lon="11.7771567"><ele>267.0</ele><time>2026-04-10T15:36:21.977Z</time></trkpt><trkpt lat="43.3963183" lon="11.7770217"><ele>267.0</ele><time>2026-04-10T15:36:23.974Z</time></trkpt><trkpt lat="43.396385" lon="11.7769167"><ele>267.0</ele><time>2026-04-10T15:36:24.976Z</time></trkpt><trkpt lat="43.3964267" lon="11.7768417"><ele>267.0</ele><time>2026-04-10T15:36:25.976Z</time></trkpt><trkpt lat="43.39646" lon="11.77672"><ele>265.5</ele><time>2026-04-10T15:36:26.98Z</time></trkpt><trkpt lat="43.39651" lon="11.7765383"><ele>264.0</ele><time>2026-04-10T15:36:27.978Z</time></trkpt><trkpt lat="43.396545" lon="11.7764"><ele>262.5</ele><time>2026-04-10T15:36:28.977Z</time></trkpt><trkpt lat="43.396585" lon="11.776265"><ele>261.0</ele><time>2026-04-10T15:36:29.976Z</time></trkpt><trkpt lat="43.3966267" lon="11.776135"><ele>261.0</ele><time>2026-04-10T15:36:30.98Z</time></trkpt><trkpt lat="43.3966733" lon="11.776025"><ele>261.0</ele><time>2026-04-10T15:36:31.976Z</time></trkpt><trkpt lat="43.396725" lon="11.775925"><ele>261.0</ele><time>2026-04-10T15:36:32.982Z</time></trkpt><trkpt lat="43.3967783" lon="11.7758367"><ele>261.0</ele><time>2026-04-10T15:36:33.979Z</time></trkpt><trkpt lat="43.3968417" lon="11.775765"><ele>261.0</ele><time>2026-04-10T15:36:34.978Z</time></trkpt><trkpt lat="43.3969033" lon="11.7757033"><ele>261.0</ele><time>2026-04-10T15:36:35.976Z</time></trkpt><trkpt lat="43.396965" lon="11.77565"><ele>260.8</ele><time>2026-04-10T15:36:36.979Z</time></trkpt><trkpt lat="43.39702" lon="11.7756017"><ele>260.6</ele><time>2026-04-10T15:36:37.978Z</time></trkpt><trkpt lat="43.3971283" lon="11.7755217"><ele>260.4</ele><time>2026-04-10T15:36:39.975Z</time></trkpt><trkpt lat="43.3972267" lon="11.7754433"><ele>260.2</ele><time>2026-04-10T15:36:41.975Z</time></trkpt><trkpt lat="43.3973233" lon="11.7753683"><ele>260.0</ele><time>2026-04-10T15:36:43.979Z</time></trkpt><trkpt lat="43.397415" lon="11.7752883"><ele>259.83333333333337</ele><time>2026-04-10T15:36:45.982Z</time></trkpt><trkpt lat="43.3974983" lon="11.7752"><ele>259.6666666666667</ele><time>2026-04-10T15:36:47.975Z</time></trkpt><trkpt lat="43.3975817" lon="11.7751067"><ele>259.5</ele><time>2026-04-10T15:36:49.984Z</time></trkpt><trkpt lat="43.3976583" lon="11.77503"><ele>259.3333333333333</ele><time>2026-04-10T15:36:51.976Z</time></trkpt><trkpt lat="43.3977167" lon="11.7749883"><ele>259.16666666666663</ele><time>2026-04-10T15:36:53.979Z</time></trkpt><trkpt lat="43.3977767" lon="11.775025"><ele>259.0</ele><time>2026-04-10T15:36:56.98Z</time></trkpt><trkpt lat="43.3978217" lon="11.775125"><ele>258.8333333333333</ele><time>2026-04-10T15:36:59.977Z</time></trkpt><trkpt lat="43.397855" lon="11.7752067"><ele>258.66666666666663</ele><time>2026-04-10T15:37:01.981Z</time></trkpt><trkpt lat="43.3978917" lon="11.7753033"><ele>258.5</ele><time>2026-04-10T15:37:03.979Z</time></trkpt><trkpt lat="43.3979367" lon="11.7754033"><ele>258.3333333333333</ele><time>2026-04-10T15:37:05.978Z</time></trkpt><trkpt lat="43.3979867" lon="11.77551"><ele>258.1666666666667</ele><time>2026-04-10T15:37:07.977Z</time></trkpt><trkpt lat="43.3980383" lon="11.77562"><ele>258.0</ele><time>2026-04-10T15:37:09.977Z</time></trkpt><trkpt lat="43.39809" lon="11.77573"><ele>258.0</ele><time>2026-04-10T15:37:11.976Z</time></trkpt><trkpt lat="43.3981467" lon="11.775845"><ele>258.0</ele><time>2026-04-10T15:37:13.976Z</time></trkpt><trkpt lat="43.3982067" lon="11.7759567"><ele>258.0</ele><time>2026-04-10T15:37:15.976Z</time></trkpt><trkpt lat="43.3982683" lon="11.7760667"><ele>258.0</ele><time>2026-04-10T15:37:17.98Z</time></trkpt><trkpt lat="43.3983267" lon="11.7761683"><ele>258.0</ele><time>2026-04-10T15:37:19.977Z</time></trkpt><trkpt lat="43.3983817" lon="11.7762683"><ele>258.0</ele><time>2026-04-10T15:37:21.977Z</time></trkpt><trkpt lat="43.3984417" lon="11.7763733"><ele>258.0</ele><time>2026-04-10T15:37:23.977Z</time></trkpt><trkpt lat="43.3984983" lon="11.7764833"><ele>258.0</ele><time>2026-04-10T15:37:25.979Z</time></trkpt><trkpt lat="43.3985583" lon="11.7765917"><ele>258.0</ele><time>2026-04-10T15:37:27.977Z</time></trkpt><trkpt lat="43.3986083" lon="11.7767"><ele>258.0</ele><time>2026-04-10T15:37:29.982Z</time></trkpt><trkpt lat="43.3986533" lon="11.776805"><ele>258.0</ele><time>2026-04-10T15:37:31.978Z</time></trkpt><trkpt lat="43.3987" lon="11.776915"><ele>258.0</ele><time>2026-04-10T15:37:33.976Z</time></trkpt><trkpt lat="43.398755" lon="11.77702"><ele>258.0</ele><time>2026-04-10T15:37:35.978Z</time></trkpt><trkpt lat="43.39881" lon="11.777125"><ele>258.0</ele><time>2026-04-10T15:37:37.98Z</time></trkpt><trkpt lat="43.3988617" lon="11.7772283"><ele>258.0</ele><time>2026-04-10T15:37:39.979Z</time></trkpt><trkpt lat="43.3989133" lon="11.77733"><ele>258.1666666666667</ele><time>2026-04-10T15:37:41.981Z</time></trkpt><trkpt lat="43.39896" lon="11.7774317"><ele>258.3333333333333</ele><time>2026-04-10T15:37:43.977Z</time></trkpt><trkpt lat="43.3989883" lon="11.777525"><ele>258.5</ele><time>2026-04-10T15:37:45.978Z</time></trkpt><trkpt lat="43.398995" lon="11.77762"><ele>258.66666666666663</ele><time>2026-04-10T15:37:49.98Z</time></trkpt><trkpt lat="43.3989983" lon="11.7777183"><ele>258.8333333333333</ele><time>2026-04-10T15:37:52.977Z</time></trkpt><trkpt lat="43.3990083" lon="11.7778383"><ele>259.0</ele><time>2026-04-10T15:37:55.978Z</time></trkpt><trkpt lat="43.399065" lon="11.7779417"><ele>259.0</ele><time>2026-04-10T15:37:58.978Z</time></trkpt><trkpt lat="43.3991283" lon="11.7779817"><ele>259.0</ele><time>2026-04-10T15:38:00.978Z</time></trkpt><trkpt lat="43.3991967" lon="11.7779767"><ele>259.0</ele><time>2026-04-10T15:38:02.978Z</time></trkpt><trkpt lat="43.39926" lon="11.777935"><ele>259.0</ele><time>2026-04-10T15:38:04.976Z</time></trkpt><trkpt lat="43.3993083" lon="11.7778717"><ele>259.0</ele><time>2026-04-10T15:38:06.979Z</time></trkpt><trkpt lat="43.3993433" lon="11.7777833"><ele>259.0</ele><time>2026-04-10T15:38:08.978Z</time></trkpt><trkpt lat="43.39937" lon="11.7776733"><ele>259.0</ele><time>2026-04-10T15:38:10.978Z</time></trkpt><trkpt lat="43.3994" lon="11.7775533"><ele>259.16666666666663</ele><time>2026-04-10T15:38:12.975Z</time></trkpt><trkpt lat="43.3994417" lon="11.7774483"><ele>259.3333333333333</ele><time>2026-04-10T15:38:14.98Z</time></trkpt><trkpt lat="43.39949" lon="11.777355"><ele>259.5</ele><time>2026-04-10T15:38:16.976Z</time></trkpt><trkpt lat="43.3995383" lon="11.7772783"><ele>259.6666666666667</ele><time>2026-04-10T15:38:18.98Z</time></trkpt><trkpt lat="43.39958" lon="11.7771917"><ele>259.83333333333337</ele><time>2026-04-10T15:38:20.978Z</time></trkpt><trkpt lat="43.399625" lon="11.7770817"><ele>260.0</ele><time>2026-04-10T15:38:23.981Z</time></trkpt><trkpt lat="43.3996567" lon="11.7770017"><ele>260.33333333333337</ele><time>2026-04-10T15:38:25.981Z</time></trkpt><trkpt lat="43.3996933" lon="11.7769267"><ele>260.6666666666667</ele><time>2026-04-10T15:38:27.976Z</time></trkpt><trkpt lat="43.3997267" lon="11.7768467"><ele>261.0</ele><time>2026-04-10T15:38:29.977Z</time></trkpt><trkpt lat="43.3997717" lon="11.776735"><ele>261.3333333333333</ele><time>2026-04-10T15:38:32.981Z</time></trkpt><trkpt lat="43.3998117" lon="11.7766317"><ele>261.66666666666663</ele><time>2026-04-10T15:38:35.976Z</time></trkpt><trkpt lat="43.399855" lon="11.77653"><ele>262.0</ele><time>2026-04-10T15:38:38.978Z</time></trkpt><trkpt lat="43.3998967" lon="11.7764383"><ele>262.66666666666663</ele><time>2026-04-10T15:38:41.98Z</time></trkpt><trkpt lat="43.3999417" lon="11.7763467"><ele>263.3333333333333</ele><time>2026-04-10T15:38:44.976Z</time></trkpt><trkpt lat="43.399985" lon="11.776245"><ele>264.0</ele><time>2026-04-10T15:38:48.98Z</time></trkpt><trkpt lat="43.400035" lon="11.77614"><ele>264.6666666666667</ele><time>2026-04-10T15:38:51.974Z</time></trkpt><trkpt lat="43.4000883" lon="11.7760467"><ele>265.33333333333337</ele><time>2026-04-10T15:38:54.979Z</time></trkpt><trkpt lat="43.4001233" lon="11.7759583"><ele>266.0</ele><time>2026-04-10T15:38:56.98Z</time></trkpt><trkpt lat="43.40016" lon="11.7758767"><ele>266.0</ele><time>2026-04-10T15:38:58.979Z</time></trkpt><trkpt lat="43.4001917" lon="11.7757967"><ele>266.0</ele><time>2026-04-10T15:39:00.98Z</time></trkpt><trkpt lat="43.40022" lon="11.7756933"><ele>266.0</ele><time>2026-04-10T15:39:02.979Z</time></trkpt><trkpt lat="43.40026" lon="11.7756067"><ele>266.0</ele><time>2026-04-10T15:39:04.977Z</time></trkpt><trkpt lat="43.4002933" lon="11.775525"><ele>266.0</ele><time>2026-04-10T15:39:06.98Z</time></trkpt><trkpt lat="43.4003317" lon="11.7754167"><ele>266.0</ele><time>2026-04-10T15:39:08.981Z</time></trkpt><trkpt lat="43.4003717" lon="11.7753267"><ele>266.0</ele><time>2026-04-10T15:39:10.977Z</time></trkpt><trkpt lat="43.4004083" lon="11.77522"><ele>266.0</ele><time>2026-04-10T15:39:12.979Z</time></trkpt><trkpt lat="43.4004517" lon="11.77512"><ele>266.0</ele><time>2026-04-10T15:39:14.976Z</time></trkpt><trkpt lat="43.400495" lon="11.775005"><ele>266.0</ele><time>2026-04-10T15:39:16.979Z</time></trkpt><trkpt lat="43.4005417" lon="11.7748917"><ele>266.0</ele><time>2026-04-10T15:39:18.978Z</time></trkpt><trkpt lat="43.4005833" lon="11.7747683"><ele>266.0</ele><time>2026-04-10T15:39:20.981Z</time></trkpt><trkpt lat="43.4006233" lon="11.774635"><ele>266.0</ele><time>2026-04-10T15:39:22.976Z</time></trkpt><trkpt lat="43.4006767" lon="11.77451"><ele>266.0</ele><time>2026-04-10T15:39:24.976Z</time></trkpt><trkpt lat="43.4007183" lon="11.7744317"><ele>266.0</ele><time>2026-04-10T15:39:25.978Z</time></trkpt><trkpt lat="43.400755" lon="11.7743533"><ele>266.0</ele><time>2026-04-10T15:39:26.977Z</time></trkpt><trkpt lat="43.40079" lon="11.774275"><ele>266.0</ele><time>2026-04-10T15:39:27.977Z</time></trkpt><trkpt lat="43.4008317" lon="11.7742067"><ele>266.0</ele><time>2026-04-10T15:39:28.976Z</time></trkpt><trkpt lat="43.4008983" lon="11.774085"><ele>266.0</ele><time>2026-04-10T15:39:30.987Z</time></trkpt><trkpt lat="43.4009717" lon="11.7739617"><ele>266.0</ele><time>2026-04-10T15:39:32.982Z</time></trkpt><trkpt lat="43.40104" lon="11.7738567"><ele>266.0</ele><time>2026-04-10T15:39:34.981Z</time></trkpt><trkpt lat="43.4010983" lon="11.7737567"><ele>266.0</ele><time>2026-04-10T15:39:36.978Z</time></trkpt><trkpt lat="43.40115" lon="11.773665"><ele>266.0</ele><time>2026-04-10T15:39:38.977Z</time></trkpt><trkpt lat="43.4012083" lon="11.7735633"><ele>266.0</ele><time>2026-04-10T15:39:40.976Z</time></trkpt><trkpt lat="43.401265" lon="11.7734583"><ele>266.0</ele><time>2026-04-10T15:39:42.981Z</time></trkpt><trkpt lat="43.40132" lon="11.7733567"><ele>266.0</ele><time>2026-04-10T15:39:44.983Z</time></trkpt><trkpt lat="43.4013783" lon="11.77325"><ele>266.0</ele><time>2026-04-10T15:39:46.977Z</time></trkpt><trkpt lat="43.40146" lon="11.7731517"><ele>266.1666666666667</ele><time>2026-04-10T15:39:48.981Z</time></trkpt><trkpt lat="43.40151" lon="11.773045"><ele>266.33333333333337</ele><time>2026-04-10T15:39:50.977Z</time></trkpt><trkpt lat="43.4015567" lon="11.7729483"><ele>266.5</ele><time>2026-04-10T15:39:52.978Z</time></trkpt><trkpt lat="43.4016067" lon="11.772855"><ele>266.6666666666667</ele><time>2026-04-10T15:39:54.978Z</time></trkpt><trkpt lat="43.4016533" lon="11.7727533"><ele>266.8333333333333</ele><time>2026-04-10T15:39:56.983Z</time></trkpt><trkpt lat="43.4017083" lon="11.7726583"><ele>267.0</ele><time>2026-04-10T15:39:58.975Z</time></trkpt><trkpt lat="43.40177" lon="11.7725717"><ele>266.6666666666667</ele><time>2026-04-10T15:40:00.977Z</time></trkpt><trkpt lat="43.4018367" lon="11.7724933"><ele>266.3333333333333</ele><time>2026-04-10T15:40:02.981Z</time></trkpt><trkpt lat="43.4019067" lon="11.7724233"><ele>266.0</ele><time>2026-04-10T15:40:04.974Z</time></trkpt><trkpt lat="43.4019733" lon="11.7723517"><ele>265.66666666666663</ele><time>2026-04-10T15:40:06.978Z</time></trkpt><trkpt lat="43.4020417" lon="11.7722833"><ele>265.3333333333333</ele><time>2026-04-10T15:40:08.977Z</time></trkpt><trkpt lat="43.4021133" lon="11.7722167"><ele>265.0</ele><time>2026-04-10T15:40:10.979Z</time></trkpt><trkpt lat="43.4021917" lon="11.7721367"><ele>265.0</ele><time>2026-04-10T15:40:12.979Z</time></trkpt><trkpt lat="43.4022683" lon="11.77204"><ele>265.0</ele><time>2026-04-10T15:40:14.982Z</time></trkpt><trkpt lat="43.4023417" lon="11.7719633"><ele>265.0</ele><time>2026-04-10T15:40:16.977Z</time></trkpt><trkpt lat="43.4024233" lon="11.771875"><ele>265.0</ele><time>2026-04-10T15:40:18.98Z</time></trkpt><trkpt lat="43.4025017" lon="11.7717967"><ele>265.0</ele><time>2026-04-10T15:40:20.983Z</time></trkpt><trkpt lat="43.4025833" lon="11.7717167"><ele>264.8333333333333</ele><time>2026-04-10T15:40:22.979Z</time></trkpt><trkpt lat="43.4026617" lon="11.7716483"><ele>264.66666666666663</ele><time>2026-04-10T15:40:24.979Z</time></trkpt><trkpt lat="43.4027317" lon="11.77158"><ele>264.5</ele><time>2026-04-10T15:40:26.981Z</time></trkpt><trkpt lat="43.4027917" lon="11.7715217"><ele>264.3333333333333</ele><time>2026-04-10T15:40:28.979Z</time></trkpt><trkpt lat="43.4028533" lon="11.771455"><ele>264.1666666666667</ele><time>2026-04-10T15:40:30.977Z</time></trkpt><trkpt lat="43.4029083" lon="11.77139"><ele>264.0</ele><time>2026-04-10T15:40:32.979Z</time></trkpt><trkpt lat="43.402955" lon="11.7713267"><ele>264.0</ele><time>2026-04-10T15:40:34.975Z</time></trkpt><trkpt lat="43.4029967" lon="11.771235"><ele>264.0</ele><time>2026-04-10T15:40:36.976Z</time></trkpt><trkpt lat="43.40303" lon="11.771155"><ele>264.0</ele><time>2026-04-10T15:40:38.981Z</time></trkpt><trkpt lat="43.4030417" lon="11.77105"><ele>264.0</ele><time>2026-04-10T15:40:40.979Z</time></trkpt><trkpt lat="43.40304" lon="11.770945"><ele>264.0</ele><time>2026-04-10T15:40:42.978Z</time></trkpt><trkpt lat="43.4030467" lon="11.770845"><ele>264.0</ele><time>2026-04-10T15:40:44.979Z</time></trkpt><trkpt lat="43.4030517" lon="11.770745"><ele>264.0</ele><time>2026-04-10T15:40:46.978Z</time></trkpt><trkpt lat="43.4030467" lon="11.7706517"><ele>264.6666666666667</ele><time>2026-04-10T15:40:48.978Z</time></trkpt><trkpt lat="43.40305" lon="11.7705367"><ele>265.3333333333333</ele><time>2026-04-10T15:40:51.978Z</time></trkpt><trkpt lat="43.403055" lon="11.77043"><ele>266.0</ele><time>2026-04-10T15:40:54.978Z</time></trkpt><trkpt lat="43.4030567" lon="11.7703183"><ele>266.66666666666663</ele><time>2026-04-10T15:40:57.976Z</time></trkpt><trkpt lat="43.4030583" lon="11.77019"><ele>267.3333333333333</ele><time>2026-04-10T15:41:00.977Z</time></trkpt><trkpt lat="43.40306" lon="11.7700667"><ele>268.0</ele><time>2026-04-10T15:41:03.976Z</time></trkpt><trkpt lat="43.4030583" lon="11.7699433"><ele>268.42857142857144</ele><time>2026-04-10T15:41:06.977Z</time></trkpt><trkpt lat="43.403055" lon="11.7698467"><ele>268.85714285714283</ele><time>2026-04-10T15:41:08.976Z</time></trkpt><trkpt lat="43.4030517" lon="11.76974"><ele>269.2857142857143</ele><time>2026-04-10T15:41:10.977Z</time></trkpt><trkpt lat="43.4030467" lon="11.7696367"><ele>269.7142857142857</ele><time>2026-04-10T15:41:12.977Z</time></trkpt><trkpt lat="43.4030433" lon="11.76953"><ele>270.14285714285717</ele><time>2026-04-10T15:41:14.979Z</time></trkpt><trkpt lat="43.403055" lon="11.7694433"><ele>270.57142857142856</ele><time>2026-04-10T15:41:16.977Z</time></trkpt><trkpt lat="43.40307" lon="11.76934"><ele>271.0</ele><time>2026-04-10T15:41:18.975Z</time></trkpt><trkpt lat="43.4031067" lon="11.7692517"><ele>271.3333333333333</ele><time>2026-04-10T15:41:20.978Z</time></trkpt><trkpt lat="43.4031617" lon="11.7691817"><ele>271.66666666666663</ele><time>2026-04-10T15:41:22.977Z</time></trkpt><trkpt lat="43.4032283" lon="11.769135"><ele>272.0</ele><time>2026-04-10T15:41:24.978Z</time></trkpt><trkpt lat="43.4033167" lon="11.7690867"><ele>272.3333333333333</ele><time>2026-04-10T15:41:27.978Z</time></trkpt><trkpt lat="43.403385" lon="11.7690533"><ele>272.6666666666667</ele><time>2026-04-10T15:41:29.977Z</time></trkpt><trkpt lat="43.4034567" lon="11.7690217"><ele>273.0</ele><time>2026-04-10T15:41:31.976Z</time></trkpt><trkpt lat="43.4035283" lon="11.7689933"><ele>273.0</ele><time>2026-04-10T15:41:33.978Z</time></trkpt><trkpt lat="43.4036" lon="11.768965"><ele>273.0</ele><time>2026-04-10T15:41:35.976Z</time></trkpt><trkpt lat="43.40367" lon="11.7689383"><ele>273.0</ele><time>2026-04-10T15:41:37.977Z</time></trkpt><trkpt lat="43.4037383" lon="11.7689117"><ele>273.0</ele><time>2026-04-10T15:41:39.977Z</time></trkpt><trkpt lat="43.4038317" lon="11.7688733"><ele>273.0</ele><time>2026-04-10T15:41:42.979Z</time></trkpt><trkpt lat="43.403915" lon="11.7688383"><ele>273.0</ele><time>2026-04-10T15:41:45.978Z</time></trkpt><trkpt lat="43.4040283" lon="11.7687917"><ele>273.6666666666667</ele><time>2026-04-10T15:41:48.982Z</time></trkpt><trkpt lat="43.40411" lon="11.7687667"><ele>274.3333333333333</ele><time>2026-04-10T15:41:51.979Z</time></trkpt><trkpt lat="43.4041833" lon="11.7687317"><ele>275.0</ele><time>2026-04-10T15:41:53.977Z</time></trkpt><trkpt lat="43.4042533" lon="11.7687017"><ele>275.66666666666663</ele><time>2026-04-10T15:41:56.98Z</time></trkpt><trkpt lat="43.4043267" lon="11.76867"><ele>276.3333333333333</ele><time>2026-04-10T15:41:59.977Z</time></trkpt><trkpt lat="43.4044167" lon="11.7686333"><ele>277.0</ele><time>2026-04-10T15:42:02.978Z</time></trkpt><trkpt lat="43.40449" lon="11.7685767"><ele>277.16666666666663</ele><time>2026-04-10T15:42:05.982Z</time></trkpt><trkpt lat="43.4044967" lon="11.7684683"><ele>277.3333333333333</ele><time>2026-04-10T15:42:08.979Z</time></trkpt><trkpt lat="43.404475" lon="11.7683733"><ele>277.5</ele><time>2026-04-10T15:42:11.975Z</time></trkpt><trkpt lat="43.4044617" lon="11.7682733"><ele>277.6666666666667</ele><time>2026-04-10T15:42:14.978Z</time></trkpt><trkpt lat="43.4044783" lon="11.7681833"><ele>277.83333333333337</ele><time>2026-04-10T15:42:17.978Z</time></trkpt><trkpt lat="43.4044483" lon="11.7680733"><ele>278.0</ele><time>2026-04-10T15:42:22.976Z</time></trkpt><trkpt lat="43.4044317" lon="11.7679767"><ele>278.0</ele><time>2026-04-10T15:42:25.978Z</time></trkpt><trkpt lat="43.4044717" lon="11.7678817"><ele>278.0</ele><time>2026-04-10T15:42:28.981Z</time></trkpt><trkpt lat="43.4045333" lon="11.76781"><ele>278.0</ele><time>2026-04-10T15:42:31.977Z</time></trkpt><trkpt lat="43.4046067" lon="11.7677717"><ele>278.0</ele><time>2026-04-10T15:42:34.977Z</time></trkpt><trkpt lat="43.4046367" lon="11.767695"><ele>278.0</ele><time>2026-04-10T15:42:36.978Z</time></trkpt><trkpt lat="43.4047233" lon="11.76765"><ele>278.0</ele><time>2026-04-10T15:42:39.979Z</time></trkpt><trkpt lat="43.4047867" lon="11.7676233"><ele>278.6666666666667</ele><time>2026-04-10T15:42:41.978Z</time></trkpt><trkpt lat="43.4048667" lon="11.76759"><ele>279.33333333333337</ele><time>2026-04-10T15:42:45.98Z</time></trkpt><trkpt lat="43.4049283" lon="11.767565"><ele>280.0</ele><time>2026-04-10T15:42:47.978Z</time></trkpt><trkpt lat="43.40499" lon="11.7675"><ele>280.6666666666667</ele><time>2026-04-10T15:42:50.98Z</time></trkpt><trkpt lat="43.40504" lon="11.7673917"><ele>281.3333333333333</ele><time>2026-04-10T15:42:52.979Z</time></trkpt><trkpt lat="43.4050967" lon="11.7672883"><ele>282.0</ele><time>2026-04-10T15:42:54.977Z</time></trkpt><trkpt lat="43.4051033" lon="11.7671983"><ele>282.0</ele><time>2026-04-10T15:42:55.98Z</time></trkpt><trkpt lat="43.4051117" lon="11.767105"><ele>282.0</ele><time>2026-04-10T15:42:56.98Z</time></trkpt><trkpt lat="43.40512" lon="11.7670033"><ele>282.0</ele><time>2026-04-10T15:42:57.976Z</time></trkpt><trkpt lat="43.4051167" lon="11.7668983"><ele>282.0</ele><time>2026-04-10T15:42:58.977Z</time></trkpt><trkpt lat="43.4051133" lon="11.7667917"><ele>282.0</ele><time>2026-04-10T15:42:59.976Z</time></trkpt><trkpt lat="43.4051133" lon="11.7666767"><ele>282.0</ele><time>2026-04-10T15:43:00.976Z</time></trkpt><trkpt lat="43.4051117" lon="11.7665517"><ele>280.4</ele><time>2026-04-10T15:43:01.977Z</time></trkpt><trkpt lat="43.4051033" lon="11.7664233"><ele>278.79999999999995</ele><time>2026-04-10T15:43:02.977Z</time></trkpt><trkpt lat="43.4050967" lon="11.76629"><ele>277.2</ele><time>2026-04-10T15:43:03.976Z</time></trkpt><trkpt lat="43.4050917" lon="11.7661483"><ele>275.59999999999997</ele><time>2026-04-10T15:43:04.976Z</time></trkpt><trkpt lat="43.4050883" lon="11.7660167"><ele>274.0</ele><time>2026-04-10T15:43:05.978Z</time></trkpt><trkpt lat="43.405085" lon="11.7658967"><ele>273.0</ele><time>2026-04-10T15:43:06.978Z</time></trkpt><trkpt lat="43.4050817" lon="11.765785"><ele>272.0</ele><time>2026-04-10T15:43:07.977Z</time></trkpt><trkpt lat="43.40506" lon="11.7656783"><ele>271.0</ele><time>2026-04-10T15:43:08.981Z</time></trkpt><trkpt lat="43.4050183" lon="11.765585"><ele>270.0</ele><time>2026-04-10T15:43:09.982Z</time></trkpt><trkpt lat="43.4049683" lon="11.7655133"><ele>269.0</ele><time>2026-04-10T15:43:10.98Z</time></trkpt><trkpt lat="43.4049067" lon="11.76546"><ele>268.0</ele><time>2026-04-10T15:43:11.978Z</time></trkpt><trkpt lat="43.4048383" lon="11.7654083"><ele>268.0</ele><time>2026-04-10T15:43:12.977Z</time></trkpt><trkpt lat="43.4047717" lon="11.76537"><ele>268.0</ele><time>2026-04-10T15:43:13.979Z</time></trkpt><trkpt lat="43.4047083" lon="11.765335"><ele>268.0</ele><time>2026-04-10T15:43:14.984Z</time></trkpt><trkpt lat="43.4046433" lon="11.7653083"><ele>268.0</ele><time>2026-04-10T15:43:15.978Z</time></trkpt><trkpt lat="43.404575" lon="11.7652817"><ele>268.0</ele><time>2026-04-10T15:43:16.975Z</time></trkpt><trkpt lat="43.4045117" lon="11.7652517"><ele>268.0</ele><time>2026-04-10T15:43:17.983Z</time></trkpt><trkpt lat="43.4044517" lon="11.7652217"><ele>268.0</ele><time>2026-04-10T15:43:18.979Z</time></trkpt><trkpt lat="43.4043483" lon="11.7651633"><ele>268.16666666666663</ele><time>2026-04-10T15:43:20.983Z</time></trkpt><trkpt lat="43.4042633" lon="11.7651117"><ele>268.3333333333333</ele><time>2026-04-10T15:43:22.977Z</time></trkpt><trkpt lat="43.4042017" lon="11.76506"><ele>268.5</ele><time>2026-04-10T15:43:24.979Z</time></trkpt><trkpt lat="43.404145" lon="11.765005"><ele>268.6666666666667</ele><time>2026-04-10T15:43:26.984Z</time></trkpt><trkpt lat="43.40408" lon="11.76492"><ele>268.83333333333337</ele><time>2026-04-10T15:43:29.977Z</time></trkpt><trkpt lat="43.4040217" lon="11.7648267"><ele>269.0</ele><time>2026-04-10T15:43:32.978Z</time></trkpt><trkpt lat="43.4039667" lon="11.7647283"><ele>269.0</ele><time>2026-04-10T15:43:35.981Z</time></trkpt><trkpt lat="43.40393" lon="11.764655"><ele>269.0</ele><time>2026-04-10T15:43:37.976Z</time></trkpt><trkpt lat="43.4039" lon="11.7645767"><ele>269.0</ele><time>2026-04-10T15:43:39.979Z</time></trkpt><trkpt lat="43.4038617" lon="11.7644967"><ele>269.0</ele><time>2026-04-10T15:43:41.977Z</time></trkpt><trkpt lat="43.4038317" lon="11.764415"><ele>269.0</ele><time>2026-04-10T15:43:43.978Z</time></trkpt><trkpt lat="43.403785" lon="11.7643067"><ele>269.0</ele><time>2026-04-10T15:43:46.977Z</time></trkpt><trkpt lat="43.4037383" lon="11.7641983"><ele>269.0</ele><time>2026-04-10T15:43:49.979Z</time></trkpt><trkpt lat="43.4036867" lon="11.7641"><ele>270.6666666666667</ele><time>2026-04-10T15:43:52.98Z</time></trkpt><trkpt lat="43.4036383" lon="11.7639917"><ele>272.33333333333337</ele><time>2026-04-10T15:43:55.98Z</time></trkpt><trkpt lat="43.403595" lon="11.76392"><ele>274.0</ele><time>2026-04-10T15:43:57.986Z</time></trkpt><trkpt lat="43.403555" lon="11.76385"><ele>275.6666666666667</ele><time>2026-04-10T15:43:59.975Z</time></trkpt><trkpt lat="43.4035133" lon="11.7637817"><ele>277.3333333333333</ele><time>2026-04-10T15:44:01.979Z</time></trkpt><trkpt lat="43.4034517" lon="11.76369"><ele>279.0</ele><time>2026-04-10T15:44:04.975Z</time></trkpt><trkpt lat="43.4033917" lon="11.7636083"><ele>279.0</ele><time>2026-04-10T15:44:07.976Z</time></trkpt><trkpt lat="43.4033483" lon="11.7635133"><ele>279.0</ele><time>2026-04-10T15:44:10.977Z</time></trkpt><trkpt lat="43.40329" lon="11.7634217"><ele>279.0</ele><time>2026-04-10T15:44:13.978Z</time></trkpt><trkpt lat="43.4032283" lon="11.7633333"><ele>279.0</ele><time>2026-04-10T15:44:16.978Z</time></trkpt><trkpt lat="43.4031767" lon="11.7632767"><ele>279.0</ele><time>2026-04-10T15:44:18.98Z</time></trkpt><trkpt lat="43.40312" lon="11.763225"><ele>279.0</ele><time>2026-04-10T15:44:20.977Z</time></trkpt><trkpt lat="43.40305" lon="11.7631517"><ele>280.1666666666667</ele><time>2026-04-10T15:44:23.977Z</time></trkpt><trkpt lat="43.402985" lon="11.763075"><ele>281.3333333333333</ele><time>2026-04-10T15:44:26.979Z</time></trkpt><trkpt lat="43.40293" lon="11.763"><ele>282.5</ele><time>2026-04-10T15:44:29.976Z</time></trkpt><trkpt lat="43.4028767" lon="11.7629133"><ele>283.66666666666663</ele><time>2026-04-10T15:44:34.979Z</time></trkpt><trkpt lat="43.4028133" lon="11.7628367"><ele>284.8333333333333</ele><time>2026-04-10T15:44:37.983Z</time></trkpt><trkpt lat="43.4027567" lon="11.7627883"><ele>286.0</ele><time>2026-04-10T15:44:39.98Z</time></trkpt><trkpt lat="43.40269" lon="11.76273"><ele>286.2857142857143</ele><time>2026-04-10T15:44:42.979Z</time></trkpt><trkpt lat="43.4026367" lon="11.76267"><ele>286.57142857142856</ele><time>2026-04-10T15:44:45.977Z</time></trkpt><trkpt lat="43.4025783" lon="11.762615"><ele>286.8571428571429</ele><time>2026-04-10T15:44:48.979Z</time></trkpt><trkpt lat="43.4025333" lon="11.7625533"><ele>287.1428571428571</ele><time>2026-04-10T15:44:51.984Z</time></trkpt><trkpt lat="43.402495" lon="11.76248"><ele>287.42857142857144</ele><time>2026-04-10T15:44:55.981Z</time></trkpt><trkpt lat="43.402445" lon="11.7623883"><ele>287.7142857142857</ele><time>2026-04-10T15:44:59.976Z</time></trkpt><trkpt lat="43.4023933" lon="11.7622967"><ele>288.0</ele><time>2026-04-10T15:45:02.977Z</time></trkpt><trkpt lat="43.402345" lon="11.7622167"><ele>288.00000000000006</ele><time>2026-04-10T15:45:05.979Z</time></trkpt><trkpt lat="43.4022917" lon="11.76217"><ele>288.0</ele><time>2026-04-10T15:45:07.976Z</time></trkpt><trkpt lat="43.40224" lon="11.7621117"><ele>288.0</ele><time>2026-04-10T15:45:09.983Z</time></trkpt><trkpt lat="43.40219" lon="11.762055"><ele>288.0</ele><time>2026-04-10T15:45:11.977Z</time></trkpt><trkpt lat="43.4021467" lon="11.761985"><ele>288.0</ele><time>2026-04-10T15:45:13.98Z</time></trkpt><trkpt lat="43.4021067" lon="11.7619167"><ele>288.00000000000006</ele><time>2026-04-10T15:45:15.978Z</time></trkpt><trkpt lat="43.402065" lon="11.76178"><ele>288.0</ele><time>2026-04-10T15:45:18.979Z</time></trkpt><trkpt lat="43.40209" lon="11.7616633"><ele>288.0</ele><time>2026-04-10T15:45:20.977Z</time></trkpt><trkpt lat="43.402145" lon="11.761555"><ele>288.0</ele><time>2026-04-10T15:45:22.979Z</time></trkpt><trkpt lat="43.402195" lon="11.7614017"><ele>288.0</ele><time>2026-04-10T15:45:24.976Z</time></trkpt><trkpt lat="43.4022267" lon="11.7613183"><ele>288.0</ele><time>2026-04-10T15:45:25.977Z</time></trkpt><trkpt lat="43.4022567" lon="11.7612283"><ele>288.0</ele><time>2026-04-10T15:45:26.977Z</time></trkpt><trkpt lat="43.402275" lon="11.76114"><ele>288.0</ele><time>2026-04-10T15:45:27.977Z</time></trkpt><trkpt lat="43.4023" lon="11.76105"><ele>286.8333333333333</ele><time>2026-04-10T15:45:28.975Z</time></trkpt><trkpt lat="43.4023267" lon="11.7609633"><ele>285.6666666666667</ele><time>2026-04-10T15:45:29.977Z</time></trkpt><trkpt lat="43.4023533" lon="11.7608767"><ele>284.5</ele><time>2026-04-10T15:45:30.979Z</time></trkpt><trkpt lat="43.4023817" lon="11.76079"><ele>283.33333333333337</ele><time>2026-04-10T15:45:31.98Z</time></trkpt><trkpt lat="43.4024083" lon="11.76071"><ele>282.1666666666667</ele><time>2026-04-10T15:45:32.98Z</time></trkpt><trkpt lat="43.4024433" lon="11.760545"><ele>281.0</ele><time>2026-04-10T15:45:34.976Z</time></trkpt><trkpt lat="43.4024383" lon="11.7603933"><ele>281.0</ele><time>2026-04-10T15:45:36.976Z</time></trkpt><trkpt lat="43.402405" lon="11.7602617"><ele>281.0</ele><time>2026-04-10T15:45:38.978Z</time></trkpt><trkpt lat="43.402355" lon="11.7601583"><ele>281.0</ele><time>2026-04-10T15:45:40.976Z</time></trkpt><trkpt lat="43.4023133" lon="11.7600633"><ele>281.0</ele><time>2026-04-10T15:45:42.977Z</time></trkpt><trkpt lat="43.4022767" lon="11.7599767"><ele>281.0</ele><time>2026-04-10T15:45:44.982Z</time></trkpt><trkpt lat="43.4022467" lon="11.759895"><ele>281.0</ele><time>2026-04-10T15:45:46.978Z</time></trkpt><trkpt lat="43.4022167" lon="11.7598067"><ele>281.33333333333337</ele><time>2026-04-10T15:45:48.981Z</time></trkpt><trkpt lat="43.4021883" lon="11.7597233"><ele>281.6666666666667</ele><time>2026-04-10T15:45:50.98Z</time></trkpt><trkpt lat="43.402195" lon="11.759595"><ele>282.0</ele><time>2026-04-10T15:45:53.98Z</time></trkpt><trkpt lat="43.402225" lon="11.7595117"><ele>282.3333333333333</ele><time>2026-04-10T15:45:55.977Z</time></trkpt><trkpt lat="43.4022667" lon="11.7594317"><ele>282.66666666666663</ele><time>2026-04-10T15:45:57.982Z</time></trkpt><trkpt lat="43.4023117" lon="11.7593483"><ele>283.0</ele><time>2026-04-10T15:45:59.978Z</time></trkpt><trkpt lat="43.40236" lon="11.7592667"><ele>283.5</ele><time>2026-04-10T15:46:01.978Z</time></trkpt><trkpt lat="43.4024117" lon="11.75919"><ele>284.0</ele><time>2026-04-10T15:46:03.979Z</time></trkpt><trkpt lat="43.40246" lon="11.7590967"><ele>284.5</ele><time>2026-04-10T15:46:05.977Z</time></trkpt><trkpt lat="43.4025083" lon="11.759005"><ele>285.0</ele><time>2026-04-10T15:46:07.978Z</time></trkpt><trkpt lat="43.4025533" lon="11.7589033"><ele>285.5</ele><time>2026-04-10T15:46:09.981Z</time></trkpt><trkpt lat="43.4026017" lon="11.7588033"><ele>286.0</ele><time>2026-04-10T15:46:11.977Z</time></trkpt><trkpt lat="43.4026467" lon="11.7587067"><ele>285.99999999999994</ele><time>2026-04-10T15:46:13.978Z</time></trkpt><trkpt lat="43.4026767" lon="11.758605"><ele>286.0</ele><time>2026-04-10T15:46:15.979Z</time></trkpt><trkpt lat="43.40269" lon="11.7585067"><ele>286.0</ele><time>2026-04-10T15:46:17.976Z</time></trkpt><trkpt lat="43.4026883" lon="11.7584067"><ele>286.0</ele><time>2026-04-10T15:46:19.978Z</time></trkpt><trkpt lat="43.40267" lon="11.7583117"><ele>286.0</ele><time>2026-04-10T15:46:21.979Z</time></trkpt><trkpt lat="43.4026583" lon="11.7582183"><ele>285.99999999999994</ele><time>2026-04-10T15:46:23.978Z</time></trkpt><trkpt lat="43.402645" lon="11.7581167"><ele>286.0</ele><time>2026-04-10T15:46:25.977Z</time></trkpt><trkpt lat="43.4026367" lon="11.7580167"><ele>286.3333333333333</ele><time>2026-04-10T15:46:27.976Z</time></trkpt><trkpt lat="43.4026267" lon="11.7579217"><ele>286.66666666666663</ele><time>2026-04-10T15:46:29.979Z</time></trkpt><trkpt lat="43.40262" lon="11.757835"><ele>287.0</ele><time>2026-04-10T15:46:31.982Z</time></trkpt><trkpt lat="43.4026083" lon="11.7577167"><ele>287.3333333333333</ele><time>2026-04-10T15:46:34.977Z</time></trkpt><trkpt lat="43.40259" lon="11.7575883"><ele>287.6666666666667</ele><time>2026-04-10T15:46:37.978Z</time></trkpt><trkpt lat="43.40258" lon="11.7574667"><ele>288.0</ele><time>2026-04-10T15:46:40.976Z</time></trkpt><trkpt lat="43.4025767" lon="11.7573783"><ele>288.3333333333333</ele><time>2026-04-10T15:46:43.977Z</time></trkpt><trkpt lat="43.40256" lon="11.757285"><ele>288.6666666666667</ele><time>2026-04-10T15:46:46.977Z</time></trkpt><trkpt lat="43.402545" lon="11.7571733"><ele>289.0</ele><time>2026-04-10T15:46:49.977Z</time></trkpt><trkpt lat="43.40253" lon="11.7570633"><ele>289.33333333333337</ele><time>2026-04-10T15:46:52.977Z</time></trkpt><trkpt lat="43.4025217" lon="11.7569617"><ele>289.6666666666667</ele><time>2026-04-10T15:46:55.977Z</time></trkpt><trkpt lat="43.4025183" lon="11.75686"><ele>290.0</ele><time>2026-04-10T15:46:59.976Z</time></trkpt><trkpt lat="43.4025083" lon="11.7567567"><ele>290.6666666666667</ele><time>2026-04-10T15:47:03.976Z</time></trkpt><trkpt lat="43.4025033" lon="11.756665"><ele>291.33333333333337</ele><time>2026-04-10T15:47:06.979Z</time></trkpt><trkpt lat="43.402485" lon="11.7565567"><ele>292.0</ele><time>2026-04-10T15:47:09.974Z</time></trkpt><trkpt lat="43.4024683" lon="11.7564433"><ele>292.6666666666667</ele><time>2026-04-10T15:47:12.978Z</time></trkpt><trkpt lat="43.4024517" lon="11.7563567"><ele>293.3333333333333</ele><time>2026-04-10T15:47:15.974Z</time></trkpt><trkpt lat="43.4024033" lon="11.756295"><ele>294.0</ele><time>2026-04-10T15:47:19.976Z</time></trkpt><trkpt lat="43.4023067" lon="11.7562883"><ele>294.0</ele><time>2026-04-10T15:47:22.979Z</time></trkpt><trkpt lat="43.4022117" lon="11.756305"><ele>294.0</ele><time>2026-04-10T15:47:24.981Z</time></trkpt><trkpt lat="43.4020933" lon="11.7563333"><ele>294.0</ele><time>2026-04-10T15:47:26.982Z</time></trkpt><trkpt lat="43.4020217" lon="11.7563467"><ele>294.0</ele><time>2026-04-10T15:47:27.978Z</time></trkpt><trkpt lat="43.4019483" lon="11.7563633"><ele>294.0</ele><time>2026-04-10T15:47:28.979Z</time></trkpt><trkpt lat="43.4018717" lon="11.75638"><ele>294.0</ele><time>2026-04-10T15:47:29.978Z</time></trkpt><trkpt lat="43.401795" lon="11.7564017"><ele>293.0</ele><time>2026-04-10T15:47:30.981Z</time></trkpt><trkpt lat="43.4017117" lon="11.7564233"><ele>292.0</ele><time>2026-04-10T15:47:31.977Z</time></trkpt><trkpt lat="43.4016267" lon="11.75645"><ele>291.0</ele><time>2026-04-10T15:47:32.981Z</time></trkpt><trkpt lat="43.4015383" lon="11.7564767"><ele>290.0</ele><time>2026-04-10T15:47:33.979Z</time></trkpt><trkpt lat="43.4014467" lon="11.7564983"><ele>289.0</ele><time>2026-04-10T15:47:34.978Z</time></trkpt><trkpt lat="43.401355" lon="11.7565217"><ele>288.0</ele><time>2026-04-10T15:47:35.98Z</time></trkpt><trkpt lat="43.4012633" lon="11.756545"><ele>286.8</ele><time>2026-04-10T15:47:36.979Z</time></trkpt><trkpt lat="43.4011733" lon="11.7565717"><ele>285.6</ele><time>2026-04-10T15:47:37.978Z</time></trkpt><trkpt lat="43.4010833" lon="11.7566"><ele>284.4</ele><time>2026-04-10T15:47:38.976Z</time></trkpt><trkpt lat="43.4009917" lon="11.756625"><ele>283.2</ele><time>2026-04-10T15:47:39.977Z</time></trkpt><trkpt lat="43.4008983" lon="11.7566483"><ele>282.0</ele><time>2026-04-10T15:47:40.976Z</time></trkpt><trkpt lat="43.4008067" lon="11.7566733"><ele>282.0</ele><time>2026-04-10T15:47:41.976Z</time></trkpt><trkpt lat="43.400715" lon="11.7566883"><ele>282.0</ele><time>2026-04-10T15:47:42.976Z</time></trkpt><trkpt lat="43.4006317" lon="11.7566917"><ele>282.0</ele><time>2026-04-10T15:47:43.978Z</time></trkpt><trkpt lat="43.4005517" lon="11.756685"><ele>282.0</ele><time>2026-04-10T15:47:44.978Z</time></trkpt><trkpt lat="43.4004767" lon="11.75666"><ele>282.0</ele><time>2026-04-10T15:47:45.976Z</time></trkpt><trkpt lat="43.400405" lon="11.7566067"><ele>282.0</ele><time>2026-04-10T15:47:46.981Z</time></trkpt><trkpt lat="43.4003417" lon="11.75654"><ele>281.1666666666667</ele><time>2026-04-10T15:47:47.98Z</time></trkpt><trkpt lat="43.400285" lon="11.7564617"><ele>280.3333333333333</ele><time>2026-04-10T15:47:48.977Z</time></trkpt><trkpt lat="43.400235" lon="11.7563717"><ele>279.5</ele><time>2026-04-10T15:47:49.98Z</time></trkpt><trkpt lat="43.4001883" lon="11.7562733"><ele>278.66666666666663</ele><time>2026-04-10T15:47:50.982Z</time></trkpt><trkpt lat="43.400145" lon="11.7561733"><ele>277.8333333333333</ele><time>2026-04-10T15:47:51.979Z</time></trkpt><trkpt lat="43.4000967" lon="11.7560717"><ele>277.0</ele><time>2026-04-10T15:47:52.975Z</time></trkpt><trkpt lat="43.4000467" lon="11.7559717"><ele>276.8</ele><time>2026-04-10T15:47:53.975Z</time></trkpt><trkpt lat="43.3999933" lon="11.75587"><ele>276.6</ele><time>2026-04-10T15:47:54.978Z</time></trkpt><trkpt lat="43.39994" lon="11.755765"><ele>276.40000000000003</ele><time>2026-04-10T15:47:55.98Z</time></trkpt><trkpt lat="43.39988" lon="11.75566"><ele>276.2</ele><time>2026-04-10T15:47:56.981Z</time></trkpt><trkpt lat="43.3998233" lon="11.755555"><ele>276.0</ele><time>2026-04-10T15:47:57.979Z</time></trkpt><trkpt lat="43.399765" lon="11.755445"><ele>276.0</ele><time>2026-04-10T15:47:58.977Z</time></trkpt><trkpt lat="43.3997067" lon="11.755335"><ele>276.0</ele><time>2026-04-10T15:47:59.975Z</time></trkpt><trkpt lat="43.3996483" lon="11.7552283"><ele>276.0</ele><time>2026-04-10T15:48:00.976Z</time></trkpt><trkpt lat="43.3995883" lon="11.7551217"><ele>276.0</ele><time>2026-04-10T15:48:01.981Z</time></trkpt><trkpt lat="43.39953" lon="11.7550183"><ele>276.0</ele><time>2026-04-10T15:48:02.977Z</time></trkpt><trkpt lat="43.3994733" lon="11.75492"><ele>275.8333333333333</ele><time>2026-04-10T15:48:03.977Z</time></trkpt><trkpt lat="43.3994233" lon="11.7548267"><ele>275.6666666666667</ele><time>2026-04-10T15:48:04.976Z</time></trkpt><trkpt lat="43.39938" lon="11.754735"><ele>275.5</ele><time>2026-04-10T15:48:05.977Z</time></trkpt><trkpt lat="43.399335" lon="11.7546483"><ele>275.33333333333337</ele><time>2026-04-10T15:48:06.979Z</time></trkpt><trkpt lat="43.3992867" lon="11.7545633"><ele>275.1666666666667</ele><time>2026-04-10T15:48:07.978Z</time></trkpt><trkpt lat="43.399245" lon="11.7544883"><ele>275.0</ele><time>2026-04-10T15:48:08.981Z</time></trkpt><trkpt lat="43.399175" lon="11.7543533"><ele>275.0</ele><time>2026-04-10T15:48:10.979Z</time></trkpt><trkpt lat="43.3991133" lon="11.75424"><ele>275.0</ele><time>2026-04-10T15:48:12.98Z</time></trkpt><trkpt lat="43.3990633" lon="11.75415"><ele>275.0</ele><time>2026-04-10T15:48:14.98Z</time></trkpt><trkpt lat="43.39903" lon="11.7540717"><ele>275.0</ele><time>2026-04-10T15:48:16.975Z</time></trkpt><trkpt lat="43.3989967" lon="11.7539933"><ele>275.0</ele><time>2026-04-10T15:48:18.977Z</time></trkpt><trkpt lat="43.3989517" lon="11.7539267"><ele>275.0</ele><time>2026-04-10T15:48:20.983Z</time></trkpt><trkpt lat="43.39889" lon="11.7538267"><ele>275.0</ele><time>2026-04-10T15:48:23.979Z</time></trkpt><trkpt lat="43.39885" lon="11.7537583"><ele>275.0</ele><time>2026-04-10T15:48:25.978Z</time></trkpt><trkpt lat="43.3987933" lon="11.7536567"><ele>275.0</ele><time>2026-04-10T15:48:28.977Z</time></trkpt><trkpt lat="43.39875" lon="11.7535917"><ele>275.0</ele><time>2026-04-10T15:48:30.981Z</time></trkpt><trkpt lat="43.3986917" lon="11.753495"><ele>275.0</ele><time>2026-04-10T15:48:33.976Z</time></trkpt><trkpt lat="43.398635" lon="11.7534017"><ele>275.0</ele><time>2026-04-10T15:48:36.978Z</time></trkpt><trkpt lat="43.398585" lon="11.753315"><ele>275.83333333333337</ele><time>2026-04-10T15:48:39.978Z</time></trkpt><trkpt lat="43.3985333" lon="11.7532217"><ele>276.6666666666667</ele><time>2026-04-10T15:48:42.978Z</time></trkpt><trkpt lat="43.39848" lon="11.7531333"><ele>277.5</ele><time>2026-04-10T15:48:45.977Z</time></trkpt><trkpt lat="43.3984217" lon="11.7530467"><ele>278.3333333333333</ele><time>2026-04-10T15:48:48.978Z</time></trkpt><trkpt lat="43.398375" lon="11.752955"><ele>279.16666666666663</ele><time>2026-04-10T15:48:51.976Z</time></trkpt><trkpt lat="43.39832" lon="11.75287"><ele>280.0</ele><time>2026-04-10T15:48:54.977Z</time></trkpt><trkpt lat="43.3982717" lon="11.752785"><ele>280.0</ele><time>2026-04-10T15:48:57.977Z</time></trkpt><trkpt lat="43.3981933" lon="11.75272"><ele>280.0</ele><time>2026-04-10T15:49:11.978Z</time></trkpt><trkpt lat="43.39813" lon="11.7527233"><ele>280.0</ele><time>2026-04-10T15:49:16.976Z</time></trkpt><trkpt lat="43.39806" lon="11.7527933"><ele>280.0</ele><time>2026-04-10T15:49:19.975Z</time></trkpt><trkpt lat="43.3979983" lon="11.7528367"><ele>280.0</ele><time>2026-04-10T15:49:21.977Z</time></trkpt><trkpt lat="43.3979333" lon="11.7528867"><ele>280.0</ele><time>2026-04-10T15:49:23.978Z</time></trkpt><trkpt lat="43.3978633" lon="11.7529417"><ele>279.8</ele><time>2026-04-10T15:49:25.979Z</time></trkpt><trkpt lat="43.3977867" lon="11.7530017"><ele>279.6</ele><time>2026-04-10T15:49:27.976Z</time></trkpt><trkpt lat="43.397705" lon="11.75306"><ele>279.4</ele><time>2026-04-10T15:49:29.978Z</time></trkpt><trkpt lat="43.3976133" lon="11.7531083"><ele>279.2</ele><time>2026-04-10T15:49:31.978Z</time></trkpt><trkpt lat="43.3975167" lon="11.75309"><ele>279.0</ele><time>2026-04-10T15:49:33.981Z</time></trkpt><trkpt lat="43.3974267" lon="11.7530333"><ele>279.0</ele><time>2026-04-10T15:49:35.978Z</time></trkpt><trkpt lat="43.3973417" lon="11.7529717"><ele>279.0</ele><time>2026-04-10T15:49:37.98Z</time></trkpt><trkpt lat="43.397255" lon="11.7529117"><ele>279.0</ele><time>2026-04-10T15:49:39.981Z</time></trkpt><trkpt lat="43.39717" lon="11.7528467"><ele>279.0</ele><time>2026-04-10T15:49:41.978Z</time></trkpt><trkpt lat="43.39709" lon="11.7527783"><ele>279.0</ele><time>2026-04-10T15:49:43.978Z</time></trkpt><trkpt lat="43.39701" lon="11.7526933"><ele>279.4</ele><time>2026-04-10T15:49:45.979Z</time></trkpt><trkpt lat="43.3969517" lon="11.752575"><ele>279.79999999999995</ele><time>2026-04-10T15:49:47.98Z</time></trkpt><trkpt lat="43.3969133" lon="11.7524317"><ele>280.20000000000005</ele><time>2026-04-10T15:49:49.98Z</time></trkpt><trkpt lat="43.3968867" lon="11.7522883"><ele>280.6</ele><time>2026-04-10T15:49:51.977Z</time></trkpt><trkpt lat="43.396875" lon="11.7521517"><ele>281.0</ele><time>2026-04-10T15:49:53.977Z</time></trkpt><trkpt lat="43.3968717" lon="11.7520183"><ele>281.0</ele><time>2026-04-10T15:49:55.978Z</time></trkpt><trkpt lat="43.3968717" lon="11.7518817"><ele>281.0</ele><time>2026-04-10T15:49:57.981Z</time></trkpt><trkpt lat="43.396865" lon="11.7517317"><ele>281.0</ele><time>2026-04-10T15:49:59.982Z</time></trkpt><trkpt lat="43.3968433" lon="11.7515667"><ele>281.0</ele><time>2026-04-10T15:50:01.981Z</time></trkpt><trkpt lat="43.3968283" lon="11.7514783"><ele>281.0</ele><time>2026-04-10T15:50:02.977Z</time></trkpt><trkpt lat="43.3968133" lon="11.75139"><ele>281.00000000000006</ele><time>2026-04-10T15:50:03.977Z</time></trkpt><trkpt lat="43.3967967" lon="11.7512967"><ele>281.0</ele><time>2026-04-10T15:50:04.977Z</time></trkpt><trkpt lat="43.396775" lon="11.7512"><ele>281.0</ele><time>2026-04-10T15:50:05.98Z</time></trkpt><trkpt lat="43.3967583" lon="11.7511033"><ele>281.0</ele><time>2026-04-10T15:50:06.979Z</time></trkpt><trkpt lat="43.39674" lon="11.7510067"><ele>281.0</ele><time>2026-04-10T15:50:07.979Z</time></trkpt><trkpt lat="43.3967183" lon="11.7509117"><ele>281.00000000000006</ele><time>2026-04-10T15:50:08.977Z</time></trkpt><trkpt lat="43.3966933" lon="11.75082"><ele>281.0</ele><time>2026-04-10T15:50:09.979Z</time></trkpt><trkpt lat="43.3966767" lon="11.7507283"><ele>280.83333333333337</ele><time>2026-04-10T15:50:10.977Z</time></trkpt><trkpt lat="43.3966583" lon="11.7506367"><ele>280.6666666666667</ele><time>2026-04-10T15:50:11.981Z</time></trkpt><trkpt lat="43.39664" lon="11.75055"><ele>280.5</ele><time>2026-04-10T15:50:12.98Z</time></trkpt><trkpt lat="43.3966217" lon="11.7504667"><ele>280.3333333333333</ele><time>2026-04-10T15:50:13.981Z</time></trkpt><trkpt lat="43.3965883" lon="11.750305"><ele>280.16666666666663</ele><time>2026-04-10T15:50:15.982Z</time></trkpt><trkpt lat="43.3965633" lon="11.7501467"><ele>280.0</ele><time>2026-04-10T15:50:17.979Z</time></trkpt><trkpt lat="43.3965333" lon="11.74999"><ele>279.75</ele><time>2026-04-10T15:50:19.981Z</time></trkpt><trkpt lat="43.3965033" lon="11.749835"><ele>279.5</ele><time>2026-04-10T15:50:21.978Z</time></trkpt><trkpt lat="43.3964667" lon="11.749675"><ele>279.25</ele><time>2026-04-10T15:50:23.98Z</time></trkpt><trkpt lat="43.39643" lon="11.7495133"><ele>279.0</ele><time>2026-04-10T15:50:25.981Z</time></trkpt><trkpt lat="43.39639" lon="11.7493483"><ele>279.0</ele><time>2026-04-10T15:50:27.977Z</time></trkpt><trkpt lat="43.396355" lon="11.7491817"><ele>279.0</ele><time>2026-04-10T15:50:29.977Z</time></trkpt><trkpt lat="43.3963333" lon="11.7490967"><ele>279.0</ele><time>2026-04-10T15:50:30.981Z</time></trkpt><trkpt lat="43.39631" lon="11.749015"><ele>279.0</ele><time>2026-04-10T15:50:31.979Z</time></trkpt><trkpt lat="43.3962783" lon="11.748935"><ele>279.0</ele><time>2026-04-10T15:50:32.981Z</time></trkpt><trkpt lat="43.39624" lon="11.74886"><ele>279.0</ele><time>2026-04-10T15:50:33.976Z</time></trkpt><trkpt lat="43.396195" lon="11.748785"><ele>278.99999999999994</ele><time>2026-04-10T15:50:34.978Z</time></trkpt><trkpt lat="43.396155" lon="11.74871"><ele>279.0</ele><time>2026-04-10T15:50:35.978Z</time></trkpt><trkpt lat="43.3961133" lon="11.748635"><ele>279.0</ele><time>2026-04-10T15:50:36.983Z</time></trkpt><trkpt lat="43.3960733" lon="11.74856"><ele>279.0</ele><time>2026-04-10T15:50:37.979Z</time></trkpt><trkpt lat="43.3960317" lon="11.7484833"><ele>279.0</ele><time>2026-04-10T15:50:38.979Z</time></trkpt><trkpt lat="43.3959933" lon="11.7484067"><ele>278.99999999999994</ele><time>2026-04-10T15:50:39.976Z</time></trkpt><trkpt lat="43.3959533" lon="11.74833"><ele>279.0</ele><time>2026-04-10T15:50:40.979Z</time></trkpt><trkpt lat="43.3959217" lon="11.7482517"><ele>278.99999999999994</ele><time>2026-04-10T15:50:41.977Z</time></trkpt><trkpt lat="43.39589" lon="11.7481683"><ele>279.0</ele><time>2026-04-10T15:50:42.98Z</time></trkpt><trkpt lat="43.3958617" lon="11.7480883"><ele>279.0</ele><time>2026-04-10T15:50:43.978Z</time></trkpt><trkpt lat="43.3958317" lon="11.7480083"><ele>279.0</ele><time>2026-04-10T15:50:44.981Z</time></trkpt><trkpt lat="43.3958033" lon="11.7479283"><ele>279.0</ele><time>2026-04-10T15:50:45.978Z</time></trkpt><trkpt lat="43.3957733" lon="11.74785"><ele>278.99999999999994</ele><time>2026-04-10T15:50:46.977Z</time></trkpt><trkpt lat="43.3957383" lon="11.7477717"><ele>279.0</ele><time>2026-04-10T15:50:47.976Z</time></trkpt><trkpt lat="43.3956983" lon="11.7476933"><ele>278.99999999999994</ele><time>2026-04-10T15:50:48.98Z</time></trkpt><trkpt lat="43.3956617" lon="11.7476183"><ele>279.0</ele><time>2026-04-10T15:50:49.976Z</time></trkpt><trkpt lat="43.3956233" lon="11.7475433"><ele>279.0</ele><time>2026-04-10T15:50:50.976Z</time></trkpt><trkpt lat="43.39558" lon="11.7474733"><ele>279.0</ele><time>2026-04-10T15:50:51.98Z</time></trkpt><trkpt lat="43.3955383" lon="11.7474033"><ele>279.0</ele><time>2026-04-10T15:50:52.98Z</time></trkpt><trkpt lat="43.3954967" lon="11.747335"><ele>278.99999999999994</ele><time>2026-04-10T15:50:53.985Z</time></trkpt><trkpt lat="43.3954533" lon="11.7472683"><ele>279.0</ele><time>2026-04-10T15:50:54.976Z</time></trkpt><trkpt lat="43.39537" lon="11.7471417"><ele>279.0</ele><time>2026-04-10T15:50:56.977Z</time></trkpt><trkpt lat="43.395285" lon="11.7470267"><ele>279.0</ele><time>2026-04-10T15:50:58.975Z</time></trkpt><trkpt lat="43.3952183" lon="11.746925"><ele>279.0</ele><time>2026-04-10T15:51:00.978Z</time></trkpt><trkpt lat="43.3951583" lon="11.74683"><ele>279.0</ele><time>2026-04-10T15:51:02.98Z</time></trkpt><trkpt lat="43.3950983" lon="11.7467417"><ele>279.0</ele><time>2026-04-10T15:51:04.98Z</time></trkpt><trkpt lat="43.3950467" lon="11.7466483"><ele>279.1666666666667</ele><time>2026-04-10T15:51:06.976Z</time></trkpt><trkpt lat="43.394995" lon="11.7465633"><ele>279.3333333333333</ele><time>2026-04-10T15:51:08.979Z</time></trkpt><trkpt lat="43.394955" lon="11.7464767"><ele>279.5</ele><time>2026-04-10T15:51:10.977Z</time></trkpt><trkpt lat="43.39493" lon="11.74637"><ele>279.66666666666663</ele><time>2026-04-10T15:51:12.981Z</time></trkpt><trkpt lat="43.394915" lon="11.7462583"><ele>279.8333333333333</ele><time>2026-04-10T15:51:14.978Z</time></trkpt><trkpt lat="43.3948967" lon="11.74614"><ele>280.0</ele><time>2026-04-10T15:51:16.979Z</time></trkpt><trkpt lat="43.3948767" lon="11.7460167"><ele>280.0</ele><time>2026-04-10T15:51:18.981Z</time></trkpt><trkpt lat="43.3948533" lon="11.74589"><ele>280.0</ele><time>2026-04-10T15:51:20.978Z</time></trkpt><trkpt lat="43.3948333" lon="11.74576"><ele>280.0</ele><time>2026-04-10T15:51:22.983Z</time></trkpt><trkpt lat="43.394815" lon="11.74563"><ele>280.0</ele><time>2026-04-10T15:51:24.976Z</time></trkpt><trkpt lat="43.3948" lon="11.7454983"><ele>280.0</ele><time>2026-04-10T15:51:26.979Z</time></trkpt><trkpt lat="43.3947883" lon="11.74537"><ele>280.0</ele><time>2026-04-10T15:51:28.979Z</time></trkpt><trkpt lat="43.3947783" lon="11.7452333"><ele>280.0</ele><time>2026-04-10T15:51:30.981Z</time></trkpt><trkpt lat="43.39478" lon="11.7450983"><ele>280.0</ele><time>2026-04-10T15:51:32.978Z</time></trkpt><trkpt lat="43.3947817" lon="11.7449733"><ele>280.0</ele><time>2026-04-10T15:51:34.977Z</time></trkpt><trkpt lat="43.3947883" lon="11.7448583"><ele>280.0</ele><time>2026-04-10T15:51:36.977Z</time></trkpt><trkpt lat="43.3947833" lon="11.7447417"><ele>280.2</ele><time>2026-04-10T15:51:38.978Z</time></trkpt><trkpt lat="43.394765" lon="11.7446183"><ele>280.4</ele><time>2026-04-10T15:51:40.978Z</time></trkpt><trkpt lat="43.3947317" lon="11.7444933"><ele>280.6</ele><time>2026-04-10T15:51:42.978Z</time></trkpt><trkpt lat="43.3946833" lon="11.74438"><ele>280.8</ele><time>2026-04-10T15:51:44.982Z</time></trkpt><trkpt lat="43.3946283" lon="11.74428"><ele>281.0</ele><time>2026-04-10T15:51:46.979Z</time></trkpt><trkpt lat="43.3945633" lon="11.7442"><ele>281.40000000000003</ele><time>2026-04-10T15:51:48.978Z</time></trkpt><trkpt lat="43.3944783" lon="11.7441433"><ele>281.8</ele><time>2026-04-10T15:51:50.976Z</time></trkpt><trkpt lat="43.39438" lon="11.7440967"><ele>282.20000000000005</ele><time>2026-04-10T15:51:52.978Z</time></trkpt><trkpt lat="43.3942833" lon="11.744055"><ele>282.6</ele><time>2026-04-10T15:51:54.977Z</time></trkpt><trkpt lat="43.3941883" lon="11.7440183"><ele>283.0</ele><time>2026-04-10T15:51:56.978Z</time></trkpt><trkpt lat="43.3940967" lon="11.7439917"><ele>283.0</ele><time>2026-04-10T15:51:58.978Z</time></trkpt><trkpt lat="43.394005" lon="11.7439667"><ele>283.0</ele><time>2026-04-10T15:52:00.98Z</time></trkpt><trkpt lat="43.3939167" lon="11.7439333"><ele>283.0</ele><time>2026-04-10T15:52:02.982Z</time></trkpt><trkpt lat="43.3938267" lon="11.7439067"><ele>283.0</ele><time>2026-04-10T15:52:04.976Z</time></trkpt><trkpt lat="43.3937383" lon="11.7438817"><ele>283.0</ele><time>2026-04-10T15:52:06.98Z</time></trkpt><trkpt lat="43.3936467" lon="11.7438483"><ele>283.0</ele><time>2026-04-10T15:52:08.98Z</time></trkpt><trkpt lat="43.3935567" lon="11.7438117"><ele>283.0</ele><time>2026-04-10T15:52:10.98Z</time></trkpt><trkpt lat="43.393465" lon="11.743775"><ele>283.0</ele><time>2026-04-10T15:52:12.981Z</time></trkpt><trkpt lat="43.3933733" lon="11.7437433"><ele>283.0</ele><time>2026-04-10T15:52:14.978Z</time></trkpt><trkpt lat="43.3932833" lon="11.7437233"><ele>283.0</ele><time>2026-04-10T15:52:16.978Z</time></trkpt><trkpt lat="43.3931833" lon="11.7437133"><ele>283.0</ele><time>2026-04-10T15:52:18.972Z</time></trkpt><trkpt lat="43.3930883" lon="11.7436933"><ele>283.0</ele><time>2026-04-10T15:52:20.976Z</time></trkpt><trkpt lat="43.393" lon="11.7436767"><ele>283.0</ele><time>2026-04-10T15:52:22.975Z</time></trkpt><trkpt lat="43.39292" lon="11.743645"><ele>283.0</ele><time>2026-04-10T15:52:24.975Z</time></trkpt><trkpt lat="43.3928417" lon="11.7436267"><ele>283.0</ele><time>2026-04-10T15:52:26.977Z</time></trkpt><trkpt lat="43.39276" lon="11.7435917"><ele>283.0</ele><time>2026-04-10T15:52:28.975Z</time></trkpt><trkpt lat="43.3926733" lon="11.7435617"><ele>283.3333333333333</ele><time>2026-04-10T15:52:30.973Z</time></trkpt><trkpt lat="43.3925867" lon="11.7435383"><ele>283.66666666666663</ele><time>2026-04-10T15:52:32.976Z</time></trkpt><trkpt lat="43.392505" lon="11.743515"><ele>284.0</ele><time>2026-04-10T15:52:34.974Z</time></trkpt><trkpt lat="43.3924267" lon="11.7434883"><ele>284.3333333333333</ele><time>2026-04-10T15:52:36.974Z</time></trkpt><trkpt lat="43.3923417" lon="11.7434617"><ele>284.6666666666667</ele><time>2026-04-10T15:52:38.976Z</time></trkpt><trkpt lat="43.3922567" lon="11.7434467"><ele>285.0</ele><time>2026-04-10T15:52:40.973Z</time></trkpt><trkpt lat="43.3922033" lon="11.7433833"><ele>285.0</ele><time>2026-04-10T15:52:42.977Z</time></trkpt><trkpt lat="43.3921933" lon="11.74327"><ele>285.0</ele><time>2026-04-10T15:52:44.976Z</time></trkpt><trkpt lat="43.3921917" lon="11.743165"><ele>285.0</ele><time>2026-04-10T15:52:46.979Z</time></trkpt><trkpt lat="43.3921883" lon="11.7430633"><ele>285.0</ele><time>2026-04-10T15:52:48.978Z</time></trkpt><trkpt lat="43.392185" lon="11.7429667"><ele>285.0</ele><time>2026-04-10T15:52:50.978Z</time></trkpt><trkpt lat="43.3921867" lon="11.742875"><ele>285.0</ele><time>2026-04-10T15:52:52.977Z</time></trkpt><trkpt lat="43.3921833" lon="11.7427833"><ele>285.0</ele><time>2026-04-10T15:52:54.98Z</time></trkpt><trkpt lat="43.3921783" lon="11.742695"><ele>285.2857142857143</ele><time>2026-04-10T15:52:56.98Z</time></trkpt><trkpt lat="43.3921833" lon="11.7425917"><ele>285.57142857142856</ele><time>2026-04-10T15:52:59.977Z</time></trkpt><trkpt lat="43.3921817" lon="11.7424933"><ele>285.8571428571429</ele><time>2026-04-10T15:53:02.977Z</time></trkpt><trkpt lat="43.3921733" lon="11.742405"><ele>286.1428571428571</ele><time>2026-04-10T15:53:05.978Z</time></trkpt><trkpt lat="43.39217" lon="11.7423083"><ele>286.42857142857144</ele><time>2026-04-10T15:53:08.981Z</time></trkpt><trkpt lat="43.3921617" lon="11.74222"><ele>286.7142857142857</ele><time>2026-04-10T15:53:11.977Z</time></trkpt><trkpt lat="43.3921583" lon="11.7421333"><ele>287.0</ele><time>2026-04-10T15:53:14.977Z</time></trkpt><trkpt lat="43.3921533" lon="11.7420383"><ele>288.0</ele><time>2026-04-10T15:53:17.98Z</time></trkpt><trkpt lat="43.3921433" lon="11.7419483"><ele>289.0</ele><time>2026-04-10T15:53:20.977Z</time></trkpt><trkpt lat="43.3921333" lon="11.74183"><ele>290.0</ele><time>2026-04-10T15:53:24.981Z</time></trkpt><trkpt lat="43.3921267" lon="11.7417433"><ele>291.0</ele><time>2026-04-10T15:53:27.98Z</time></trkpt><trkpt lat="43.3921267" lon="11.7416317"><ele>292.0</ele><time>2026-04-10T15:53:31.975Z</time></trkpt><trkpt lat="43.3921267" lon="11.741545"><ele>293.0</ele><time>2026-04-10T15:53:34.975Z</time></trkpt><trkpt lat="43.39213" lon="11.74144"><ele>294.0</ele><time>2026-04-10T15:53:38.977Z</time></trkpt><trkpt lat="43.392125" lon="11.7413317"><ele>295.14285714285717</ele><time>2026-04-10T15:53:42.978Z</time></trkpt><trkpt lat="43.39212" lon="11.74124"><ele>296.2857142857143</ele><time>2026-04-10T15:53:46.978Z</time></trkpt><trkpt lat="43.39212" lon="11.741125"><ele>297.42857142857144</ele><time>2026-04-10T15:53:51.98Z</time></trkpt><trkpt lat="43.392135" lon="11.74104"><ele>298.57142857142856</ele><time>2026-04-10T15:53:54.976Z</time></trkpt><trkpt lat="43.39213" lon="11.74094"><ele>299.7142857142857</ele><time>2026-04-10T15:53:57.978Z</time></trkpt><trkpt lat="43.3921083" lon="11.7408383"><ele>300.8571428571429</ele><time>2026-04-10T15:54:00.979Z</time></trkpt><trkpt lat="43.3920917" lon="11.7407333"><ele>302.0</ele><time>2026-04-10T15:54:04.978Z</time></trkpt><trkpt lat="43.3921017" lon="11.74063"><ele>302.14285714285717</ele><time>2026-04-10T15:54:08.976Z</time></trkpt><trkpt lat="43.3921167" lon="11.7405233"><ele>302.2857142857143</ele><time>2026-04-10T15:54:14.978Z</time></trkpt><trkpt lat="43.392165" lon="11.7404333"><ele>302.42857142857144</ele><time>2026-04-10T15:54:18.982Z</time></trkpt><trkpt lat="43.392205" lon="11.740365"><ele>302.57142857142856</ele><time>2026-04-10T15:54:21.981Z</time></trkpt><trkpt lat="43.39226" lon="11.7403033"><ele>302.7142857142857</ele><time>2026-04-10T15:54:26.975Z</time></trkpt><trkpt lat="43.3923233" lon="11.740275"><ele>302.8571428571429</ele><time>2026-04-10T15:54:31.978Z</time></trkpt><trkpt lat="43.392385" lon="11.740295"><ele>303.0</ele><time>2026-04-10T15:54:35.978Z</time></trkpt><trkpt lat="43.3924567" lon="11.740275"><ele>303.0</ele><time>2026-04-10T15:54:40.975Z</time></trkpt><trkpt lat="43.3925367" lon="11.7402517"><ele>303.0</ele><time>2026-04-10T15:54:44.981Z</time></trkpt><trkpt lat="43.3926167" lon="11.7402233"><ele>303.0</ele><time>2026-04-10T15:54:48.979Z</time></trkpt><trkpt lat="43.39268" lon="11.740195"><ele>303.0</ele><time>2026-04-10T15:54:51.978Z</time></trkpt><trkpt lat="43.3927583" lon="11.7401567"><ele>303.0</ele><time>2026-04-10T15:54:54.977Z</time></trkpt><trkpt lat="43.3928167" lon="11.7401183"><ele>303.0</ele><time>2026-04-10T15:54:57.978Z</time></trkpt><trkpt lat="43.3928767" lon="11.74008"><ele>303.0</ele><time>2026-04-10T15:55:00.98Z</time></trkpt><trkpt lat="43.3929383" lon="11.74005"><ele>303.5</ele><time>2026-04-10T15:55:03.975Z</time></trkpt><trkpt lat="43.3930117" lon="11.74"><ele>304.0</ele><time>2026-04-10T15:55:07.977Z</time></trkpt><trkpt lat="43.3930717" lon="11.73994"><ele>304.5</ele><time>2026-04-10T15:55:11.979Z</time></trkpt><trkpt lat="43.3931183" lon="11.73985"><ele>305.0</ele><time>2026-04-10T15:55:15.979Z</time></trkpt><trkpt lat="43.3931383" lon="11.739755"><ele>305.5</ele><time>2026-04-10T15:55:18.979Z</time></trkpt><trkpt lat="43.3931483" lon="11.73965"><ele>306.0</ele><time>2026-04-10T15:55:22.979Z</time></trkpt><trkpt lat="43.39314" lon="11.7395417"><ele>306.0</ele><time>2026-04-10T15:55:26.978Z</time></trkpt><trkpt lat="43.3931317" lon="11.7394383"><ele>306.0</ele><time>2026-04-10T15:55:30.974Z</time></trkpt><trkpt lat="43.3931267" lon="11.7393417"><ele>306.0</ele><time>2026-04-10T15:55:34.978Z</time></trkpt><trkpt lat="43.3931233" lon="11.7392517"><ele>306.0</ele><time>2026-04-10T15:55:38.977Z</time></trkpt><trkpt lat="43.3931483" lon="11.739145"><ele>306.0</ele><time>2026-04-10T15:55:42.979Z</time></trkpt><trkpt lat="43.393165" lon="11.739045"><ele>306.0</ele><time>2026-04-10T15:55:46.979Z</time></trkpt><trkpt lat="43.3931717" lon="11.7389583"><ele>306.0</ele><time>2026-04-10T15:55:50.98Z</time></trkpt><trkpt lat="43.39317" lon="11.738855"><ele>307.8333333333333</ele><time>2026-04-10T15:55:56.982Z</time></trkpt><trkpt lat="43.393075" lon="11.7388317"><ele>309.6666666666667</ele><time>2026-04-10T15:56:58.975Z</time></trkpt><trkpt lat="43.3930533" lon="11.738735"><ele>311.5</ele><time>2026-04-10T15:57:31.977Z</time></trkpt><trkpt lat="43.3929967" lon="11.7386533"><ele>313.33333333333337</ele><time>2026-04-10T15:57:36.073Z</time></trkpt><trkpt lat="43.392965" lon="11.7385717"><ele>315.1666666666667</ele><time>2026-04-10T15:57:39.976Z</time></trkpt><trkpt lat="43.3929683" lon="11.738475"><ele>317.0</ele><time>2026-04-10T15:57:45.978Z</time></trkpt><trkpt lat="43.3929517" lon="11.738375"><ele>319.5</ele><time>2026-04-10T15:57:49.978Z</time></trkpt><trkpt lat="43.3929133" lon="11.738285"><ele>322.0</ele><time>2026-04-10T15:57:54.979Z</time></trkpt><trkpt lat="43.3928633" lon="11.7382233"><ele>324.5</ele><time>2026-04-10T15:57:58.977Z</time></trkpt><trkpt lat="43.392795" lon="11.738155"><ele>327.0</ele><time>2026-04-10T15:58:02.979Z</time></trkpt><trkpt lat="43.3927333" lon="11.7381217"><ele>329.5</ele><time>2026-04-10T15:58:05.98Z</time></trkpt><trkpt lat="43.392665" lon="11.7380767"><ele>332.0</ele><time>2026-04-10T15:58:08.977Z</time></trkpt><trkpt lat="43.39259" lon="11.7380267"><ele>332.0</ele><time>2026-04-10T15:58:12.978Z</time></trkpt><trkpt lat="43.392515" lon="11.7379833"><ele>332.0</ele><time>2026-04-10T15:58:16.979Z</time></trkpt><trkpt lat="43.3924567" lon="11.7379417"><ele>332.0</ele><time>2026-04-10T15:58:20.982Z</time></trkpt><trkpt lat="43.3923917" lon="11.7378867"><ele>332.0</ele><time>2026-04-10T15:58:25.976Z</time></trkpt><trkpt lat="43.3923267" lon="11.7378417"><ele>332.0</ele><time>2026-04-10T15:58:30.976Z</time></trkpt><trkpt lat="43.3922633" lon="11.7377983"><ele>332.0</ele><time>2026-04-10T15:58:35.977Z</time></trkpt><trkpt lat="43.3922067" lon="11.73775"><ele>332.0</ele><time>2026-04-10T15:58:40.983Z</time></trkpt><trkpt lat="43.39215" lon="11.737695"><ele>333.85714285714283</ele><time>2026-04-10T15:58:45.979Z</time></trkpt><trkpt lat="43.392085" lon="11.737635"><ele>335.7142857142857</ele><time>2026-04-10T15:58:50.98Z</time></trkpt><trkpt lat="43.392015" lon="11.73759"><ele>337.57142857142856</ele><time>2026-04-10T15:58:55.977Z</time></trkpt><trkpt lat="43.3919567" lon="11.737535"><ele>339.42857142857144</ele><time>2026-04-10T15:59:00.977Z</time></trkpt><trkpt lat="43.3919033" lon="11.7374583"><ele>341.2857142857143</ele><time>2026-04-10T15:59:05.976Z</time></trkpt><trkpt lat="43.3918567" lon="11.7373817"><ele>343.14285714285717</ele><time>2026-04-10T15:59:10.98Z</time></trkpt><trkpt lat="43.3918167" lon="11.7373067"><ele>345.0</ele><time>2026-04-10T15:59:13.978Z</time></trkpt><trkpt lat="43.3917883" lon="11.737225"><ele>345.0</ele><time>2026-04-10T15:59:17.977Z</time></trkpt><trkpt lat="43.3917633" lon="11.7371367"><ele>345.0</ele><time>2026-04-10T15:59:21.977Z</time></trkpt><trkpt lat="43.3917467" lon="11.7370383"><ele>345.0</ele><time>2026-04-10T15:59:26.979Z</time></trkpt><trkpt lat="43.3917367" lon="11.7369417"><ele>345.0</ele><time>2026-04-10T15:59:30.98Z</time></trkpt><trkpt lat="43.39175" lon="11.7368533"><ele>345.0</ele><time>2026-04-10T15:59:34.976Z</time></trkpt><trkpt lat="43.39181" lon="11.7367033"><ele>345.0</ele><time>2026-04-10T16:01:04.978Z</time></trkpt><trkpt lat="43.3918267" lon="11.7366167"><ele>346.2857142857143</ele><time>2026-04-10T16:01:09.977Z</time></trkpt><trkpt lat="43.39185" lon="11.7365183"><ele>347.57142857142856</ele><time>2026-04-10T16:01:15.973Z</time></trkpt><trkpt lat="43.3918717" lon="11.7364283"><ele>348.8571428571429</ele><time>2026-04-10T16:01:20.976Z</time></trkpt><trkpt lat="43.3919" lon="11.73635"><ele>350.1428571428571</ele><time>2026-04-10T16:01:24.976Z</time></trkpt><trkpt lat="43.391925" lon="11.73627"><ele>351.4285714285714</ele><time>2026-04-10T16:01:28.976Z</time></trkpt><trkpt lat="43.3919717" lon="11.73621"><ele>352.7142857142857</ele><time>2026-04-10T16:01:34.979Z</time></trkpt><trkpt lat="43.391995" lon="11.736125"><ele>354.0</ele><time>2026-04-10T16:01:38.978Z</time></trkpt><trkpt lat="43.392" lon="11.7360333"><ele>355.0</ele><time>2026-04-10T16:01:42.976Z</time></trkpt><trkpt lat="43.391995" lon="11.7359333"><ele>356.0</ele><time>2026-04-10T16:01:47.977Z</time></trkpt><trkpt lat="43.3919817" lon="11.73583"><ele>357.0</ele><time>2026-04-10T16:01:53.977Z</time></trkpt><trkpt lat="43.3919617" lon="11.735725"><ele>358.0</ele><time>2026-04-10T16:01:58.976Z</time></trkpt><trkpt lat="43.3919033" lon="11.7356533"><ele>359.0</ele><time>2026-04-10T16:02:03.977Z</time></trkpt><trkpt lat="43.3918317" lon="11.7356667"><ele>360.0</ele><time>2026-04-10T16:02:05.979Z</time></trkpt><trkpt lat="43.3917617" lon="11.7356583"><ele>361.0</ele><time>2026-04-10T16:02:07.978Z</time></trkpt><trkpt lat="43.39169" lon="11.7356"><ele>361.0</ele><time>2026-04-10T16:02:09.978Z</time></trkpt><trkpt lat="43.3916217" lon="11.7355517"><ele>361.0</ele><time>2026-04-10T16:02:11.979Z</time></trkpt><trkpt lat="43.3915467" lon="11.735465"><ele>361.0</ele><time>2026-04-10T16:02:13.977Z</time></trkpt><trkpt lat="43.3914733" lon="11.7353833"><ele>361.0</ele><time>2026-04-10T16:02:15.977Z</time></trkpt><trkpt lat="43.3913933" lon="11.7352867"><ele>361.0</ele><time>2026-04-10T16:02:17.977Z</time></trkpt><trkpt lat="43.391305" lon="11.73518"><ele>360.66666666666663</ele><time>2026-04-10T16:02:19.98Z</time></trkpt><trkpt lat="43.3912067" lon="11.73505"><ele>360.3333333333333</ele><time>2026-04-10T16:02:21.981Z</time></trkpt><trkpt lat="43.3911483" lon="11.7349833"><ele>360.0</ele><time>2026-04-10T16:02:22.976Z</time></trkpt><trkpt lat="43.3910867" lon="11.7349217"><ele>359.6666666666667</ele><time>2026-04-10T16:02:23.98Z</time></trkpt><trkpt lat="43.39102" lon="11.7348783"><ele>359.33333333333337</ele><time>2026-04-10T16:02:24.98Z</time></trkpt><trkpt lat="43.39095" lon="11.7348467"><ele>359.0</ele><time>2026-04-10T16:02:25.978Z</time></trkpt><trkpt lat="43.3908833" lon="11.7348183"><ele>359.0</ele><time>2026-04-10T16:02:26.978Z</time></trkpt><trkpt lat="43.39082" lon="11.734785"><ele>359.0</ele><time>2026-04-10T16:02:27.976Z</time></trkpt><trkpt lat="43.3907633" lon="11.7347433"><ele>359.0</ele><time>2026-04-10T16:02:28.979Z</time></trkpt><trkpt lat="43.390665" lon="11.7346683"><ele>359.0</ele><time>2026-04-10T16:02:30.98Z</time></trkpt><trkpt lat="43.3906083" lon="11.734605"><ele>359.0</ele><time>2026-04-10T16:02:32.981Z</time></trkpt><trkpt lat="43.3905483" lon="11.734545"><ele>359.0</ele><time>2026-04-10T16:02:35.976Z</time></trkpt><trkpt lat="43.3904833" lon="11.7345217"><ele>358.6666666666667</ele><time>2026-04-10T16:02:38.979Z</time></trkpt><trkpt lat="43.3903983" lon="11.7345083"><ele>358.33333333333337</ele><time>2026-04-10T16:02:42.981Z</time></trkpt><trkpt lat="43.390325" lon="11.734515"><ele>358.0</ele><time>2026-04-10T16:02:46.98Z</time></trkpt><trkpt lat="43.3902433" lon="11.7345267"><ele>357.6666666666667</ele><time>2026-04-10T16:02:51.978Z</time></trkpt><trkpt lat="43.3901683" lon="11.73452"><ele>357.3333333333333</ele><time>2026-04-10T16:02:55.982Z</time></trkpt><trkpt lat="43.390105" lon="11.734475"><ele>357.0</ele><time>2026-04-10T16:02:59.979Z</time></trkpt><trkpt lat="43.3900283" lon="11.73444"><ele>357.0</ele><time>2026-04-10T16:03:03.975Z</time></trkpt><trkpt lat="43.3899483" lon="11.7344283"><ele>357.0</ele><time>2026-04-10T16:03:07.977Z</time></trkpt><trkpt lat="43.389865" lon="11.734415"><ele>357.0</ele><time>2026-04-10T16:03:11.979Z</time></trkpt><trkpt lat="43.3898017" lon="11.7344033"><ele>357.0</ele><time>2026-04-10T16:03:14.979Z</time></trkpt><trkpt lat="43.3897367" lon="11.7344017"><ele>357.0</ele><time>2026-04-10T16:03:17.982Z</time></trkpt><trkpt lat="43.389655" lon="11.7344033"><ele>357.0</ele><time>2026-04-10T16:03:21.981Z</time></trkpt><trkpt lat="43.3895817" lon="11.734415"><ele>357.0</ele><time>2026-04-10T16:03:25.977Z</time></trkpt><trkpt lat="43.3895067" lon="11.7344033"><ele>357.57142857142856</ele><time>2026-04-10T16:03:29.978Z</time></trkpt><trkpt lat="43.3894317" lon="11.734415"><ele>358.1428571428571</ele><time>2026-04-10T16:03:34.981Z</time></trkpt><trkpt lat="43.3893667" lon="11.7344133"><ele>358.7142857142857</ele><time>2026-04-10T16:03:38.977Z</time></trkpt><trkpt lat="43.38929" lon="11.734395"><ele>359.2857142857143</ele><time>2026-04-10T16:03:42.981Z</time></trkpt><trkpt lat="43.3892483" lon="11.7343117"><ele>359.85714285714283</ele><time>2026-04-10T16:03:46.976Z</time></trkpt><trkpt lat="43.3892267" lon="11.7342217"><ele>360.42857142857144</ele><time>2026-04-10T16:03:50.978Z</time></trkpt><trkpt lat="43.3892017" lon="11.734125"><ele>361.0</ele><time>2026-04-10T16:03:54.979Z</time></trkpt><trkpt lat="43.38917" lon="11.7340283"><ele>361.66666666666663</ele><time>2026-04-10T16:03:58.976Z</time></trkpt><trkpt lat="43.3891117" lon="11.7339567"><ele>362.3333333333333</ele><time>2026-04-10T16:04:02.978Z</time></trkpt><trkpt lat="43.3890617" lon="11.7338817"><ele>363.0</ele><time>2026-04-10T16:04:05.981Z</time></trkpt><trkpt lat="43.3889883" lon="11.7338133"><ele>363.6666666666667</ele><time>2026-04-10T16:04:08.978Z</time></trkpt><trkpt lat="43.3889133" lon="11.7338167"><ele>364.33333333333337</ele><time>2026-04-10T16:04:10.976Z</time></trkpt><trkpt lat="43.3888033" lon="11.73382"><ele>365.0</ele><time>2026-04-10T16:04:12.98Z</time></trkpt><trkpt lat="43.38869" lon="11.7337867"><ele>365.0</ele><time>2026-04-10T16:04:14.98Z</time></trkpt><trkpt lat="43.38858" lon="11.7337267"><ele>365.0</ele><time>2026-04-10T16:04:16.977Z</time></trkpt><trkpt lat="43.3884717" lon="11.7336683"><ele>365.0</ele><time>2026-04-10T16:04:18.979Z</time></trkpt><trkpt lat="43.3883633" lon="11.7336067"><ele>365.0</ele><time>2026-04-10T16:04:20.981Z</time></trkpt><trkpt lat="43.3882667" lon="11.7335467"><ele>365.8</ele><time>2026-04-10T16:04:22.979Z</time></trkpt><trkpt lat="43.3881683" lon="11.733495"><ele>366.6</ele><time>2026-04-10T16:04:24.979Z</time></trkpt><trkpt lat="43.3880717" lon="11.73344"><ele>367.4</ele><time>2026-04-10T16:04:26.98Z</time></trkpt><trkpt lat="43.3879817" lon="11.733405"><ele>368.2</ele><time>2026-04-10T16:04:28.98Z</time></trkpt><trkpt lat="43.387895" lon="11.7334"><ele>369.0</ele><time>2026-04-10T16:04:30.976Z</time></trkpt><trkpt lat="43.3878167" lon="11.7334233"><ele>369.42857142857144</ele><time>2026-04-10T16:04:32.981Z</time></trkpt><trkpt lat="43.387755" lon="11.7334483"><ele>369.85714285714283</ele><time>2026-04-10T16:04:34.982Z</time></trkpt><trkpt lat="43.3876867" lon="11.7334883"><ele>370.28571428571433</ele><time>2026-04-10T16:04:36.979Z</time></trkpt><trkpt lat="43.3876117" lon="11.7335217"><ele>370.7142857142857</ele><time>2026-04-10T16:04:38.975Z</time></trkpt><trkpt lat="43.38754" lon="11.7335367"><ele>371.14285714285717</ele><time>2026-04-10T16:04:40.975Z</time></trkpt><trkpt lat="43.387475" lon="11.7335583"><ele>371.5714285714286</ele><time>2026-04-10T16:04:42.977Z</time></trkpt><trkpt lat="43.3874617" lon="11.73346"><ele>372.0</ele><time>2026-04-10T16:04:47.981Z</time></trkpt><trkpt lat="43.3874433" lon="11.73337"><ele>372.00000000000006</ele><time>2026-04-10T16:04:52.978Z</time></trkpt><trkpt lat="43.3874067" lon="11.7332683"><ele>372.0</ele><time>2026-04-10T16:04:56.979Z</time></trkpt><trkpt lat="43.387375" lon="11.73319"><ele>372.0</ele><time>2026-04-10T16:04:58.978Z</time></trkpt><trkpt lat="43.38735" lon="11.7331083"><ele>372.0</ele><time>2026-04-10T16:05:00.981Z</time></trkpt><trkpt lat="43.3873367" lon="11.733015"><ele>372.0</ele><time>2026-04-10T16:05:03.976Z</time></trkpt><trkpt lat="43.387275" lon="11.7329617"><ele>372.00000000000006</ele><time>2026-04-10T16:05:08.977Z</time></trkpt><trkpt lat="43.3872033" lon="11.7329767"><ele>372.0</ele><time>2026-04-10T16:05:10.978Z</time></trkpt><trkpt lat="43.3871317" lon="11.732945"><ele>369.5</ele><time>2026-04-10T16:05:12.977Z</time></trkpt><trkpt lat="43.38708" lon="11.7328817"><ele>367.0</ele><time>2026-04-10T16:05:14.977Z</time></trkpt><trkpt lat="43.3870533" lon="11.7327467"><ele>364.5</ele><time>2026-04-10T16:05:16.977Z</time></trkpt><trkpt lat="43.38703" lon="11.73258"><ele>362.0</ele><time>2026-04-10T16:05:18.978Z</time></trkpt><trkpt lat="43.3870117" lon="11.732495"><ele>359.5</ele><time>2026-04-10T16:05:19.978Z</time></trkpt><trkpt lat="43.3869817" lon="11.7324117"><ele>357.0</ele><time>2026-04-10T16:05:20.978Z</time></trkpt><trkpt lat="43.38695" lon="11.732335"><ele>356.6666666666667</ele><time>2026-04-10T16:05:21.975Z</time></trkpt><trkpt lat="43.386905" lon="11.7322733"><ele>356.3333333333333</ele><time>2026-04-10T16:05:22.977Z</time></trkpt><trkpt lat="43.38685" lon="11.7322233"><ele>356.0</ele><time>2026-04-10T16:05:23.975Z</time></trkpt><trkpt lat="43.386795" lon="11.7321733"><ele>355.66666666666663</ele><time>2026-04-10T16:05:24.976Z</time></trkpt><trkpt lat="43.386685" lon="11.7320983"><ele>355.3333333333333</ele><time>2026-04-10T16:05:26.979Z</time></trkpt><trkpt lat="43.3865717" lon="11.7320517"><ele>355.0</ele><time>2026-04-10T16:05:28.978Z</time></trkpt><trkpt lat="43.3864617" lon="11.7320217"><ele>355.0</ele><time>2026-04-10T16:05:30.98Z</time></trkpt><trkpt lat="43.38636" lon="11.7320017"><ele>355.0</ele><time>2026-04-10T16:05:32.979Z</time></trkpt><trkpt lat="43.3862633" lon="11.7320017"><ele>355.0</ele><time>2026-04-10T16:05:34.975Z</time></trkpt><trkpt lat="43.3861633" lon="11.731995"><ele>355.0</ele><time>2026-04-10T16:05:36.977Z</time></trkpt><trkpt lat="43.386055" lon="11.7319817"><ele>355.0</ele><time>2026-04-10T16:05:38.978Z</time></trkpt><trkpt lat="43.3859367" lon="11.7319717"><ele>353.66666666666663</ele><time>2026-04-10T16:05:40.977Z</time></trkpt><trkpt lat="43.3858717" lon="11.7319633"><ele>352.3333333333333</ele><time>2026-04-10T16:05:41.982Z</time></trkpt><trkpt lat="43.3858017" lon="11.7319567"><ele>351.0</ele><time>2026-04-10T16:05:42.976Z</time></trkpt><trkpt lat="43.3857317" lon="11.7319633"><ele>349.6666666666667</ele><time>2026-04-10T16:05:43.98Z</time></trkpt><trkpt lat="43.3856517" lon="11.7319683"><ele>348.33333333333337</ele><time>2026-04-10T16:05:44.983Z</time></trkpt><trkpt lat="43.385565" lon="11.7319717"><ele>347.0</ele><time>2026-04-10T16:05:45.982Z</time></trkpt><trkpt lat="43.3854817" lon="11.731975"><ele>346.33333333333337</ele><time>2026-04-10T16:05:46.978Z</time></trkpt><trkpt lat="43.3854033" lon="11.7319733"><ele>345.6666666666667</ele><time>2026-04-10T16:05:47.978Z</time></trkpt><trkpt lat="43.38533" lon="11.7319583"><ele>345.0</ele><time>2026-04-10T16:05:48.976Z</time></trkpt><trkpt lat="43.3852633" lon="11.7319317"><ele>344.3333333333333</ele><time>2026-04-10T16:05:49.98Z</time></trkpt><trkpt lat="43.3852033" lon="11.73189"><ele>343.66666666666663</ele><time>2026-04-10T16:05:50.979Z</time></trkpt><trkpt lat="43.385105" lon="11.7317933"><ele>343.0</ele><time>2026-04-10T16:05:52.977Z</time></trkpt><trkpt lat="43.385005" lon="11.7317"><ele>342.85714285714283</ele><time>2026-04-10T16:05:54.981Z</time></trkpt><trkpt lat="43.3849467" lon="11.7316667"><ele>342.7142857142857</ele><time>2026-04-10T16:05:55.979Z</time></trkpt><trkpt lat="43.3848833" lon="11.7316317"><ele>342.57142857142856</ele><time>2026-04-10T16:05:56.977Z</time></trkpt><trkpt lat="43.3848117" lon="11.7315917"><ele>342.42857142857144</ele><time>2026-04-10T16:05:57.978Z</time></trkpt><trkpt lat="43.3847417" lon="11.73155"><ele>342.2857142857143</ele><time>2026-04-10T16:05:58.978Z</time></trkpt><trkpt lat="43.38467" lon="11.7315067"><ele>342.1428571428571</ele><time>2026-04-10T16:05:59.977Z</time></trkpt><trkpt lat="43.3846" lon="11.7314633"><ele>342.0</ele><time>2026-04-10T16:06:00.978Z</time></trkpt><trkpt lat="43.384535" lon="11.731415"><ele>341.99999999999994</ele><time>2026-04-10T16:06:01.976Z</time></trkpt><trkpt lat="43.3844717" lon="11.7313667"><ele>342.0</ele><time>2026-04-10T16:06:02.977Z</time></trkpt><trkpt lat="43.3844167" lon="11.73131"><ele>342.0</ele><time>2026-04-10T16:06:03.979Z</time></trkpt><trkpt lat="43.38436" lon="11.7312483"><ele>342.0</ele><time>2026-04-10T16:06:04.98Z</time></trkpt><trkpt lat="43.3843017" lon="11.7311883"><ele>342.0</ele><time>2026-04-10T16:06:05.978Z</time></trkpt><trkpt lat="43.3842517" lon="11.731125"><ele>341.99999999999994</ele><time>2026-04-10T16:06:06.976Z</time></trkpt><trkpt lat="43.3842067" lon="11.731055"><ele>342.0</ele><time>2026-04-10T16:06:07.978Z</time></trkpt><trkpt lat="43.3841667" lon="11.7309817"><ele>341.20000000000005</ele><time>2026-04-10T16:06:08.98Z</time></trkpt><trkpt lat="43.3840533" lon="11.7309117"><ele>340.4</ele><time>2026-04-10T16:06:10.975Z</time></trkpt><trkpt lat="43.3839783" lon="11.7309383"><ele>339.6</ele><time>2026-04-10T16:06:11.979Z</time></trkpt><trkpt lat="43.3839017" lon="11.731005"><ele>338.79999999999995</ele><time>2026-04-10T16:06:12.973Z</time></trkpt><trkpt lat="43.3838283" lon="11.7310883"><ele>338.0</ele><time>2026-04-10T16:06:13.977Z</time></trkpt><trkpt lat="43.3837617" lon="11.7311783"><ele>337.1666666666667</ele><time>2026-04-10T16:06:14.977Z</time></trkpt><trkpt lat="43.3837067" lon="11.7312733"><ele>336.33333333333337</ele><time>2026-04-10T16:06:15.982Z</time></trkpt><trkpt lat="43.38366" lon="11.73137"><ele>335.5</ele><time>2026-04-10T16:06:16.979Z</time></trkpt><trkpt lat="43.383605" lon="11.7314533"><ele>334.6666666666667</ele><time>2026-04-10T16:06:17.978Z</time></trkpt><trkpt lat="43.3835367" lon="11.73152"><ele>333.8333333333333</ele><time>2026-04-10T16:06:18.976Z</time></trkpt><trkpt lat="43.3834683" lon="11.731575"><ele>333.0</ele><time>2026-04-10T16:06:19.977Z</time></trkpt><trkpt lat="43.3834" lon="11.7316183"><ele>333.0</ele><time>2026-04-10T16:06:20.976Z</time></trkpt><trkpt lat="43.38333" lon="11.7316483"><ele>333.0</ele><time>2026-04-10T16:06:21.98Z</time></trkpt><trkpt lat="43.3832533" lon="11.7316567"><ele>333.0</ele><time>2026-04-10T16:06:22.974Z</time></trkpt><trkpt lat="43.38317" lon="11.731645"><ele>333.0</ele><time>2026-04-10T16:06:23.974Z</time></trkpt><trkpt lat="43.3830833" lon="11.7316217"><ele>333.0</ele><time>2026-04-10T16:06:24.983Z</time></trkpt><trkpt lat="43.3829967" lon="11.7315883"><ele>333.0</ele><time>2026-04-10T16:06:25.976Z</time></trkpt><trkpt lat="43.3829117" lon="11.731545"><ele>331.1666666666667</ele><time>2026-04-10T16:06:26.979Z</time></trkpt><trkpt lat="43.3828283" lon="11.731505"><ele>329.3333333333333</ele><time>2026-04-10T16:06:27.976Z</time></trkpt><trkpt lat="43.3827517" lon="11.7314633"><ele>327.5</ele><time>2026-04-10T16:06:28.979Z</time></trkpt><trkpt lat="43.3826767" lon="11.731425"><ele>325.66666666666663</ele><time>2026-04-10T16:06:29.978Z</time></trkpt><trkpt lat="43.3826" lon="11.7314"><ele>323.8333333333333</ele><time>2026-04-10T16:06:30.981Z</time></trkpt><trkpt lat="43.38252" lon="11.7314067"><ele>322.0</ele><time>2026-04-10T16:06:31.977Z</time></trkpt><trkpt lat="43.38244" lon="11.7314567"><ele>322.0</ele><time>2026-04-10T16:06:32.978Z</time></trkpt><trkpt lat="43.3823633" lon="11.7315217"><ele>322.0</ele><time>2026-04-10T16:06:33.978Z</time></trkpt><trkpt lat="43.3822867" lon="11.7315817"><ele>322.0</ele><time>2026-04-10T16:06:34.975Z</time></trkpt><trkpt lat="43.3822117" lon="11.7316333"><ele>322.0</ele><time>2026-04-10T16:06:35.979Z</time></trkpt><trkpt lat="43.38214" lon="11.731675"><ele>322.0</ele><time>2026-04-10T16:06:36.978Z</time></trkpt><trkpt lat="43.38207" lon="11.73171"><ele>322.0</ele><time>2026-04-10T16:06:37.979Z</time></trkpt><trkpt lat="43.382005" lon="11.731735"><ele>321.0</ele><time>2026-04-10T16:06:38.981Z</time></trkpt><trkpt lat="43.3819017" lon="11.73178"><ele>320.0</ele><time>2026-04-10T16:06:40.975Z</time></trkpt><trkpt lat="43.38186" lon="11.73187"><ele>319.0</ele><time>2026-04-10T16:06:42.978Z</time></trkpt><trkpt lat="43.38192" lon="11.7319867"><ele>318.0</ele><time>2026-04-10T16:06:44.978Z</time></trkpt><trkpt lat="43.3819633" lon="11.7320533"><ele>317.0</ele><time>2026-04-10T16:06:45.977Z</time></trkpt><trkpt lat="43.3820017" lon="11.7321283"><ele>316.0</ele><time>2026-04-10T16:06:46.979Z</time></trkpt><trkpt lat="43.3820417" lon="11.732205"><ele>315.42857142857144</ele><time>2026-04-10T16:06:47.976Z</time></trkpt><trkpt lat="43.38208" lon="11.73229"><ele>314.8571428571429</ele><time>2026-04-10T16:06:48.983Z</time></trkpt><trkpt lat="43.3821083" lon="11.7323883"><ele>314.28571428571433</ele><time>2026-04-10T16:06:49.975Z</time></trkpt><trkpt lat="43.382125" lon="11.7324867"><ele>313.7142857142857</ele><time>2026-04-10T16:06:50.98Z</time></trkpt><trkpt lat="43.3821317" lon="11.7325833"><ele>313.1428571428571</ele><time>2026-04-10T16:06:51.979Z</time></trkpt><trkpt lat="43.3821283" lon="11.7326833"><ele>312.5714285714286</ele><time>2026-04-10T16:06:52.979Z</time></trkpt><trkpt lat="43.3821183" lon="11.73278"><ele>312.0</ele><time>2026-04-10T16:06:53.977Z</time></trkpt><trkpt lat="43.3821133" lon="11.7328717"><ele>311.8333333333333</ele><time>2026-04-10T16:06:54.981Z</time></trkpt><trkpt lat="43.3821083" lon="11.73296"><ele>311.6666666666667</ele><time>2026-04-10T16:06:55.974Z</time></trkpt><trkpt lat="43.3821033" lon="11.7330467"><ele>311.5</ele><time>2026-04-10T16:06:56.982Z</time></trkpt><trkpt lat="43.3820917" lon="11.7331967"><ele>311.33333333333337</ele><time>2026-04-10T16:06:58.974Z</time></trkpt><trkpt lat="43.3820867" lon="11.7333167"><ele>311.1666666666667</ele><time>2026-04-10T16:07:00.979Z</time></trkpt><trkpt lat="43.3820817" lon="11.7334117"><ele>311.0</ele><time>2026-04-10T16:07:02.977Z</time></trkpt><trkpt lat="43.38207" lon="11.7335333"><ele>311.0</ele><time>2026-04-10T16:07:05.979Z</time></trkpt><trkpt lat="43.3820183" lon="11.7335933"><ele>311.0</ele><time>2026-04-10T16:07:07.98Z</time></trkpt><trkpt lat="43.38193" lon="11.733625"><ele>311.0</ele><time>2026-04-10T16:07:09.98Z</time></trkpt><trkpt lat="43.3818267" lon="11.7336617"><ele>311.0</ele><time>2026-04-10T16:07:11.976Z</time></trkpt><trkpt lat="43.3817017" lon="11.7336867"><ele>311.0</ele><time>2026-04-10T16:07:13.976Z</time></trkpt><trkpt lat="43.38163" lon="11.7337"><ele>311.0</ele><time>2026-04-10T16:07:14.977Z</time></trkpt><trkpt lat="43.381555" lon="11.7337117"><ele>311.0</ele><time>2026-04-10T16:07:15.975Z</time></trkpt><trkpt lat="43.38147" lon="11.7337183"><ele>311.0</ele><time>2026-04-10T16:07:16.981Z</time></trkpt><trkpt lat="43.381375" lon="11.73372"><ele>311.0</ele><time>2026-04-10T16:07:17.973Z</time></trkpt><trkpt lat="43.3812767" lon="11.7337233"><ele>311.0</ele><time>2026-04-10T16:07:18.977Z</time></trkpt><trkpt lat="43.38117" lon="11.7337333"><ele>309.0</ele><time>2026-04-10T16:07:19.98Z</time></trkpt><trkpt lat="43.381055" lon="11.7337517"><ele>307.0</ele><time>2026-04-10T16:07:20.976Z</time></trkpt><trkpt lat="43.3809317" lon="11.7337783"><ele>305.0</ele><time>2026-04-10T16:07:21.978Z</time></trkpt><trkpt lat="43.3808133" lon="11.7338167"><ele>303.0</ele><time>2026-04-10T16:07:22.976Z</time></trkpt><trkpt lat="43.3807033" lon="11.733855"><ele>303.0</ele><time>2026-04-10T16:07:23.974Z</time></trkpt><trkpt lat="43.3805983" lon="11.7338967"><ele>303.0</ele><time>2026-04-10T16:07:24.974Z</time></trkpt><trkpt lat="43.3804983" lon="11.7339467"><ele>303.0</ele><time>2026-04-10T16:07:25.977Z</time></trkpt><trkpt lat="43.3804067" lon="11.7340167"><ele>303.0</ele><time>2026-04-10T16:07:26.977Z</time></trkpt><trkpt lat="43.3803233" lon="11.734095"><ele>303.0</ele><time>2026-04-10T16:07:27.977Z</time></trkpt><trkpt lat="43.3802467" lon="11.7341767"><ele>302.4</ele><time>2026-04-10T16:07:28.974Z</time></trkpt><trkpt lat="43.3801767" lon="11.7342683"><ele>301.8</ele><time>2026-04-10T16:07:29.979Z</time></trkpt><trkpt lat="43.380125" lon="11.7343833"><ele>301.2</ele><time>2026-04-10T16:07:30.978Z</time></trkpt><trkpt lat="43.3800883" lon="11.7345083"><ele>300.6</ele><time>2026-04-10T16:07:31.98Z</time></trkpt><trkpt lat="43.380055" lon="11.7346317"><ele>300.0</ele><time>2026-04-10T16:07:32.979Z</time></trkpt><trkpt lat="43.3800183" lon="11.7347517"><ele>299.6666666666667</ele><time>2026-04-10T16:07:33.986Z</time></trkpt><trkpt lat="43.37998" lon="11.7348683"><ele>299.3333333333333</ele><time>2026-04-10T16:07:34.979Z</time></trkpt><trkpt lat="43.3799467" lon="11.73498"><ele>299.0</ele><time>2026-04-10T16:07:35.977Z</time></trkpt><trkpt lat="43.3799133" lon="11.735085"><ele>298.66666666666663</ele><time>2026-04-10T16:07:36.978Z</time></trkpt><trkpt lat="43.37988" lon="11.7351917"><ele>298.3333333333333</ele><time>2026-04-10T16:07:37.981Z</time></trkpt><trkpt lat="43.3798433" lon="11.7352967"><ele>298.0</ele><time>2026-04-10T16:07:38.978Z</time></trkpt><trkpt lat="43.37981" lon="11.7354017"><ele>297.66666666666663</ele><time>2026-04-10T16:07:39.981Z</time></trkpt><trkpt lat="43.3797783" lon="11.7355017"><ele>297.3333333333333</ele><time>2026-04-10T16:07:40.975Z</time></trkpt><trkpt lat="43.3797517" lon="11.735605"><ele>297.0</ele><time>2026-04-10T16:07:41.978Z</time></trkpt><trkpt lat="43.379725" lon="11.735705"><ele>296.6666666666667</ele><time>2026-04-10T16:07:42.976Z</time></trkpt><trkpt lat="43.3796933" lon="11.735795"><ele>296.33333333333337</ele><time>2026-04-10T16:07:43.979Z</time></trkpt><trkpt lat="43.3796483" lon="11.7358733"><ele>296.0</ele><time>2026-04-10T16:07:44.978Z</time></trkpt><trkpt lat="43.37959" lon="11.7359417"><ele>295.83333333333337</ele><time>2026-04-10T16:07:45.973Z</time></trkpt><trkpt lat="43.3795133" lon="11.7359767"><ele>295.6666666666667</ele><time>2026-04-10T16:07:46.975Z</time></trkpt><trkpt lat="43.3794367" lon="11.736005"><ele>295.5</ele><time>2026-04-10T16:07:47.98Z</time></trkpt><trkpt lat="43.37936" lon="11.7360333"><ele>295.3333333333333</ele><time>2026-04-10T16:07:48.978Z</time></trkpt><trkpt lat="43.3792817" lon="11.7360583"><ele>295.16666666666663</ele><time>2026-04-10T16:07:49.979Z</time></trkpt><trkpt lat="43.3792033" lon="11.7360883"><ele>295.0</ele><time>2026-04-10T16:07:50.976Z</time></trkpt><trkpt lat="43.3791233" lon="11.7361167"><ele>293.8333333333333</ele><time>2026-04-10T16:07:51.975Z</time></trkpt><trkpt lat="43.3790417" lon="11.7361483"><ele>292.66666666666663</ele><time>2026-04-10T16:07:52.977Z</time></trkpt><trkpt lat="43.3789633" lon="11.7361833"><ele>291.5</ele><time>2026-04-10T16:07:53.978Z</time></trkpt><trkpt lat="43.3788867" lon="11.7362167"><ele>290.3333333333333</ele><time>2026-04-10T16:07:54.977Z</time></trkpt><trkpt lat="43.3788183" lon="11.736255"><ele>289.1666666666667</ele><time>2026-04-10T16:07:55.977Z</time></trkpt><trkpt lat="43.37875" lon="11.73629"><ele>288.0</ele><time>2026-04-10T16:07:56.976Z</time></trkpt><trkpt lat="43.3786833" lon="11.7363217"><ele>288.0</ele><time>2026-04-10T16:07:57.979Z</time></trkpt><trkpt lat="43.3786233" lon="11.73635"><ele>288.0</ele><time>2026-04-10T16:07:58.979Z</time></trkpt><trkpt lat="43.3785217" lon="11.7364067"><ele>288.0</ele><time>2026-04-10T16:08:00.98Z</time></trkpt><trkpt lat="43.378445" lon="11.736425"><ele>288.0</ele><time>2026-04-10T16:08:02.982Z</time></trkpt><trkpt lat="43.3783817" lon="11.7364467"><ele>288.0</ele><time>2026-04-10T16:08:04.979Z</time></trkpt><trkpt lat="43.3783233" lon="11.736515"><ele>288.0</ele><time>2026-04-10T16:08:06.977Z</time></trkpt><trkpt lat="43.3782617" lon="11.736585"><ele>288.0</ele><time>2026-04-10T16:08:08.975Z</time></trkpt><trkpt lat="43.3781917" lon="11.736635"><ele>288.0</ele><time>2026-04-10T16:08:10.976Z</time></trkpt><trkpt lat="43.3781217" lon="11.736705"><ele>288.0</ele><time>2026-04-10T16:08:12.977Z</time></trkpt><trkpt lat="43.37805" lon="11.736775"><ele>288.0</ele><time>2026-04-10T16:08:14.98Z</time></trkpt><trkpt lat="43.3779817" lon="11.7368367"><ele>288.0</ele><time>2026-04-10T16:08:16.976Z</time></trkpt><trkpt lat="43.3779133" lon="11.7368933"><ele>288.0</ele><time>2026-04-10T16:08:18.98Z</time></trkpt><trkpt lat="43.37785" lon="11.7369517"><ele>288.28571428571433</ele><time>2026-04-10T16:08:20.977Z</time></trkpt><trkpt lat="43.3777917" lon="11.737015"><ele>288.57142857142856</ele><time>2026-04-10T16:08:22.981Z</time></trkpt><trkpt lat="43.3777317" lon="11.73708"><ele>288.8571428571429</ele><time>2026-04-10T16:08:24.979Z</time></trkpt><trkpt lat="43.3776733" lon="11.7371417"><ele>289.14285714285717</ele><time>2026-04-10T16:08:26.98Z</time></trkpt><trkpt lat="43.3776167" lon="11.7371917"><ele>289.42857142857144</ele><time>2026-04-10T16:08:28.974Z</time></trkpt><trkpt lat="43.3775583" lon="11.7372483"><ele>289.7142857142857</ele><time>2026-04-10T16:08:30.975Z</time></trkpt><trkpt lat="43.377505" lon="11.7373117"><ele>290.0</ele><time>2026-04-10T16:08:32.975Z</time></trkpt><trkpt lat="43.3774517" lon="11.7373767"><ele>290.0</ele><time>2026-04-10T16:08:34.978Z</time></trkpt><trkpt lat="43.377395" lon="11.737435"><ele>290.0</ele><time>2026-04-10T16:08:36.976Z</time></trkpt><trkpt lat="43.3773417" lon="11.7374933"><ele>290.0</ele><time>2026-04-10T16:08:38.977Z</time></trkpt><trkpt lat="43.3772867" lon="11.7375517"><ele>290.0</ele><time>2026-04-10T16:08:40.976Z</time></trkpt><trkpt lat="43.37723" lon="11.73761"><ele>290.0</ele><time>2026-04-10T16:08:42.976Z</time></trkpt><trkpt lat="43.3771717" lon="11.7376617"><ele>290.0</ele><time>2026-04-10T16:08:44.981Z</time></trkpt><trkpt lat="43.3771133" lon="11.7377183"><ele>290.0</ele><time>2026-04-10T16:08:46.977Z</time></trkpt><trkpt lat="43.3770617" lon="11.7377783"><ele>290.42857142857144</ele><time>2026-04-10T16:08:48.98Z</time></trkpt><trkpt lat="43.3770133" lon="11.73785"><ele>290.8571428571429</ele><time>2026-04-10T16:08:50.978Z</time></trkpt><trkpt lat="43.376965" lon="11.7379133"><ele>291.2857142857143</ele><time>2026-04-10T16:08:52.976Z</time></trkpt><trkpt lat="43.3769133" lon="11.7379783"><ele>291.7142857142857</ele><time>2026-04-10T16:08:54.979Z</time></trkpt><trkpt lat="43.37686" lon="11.73804"><ele>292.1428571428571</ele><time>2026-04-10T16:08:56.979Z</time></trkpt><trkpt lat="43.37681" lon="11.7381033"><ele>292.57142857142856</ele><time>2026-04-10T16:08:58.974Z</time></trkpt><trkpt lat="43.3767617" lon="11.73817"><ele>293.0</ele><time>2026-04-10T16:09:00.978Z</time></trkpt><trkpt lat="43.37671" lon="11.7382367"><ele>292.99999999999994</ele><time>2026-04-10T16:09:02.98Z</time></trkpt><trkpt lat="43.3766533" lon="11.738295"><ele>293.0</ele><time>2026-04-10T16:09:04.978Z</time></trkpt><trkpt lat="43.3765967" lon="11.7383567"><ele>293.0</ele><time>2026-04-10T16:09:06.983Z</time></trkpt><trkpt lat="43.3765383" lon="11.73842"><ele>293.0</ele><time>2026-04-10T16:09:08.977Z</time></trkpt><trkpt lat="43.3764833" lon="11.7384833"><ele>293.0</ele><time>2026-04-10T16:09:10.977Z</time></trkpt><trkpt lat="43.3764267" lon="11.738555"><ele>292.99999999999994</ele><time>2026-04-10T16:09:12.977Z</time></trkpt><trkpt lat="43.3763667" lon="11.7386283"><ele>293.0</ele><time>2026-04-10T16:09:14.979Z</time></trkpt><trkpt lat="43.3763017" lon="11.7387033"><ele>293.33333333333337</ele><time>2026-04-10T16:09:16.976Z</time></trkpt><trkpt lat="43.37624" lon="11.7387817"><ele>293.6666666666667</ele><time>2026-04-10T16:09:18.978Z</time></trkpt><trkpt lat="43.3761817" lon="11.7388583"><ele>294.0</ele><time>2026-04-10T16:09:20.976Z</time></trkpt><trkpt lat="43.37612" lon="11.7389317"><ele>294.3333333333333</ele><time>2026-04-10T16:09:22.977Z</time></trkpt><trkpt lat="43.37606" lon="11.7390083"><ele>294.66666666666663</ele><time>2026-04-10T16:09:24.978Z</time></trkpt><trkpt lat="43.376" lon="11.7390833"><ele>295.0</ele><time>2026-04-10T16:09:26.977Z</time></trkpt><trkpt lat="43.3759417" lon="11.73916"><ele>295.0</ele><time>2026-04-10T16:09:28.979Z</time></trkpt><trkpt lat="43.3758867" lon="11.739245"><ele>295.0</ele><time>2026-04-10T16:09:30.975Z</time></trkpt><trkpt lat="43.3758317" lon="11.7393267"><ele>295.0</ele><time>2026-04-10T16:09:32.979Z</time></trkpt><trkpt lat="43.37575" lon="11.7394483"><ele>295.0</ele><time>2026-04-10T16:09:35.976Z</time></trkpt><trkpt lat="43.375705" lon="11.73953"><ele>295.0</ele><time>2026-04-10T16:09:37.977Z</time></trkpt><trkpt lat="43.375655" lon="11.7396067"><ele>295.0</ele><time>2026-04-10T16:09:39.977Z</time></trkpt><trkpt lat="43.3756067" lon="11.73968"><ele>295.0</ele><time>2026-04-10T16:09:41.976Z</time></trkpt><trkpt lat="43.3755683" lon="11.7397617"><ele>295.0</ele><time>2026-04-10T16:09:43.976Z</time></trkpt><trkpt lat="43.37551" lon="11.739865"><ele>295.0</ele><time>2026-04-10T16:09:46.978Z</time></trkpt><trkpt lat="43.37547" lon="11.7399417"><ele>295.0</ele><time>2026-04-10T16:09:48.981Z</time></trkpt><trkpt lat="43.3754283" lon="11.7400183"><ele>295.0</ele><time>2026-04-10T16:09:50.977Z</time></trkpt><trkpt lat="43.3753883" lon="11.7401067"><ele>295.0</ele><time>2026-04-10T16:09:52.979Z</time></trkpt><trkpt lat="43.3753683" lon="11.74021"><ele>294.66666666666663</ele><time>2026-04-10T16:09:54.981Z</time></trkpt><trkpt lat="43.37541" lon="11.740305"><ele>294.3333333333333</ele><time>2026-04-10T16:09:56.985Z</time></trkpt><trkpt lat="43.3754883" lon="11.740365"><ele>294.0</ele><time>2026-04-10T16:09:58.978Z</time></trkpt><trkpt lat="43.3755733" lon="11.7403967"><ele>293.6666666666667</ele><time>2026-04-10T16:10:00.978Z</time></trkpt><trkpt lat="43.3756667" lon="11.7404383"><ele>293.33333333333337</ele><time>2026-04-10T16:10:02.978Z</time></trkpt><trkpt lat="43.375755" lon="11.7404567"><ele>293.0</ele><time>2026-04-10T16:10:04.979Z</time></trkpt><trkpt lat="43.375835" lon="11.7404817"><ele>292.83333333333337</ele><time>2026-04-10T16:10:06.979Z</time></trkpt><trkpt lat="43.37591" lon="11.7405033"><ele>292.6666666666667</ele><time>2026-04-10T16:10:08.978Z</time></trkpt><trkpt lat="43.375985" lon="11.7405283"><ele>292.5</ele><time>2026-04-10T16:10:10.971Z</time></trkpt><trkpt lat="43.37606" lon="11.7405533"><ele>292.3333333333333</ele><time>2026-04-10T16:10:12.98Z</time></trkpt><trkpt lat="43.3761467" lon="11.7405867"><ele>292.16666666666663</ele><time>2026-04-10T16:10:14.973Z</time></trkpt><trkpt lat="43.37623" lon="11.7406283"><ele>292.0</ele><time>2026-04-10T16:10:16.975Z</time></trkpt><trkpt lat="43.3763083" lon="11.74068"><ele>291.8</ele><time>2026-04-10T16:10:18.979Z</time></trkpt><trkpt lat="43.376385" lon="11.7407433"><ele>291.6</ele><time>2026-04-10T16:10:20.984Z</time></trkpt><trkpt lat="43.3764583" lon="11.7408217"><ele>291.40000000000003</ele><time>2026-04-10T16:10:22.98Z</time></trkpt><trkpt lat="43.3765267" lon="11.7409083"><ele>291.2</ele><time>2026-04-10T16:10:24.984Z</time></trkpt><trkpt lat="43.376595" lon="11.7409967"><ele>291.0</ele><time>2026-04-10T16:10:26.978Z</time></trkpt><trkpt lat="43.376665" lon="11.7410817"><ele>291.0</ele><time>2026-04-10T16:10:28.978Z</time></trkpt><trkpt lat="43.3767317" lon="11.74117"><ele>291.0</ele><time>2026-04-10T16:10:30.979Z</time></trkpt><trkpt lat="43.3767983" lon="11.7412633"><ele>291.0</ele><time>2026-04-10T16:10:32.978Z</time></trkpt><trkpt lat="43.37686" lon="11.741355"><ele>291.0</ele><time>2026-04-10T16:10:34.978Z</time></trkpt><trkpt lat="43.3769167" lon="11.74145"><ele>291.0</ele><time>2026-04-10T16:10:36.979Z</time></trkpt><trkpt lat="43.3769633" lon="11.7415533"><ele>291.0</ele><time>2026-04-10T16:10:38.976Z</time></trkpt><trkpt lat="43.3770033" lon="11.741665"><ele>291.0</ele><time>2026-04-10T16:10:40.976Z</time></trkpt><trkpt lat="43.37704" lon="11.7417767"><ele>291.0</ele><time>2026-04-10T16:10:42.976Z</time></trkpt><trkpt lat="43.3770767" lon="11.74189"><ele>291.0</ele><time>2026-04-10T16:10:44.981Z</time></trkpt><trkpt lat="43.3771067" lon="11.7420067"><ele>291.0</ele><time>2026-04-10T16:10:46.976Z</time></trkpt><trkpt lat="43.3771367" lon="11.74212"><ele>291.0</ele><time>2026-04-10T16:10:48.979Z</time></trkpt><trkpt lat="43.3771667" lon="11.7422317"><ele>291.0</ele><time>2026-04-10T16:10:50.979Z</time></trkpt><trkpt lat="43.3771967" lon="11.742335"><ele>291.0</ele><time>2026-04-10T16:10:52.978Z</time></trkpt><trkpt lat="43.3772267" lon="11.7424517"><ele>291.0</ele><time>2026-04-10T16:10:54.977Z</time></trkpt><trkpt lat="43.3772617" lon="11.7425917"><ele>291.0</ele><time>2026-04-10T16:10:56.977Z</time></trkpt><trkpt lat="43.3772917" lon="11.7427033"><ele>291.0</ele><time>2026-04-10T16:10:58.977Z</time></trkpt><trkpt lat="43.37732" lon="11.7428167"><ele>291.0</ele><time>2026-04-10T16:11:00.976Z</time></trkpt><trkpt lat="43.377355" lon="11.7429333"><ele>291.0</ele><time>2026-04-10T16:11:02.979Z</time></trkpt><trkpt lat="43.377395" lon="11.7430433"><ele>291.0</ele><time>2026-04-10T16:11:04.979Z</time></trkpt><trkpt lat="43.3774383" lon="11.74316"><ele>291.0</ele><time>2026-04-10T16:11:06.979Z</time></trkpt><trkpt lat="43.3774817" lon="11.7432783"><ele>291.0</ele><time>2026-04-10T16:11:08.978Z</time></trkpt><trkpt lat="43.377525" lon="11.74339"><ele>291.0</ele><time>2026-04-10T16:11:10.981Z</time></trkpt><trkpt lat="43.3775683" lon="11.74349"><ele>291.0</ele><time>2026-04-10T16:11:12.972Z</time></trkpt><trkpt lat="43.3776133" lon="11.743625"><ele>291.0</ele><time>2026-04-10T16:11:14.978Z</time></trkpt><trkpt lat="43.3776433" lon="11.7437017"><ele>291.0</ele><time>2026-04-10T16:11:15.973Z</time></trkpt><trkpt lat="43.377705" lon="11.74383"><ele>291.0</ele><time>2026-04-10T16:11:17.974Z</time></trkpt><trkpt lat="43.37776" lon="11.7439417"><ele>290.8333333333333</ele><time>2026-04-10T16:11:19.979Z</time></trkpt><trkpt lat="43.3778067" lon="11.744045"><ele>290.6666666666667</ele><time>2026-04-10T16:11:21.976Z</time></trkpt><trkpt lat="43.3778533" lon="11.7441467"><ele>290.5</ele><time>2026-04-10T16:11:23.979Z</time></trkpt><trkpt lat="43.3778967" lon="11.7442483"><ele>290.33333333333337</ele><time>2026-04-10T16:11:25.975Z</time></trkpt><trkpt lat="43.3779367" lon="11.7443367"><ele>290.1666666666667</ele><time>2026-04-10T16:11:27.972Z</time></trkpt><trkpt lat="43.3779733" lon="11.7444333"><ele>290.0</ele><time>2026-04-10T16:11:29.975Z</time></trkpt><trkpt lat="43.3780017" lon="11.7445217"><ele>290.33333333333337</ele><time>2026-04-10T16:11:31.977Z</time></trkpt><trkpt lat="43.3780417" lon="11.7446133"><ele>290.6666666666667</ele><time>2026-04-10T16:11:33.978Z</time></trkpt><trkpt lat="43.37808" lon="11.74471"><ele>291.0</ele><time>2026-04-10T16:11:35.977Z</time></trkpt><trkpt lat="43.3781183" lon="11.7448033"><ele>291.3333333333333</ele><time>2026-04-10T16:11:37.977Z</time></trkpt><trkpt lat="43.378155" lon="11.7449017"><ele>291.66666666666663</ele><time>2026-04-10T16:11:39.977Z</time></trkpt><trkpt lat="43.3781933" lon="11.7450017"><ele>292.0</ele><time>2026-04-10T16:11:41.98Z</time></trkpt><trkpt lat="43.378235" lon="11.7451067"><ele>292.0</ele><time>2026-04-10T16:11:43.978Z</time></trkpt><trkpt lat="43.3782783" lon="11.74522"><ele>292.0</ele><time>2026-04-10T16:11:45.979Z</time></trkpt><trkpt lat="43.3783233" lon="11.74534"><ele>292.0</ele><time>2026-04-10T16:11:47.975Z</time></trkpt><trkpt lat="43.3783733" lon="11.74546"><ele>292.0</ele><time>2026-04-10T16:11:49.977Z</time></trkpt><trkpt lat="43.37843" lon="11.745595"><ele>292.0</ele><time>2026-04-10T16:11:51.98Z</time></trkpt><trkpt lat="43.378485" lon="11.74575"><ele>292.0</ele><time>2026-04-10T16:11:53.977Z</time></trkpt><trkpt lat="43.3785183" lon="11.745835"><ele>292.0</ele><time>2026-04-10T16:11:54.977Z</time></trkpt><trkpt lat="43.3785517" lon="11.7459167"><ele>292.0</ele><time>2026-04-10T16:11:55.982Z</time></trkpt><trkpt lat="43.378585" lon="11.7459983"><ele>292.0</ele><time>2026-04-10T16:11:56.978Z</time></trkpt><trkpt lat="43.37862" lon="11.7460833"><ele>292.0</ele><time>2026-04-10T16:11:57.976Z</time></trkpt><trkpt lat="43.3786567" lon="11.7461667"><ele>292.0</ele><time>2026-04-10T16:11:58.98Z</time></trkpt><trkpt lat="43.37869" lon="11.7462433"><ele>292.0</ele><time>2026-04-10T16:11:59.977Z</time></trkpt><trkpt lat="43.3787233" lon="11.7463183"><ele>291.0</ele><time>2026-04-10T16:12:00.979Z</time></trkpt><trkpt lat="43.3787767" lon="11.746455"><ele>290.0</ele><time>2026-04-10T16:12:02.98Z</time></trkpt><trkpt lat="43.3788133" lon="11.7465717"><ele>289.0</ele><time>2026-04-10T16:12:04.978Z</time></trkpt><trkpt lat="43.378775" lon="11.7467083"><ele>288.0</ele><time>2026-04-10T16:12:06.978Z</time></trkpt><trkpt lat="43.3786917" lon="11.7467867"><ele>287.0</ele><time>2026-04-10T16:12:08.98Z</time></trkpt><trkpt lat="43.3785983" lon="11.746835"><ele>287.0</ele><time>2026-04-10T16:12:10.979Z</time></trkpt><trkpt lat="43.378485" lon="11.7468717"><ele>287.0</ele><time>2026-04-10T16:12:12.979Z</time></trkpt><trkpt lat="43.3783817" lon="11.7469167"><ele>287.0</ele><time>2026-04-10T16:12:14.978Z</time></trkpt><trkpt lat="43.3782733" lon="11.7469617"><ele>287.0</ele><time>2026-04-10T16:12:16.98Z</time></trkpt><trkpt lat="43.3781533" lon="11.747005"><ele>285.4</ele><time>2026-04-10T16:12:18.978Z</time></trkpt><trkpt lat="43.3780917" lon="11.74703"><ele>283.79999999999995</ele><time>2026-04-10T16:12:19.976Z</time></trkpt><trkpt lat="43.3779667" lon="11.7470717"><ele>282.2</ele><time>2026-04-10T16:12:21.98Z</time></trkpt><trkpt lat="43.3779033" lon="11.7470917"><ele>280.59999999999997</ele><time>2026-04-10T16:12:22.977Z</time></trkpt><trkpt lat="43.37778" lon="11.7471317"><ele>279.0</ele><time>2026-04-10T16:12:24.979Z</time></trkpt><trkpt lat="43.3777167" lon="11.74716"><ele>278.85714285714283</ele><time>2026-04-10T16:12:25.979Z</time></trkpt><trkpt lat="43.3776567" lon="11.747195"><ele>278.7142857142857</ele><time>2026-04-10T16:12:26.978Z</time></trkpt><trkpt lat="43.3775983" lon="11.747235"><ele>278.57142857142856</ele><time>2026-04-10T16:12:27.975Z</time></trkpt><trkpt lat="43.3775367" lon="11.7472817"><ele>278.42857142857144</ele><time>2026-04-10T16:12:28.979Z</time></trkpt><trkpt lat="43.37747" lon="11.747325"><ele>278.2857142857143</ele><time>2026-04-10T16:12:29.978Z</time></trkpt><trkpt lat="43.3774" lon="11.7473567"><ele>278.1428571428571</ele><time>2026-04-10T16:12:30.978Z</time></trkpt><trkpt lat="43.3773283" lon="11.7473733"><ele>278.0</ele><time>2026-04-10T16:12:31.973Z</time></trkpt><trkpt lat="43.3772533" lon="11.7473767"><ele>278.0</ele><time>2026-04-10T16:12:32.975Z</time></trkpt><trkpt lat="43.3771783" lon="11.7473717"><ele>278.0</ele><time>2026-04-10T16:12:33.981Z</time></trkpt><trkpt lat="43.3771033" lon="11.7473617"><ele>278.0</ele><time>2026-04-10T16:12:34.978Z</time></trkpt><trkpt lat="43.3770267" lon="11.7473533"><ele>278.0</ele><time>2026-04-10T16:12:35.978Z</time></trkpt><trkpt lat="43.3769517" lon="11.7473417"><ele>278.0</ele><time>2026-04-10T16:12:36.979Z</time></trkpt><trkpt lat="43.376875" lon="11.7473333"><ele>278.0</ele><time>2026-04-10T16:12:37.981Z</time></trkpt><trkpt lat="43.3768033" lon="11.747325"><ele>278.0</ele><time>2026-04-10T16:12:38.978Z</time></trkpt><trkpt lat="43.3767333" lon="11.7473117"><ele>278.0</ele><time>2026-04-10T16:12:39.977Z</time></trkpt><trkpt lat="43.376665" lon="11.7472917"><ele>278.0</ele><time>2026-04-10T16:12:40.976Z</time></trkpt><trkpt lat="43.3765983" lon="11.7472733"><ele>278.0</ele><time>2026-04-10T16:12:41.979Z</time></trkpt><trkpt lat="43.376535" lon="11.7472567"><ele>278.0</ele><time>2026-04-10T16:12:42.978Z</time></trkpt><trkpt lat="43.37642" lon="11.7472567"><ele>278.0</ele><time>2026-04-10T16:12:44.979Z</time></trkpt><trkpt lat="43.37631" lon="11.7474117"><ele>277.75</ele><time>2026-04-10T16:12:47.976Z</time></trkpt><trkpt lat="43.3762917" lon="11.747555"><ele>277.5</ele><time>2026-04-10T16:12:49.978Z</time></trkpt><trkpt lat="43.376275" lon="11.747705"><ele>277.25</ele><time>2026-04-10T16:12:51.978Z</time></trkpt><trkpt lat="43.37625" lon="11.7478617"><ele>277.0</ele><time>2026-04-10T16:12:53.978Z</time></trkpt><trkpt lat="43.376225" lon="11.7480233"><ele>276.66666666666663</ele><time>2026-04-10T16:12:55.978Z</time></trkpt><trkpt lat="43.376205" lon="11.7481683"><ele>276.3333333333333</ele><time>2026-04-10T16:12:57.977Z</time></trkpt><trkpt lat="43.3762333" lon="11.7482767"><ele>276.0</ele><time>2026-04-10T16:12:59.972Z</time></trkpt><trkpt lat="43.3763083" lon="11.7483"><ele>275.6666666666667</ele><time>2026-04-10T16:13:01.976Z</time></trkpt><trkpt lat="43.3763767" lon="11.74824"><ele>275.33333333333337</ele><time>2026-04-10T16:13:03.978Z</time></trkpt><trkpt lat="43.3764417" lon="11.7481833"><ele>275.0</ele><time>2026-04-10T16:13:05.974Z</time></trkpt><trkpt lat="43.376505" lon="11.7481133"><ele>274.83333333333337</ele><time>2026-04-10T16:13:07.978Z</time></trkpt><trkpt lat="43.3765667" lon="11.7480433"><ele>274.6666666666667</ele><time>2026-04-10T16:13:09.98Z</time></trkpt><trkpt lat="43.3766267" lon="11.7479733"><ele>274.5</ele><time>2026-04-10T16:13:11.976Z</time></trkpt><trkpt lat="43.37669" lon="11.74792"><ele>274.3333333333333</ele><time>2026-04-10T16:13:13.977Z</time></trkpt><trkpt lat="43.376755" lon="11.7478683"><ele>274.16666666666663</ele><time>2026-04-10T16:13:15.977Z</time></trkpt><trkpt lat="43.3768233" lon="11.7478217"><ele>274.0</ele><time>2026-04-10T16:13:17.975Z</time></trkpt><trkpt lat="43.376895" lon="11.7477783"><ele>274.00000000000006</ele><time>2026-04-10T16:13:19.978Z</time></trkpt><trkpt lat="43.3769617" lon="11.7477433"><ele>274.0</ele><time>2026-04-10T16:13:21.979Z</time></trkpt><trkpt lat="43.3770483" lon="11.7477067"><ele>274.0</ele><time>2026-04-10T16:13:24.977Z</time></trkpt><trkpt lat="43.3771117" lon="11.74768"><ele>274.0</ele><time>2026-04-10T16:13:26.978Z</time></trkpt><trkpt lat="43.3771883" lon="11.7476483"><ele>274.0</ele><time>2026-04-10T16:13:29.978Z</time></trkpt><trkpt lat="43.3772617" lon="11.7476183"><ele>274.00000000000006</ele><time>2026-04-10T16:13:31.975Z</time></trkpt><trkpt lat="43.3773217" lon="11.7475917"><ele>274.0</ele><time>2026-04-10T16:13:33.975Z</time></trkpt><trkpt lat="43.37742" lon="11.7475517"><ele>274.66666666666663</ele><time>2026-04-10T16:13:37.977Z</time></trkpt><trkpt lat="43.3774933" lon="11.74752"><ele>275.3333333333333</ele><time>2026-04-10T16:13:39.98Z</time></trkpt><trkpt lat="43.377565" lon="11.74749"><ele>276.0</ele><time>2026-04-10T16:13:42.98Z</time></trkpt><trkpt lat="43.3776483" lon="11.7474883"><ele>276.6666666666667</ele><time>2026-04-10T16:13:44.973Z</time></trkpt><trkpt lat="43.3777467" lon="11.7475267"><ele>277.33333333333337</ele><time>2026-04-10T16:13:47.978Z</time></trkpt><trkpt lat="43.377835" lon="11.7475333"><ele>278.0</ele><time>2026-04-10T16:13:49.976Z</time></trkpt><trkpt lat="43.3779133" lon="11.7475633"><ele>278.0</ele><time>2026-04-10T16:13:51.977Z</time></trkpt><trkpt lat="43.37799" lon="11.747585"><ele>278.0</ele><time>2026-04-10T16:13:53.979Z</time></trkpt><trkpt lat="43.3780683" lon="11.7475983"><ele>278.0</ele><time>2026-04-10T16:13:55.978Z</time></trkpt><trkpt lat="43.3781533" lon="11.7476083"><ele>278.0</ele><time>2026-04-10T16:13:57.979Z</time></trkpt><trkpt lat="43.378245" lon="11.7476117"><ele>278.0</ele><time>2026-04-10T16:13:59.978Z</time></trkpt><trkpt lat="43.3783417" lon="11.7476133"><ele>278.0</ele><time>2026-04-10T16:14:01.98Z</time></trkpt><trkpt lat="43.3784417" lon="11.7476167"><ele>278.2</ele><time>2026-04-10T16:14:03.98Z</time></trkpt><trkpt lat="43.3785417" lon="11.7476183"><ele>278.4</ele><time>2026-04-10T16:14:05.978Z</time></trkpt><trkpt lat="43.37864" lon="11.74762"><ele>278.59999999999997</ele><time>2026-04-10T16:14:07.975Z</time></trkpt><trkpt lat="43.3787317" lon="11.7476283"><ele>278.8</ele><time>2026-04-10T16:14:09.974Z</time></trkpt><trkpt lat="43.3788183" lon="11.74763"><ele>279.0</ele><time>2026-04-10T16:14:11.979Z</time></trkpt><trkpt lat="43.378905" lon="11.74764"><ele>278.6666666666667</ele><time>2026-04-10T16:14:13.979Z</time></trkpt><trkpt lat="43.3789883" lon="11.7476433"><ele>278.3333333333333</ele><time>2026-04-10T16:14:15.981Z</time></trkpt><trkpt lat="43.3790683" lon="11.74765"><ele>278.0</ele><time>2026-04-10T16:14:17.976Z</time></trkpt><trkpt lat="43.3791467" lon="11.747655"><ele>277.66666666666663</ele><time>2026-04-10T16:14:19.978Z</time></trkpt><trkpt lat="43.37923" lon="11.7476633"><ele>277.3333333333333</ele><time>2026-04-10T16:14:21.979Z</time></trkpt><trkpt lat="43.37931" lon="11.74767"><ele>277.0</ele><time>2026-04-10T16:14:23.977Z</time></trkpt><trkpt lat="43.379385" lon="11.74768"><ele>277.0</ele><time>2026-04-10T16:14:25.979Z</time></trkpt><trkpt lat="43.3794583" lon="11.747695"><ele>277.0</ele><time>2026-04-10T16:14:27.975Z</time></trkpt><trkpt lat="43.3795333" lon="11.7477167"><ele>277.0</ele><time>2026-04-10T16:14:29.979Z</time></trkpt><trkpt lat="43.379605" lon="11.7477283"><ele>277.0</ele><time>2026-04-10T16:14:31.978Z</time></trkpt><trkpt lat="43.3796817" lon="11.74774"><ele>277.0</ele><time>2026-04-10T16:14:33.981Z</time></trkpt><trkpt lat="43.3797567" lon="11.7477533"><ele>277.0</ele><time>2026-04-10T16:14:35.977Z</time></trkpt><trkpt lat="43.3798283" lon="11.74777"><ele>277.0</ele><time>2026-04-10T16:14:37.978Z</time></trkpt><trkpt lat="43.3798883" lon="11.7478117"><ele>276.2</ele><time>2026-04-10T16:14:39.975Z</time></trkpt><trkpt lat="43.3799017" lon="11.747905"><ele>275.4</ele><time>2026-04-10T16:14:41.975Z</time></trkpt><trkpt lat="43.3798467" lon="11.7480317"><ele>274.6</ele><time>2026-04-10T16:14:43.974Z</time></trkpt><trkpt lat="43.3797767" lon="11.7481767"><ele>273.8</ele><time>2026-04-10T16:14:45.978Z</time></trkpt><trkpt lat="43.379735" lon="11.748245"><ele>273.0</ele><time>2026-04-10T16:14:46.977Z</time></trkpt><trkpt lat="43.3796733" lon="11.7483267"><ele>273.0</ele><time>2026-04-10T16:14:47.979Z</time></trkpt><trkpt lat="43.3796183" lon="11.7483983"><ele>273.0</ele><time>2026-04-10T16:14:48.978Z</time></trkpt><trkpt lat="43.3795633" lon="11.7484683"><ele>273.0</ele><time>2026-04-10T16:14:49.975Z</time></trkpt><trkpt lat="43.3795133" lon="11.74854"><ele>273.0</ele><time>2026-04-10T16:14:50.98Z</time></trkpt><trkpt lat="43.3794633" lon="11.7486133"><ele>273.0</ele><time>2026-04-10T16:14:51.98Z</time></trkpt><trkpt lat="43.3794167" lon="11.7486883"><ele>273.0</ele><time>2026-04-10T16:14:52.979Z</time></trkpt><trkpt lat="43.379375" lon="11.7487683"><ele>273.0</ele><time>2026-04-10T16:14:53.978Z</time></trkpt><trkpt lat="43.3793317" lon="11.7488517"><ele>272.85714285714283</ele><time>2026-04-10T16:14:54.976Z</time></trkpt><trkpt lat="43.3792917" lon="11.748935"><ele>272.7142857142857</ele><time>2026-04-10T16:14:55.979Z</time></trkpt><trkpt lat="43.3792533" lon="11.7490233"><ele>272.57142857142856</ele><time>2026-04-10T16:14:56.979Z</time></trkpt><trkpt lat="43.3792183" lon="11.7491117"><ele>272.42857142857144</ele><time>2026-04-10T16:14:57.979Z</time></trkpt><trkpt lat="43.3791867" lon="11.7491933"><ele>272.2857142857143</ele><time>2026-04-10T16:14:58.974Z</time></trkpt><trkpt lat="43.3791533" lon="11.7492767"><ele>272.1428571428571</ele><time>2026-04-10T16:14:59.975Z</time></trkpt><trkpt lat="43.3791217" lon="11.74936"><ele>272.0</ele><time>2026-04-10T16:15:00.974Z</time></trkpt><trkpt lat="43.3790917" lon="11.74944"><ele>271.85714285714283</ele><time>2026-04-10T16:15:01.978Z</time></trkpt><trkpt lat="43.37906" lon="11.7495183"><ele>271.7142857142857</ele><time>2026-04-10T16:15:02.981Z</time></trkpt><trkpt lat="43.37903" lon="11.7495983"><ele>271.57142857142856</ele><time>2026-04-10T16:15:03.974Z</time></trkpt><trkpt lat="43.3789967" lon="11.7496783"><ele>271.42857142857144</ele><time>2026-04-10T16:15:04.981Z</time></trkpt><trkpt lat="43.3789617" lon="11.749755"><ele>271.2857142857143</ele><time>2026-04-10T16:15:05.974Z</time></trkpt><trkpt lat="43.378925" lon="11.7498267"><ele>271.1428571428571</ele><time>2026-04-10T16:15:06.978Z</time></trkpt><trkpt lat="43.3788567" lon="11.749955"><ele>271.0</ele><time>2026-04-10T16:15:08.977Z</time></trkpt><trkpt lat="43.3788" lon="11.7500817"><ele>270.8</ele><time>2026-04-10T16:15:10.979Z</time></trkpt><trkpt lat="43.3787517" lon="11.7501967"><ele>270.6</ele><time>2026-04-10T16:15:12.978Z</time></trkpt><trkpt lat="43.3787067" lon="11.7503067"><ele>270.4</ele><time>2026-04-10T16:15:14.979Z</time></trkpt><trkpt lat="43.37867" lon="11.7504183"><ele>270.2</ele><time>2026-04-10T16:15:16.974Z</time></trkpt><trkpt lat="43.37864" lon="11.75053"><ele>270.0</ele><time>2026-04-10T16:15:18.977Z</time></trkpt><trkpt lat="43.3786167" lon="11.750645"><ele>270.0</ele><time>2026-04-10T16:15:20.977Z</time></trkpt><trkpt lat="43.3785983" lon="11.750755"><ele>270.0</ele><time>2026-04-10T16:15:22.976Z</time></trkpt><trkpt lat="43.3785817" lon="11.7508683"><ele>270.0</ele><time>2026-04-10T16:15:24.98Z</time></trkpt><trkpt lat="43.3785667" lon="11.75098"><ele>270.0</ele><time>2026-04-10T16:15:26.983Z</time></trkpt><trkpt lat="43.378545" lon="11.751095"><ele>270.0</ele><time>2026-04-10T16:15:28.978Z</time></trkpt><trkpt lat="43.3785183" lon="11.7512133"><ele>270.0</ele><time>2026-04-10T16:15:30.978Z</time></trkpt><trkpt lat="43.3784917" lon="11.7513333"><ele>269.8333333333333</ele><time>2026-04-10T16:15:32.977Z</time></trkpt><trkpt lat="43.3784633" lon="11.7514433"><ele>269.6666666666667</ele><time>2026-04-10T16:15:34.975Z</time></trkpt><trkpt lat="43.3784433" lon="11.7515533"><ele>269.5</ele><time>2026-04-10T16:15:36.981Z</time></trkpt><trkpt lat="43.3784333" lon="11.7516583"><ele>269.33333333333337</ele><time>2026-04-10T16:15:38.98Z</time></trkpt><trkpt lat="43.3784317" lon="11.751765"><ele>269.1666666666667</ele><time>2026-04-10T16:15:40.979Z</time></trkpt><trkpt lat="43.378435" lon="11.751865"><ele>269.0</ele><time>2026-04-10T16:15:42.98Z</time></trkpt><trkpt lat="43.37844" lon="11.7519633"><ele>269.0</ele><time>2026-04-10T16:15:44.978Z</time></trkpt><trkpt lat="43.3784433" lon="11.75206"><ele>269.0</ele><time>2026-04-10T16:15:46.978Z</time></trkpt><trkpt lat="43.37845" lon="11.7521583"><ele>269.0</ele><time>2026-04-10T16:15:48.979Z</time></trkpt><trkpt lat="43.3784517" lon="11.75225"><ele>269.0</ele><time>2026-04-10T16:15:50.979Z</time></trkpt><trkpt lat="43.378455" lon="11.7523433"><ele>269.0</ele><time>2026-04-10T16:15:52.978Z</time></trkpt><trkpt lat="43.3784533" lon="11.7524317"><ele>269.0</ele><time>2026-04-10T16:15:54.98Z</time></trkpt><trkpt lat="43.378455" lon="11.7525567"><ele>269.0</ele><time>2026-04-10T16:15:57.976Z</time></trkpt><trkpt lat="43.37846" lon="11.7526667"><ele>269.0</ele><time>2026-04-10T16:16:00.975Z</time></trkpt><trkpt lat="43.3784617" lon="11.752765"><ele>269.0</ele><time>2026-04-10T16:16:03.977Z</time></trkpt><trkpt lat="43.3784633" lon="11.7528583"><ele>269.0</ele><time>2026-04-10T16:16:06.977Z</time></trkpt><trkpt lat="43.3784767" lon="11.7529617"><ele>269.0</ele><time>2026-04-10T16:16:10.977Z</time></trkpt><trkpt lat="43.3784733" lon="11.7530617"><ele>269.0</ele><time>2026-04-10T16:16:35.978Z</time></trkpt><trkpt lat="43.378475" lon="11.7531483"><ele>269.0</ele><time>2026-04-10T16:16:51.979Z</time></trkpt><trkpt lat="43.37847" lon="11.7532383"><ele>269.0</ele><time>2026-04-10T16:16:58.978Z</time></trkpt><trkpt lat="43.3784557" lon="11.7533311"><ele>269.0</ele><time>2026-04-10T16:17:06.107Z</time></trkpt><trkpt lat="43.3784701" lon="11.753422"><ele>269.0</ele><time>2026-04-10T16:17:17.012Z</time></trkpt><trkpt lat="43.3784652" lon="11.7535322"><ele>269.0</ele><time>2026-04-10T16:17:20.999Z</time></trkpt><trkpt lat="43.378469" lon="11.753629"><ele>269.0</ele><time>2026-04-10T16:17:24.047Z</time></trkpt><trkpt lat="43.378495" lon="11.7537767"><ele>269.0</ele><time>2026-04-10T16:17:26.978Z</time></trkpt><trkpt lat="43.37852" lon="11.7538567"><ele>269.0</ele><time>2026-04-10T16:17:28.975Z</time></trkpt><trkpt lat="43.378545" lon="11.753975"><ele>269.0</ele><time>2026-04-10T16:17:31.979Z</time></trkpt><trkpt lat="43.3785583" lon="11.754065"><ele>269.0</ele><time>2026-04-10T16:17:33.979Z</time></trkpt><trkpt lat="43.3785633" lon="11.7541867"><ele>269.0</ele><time>2026-04-10T16:17:36.979Z</time></trkpt><trkpt lat="43.3785517" lon="11.754275"><ele>269.0</ele><time>2026-04-10T16:17:38.98Z</time></trkpt><trkpt lat="43.37853" lon="11.7543617"><ele>269.0</ele><time>2026-04-10T16:17:40.977Z</time></trkpt><trkpt lat="43.37851" lon="11.7544483"><ele>269.0</ele><time>2026-04-10T16:17:42.98Z</time></trkpt><trkpt lat="43.378495" lon="11.7545383"><ele>269.0</ele><time>2026-04-10T16:17:44.98Z</time></trkpt><trkpt lat="43.3784667" lon="11.7546367"><ele>269.14285714285717</ele><time>2026-04-10T16:17:46.98Z</time></trkpt><trkpt lat="43.3784467" lon="11.75474"><ele>269.28571428571433</ele><time>2026-04-10T16:17:48.977Z</time></trkpt><trkpt lat="43.3784267" lon="11.7548333"><ele>269.42857142857144</ele><time>2026-04-10T16:17:50.979Z</time></trkpt><trkpt lat="43.378405" lon="11.754925"><ele>269.57142857142856</ele><time>2026-04-10T16:17:52.978Z</time></trkpt><trkpt lat="43.3783833" lon="11.75501"><ele>269.71428571428567</ele><time>2026-04-10T16:17:54.978Z</time></trkpt><trkpt lat="43.37836" lon="11.755095"><ele>269.85714285714283</ele><time>2026-04-10T16:17:56.979Z</time></trkpt><trkpt lat="43.37833" lon="11.7552133"><ele>270.0</ele><time>2026-04-10T16:17:59.976Z</time></trkpt><trkpt lat="43.3783083" lon="11.7553333"><ele>270.0</ele><time>2026-04-10T16:18:02.977Z</time></trkpt><trkpt lat="43.378295" lon="11.755455"><ele>270.0</ele><time>2026-04-10T16:18:05.976Z</time></trkpt><trkpt lat="43.37828" lon="11.7555583"><ele>270.0</ele><time>2026-04-10T16:18:08.977Z</time></trkpt><trkpt lat="43.37825" lon="11.7556867"><ele>270.0</ele><time>2026-04-10T16:18:11.979Z</time></trkpt><trkpt lat="43.3782217" lon="11.7557833"><ele>270.0</ele><time>2026-04-10T16:18:13.978Z</time></trkpt><trkpt lat="43.3781933" lon="11.7558883"><ele>270.0</ele><time>2026-04-10T16:18:15.979Z</time></trkpt><trkpt lat="43.3781617" lon="11.7559883"><ele>269.8</ele><time>2026-04-10T16:18:17.978Z</time></trkpt><trkpt lat="43.37813" lon="11.756105"><ele>269.6</ele><time>2026-04-10T16:18:19.978Z</time></trkpt><trkpt lat="43.3781" lon="11.7562283"><ele>269.4</ele><time>2026-04-10T16:18:21.979Z</time></trkpt><trkpt lat="43.37807" lon="11.7563683"><ele>269.2</ele><time>2026-04-10T16:18:23.979Z</time></trkpt><trkpt lat="43.3780533" lon="11.7565267"><ele>269.0</ele><time>2026-04-10T16:18:25.979Z</time></trkpt><trkpt lat="43.3780517" lon="11.756615"><ele>269.0</ele><time>2026-04-10T16:18:26.979Z</time></trkpt><trkpt lat="43.378055" lon="11.75671"><ele>269.0</ele><time>2026-04-10T16:18:27.979Z</time></trkpt><trkpt lat="43.3780583" lon="11.7568167"><ele>269.0</ele><time>2026-04-10T16:18:28.977Z</time></trkpt><trkpt lat="43.3780583" lon="11.756905"><ele>269.0</ele><time>2026-04-10T16:18:29.982Z</time></trkpt><trkpt lat="43.3780733" lon="11.7570217"><ele>269.0</ele><time>2026-04-10T16:18:31.981Z</time></trkpt><trkpt lat="43.3780633" lon="11.7571367"><ele>269.0</ele><time>2026-04-10T16:18:33.979Z</time></trkpt><trkpt lat="43.3780467" lon="11.757245"><ele>269.0</ele><time>2026-04-10T16:18:35.978Z</time></trkpt><trkpt lat="43.3780233" lon="11.75735"><ele>269.0</ele><time>2026-04-10T16:18:37.98Z</time></trkpt><trkpt lat="43.3779883" lon="11.75745"><ele>269.0</ele><time>2026-04-10T16:18:39.976Z</time></trkpt><trkpt lat="43.3779383" lon="11.75754"><ele>269.0</ele><time>2026-04-10T16:18:41.977Z</time></trkpt><trkpt lat="43.3778833" lon="11.7576233"><ele>269.0</ele><time>2026-04-10T16:18:43.979Z</time></trkpt><trkpt lat="43.3778217" lon="11.75771"><ele>269.0</ele><time>2026-04-10T16:18:45.98Z</time></trkpt><trkpt lat="43.3777617" lon="11.7577983"><ele>269.1666666666667</ele><time>2026-04-10T16:18:47.976Z</time></trkpt><trkpt lat="43.3776967" lon="11.75788"><ele>269.33333333333337</ele><time>2026-04-10T16:18:49.977Z</time></trkpt><trkpt lat="43.3776367" lon="11.75796"><ele>269.5</ele><time>2026-04-10T16:18:51.976Z</time></trkpt><trkpt lat="43.3775783" lon="11.7580417"><ele>269.6666666666667</ele><time>2026-04-10T16:18:53.98Z</time></trkpt><trkpt lat="43.3775183" lon="11.758125"><ele>269.8333333333333</ele><time>2026-04-10T16:18:55.978Z</time></trkpt><trkpt lat="43.3774617" lon="11.7582067"><ele>270.0</ele><time>2026-04-10T16:18:57.978Z</time></trkpt><trkpt lat="43.3774067" lon="11.7582833"><ele>270.0</ele><time>2026-04-10T16:18:59.981Z</time></trkpt><trkpt lat="43.3773567" lon="11.7583567"><ele>270.0</ele><time>2026-04-10T16:19:01.978Z</time></trkpt><trkpt lat="43.37731" lon="11.7584467"><ele>270.0</ele><time>2026-04-10T16:19:03.982Z</time></trkpt><trkpt lat="43.3772517" lon="11.7585217"><ele>270.0</ele><time>2026-04-10T16:19:05.979Z</time></trkpt><trkpt lat="43.3771933" lon="11.7586017"><ele>270.0</ele><time>2026-04-10T16:19:07.981Z</time></trkpt><trkpt lat="43.3771417" lon="11.75869"><ele>270.0</ele><time>2026-04-10T16:19:09.977Z</time></trkpt><trkpt lat="43.3770933" lon="11.75877"><ele>270.0</ele><time>2026-04-10T16:19:11.979Z</time></trkpt><trkpt lat="43.377045" lon="11.7588517"><ele>270.0</ele><time>2026-04-10T16:19:13.979Z</time></trkpt><trkpt lat="43.376995" lon="11.7589317"><ele>270.0</ele><time>2026-04-10T16:19:15.978Z</time></trkpt><trkpt lat="43.3769467" lon="11.7590133"><ele>270.0</ele><time>2026-04-10T16:19:17.982Z</time></trkpt><trkpt lat="43.3768983" lon="11.7590933"><ele>270.0</ele><time>2026-04-10T16:19:19.978Z</time></trkpt><trkpt lat="43.376855" lon="11.75918"><ele>270.0</ele><time>2026-04-10T16:19:21.98Z</time></trkpt><trkpt lat="43.3768417" lon="11.7592967"><ele>270.0</ele><time>2026-04-10T16:19:23.978Z</time></trkpt><trkpt lat="43.37689" lon="11.759415"><ele>270.0</ele><time>2026-04-10T16:19:26.978Z</time></trkpt><trkpt lat="43.37696" lon="11.7594717"><ele>270.0</ele><time>2026-04-10T16:19:28.977Z</time></trkpt><trkpt lat="43.3770367" lon="11.7594983"><ele>270.0</ele><time>2026-04-10T16:19:30.981Z</time></trkpt><trkpt lat="43.3771033" lon="11.7595417"><ele>270.0</ele><time>2026-04-10T16:19:32.979Z</time></trkpt><trkpt lat="43.3771733" lon="11.759575"><ele>270.0</ele><time>2026-04-10T16:19:34.977Z</time></trkpt><trkpt lat="43.3772433" lon="11.75961"><ele>270.8333333333333</ele><time>2026-04-10T16:19:36.979Z</time></trkpt><trkpt lat="43.377315" lon="11.7596633"><ele>271.6666666666667</ele><time>2026-04-10T16:19:38.978Z</time></trkpt><trkpt lat="43.377375" lon="11.75969"><ele>272.5</ele><time>2026-04-10T16:19:40.98Z</time></trkpt><trkpt lat="43.37744" lon="11.7597217"><ele>273.33333333333337</ele><time>2026-04-10T16:19:42.98Z</time></trkpt><trkpt lat="43.3775033" lon="11.7597683"><ele>274.1666666666667</ele><time>2026-04-10T16:19:44.981Z</time></trkpt><trkpt lat="43.37759" lon="11.75981"><ele>275.0</ele><time>2026-04-10T16:19:47.979Z</time></trkpt><trkpt lat="43.37768" lon="11.7598567"><ele>275.0</ele><time>2026-04-10T16:19:50.979Z</time></trkpt><trkpt lat="43.3777433" lon="11.7599"><ele>275.0</ele><time>2026-04-10T16:19:52.977Z</time></trkpt><trkpt lat="43.3778033" lon="11.7599367"><ele>275.0</ele><time>2026-04-10T16:19:54.982Z</time></trkpt><trkpt lat="43.3778633" lon="11.7599683"><ele>275.0</ele><time>2026-04-10T16:19:56.981Z</time></trkpt><trkpt lat="43.3779483" lon="11.7600183"><ele>275.0</ele><time>2026-04-10T16:19:59.977Z</time></trkpt><trkpt lat="43.378035" lon="11.7600633"><ele>275.0</ele><time>2026-04-10T16:20:02.979Z</time></trkpt><trkpt lat="43.3781183" lon="11.7601083"><ele>275.5</ele><time>2026-04-10T16:20:05.978Z</time></trkpt><trkpt lat="43.3781983" lon="11.7601483"><ele>276.0</ele><time>2026-04-10T16:20:08.981Z</time></trkpt><trkpt lat="43.37828" lon="11.760195"><ele>276.5</ele><time>2026-04-10T16:20:11.98Z</time></trkpt><trkpt lat="43.3783567" lon="11.7602333"><ele>277.0</ele><time>2026-04-10T16:20:14.979Z</time></trkpt><trkpt lat="43.3784267" lon="11.76028"><ele>277.5</ele><time>2026-04-10T16:20:17.979Z</time></trkpt><trkpt lat="43.3785033" lon="11.7603367"><ele>278.0</ele><time>2026-04-10T16:20:20.977Z</time></trkpt><trkpt lat="43.37857" lon="11.7604"><ele>278.0</ele><time>2026-04-10T16:20:23.977Z</time></trkpt><trkpt lat="43.3786283" lon="11.76045"><ele>278.0</ele><time>2026-04-10T16:20:26.978Z</time></trkpt><trkpt lat="43.3786817" lon="11.7605017"><ele>278.0</ele><time>2026-04-10T16:20:29.978Z</time></trkpt><trkpt lat="43.3787317" lon="11.7605717"><ele>278.0</ele><time>2026-04-10T16:20:32.981Z</time></trkpt><trkpt lat="43.378775" lon="11.7606433"><ele>278.0</ele><time>2026-04-10T16:20:35.979Z</time></trkpt><trkpt lat="43.37881" lon="11.7607183"><ele>278.0</ele><time>2026-04-10T16:20:38.979Z</time></trkpt><trkpt lat="43.3788517" lon="11.7608"><ele>278.0</ele><time>2026-04-10T16:20:41.981Z</time></trkpt><trkpt lat="43.378895" lon="11.7608767"><ele>278.5</ele><time>2026-04-10T16:20:44.981Z</time></trkpt><trkpt lat="43.3789417" lon="11.7609517"><ele>279.0</ele><time>2026-04-10T16:20:47.979Z</time></trkpt><trkpt lat="43.3789833" lon="11.761035"><ele>279.5</ele><time>2026-04-10T16:20:50.979Z</time></trkpt><trkpt lat="43.3790417" lon="11.7611367"><ele>280.0</ele><time>2026-04-10T16:20:53.978Z</time></trkpt><trkpt lat="43.379085" lon="11.7612167"><ele>280.5</ele><time>2026-04-10T16:20:55.979Z</time></trkpt><trkpt lat="43.37914" lon="11.7613017"><ele>281.0</ele><time>2026-04-10T16:20:57.982Z</time></trkpt><trkpt lat="43.3791883" lon="11.7613783"><ele>281.0</ele><time>2026-04-10T16:20:59.977Z</time></trkpt><trkpt lat="43.3792417" lon="11.7614667"><ele>281.0</ele><time>2026-04-10T16:21:01.977Z</time></trkpt><trkpt lat="43.3792983" lon="11.7615617"><ele>281.0</ele><time>2026-04-10T16:21:03.978Z</time></trkpt><trkpt lat="43.3793517" lon="11.7616483"><ele>281.0</ele><time>2026-04-10T16:21:05.982Z</time></trkpt><trkpt lat="43.3794033" lon="11.7617283"><ele>281.0</ele><time>2026-04-10T16:21:07.979Z</time></trkpt><trkpt lat="43.379445" lon="11.7618067"><ele>281.0</ele><time>2026-04-10T16:21:09.979Z</time></trkpt><trkpt lat="43.3794883" lon="11.7618783"><ele>280.83333333333337</ele><time>2026-04-10T16:21:11.982Z</time></trkpt><trkpt lat="43.379545" lon="11.7619783"><ele>280.6666666666667</ele><time>2026-04-10T16:21:14.98Z</time></trkpt><trkpt lat="43.379595" lon="11.7620633"><ele>280.5</ele><time>2026-04-10T16:21:16.978Z</time></trkpt><trkpt lat="43.37964" lon="11.7621567"><ele>280.3333333333333</ele><time>2026-04-10T16:21:18.978Z</time></trkpt><trkpt lat="43.3796883" lon="11.762225"><ele>280.16666666666663</ele><time>2026-04-10T16:21:20.98Z</time></trkpt><trkpt lat="43.3797517" lon="11.7623267"><ele>280.0</ele><time>2026-04-10T16:21:23.978Z</time></trkpt><trkpt lat="43.3798033" lon="11.762415"><ele>281.16666666666663</ele><time>2026-04-10T16:21:25.978Z</time></trkpt><trkpt lat="43.3798433" lon="11.7624983"><ele>282.3333333333333</ele><time>2026-04-10T16:21:27.977Z</time></trkpt><trkpt lat="43.3798917" lon="11.7625833"><ele>283.5</ele><time>2026-04-10T16:21:29.977Z</time></trkpt><trkpt lat="43.3799367" lon="11.7626733"><ele>284.6666666666667</ele><time>2026-04-10T16:21:31.981Z</time></trkpt><trkpt lat="43.37999" lon="11.7627767"><ele>285.83333333333337</ele><time>2026-04-10T16:21:33.982Z</time></trkpt><trkpt lat="43.3800467" lon="11.7628833"><ele>287.0</ele><time>2026-04-10T16:21:35.978Z</time></trkpt><trkpt lat="43.380095" lon="11.7629733"><ele>287.0</ele><time>2026-04-10T16:21:37.975Z</time></trkpt><trkpt lat="43.3801433" lon="11.7630583"><ele>287.0</ele><time>2026-04-10T16:21:39.978Z</time></trkpt><trkpt lat="43.3801883" lon="11.7631367"><ele>287.0</ele><time>2026-04-10T16:21:41.98Z</time></trkpt><trkpt lat="43.3802817" lon="11.7631683"><ele>287.0</ele><time>2026-04-10T16:21:44.982Z</time></trkpt><trkpt lat="43.3803567" lon="11.7631367"><ele>287.0</ele><time>2026-04-10T16:21:46.977Z</time></trkpt><trkpt lat="43.3804317" lon="11.763105"><ele>287.0</ele><time>2026-04-10T16:21:48.977Z</time></trkpt><trkpt lat="43.3805033" lon="11.7630783"><ele>286.6666666666667</ele><time>2026-04-10T16:21:50.98Z</time></trkpt><trkpt lat="43.3805633" lon="11.7630483"><ele>286.33333333333337</ele><time>2026-04-10T16:21:52.977Z</time></trkpt><trkpt lat="43.3806467" lon="11.7630183"><ele>286.0</ele><time>2026-04-10T16:21:54.978Z</time></trkpt><trkpt lat="43.380735" lon="11.7629867"><ele>285.6666666666667</ele><time>2026-04-10T16:21:56.98Z</time></trkpt><trkpt lat="43.3808017" lon="11.7629533"><ele>285.3333333333333</ele><time>2026-04-10T16:21:58.977Z</time></trkpt><trkpt lat="43.3808683" lon="11.762925"><ele>285.0</ele><time>2026-04-10T16:22:00.979Z</time></trkpt><trkpt lat="43.3809367" lon="11.7629"><ele>285.0</ele><time>2026-04-10T16:22:02.98Z</time></trkpt><trkpt lat="43.381025" lon="11.7628867"><ele>285.0</ele><time>2026-04-10T16:22:05.978Z</time></trkpt><trkpt lat="43.3810967" lon="11.7628767"><ele>285.0</ele><time>2026-04-10T16:22:07.981Z</time></trkpt><trkpt lat="43.381165" lon="11.7629217"><ele>285.0</ele><time>2026-04-10T16:22:11.976Z</time></trkpt><trkpt lat="43.3812183" lon="11.7630183"><ele>285.0</ele><time>2026-04-10T16:22:16.98Z</time></trkpt><trkpt lat="43.3812433" lon="11.7631533"><ele>285.0</ele><time>2026-04-10T16:22:18.979Z</time></trkpt><trkpt lat="43.3812583" lon="11.7633083"><ele>285.0</ele><time>2026-04-10T16:22:20.98Z</time></trkpt><trkpt lat="43.3812667" lon="11.7634217"><ele>285.0</ele><time>2026-04-10T16:22:22.978Z</time></trkpt><trkpt lat="43.38128" lon="11.7635217"><ele>285.0</ele><time>2026-04-10T16:22:24.98Z</time></trkpt><trkpt lat="43.381295" lon="11.76361"><ele>285.0</ele><time>2026-04-10T16:22:26.978Z</time></trkpt><trkpt lat="43.3813083" lon="11.7636967"><ele>285.0</ele><time>2026-04-10T16:22:27.976Z</time></trkpt><trkpt lat="43.3813333" lon="11.7638183"><ele>285.0</ele><time>2026-04-10T16:22:29.977Z</time></trkpt><trkpt lat="43.3813617" lon="11.763945"><ele>284.6</ele><time>2026-04-10T16:22:31.978Z</time></trkpt><trkpt lat="43.3813767" lon="11.764065"><ele>284.2</ele><time>2026-04-10T16:22:33.977Z</time></trkpt><trkpt lat="43.3814117" lon="11.7642017"><ele>283.8</ele><time>2026-04-10T16:22:35.977Z</time></trkpt><trkpt lat="43.3814467" lon="11.7643483"><ele>283.4</ele><time>2026-04-10T16:22:37.978Z</time></trkpt><trkpt lat="43.3814833" lon="11.764495"><ele>283.0</ele><time>2026-04-10T16:22:39.977Z</time></trkpt><trkpt lat="43.3815083" lon="11.764625"><ele>283.0</ele><time>2026-04-10T16:22:41.977Z</time></trkpt><trkpt lat="43.3815283" lon="11.7647333"><ele>283.0</ele><time>2026-04-10T16:22:43.979Z</time></trkpt><trkpt lat="43.38156" lon="11.7648267"><ele>283.0</ele><time>2026-04-10T16:22:44.981Z</time></trkpt><trkpt lat="43.3815883" lon="11.7649617"><ele>283.0</ele><time>2026-04-10T16:22:46.976Z</time></trkpt><trkpt lat="43.3816" lon="11.7650783"><ele>283.0</ele><time>2026-04-10T16:22:48.978Z</time></trkpt><trkpt lat="43.381625" lon="11.7652183"><ele>283.0</ele><time>2026-04-10T16:22:50.98Z</time></trkpt><trkpt lat="43.3816583" lon="11.7653333"><ele>282.8333333333333</ele><time>2026-04-10T16:22:51.978Z</time></trkpt><trkpt lat="43.3816917" lon="11.7654383"><ele>282.66666666666663</ele><time>2026-04-10T16:22:52.978Z</time></trkpt><trkpt lat="43.38172" lon="11.7655317"><ele>282.5</ele><time>2026-04-10T16:22:53.981Z</time></trkpt><trkpt lat="43.3817667" lon="11.7656983"><ele>282.3333333333333</ele><time>2026-04-10T16:22:55.977Z</time></trkpt><trkpt lat="43.38179" lon="11.76579"><ele>282.1666666666667</ele><time>2026-04-10T16:22:56.981Z</time></trkpt><trkpt lat="43.38181" lon="11.7658767"><ele>282.0</ele><time>2026-04-10T16:22:57.978Z</time></trkpt><trkpt lat="43.38185" lon="11.7660433"><ele>281.8571428571429</ele><time>2026-04-10T16:22:59.977Z</time></trkpt><trkpt lat="43.381875" lon="11.7661317"><ele>281.7142857142857</ele><time>2026-04-10T16:23:00.981Z</time></trkpt><trkpt lat="43.3819017" lon="11.766225"><ele>281.57142857142856</ele><time>2026-04-10T16:23:01.978Z</time></trkpt><trkpt lat="43.3819233" lon="11.7663067"><ele>281.42857142857144</ele><time>2026-04-10T16:23:02.982Z</time></trkpt><trkpt lat="43.38195" lon="11.7663933"><ele>281.2857142857143</ele><time>2026-04-10T16:23:03.98Z</time></trkpt><trkpt lat="43.3819717" lon="11.7664767"><ele>281.14285714285717</ele><time>2026-04-10T16:23:04.976Z</time></trkpt><trkpt lat="43.38199" lon="11.76656"><ele>281.0</ele><time>2026-04-10T16:23:05.976Z</time></trkpt><trkpt lat="43.3820133" lon="11.7666433"><ele>281.0</ele><time>2026-04-10T16:23:06.977Z</time></trkpt><trkpt lat="43.3820367" lon="11.76673"><ele>281.0</ele><time>2026-04-10T16:23:07.977Z</time></trkpt><trkpt lat="43.38207" lon="11.7668883"><ele>281.0</ele><time>2026-04-10T16:23:09.976Z</time></trkpt><trkpt lat="43.3821133" lon="11.7670483"><ele>281.0</ele><time>2026-04-10T16:23:11.978Z</time></trkpt><trkpt lat="43.3821417" lon="11.7671333"><ele>281.0</ele><time>2026-04-10T16:23:12.982Z</time></trkpt><trkpt lat="43.3821633" lon="11.767215"><ele>281.0</ele><time>2026-04-10T16:23:13.981Z</time></trkpt><trkpt lat="43.3822067" lon="11.76738"><ele>281.0</ele><time>2026-04-10T16:23:15.977Z</time></trkpt><trkpt lat="43.3822367" lon="11.7674567"><ele>281.0</ele><time>2026-04-10T16:23:16.983Z</time></trkpt><trkpt lat="43.3822767" lon="11.7676017"><ele>281.0</ele><time>2026-04-10T16:23:18.975Z</time></trkpt><trkpt lat="43.38231" lon="11.767755"><ele>281.0</ele><time>2026-04-10T16:23:20.985Z</time></trkpt><trkpt lat="43.3823433" lon="11.7679033"><ele>281.0</ele><time>2026-04-10T16:23:22.977Z</time></trkpt><trkpt lat="43.3823733" lon="11.7680517"><ele>280.8</ele><time>2026-04-10T16:23:24.978Z</time></trkpt><trkpt lat="43.3823967" lon="11.7681783"><ele>280.6</ele><time>2026-04-10T16:23:26.979Z</time></trkpt><trkpt lat="43.382425" lon="11.7683033"><ele>280.4</ele><time>2026-04-10T16:23:28.983Z</time></trkpt><trkpt lat="43.3824517" lon="11.7684317"><ele>280.2</ele><time>2026-04-10T16:23:30.981Z</time></trkpt><trkpt lat="43.382495" lon="11.7685667"><ele>280.0</ele><time>2026-04-10T16:23:32.978Z</time></trkpt><trkpt lat="43.3825233" lon="11.7686883"><ele>279.8</ele><time>2026-04-10T16:23:34.979Z</time></trkpt><trkpt lat="43.38256" lon="11.7688133"><ele>279.6</ele><time>2026-04-10T16:23:36.978Z</time></trkpt><trkpt lat="43.3825783" lon="11.768945"><ele>279.4</ele><time>2026-04-10T16:23:38.98Z</time></trkpt><trkpt lat="43.3825383" lon="11.7690683"><ele>279.2</ele><time>2026-04-10T16:23:40.976Z</time></trkpt><trkpt lat="43.382445" lon="11.7691683"><ele>279.0</ele><time>2026-04-10T16:23:42.979Z</time></trkpt><trkpt lat="43.382345" lon="11.7692783"><ele>278.99999999999994</ele><time>2026-04-10T16:23:44.979Z</time></trkpt><trkpt lat="43.3823" lon="11.76934"><ele>279.0</ele><time>2026-04-10T16:23:45.978Z</time></trkpt><trkpt lat="43.3822583" lon="11.769405"><ele>279.0</ele><time>2026-04-10T16:23:46.979Z</time></trkpt><trkpt lat="43.38222" lon="11.7694767"><ele>279.0</ele><time>2026-04-10T16:23:47.979Z</time></trkpt><trkpt lat="43.38218" lon="11.7695517"><ele>279.0</ele><time>2026-04-10T16:23:48.981Z</time></trkpt><trkpt lat="43.382145" lon="11.7696283"><ele>278.99999999999994</ele><time>2026-04-10T16:23:49.98Z</time></trkpt><trkpt lat="43.38211" lon="11.7697067"><ele>279.0</ele><time>2026-04-10T16:23:50.977Z</time></trkpt><trkpt lat="43.382075" lon="11.76978"><ele>278.8333333333333</ele><time>2026-04-10T16:23:51.979Z</time></trkpt><trkpt lat="43.3820367" lon="11.7698533"><ele>278.6666666666667</ele><time>2026-04-10T16:23:52.977Z</time></trkpt><trkpt lat="43.3820017" lon="11.76993"><ele>278.5</ele><time>2026-04-10T16:23:53.98Z</time></trkpt><trkpt lat="43.38197" lon="11.7700067"><ele>278.33333333333337</ele><time>2026-04-10T16:23:54.977Z</time></trkpt><trkpt lat="43.3819383" lon="11.770085"><ele>278.1666666666667</ele><time>2026-04-10T16:23:55.975Z</time></trkpt><trkpt lat="43.3818783" lon="11.7702333"><ele>278.0</ele><time>2026-04-10T16:23:57.974Z</time></trkpt><trkpt lat="43.3818133" lon="11.7703783"><ele>278.0</ele><time>2026-04-10T16:23:59.981Z</time></trkpt><trkpt lat="43.3817467" lon="11.7705233"><ele>278.0</ele><time>2026-04-10T16:24:01.979Z</time></trkpt><trkpt lat="43.38169" lon="11.7706717"><ele>278.0</ele><time>2026-04-10T16:24:03.977Z</time></trkpt><trkpt lat="43.3816317" lon="11.770815"><ele>278.0</ele><time>2026-04-10T16:24:05.981Z</time></trkpt><trkpt lat="43.3815733" lon="11.7709567"><ele>278.2</ele><time>2026-04-10T16:24:07.975Z</time></trkpt><trkpt lat="43.3815167" lon="11.77109"><ele>278.4</ele><time>2026-04-10T16:24:09.978Z</time></trkpt><trkpt lat="43.3814667" lon="11.771225"><ele>278.59999999999997</ele><time>2026-04-10T16:24:11.982Z</time></trkpt><trkpt lat="43.381415" lon="11.7713517"><ele>278.8</ele><time>2026-04-10T16:24:13.98Z</time></trkpt><trkpt lat="43.381365" lon="11.7714783"><ele>279.0</ele><time>2026-04-10T16:24:15.977Z</time></trkpt><trkpt lat="43.3813167" lon="11.7716067"><ele>279.2</ele><time>2026-04-10T16:24:17.976Z</time></trkpt><trkpt lat="43.3812667" lon="11.7717317"><ele>279.4</ele><time>2026-04-10T16:24:19.979Z</time></trkpt><trkpt lat="43.3812133" lon="11.7718583"><ele>279.6</ele><time>2026-04-10T16:24:21.982Z</time></trkpt><trkpt lat="43.38116" lon="11.7719883"><ele>279.8</ele><time>2026-04-10T16:24:23.978Z</time></trkpt><trkpt lat="43.3811067" lon="11.77212"><ele>280.0</ele><time>2026-04-10T16:24:25.978Z</time></trkpt><trkpt lat="43.381055" lon="11.7722583"><ele>280.0</ele><time>2026-04-10T16:24:27.98Z</time></trkpt><trkpt lat="43.3810067" lon="11.7723933"><ele>280.0</ele><time>2026-04-10T16:24:29.975Z</time></trkpt><trkpt lat="43.380955" lon="11.7725183"><ele>280.0</ele><time>2026-04-10T16:24:31.979Z</time></trkpt><trkpt lat="43.3809033" lon="11.7726383"><ele>280.0</ele><time>2026-04-10T16:24:33.979Z</time></trkpt><trkpt lat="43.38085" lon="11.7727617"><ele>280.0</ele><time>2026-04-10T16:24:35.978Z</time></trkpt><trkpt lat="43.3807867" lon="11.772875"><ele>280.0</ele><time>2026-04-10T16:24:37.979Z</time></trkpt><trkpt lat="43.38072" lon="11.773"><ele>280.0</ele><time>2026-04-10T16:24:39.977Z</time></trkpt><trkpt lat="43.3806617" lon="11.77314"><ele>280.0</ele><time>2026-04-10T16:24:41.979Z</time></trkpt><trkpt lat="43.3806217" lon="11.7732983"><ele>280.0</ele><time>2026-04-10T16:24:43.979Z</time></trkpt><trkpt lat="43.3805783" lon="11.77345"><ele>280.0</ele><time>2026-04-10T16:24:45.977Z</time></trkpt><trkpt lat="43.3805333" lon="11.7736067"><ele>280.0</ele><time>2026-04-10T16:24:47.978Z</time></trkpt><trkpt lat="43.3804817" lon="11.7737617"><ele>280.0</ele><time>2026-04-10T16:24:49.976Z</time></trkpt><trkpt lat="43.38043" lon="11.7739117"><ele>280.0</ele><time>2026-04-10T16:24:51.979Z</time></trkpt><trkpt lat="43.38038" lon="11.7740667"><ele>280.0</ele><time>2026-04-10T16:24:53.98Z</time></trkpt><trkpt lat="43.3803283" lon="11.774225"><ele>280.0</ele><time>2026-04-10T16:24:55.976Z</time></trkpt><trkpt lat="43.380275" lon="11.7743817"><ele>280.0</ele><time>2026-04-10T16:24:57.981Z</time></trkpt><trkpt lat="43.3802467" lon="11.7744617"><ele>280.0</ele><time>2026-04-10T16:24:58.982Z</time></trkpt><trkpt lat="43.380225" lon="11.774545"><ele>280.0</ele><time>2026-04-10T16:24:59.976Z</time></trkpt><trkpt lat="43.3802017" lon="11.7746283"><ele>280.0</ele><time>2026-04-10T16:25:00.98Z</time></trkpt><trkpt lat="43.3801767" lon="11.7747083"><ele>279.66666666666663</ele><time>2026-04-10T16:25:01.978Z</time></trkpt><trkpt lat="43.38015" lon="11.7747933"><ele>279.3333333333333</ele><time>2026-04-10T16:25:02.978Z</time></trkpt><trkpt lat="43.380125" lon="11.7748733"><ele>279.0</ele><time>2026-04-10T16:25:03.977Z</time></trkpt><trkpt lat="43.3801017" lon="11.774955"><ele>278.6666666666667</ele><time>2026-04-10T16:25:04.98Z</time></trkpt><trkpt lat="43.3800567" lon="11.77512"><ele>278.33333333333337</ele><time>2026-04-10T16:25:06.977Z</time></trkpt><trkpt lat="43.38003" lon="11.7752033"><ele>278.0</ele><time>2026-04-10T16:25:07.976Z</time></trkpt><trkpt lat="43.38" lon="11.7752883"><ele>277.85714285714283</ele><time>2026-04-10T16:25:08.982Z</time></trkpt><trkpt lat="43.37997" lon="11.7753733"><ele>277.7142857142857</ele><time>2026-04-10T16:25:09.976Z</time></trkpt><trkpt lat="43.37994" lon="11.7754583"><ele>277.57142857142856</ele><time>2026-04-10T16:25:10.978Z</time></trkpt><trkpt lat="43.37991" lon="11.7755433"><ele>277.42857142857144</ele><time>2026-04-10T16:25:11.977Z</time></trkpt><trkpt lat="43.3798817" lon="11.77563"><ele>277.2857142857143</ele><time>2026-04-10T16:25:12.98Z</time></trkpt><trkpt lat="43.3798567" lon="11.7757167"><ele>277.1428571428571</ele><time>2026-04-10T16:25:13.977Z</time></trkpt><trkpt lat="43.3798267" lon="11.7757983"><ele>277.0</ele><time>2026-04-10T16:25:14.978Z</time></trkpt><trkpt lat="43.3798" lon="11.775885"><ele>277.0</ele><time>2026-04-10T16:25:15.976Z</time></trkpt><trkpt lat="43.3797717" lon="11.77597"><ele>277.0</ele><time>2026-04-10T16:25:16.98Z</time></trkpt><trkpt lat="43.379745" lon="11.7760567"><ele>277.0</ele><time>2026-04-10T16:25:17.98Z</time></trkpt><trkpt lat="43.3797217" lon="11.7761467"><ele>277.0</ele><time>2026-04-10T16:25:18.976Z</time></trkpt><trkpt lat="43.3796917" lon="11.776235"><ele>277.0</ele><time>2026-04-10T16:25:19.981Z</time></trkpt><trkpt lat="43.3796633" lon="11.7763167"><ele>277.0</ele><time>2026-04-10T16:25:20.979Z</time></trkpt><trkpt lat="43.3796367" lon="11.7763967"><ele>277.0</ele><time>2026-04-10T16:25:21.974Z</time></trkpt><trkpt lat="43.3796083" lon="11.7764817"><ele>277.0</ele><time>2026-04-10T16:25:22.98Z</time></trkpt><trkpt lat="43.3795783" lon="11.7765683"><ele>277.0</ele><time>2026-04-10T16:25:23.977Z</time></trkpt><trkpt lat="43.3795483" lon="11.776655"><ele>277.0</ele><time>2026-04-10T16:25:24.977Z</time></trkpt><trkpt lat="43.3795183" lon="11.7767433"><ele>277.0</ele><time>2026-04-10T16:25:25.979Z</time></trkpt><trkpt lat="43.3794883" lon="11.7768283"><ele>277.0</ele><time>2026-04-10T16:25:26.978Z</time></trkpt><trkpt lat="43.37946" lon="11.77691"><ele>277.0</ele><time>2026-04-10T16:25:27.978Z</time></trkpt><trkpt lat="43.3794317" lon="11.7770017"><ele>277.0</ele><time>2026-04-10T16:25:28.978Z</time></trkpt><trkpt lat="43.3794017" lon="11.7770883"><ele>276.85714285714283</ele><time>2026-04-10T16:25:29.975Z</time></trkpt><trkpt lat="43.3793733" lon="11.7771783"><ele>276.71428571428567</ele><time>2026-04-10T16:25:30.98Z</time></trkpt><trkpt lat="43.3793467" lon="11.77727"><ele>276.57142857142856</ele><time>2026-04-10T16:25:31.98Z</time></trkpt><trkpt lat="43.37932" lon="11.7773617"><ele>276.42857142857144</ele><time>2026-04-10T16:25:32.977Z</time></trkpt><trkpt lat="43.37929" lon="11.7774467"><ele>276.28571428571433</ele><time>2026-04-10T16:25:33.98Z</time></trkpt><trkpt lat="43.3792583" lon="11.77753"><ele>276.14285714285717</ele><time>2026-04-10T16:25:34.975Z</time></trkpt><trkpt lat="43.3792283" lon="11.7776117"><ele>276.0</ele><time>2026-04-10T16:25:35.977Z</time></trkpt><trkpt lat="43.3791983" lon="11.77769"><ele>275.7142857142857</ele><time>2026-04-10T16:25:36.98Z</time></trkpt><trkpt lat="43.3791717" lon="11.7777717"><ele>275.42857142857144</ele><time>2026-04-10T16:25:37.978Z</time></trkpt><trkpt lat="43.3791183" lon="11.7779267"><ele>275.14285714285717</ele><time>2026-04-10T16:25:39.982Z</time></trkpt><trkpt lat="43.37909" lon="11.778005"><ele>274.8571428571429</ele><time>2026-04-10T16:25:40.981Z</time></trkpt><trkpt lat="43.3790633" lon="11.778085"><ele>274.57142857142856</ele><time>2026-04-10T16:25:41.977Z</time></trkpt><trkpt lat="43.3790383" lon="11.7781683"><ele>274.28571428571433</ele><time>2026-04-10T16:25:42.975Z</time></trkpt><trkpt lat="43.3790083" lon="11.778245"><ele>274.0</ele><time>2026-04-10T16:25:43.981Z</time></trkpt><trkpt lat="43.3789767" lon="11.778325"><ele>274.00000000000006</ele><time>2026-04-10T16:25:44.975Z</time></trkpt><trkpt lat="43.37895" lon="11.7784067"><ele>274.0</ele><time>2026-04-10T16:25:45.979Z</time></trkpt><trkpt lat="43.3789233" lon="11.77849"><ele>274.0</ele><time>2026-04-10T16:25:46.975Z</time></trkpt><trkpt lat="43.3788967" lon="11.7785783"><ele>274.0</ele><time>2026-04-10T16:25:47.976Z</time></trkpt><trkpt lat="43.3788683" lon="11.7786633"><ele>274.0</ele><time>2026-04-10T16:25:48.98Z</time></trkpt><trkpt lat="43.3788383" lon="11.7787483"><ele>274.00000000000006</ele><time>2026-04-10T16:25:49.977Z</time></trkpt><trkpt lat="43.3788117" lon="11.778835"><ele>274.0</ele><time>2026-04-10T16:25:50.978Z</time></trkpt><trkpt lat="43.3787833" lon="11.7789183"><ele>273.3333333333333</ele><time>2026-04-10T16:25:51.98Z</time></trkpt><trkpt lat="43.3787567" lon="11.7789983"><ele>272.66666666666663</ele><time>2026-04-10T16:25:52.98Z</time></trkpt><trkpt lat="43.37873" lon="11.7790783"><ele>272.0</ele><time>2026-04-10T16:25:53.979Z</time></trkpt><trkpt lat="43.3787033" lon="11.77916"><ele>271.3333333333333</ele><time>2026-04-10T16:25:54.979Z</time></trkpt><trkpt lat="43.3786517" lon="11.7793183"><ele>270.6666666666667</ele><time>2026-04-10T16:25:56.981Z</time></trkpt><trkpt lat="43.3786017" lon="11.779465"><ele>270.0</ele><time>2026-04-10T16:25:58.976Z</time></trkpt><trkpt lat="43.3785483" lon="11.779595"><ele>269.5</ele><time>2026-04-10T16:26:00.979Z</time></trkpt><trkpt lat="43.3784983" lon="11.7797367"><ele>269.0</ele><time>2026-04-10T16:26:02.98Z</time></trkpt><trkpt lat="43.37845" lon="11.77988"><ele>268.5</ele><time>2026-04-10T16:26:04.978Z</time></trkpt><trkpt lat="43.3784033" lon="11.7800233"><ele>268.0</ele><time>2026-04-10T16:26:06.98Z</time></trkpt><trkpt lat="43.3783517" lon="11.7801717"><ele>267.66666666666663</ele><time>2026-04-10T16:26:08.979Z</time></trkpt><trkpt lat="43.3782983" lon="11.7803283"><ele>267.3333333333333</ele><time>2026-04-10T16:26:10.981Z</time></trkpt><trkpt lat="43.3782683" lon="11.78041"><ele>267.0</ele><time>2026-04-10T16:26:11.979Z</time></trkpt><trkpt lat="43.3782383" lon="11.7804967"><ele>266.6666666666667</ele><time>2026-04-10T16:26:12.98Z</time></trkpt><trkpt lat="43.3782083" lon="11.78059"><ele>266.33333333333337</ele><time>2026-04-10T16:26:13.981Z</time></trkpt><trkpt lat="43.3781767" lon="11.78069"><ele>266.0</ele><time>2026-04-10T16:26:14.983Z</time></trkpt><trkpt lat="43.3781433" lon="11.7807917"><ele>266.0</ele><time>2026-04-10T16:26:15.98Z</time></trkpt><trkpt lat="43.3781083" lon="11.780895"><ele>266.0</ele><time>2026-04-10T16:26:16.977Z</time></trkpt><trkpt lat="43.3780733" lon="11.7810017"><ele>266.0</ele><time>2026-04-10T16:26:17.976Z</time></trkpt><trkpt lat="43.37804" lon="11.7811117"><ele>266.0</ele><time>2026-04-10T16:26:18.978Z</time></trkpt><trkpt lat="43.3780033" lon="11.78122"><ele>266.0</ele><time>2026-04-10T16:26:19.976Z</time></trkpt><trkpt lat="43.3779633" lon="11.7813283"><ele>266.0</ele><time>2026-04-10T16:26:20.976Z</time></trkpt><trkpt lat="43.3779267" lon="11.78144"><ele>266.33333333333337</ele><time>2026-04-10T16:26:21.978Z</time></trkpt><trkpt lat="43.3778867" lon="11.7815483"><ele>266.6666666666667</ele><time>2026-04-10T16:26:22.974Z</time></trkpt><trkpt lat="43.3778517" lon="11.7816617"><ele>267.0</ele><time>2026-04-10T16:26:23.979Z</time></trkpt><trkpt lat="43.3778183" lon="11.78177"><ele>267.3333333333333</ele><time>2026-04-10T16:26:24.98Z</time></trkpt><trkpt lat="43.377785" lon="11.7818767"><ele>267.66666666666663</ele><time>2026-04-10T16:26:25.977Z</time></trkpt><trkpt lat="43.37775" lon="11.7819783"><ele>268.0</ele><time>2026-04-10T16:26:26.979Z</time></trkpt><trkpt lat="43.377715" lon="11.7820783"><ele>268.16666666666663</ele><time>2026-04-10T16:26:27.978Z</time></trkpt><trkpt lat="43.37768" lon="11.7821783"><ele>268.3333333333333</ele><time>2026-04-10T16:26:28.98Z</time></trkpt><trkpt lat="43.3776467" lon="11.7822783"><ele>268.5</ele><time>2026-04-10T16:26:29.977Z</time></trkpt><trkpt lat="43.3776117" lon="11.78238"><ele>268.6666666666667</ele><time>2026-04-10T16:26:30.978Z</time></trkpt><trkpt lat="43.37758" lon="11.78248"><ele>268.83333333333337</ele><time>2026-04-10T16:26:31.978Z</time></trkpt><trkpt lat="43.3775483" lon="11.7825767"><ele>269.0</ele><time>2026-04-10T16:26:32.979Z</time></trkpt><trkpt lat="43.3775167" lon="11.7826733"><ele>269.33333333333337</ele><time>2026-04-10T16:26:33.977Z</time></trkpt><trkpt lat="43.3774833" lon="11.7827683"><ele>269.6666666666667</ele><time>2026-04-10T16:26:34.98Z</time></trkpt><trkpt lat="43.37745" lon="11.78286"><ele>270.0</ele><time>2026-04-10T16:26:35.977Z</time></trkpt><trkpt lat="43.3774217" lon="11.7829483"><ele>270.3333333333333</ele><time>2026-04-10T16:26:36.981Z</time></trkpt><trkpt lat="43.3773933" lon="11.7830267"><ele>270.66666666666663</ele><time>2026-04-10T16:26:37.976Z</time></trkpt><trkpt lat="43.3773483" lon="11.7831633"><ele>271.0</ele><time>2026-04-10T16:26:39.978Z</time></trkpt><trkpt lat="43.3773067" lon="11.7832717"><ele>271.0</ele><time>2026-04-10T16:26:41.978Z</time></trkpt><trkpt lat="43.3772717" lon="11.783365"><ele>271.0</ele><time>2026-04-10T16:26:43.981Z</time></trkpt><trkpt lat="43.37724" lon="11.78346"><ele>271.0</ele><time>2026-04-10T16:26:45.977Z</time></trkpt><trkpt lat="43.3772083" lon="11.78356"><ele>271.0</ele><time>2026-04-10T16:26:47.979Z</time></trkpt><trkpt lat="43.377175" lon="11.7836517"><ele>271.0</ele><time>2026-04-10T16:26:49.976Z</time></trkpt><trkpt lat="43.3771417" lon="11.78374"><ele>271.0</ele><time>2026-04-10T16:26:51.981Z</time></trkpt><trkpt lat="43.37711" lon="11.7838333"><ele>271.7142857142857</ele><time>2026-04-10T16:26:53.978Z</time></trkpt><trkpt lat="43.37708" lon="11.7839183"><ele>272.42857142857144</ele><time>2026-04-10T16:26:55.981Z</time></trkpt><trkpt lat="43.3770517" lon="11.7840017"><ele>273.14285714285717</ele><time>2026-04-10T16:26:57.982Z</time></trkpt><trkpt lat="43.3770217" lon="11.7840833"><ele>273.8571428571429</ele><time>2026-04-10T16:26:59.977Z</time></trkpt><trkpt lat="43.3769717" lon="11.784195"><ele>274.5714285714286</ele><time>2026-04-10T16:27:02.98Z</time></trkpt><trkpt lat="43.3769367" lon="11.7842817"><ele>275.2857142857143</ele><time>2026-04-10T16:27:04.981Z</time></trkpt><trkpt lat="43.3769033" lon="11.7843633"><ele>276.0</ele><time>2026-04-10T16:27:06.981Z</time></trkpt><trkpt lat="43.3768667" lon="11.7844533"><ele>276.1666666666667</ele><time>2026-04-10T16:27:08.981Z</time></trkpt><trkpt lat="43.376825" lon="11.7845467"><ele>276.3333333333333</ele><time>2026-04-10T16:27:10.977Z</time></trkpt><trkpt lat="43.376785" lon="11.784645"><ele>276.5</ele><time>2026-04-10T16:27:12.979Z</time></trkpt><trkpt lat="43.3767433" lon="11.7847483"><ele>276.66666666666663</ele><time>2026-04-10T16:27:14.98Z</time></trkpt><trkpt lat="43.3767033" lon="11.7848483"><ele>276.8333333333333</ele><time>2026-04-10T16:27:16.976Z</time></trkpt><trkpt lat="43.3766617" lon="11.7849333"><ele>277.0</ele><time>2026-04-10T16:27:18.978Z</time></trkpt><trkpt lat="43.376615" lon="11.78501"><ele>277.0</ele><time>2026-04-10T16:27:20.979Z</time></trkpt><trkpt lat="43.376565" lon="11.7850817"><ele>277.0</ele><time>2026-04-10T16:27:22.978Z</time></trkpt><trkpt lat="43.37651" lon="11.785155"><ele>277.0</ele><time>2026-04-10T16:27:24.978Z</time></trkpt><trkpt lat="43.3764517" lon="11.7852333"><ele>277.0</ele><time>2026-04-10T16:27:26.977Z</time></trkpt><trkpt lat="43.3763833" lon="11.7853433"><ele>277.0</ele><time>2026-04-10T16:27:28.978Z</time></trkpt><trkpt lat="43.3763183" lon="11.7854433"><ele>277.0</ele><time>2026-04-10T16:27:30.981Z</time></trkpt><trkpt lat="43.376245" lon="11.785545"><ele>276.6</ele><time>2026-04-10T16:27:32.981Z</time></trkpt><trkpt lat="43.3761683" lon="11.785635"><ele>276.2</ele><time>2026-04-10T16:27:34.979Z</time></trkpt><trkpt lat="43.376085" lon="11.7857267"><ele>275.8</ele><time>2026-04-10T16:27:36.98Z</time></trkpt><trkpt lat="43.3760067" lon="11.7858467"><ele>275.4</ele><time>2026-04-10T16:27:38.981Z</time></trkpt><trkpt lat="43.3759283" lon="11.7859667"><ele>275.0</ele><time>2026-04-10T16:27:40.983Z</time></trkpt><trkpt lat="43.3758433" lon="11.7860583"><ele>275.2</ele><time>2026-04-10T16:27:42.979Z</time></trkpt><trkpt lat="43.3757583" lon="11.786145"><ele>275.4</ele><time>2026-04-10T16:27:44.985Z</time></trkpt><trkpt lat="43.3756783" lon="11.78623"><ele>275.6</ele><time>2026-04-10T16:27:46.979Z</time></trkpt><trkpt lat="43.3756033" lon="11.786315"><ele>275.8</ele><time>2026-04-10T16:27:48.983Z</time></trkpt><trkpt lat="43.3755333" lon="11.786405"><ele>276.0</ele><time>2026-04-10T16:27:50.981Z</time></trkpt><trkpt lat="43.3754667" lon="11.78648"><ele>276.0</ele><time>2026-04-10T16:27:52.98Z</time></trkpt><trkpt lat="43.3754133" lon="11.7865717"><ele>276.0</ele><time>2026-04-10T16:27:54.981Z</time></trkpt><trkpt lat="43.3753883" lon="11.786665"><ele>276.0</ele><time>2026-04-10T16:27:56.979Z</time></trkpt><trkpt lat="43.3753767" lon="11.7867633"><ele>276.0</ele><time>2026-04-10T16:27:58.979Z</time></trkpt><trkpt lat="43.3753617" lon="11.786875"><ele>276.0</ele><time>2026-04-10T16:28:00.978Z</time></trkpt><trkpt lat="43.375375" lon="11.7870267"><ele>276.0</ele><time>2026-04-10T16:28:02.978Z</time></trkpt><trkpt lat="43.3753817" lon="11.7871483"><ele>275.8333333333333</ele><time>2026-04-10T16:28:04.98Z</time></trkpt><trkpt lat="43.37539" lon="11.787265"><ele>275.6666666666667</ele><time>2026-04-10T16:28:06.979Z</time></trkpt><trkpt lat="43.3754033" lon="11.7873767"><ele>275.5</ele><time>2026-04-10T16:28:08.981Z</time></trkpt><trkpt lat="43.375425" lon="11.7874833"><ele>275.33333333333337</ele><time>2026-04-10T16:28:10.977Z</time></trkpt><trkpt lat="43.37547" lon="11.7875667"><ele>275.1666666666667</ele><time>2026-04-10T16:28:13.979Z</time></trkpt><trkpt lat="43.3755683" lon="11.78766"><ele>275.0</ele><time>2026-04-10T16:28:37.98Z</time></trkpt><trkpt lat="43.3756317" lon="11.7877"><ele>274.6666666666667</ele><time>2026-04-10T16:28:42.975Z</time></trkpt><trkpt lat="43.3756917" lon="11.7877617"><ele>274.33333333333337</ele><time>2026-04-10T16:28:47.98Z</time></trkpt><trkpt lat="43.3757483" lon="11.7878083"><ele>274.0</ele><time>2026-04-10T16:28:55.98Z</time></trkpt><trkpt lat="43.3757956" lon="11.7879166"><ele>273.6666666666667</ele><time>2026-04-10T16:29:37.016Z</time></trkpt><trkpt lat="43.3758347" lon="11.7879923"><ele>273.3333333333333</ele><time>2026-04-10T16:29:50.079Z</time></trkpt><trkpt lat="43.3758617" lon="11.788071"><ele>273.0</ele><time>2026-04-10T16:29:57.066Z</time></trkpt><trkpt lat="43.375603" lon="11.7876691"><ele>273.0</ele><time>2026-04-10T16:30:10.08Z</time></trkpt><trkpt lat="43.3755388" lon="11.7876256"><ele>273.0</ele><time>2026-04-10T16:30:16.059Z</time></trkpt><trkpt lat="43.3754738" lon="11.7876127"><ele>273.0</ele><time>2026-04-10T16:30:25.089Z</time></trkpt><trkpt lat="43.375443" lon="11.7876971"><ele>273.0</ele><time>2026-04-10T16:30:31.974Z</time></trkpt><trkpt lat="43.37541" lon="11.7878283"><ele>273.0</ele><time>2026-04-10T16:30:33.978Z</time></trkpt><trkpt lat="43.3754083" lon="11.7879317"><ele>273.0</ele><time>2026-04-10T16:30:36.98Z</time></trkpt><trkpt lat="43.3754133" lon="11.7880183"><ele>273.0</ele><time>2026-04-10T16:30:38.981Z</time></trkpt><trkpt lat="43.3754317" lon="11.78813"><ele>272.8333333333333</ele><time>2026-04-10T16:30:41.976Z</time></trkpt><trkpt lat="43.3754533" lon="11.7882533"><ele>272.6666666666667</ele><time>2026-04-10T16:30:43.977Z</time></trkpt><trkpt lat="43.3754633" lon="11.7883467"><ele>272.5</ele><time>2026-04-10T16:30:45.982Z</time></trkpt><trkpt lat="43.3754817" lon="11.7884433"><ele>272.33333333333337</ele><time>2026-04-10T16:30:47.981Z</time></trkpt><trkpt lat="43.3755033" lon="11.7885867"><ele>272.1666666666667</ele><time>2026-04-10T16:30:49.979Z</time></trkpt><trkpt lat="43.3755283" lon="11.7887183"><ele>272.0</ele><time>2026-04-10T16:30:51.977Z</time></trkpt><trkpt lat="43.375545" lon="11.7888683"><ele>271.6666666666667</ele><time>2026-04-10T16:30:53.979Z</time></trkpt><trkpt lat="43.3755367" lon="11.7890233"><ele>271.33333333333337</ele><time>2026-04-10T16:30:55.981Z</time></trkpt><trkpt lat="43.3755283" lon="11.7891933"><ele>271.0</ele><time>2026-04-10T16:30:57.98Z</time></trkpt><trkpt lat="43.37553" lon="11.78928"><ele>270.6666666666667</ele><time>2026-04-10T16:30:58.979Z</time></trkpt><trkpt lat="43.3755317" lon="11.78937"><ele>270.3333333333333</ele><time>2026-04-10T16:30:59.976Z</time></trkpt><trkpt lat="43.3755217" lon="11.7894683"><ele>270.0</ele><time>2026-04-10T16:31:00.978Z</time></trkpt><trkpt lat="43.3755167" lon="11.789565"><ele>270.0</ele><time>2026-04-10T16:31:01.978Z</time></trkpt><trkpt lat="43.37551" lon="11.7896683"><ele>270.0</ele><time>2026-04-10T16:31:02.98Z</time></trkpt><trkpt lat="43.3754967" lon="11.7897667"><ele>270.0</ele><time>2026-04-10T16:31:03.978Z</time></trkpt><trkpt lat="43.37548" lon="11.7898567"><ele>270.0</ele><time>2026-04-10T16:31:04.975Z</time></trkpt><trkpt lat="43.375455" lon="11.7899467"><ele>270.0</ele><time>2026-04-10T16:31:05.977Z</time></trkpt><trkpt lat="43.3754267" lon="11.7900317"><ele>270.0</ele><time>2026-04-10T16:31:06.976Z</time></trkpt><trkpt lat="43.3753933" lon="11.790115"><ele>270.0</ele><time>2026-04-10T16:31:07.975Z</time></trkpt><trkpt lat="43.3753617" lon="11.7901933"><ele>270.0</ele><time>2026-04-10T16:31:08.977Z</time></trkpt><trkpt lat="43.3752983" lon="11.7903417"><ele>270.0</ele><time>2026-04-10T16:31:10.978Z</time></trkpt><trkpt lat="43.3752383" lon="11.790475"><ele>270.0</ele><time>2026-04-10T16:31:12.977Z</time></trkpt><trkpt lat="43.3751833" lon="11.790605"><ele>270.0</ele><time>2026-04-10T16:31:14.979Z</time></trkpt><trkpt lat="43.3751167" lon="11.7907317"><ele>270.0</ele><time>2026-04-10T16:31:16.975Z</time></trkpt><trkpt lat="43.3750617" lon="11.79086"><ele>270.0</ele><time>2026-04-10T16:31:18.977Z</time></trkpt><trkpt lat="43.375" lon="11.7909817"><ele>270.0</ele><time>2026-04-10T16:31:20.982Z</time></trkpt><trkpt lat="43.3749333" lon="11.7911"><ele>270.0</ele><time>2026-04-10T16:31:22.979Z</time></trkpt><trkpt lat="43.374865" lon="11.79122"><ele>270.0</ele><time>2026-04-10T16:31:24.981Z</time></trkpt><trkpt lat="43.3747983" lon="11.791355"><ele>270.4</ele><time>2026-04-10T16:31:26.978Z</time></trkpt><trkpt lat="43.37473" lon="11.7914867"><ele>270.8</ele><time>2026-04-10T16:31:28.981Z</time></trkpt><trkpt lat="43.3746683" lon="11.7915983"><ele>271.2</ele><time>2026-04-10T16:31:30.98Z</time></trkpt><trkpt lat="43.374605" lon="11.791725"><ele>271.6</ele><time>2026-04-10T16:31:32.982Z</time></trkpt><trkpt lat="43.3745433" lon="11.79185"><ele>272.0</ele><time>2026-04-10T16:31:34.975Z</time></trkpt><trkpt lat="43.3744817" lon="11.7919717"><ele>272.33333333333337</ele><time>2026-04-10T16:31:36.978Z</time></trkpt><trkpt lat="43.374425" lon="11.7920933"><ele>272.6666666666667</ele><time>2026-04-10T16:31:38.978Z</time></trkpt><trkpt lat="43.374375" lon="11.79221"><ele>273.0</ele><time>2026-04-10T16:31:40.977Z</time></trkpt><trkpt lat="43.3743267" lon="11.7923083"><ele>273.3333333333333</ele><time>2026-04-10T16:31:42.978Z</time></trkpt><trkpt lat="43.3742833" lon="11.7923783"><ele>273.66666666666663</ele><time>2026-04-10T16:31:44.981Z</time></trkpt><trkpt lat="43.3742233" lon="11.7924533"><ele>274.0</ele><time>2026-04-10T16:31:47.979Z</time></trkpt><trkpt lat="43.3741783" lon="11.7925267"><ele>274.0</ele><time>2026-04-10T16:31:50.977Z</time></trkpt><trkpt lat="43.37414" lon="11.792615"><ele>274.0</ele><time>2026-04-10T16:31:53.975Z</time></trkpt><trkpt lat="43.3741217" lon="11.7927383"><ele>274.0</ele><time>2026-04-10T16:31:56.98Z</time></trkpt><trkpt lat="43.3741283" lon="11.792835"><ele>274.0</ele><time>2026-04-10T16:31:58.975Z</time></trkpt><trkpt lat="43.3741517" lon="11.7929367"><ele>274.0</ele><time>2026-04-10T16:32:00.977Z</time></trkpt><trkpt lat="43.374205" lon="11.7930417"><ele>274.0</ele><time>2026-04-10T16:32:03.978Z</time></trkpt><trkpt lat="43.3742433" lon="11.793115"><ele>274.0</ele><time>2026-04-10T16:32:05.977Z</time></trkpt><trkpt lat="43.3742917" lon="11.7931867"><ele>274.0</ele><time>2026-04-10T16:32:07.98Z</time></trkpt><trkpt lat="43.3743483" lon="11.79327"><ele>274.0</ele><time>2026-04-10T16:32:09.98Z</time></trkpt><trkpt lat="43.3744" lon="11.79336"><ele>274.0</ele><time>2026-04-10T16:32:11.979Z</time></trkpt><trkpt lat="43.3744517" lon="11.79345"><ele>274.0</ele><time>2026-04-10T16:32:13.977Z</time></trkpt><trkpt lat="43.3745017" lon="11.7935317"><ele>274.0</ele><time>2026-04-10T16:32:15.976Z</time></trkpt><trkpt lat="43.3745533" lon="11.793615"><ele>273.8333333333333</ele><time>2026-04-10T16:32:17.977Z</time></trkpt><trkpt lat="43.374605" lon="11.793705"><ele>273.66666666666663</ele><time>2026-04-10T16:32:19.978Z</time></trkpt><trkpt lat="43.3746383" lon="11.7938133"><ele>273.5</ele><time>2026-04-10T16:32:21.978Z</time></trkpt><trkpt lat="43.37465" lon="11.7939283"><ele>273.3333333333333</ele><time>2026-04-10T16:32:23.976Z</time></trkpt><trkpt lat="43.3746283" lon="11.7940383"><ele>273.1666666666667</ele><time>2026-04-10T16:32:25.985Z</time></trkpt><trkpt lat="43.3745717" lon="11.794125"><ele>273.0</ele><time>2026-04-10T16:32:27.977Z</time></trkpt><trkpt lat="43.3745067" lon="11.7942083"><ele>273.0</ele><time>2026-04-10T16:32:29.98Z</time></trkpt><trkpt lat="43.3744417" lon="11.79428"><ele>273.0</ele><time>2026-04-10T16:32:31.978Z</time></trkpt><trkpt lat="43.3743817" lon="11.794345"><ele>273.0</ele><time>2026-04-10T16:32:33.977Z</time></trkpt><trkpt lat="43.3743167" lon="11.7944283"><ele>273.0</ele><time>2026-04-10T16:32:35.975Z</time></trkpt><trkpt lat="43.3742367" lon="11.7944967"><ele>273.0</ele><time>2026-04-10T16:32:37.975Z</time></trkpt><trkpt lat="43.3741617" lon="11.7946017"><ele>272.5</ele><time>2026-04-10T16:32:39.975Z</time></trkpt><trkpt lat="43.3740733" lon="11.7947033"><ele>272.0</ele><time>2026-04-10T16:32:41.975Z</time></trkpt><trkpt lat="43.3739767" lon="11.7947967"><ele>271.5</ele><time>2026-04-10T16:32:43.981Z</time></trkpt><trkpt lat="43.3738833" lon="11.7948917"><ele>271.0</ele><time>2026-04-10T16:32:45.975Z</time></trkpt><trkpt lat="43.3737883" lon="11.79497"><ele>271.0</ele><time>2026-04-10T16:32:47.98Z</time></trkpt><trkpt lat="43.3736883" lon="11.7950467"><ele>271.0</ele><time>2026-04-10T16:32:49.981Z</time></trkpt><trkpt lat="43.373585" lon="11.795105"><ele>271.0</ele><time>2026-04-10T16:32:51.979Z</time></trkpt><trkpt lat="43.3734817" lon="11.79515"><ele>271.0</ele><time>2026-04-10T16:32:53.981Z</time></trkpt><trkpt lat="43.3733833" lon="11.7951633"><ele>271.0</ele><time>2026-04-10T16:32:55.976Z</time></trkpt><trkpt lat="43.3733017" lon="11.7951867"><ele>270.8333333333333</ele><time>2026-04-10T16:32:57.977Z</time></trkpt><trkpt lat="43.3732367" lon="11.7952483"><ele>270.66666666666663</ele><time>2026-04-10T16:32:59.975Z</time></trkpt><trkpt lat="43.3732133" lon="11.7953467"><ele>270.5</ele><time>2026-04-10T16:33:01.976Z</time></trkpt><trkpt lat="43.3732167" lon="11.7954483"><ele>270.3333333333333</ele><time>2026-04-10T16:33:03.98Z</time></trkpt><trkpt lat="43.3732217" lon="11.7955533"><ele>270.1666666666667</ele><time>2026-04-10T16:33:05.978Z</time></trkpt><trkpt lat="43.3732317" lon="11.7956633"><ele>270.0</ele><time>2026-04-10T16:33:07.977Z</time></trkpt><trkpt lat="43.37325" lon="11.7957733"><ele>270.0</ele><time>2026-04-10T16:33:09.975Z</time></trkpt><trkpt lat="43.3732817" lon="11.7958983"><ele>270.0</ele><time>2026-04-10T16:33:11.977Z</time></trkpt><trkpt lat="43.3733083" lon="11.7960417"><ele>270.0</ele><time>2026-04-10T16:33:13.976Z</time></trkpt><trkpt lat="43.3733367" lon="11.7961917"><ele>270.0</ele><time>2026-04-10T16:33:15.981Z</time></trkpt><trkpt lat="43.3733683" lon="11.7963417"><ele>270.0</ele><time>2026-04-10T16:33:17.979Z</time></trkpt><trkpt lat="43.3734033" lon="11.7964867"><ele>270.0</ele><time>2026-04-10T16:33:19.978Z</time></trkpt><trkpt lat="43.3734467" lon="11.7966433"><ele>270.0</ele><time>2026-04-10T16:33:21.981Z</time></trkpt><trkpt lat="43.3734883" lon="11.7967917"><ele>270.0</ele><time>2026-04-10T16:33:23.976Z</time></trkpt><trkpt lat="43.3735383" lon="11.796925"><ele>270.0</ele><time>2026-04-10T16:33:25.975Z</time></trkpt><trkpt lat="43.3735817" lon="11.797055"><ele>270.0</ele><time>2026-04-10T16:33:27.982Z</time></trkpt><trkpt lat="43.3736433" lon="11.7971717"><ele>270.0</ele><time>2026-04-10T16:33:29.978Z</time></trkpt><trkpt lat="43.3737117" lon="11.797285"><ele>270.0</ele><time>2026-04-10T16:33:31.979Z</time></trkpt><trkpt lat="43.3737783" lon="11.7974"><ele>270.0</ele><time>2026-04-10T16:33:33.979Z</time></trkpt><trkpt lat="43.3738533" lon="11.7975183"><ele>270.0</ele><time>2026-04-10T16:33:35.979Z</time></trkpt><trkpt lat="43.3739283" lon="11.7976417"><ele>269.6</ele><time>2026-04-10T16:33:37.976Z</time></trkpt><trkpt lat="43.3740033" lon="11.7977617"><ele>269.2</ele><time>2026-04-10T16:33:39.973Z</time></trkpt><trkpt lat="43.3740767" lon="11.7978767"><ele>268.8</ele><time>2026-04-10T16:33:41.977Z</time></trkpt><trkpt lat="43.37415" lon="11.797985"><ele>268.4</ele><time>2026-04-10T16:33:43.981Z</time></trkpt><trkpt lat="43.3742217" lon="11.7981033"><ele>268.0</ele><time>2026-04-10T16:33:45.978Z</time></trkpt><trkpt lat="43.374295" lon="11.7982183"><ele>268.0</ele><time>2026-04-10T16:33:47.977Z</time></trkpt><trkpt lat="43.3743617" lon="11.798355"><ele>268.0</ele><time>2026-04-10T16:33:49.98Z</time></trkpt><trkpt lat="43.3743933" lon="11.79843"><ele>268.0</ele><time>2026-04-10T16:33:50.98Z</time></trkpt><trkpt lat="43.3744117" lon="11.7985133"><ele>268.0</ele><time>2026-04-10T16:33:51.978Z</time></trkpt><trkpt lat="43.3744233" lon="11.7986033"><ele>268.0</ele><time>2026-04-10T16:33:52.979Z</time></trkpt><trkpt lat="43.37443" lon="11.7986933"><ele>268.0</ele><time>2026-04-10T16:33:53.978Z</time></trkpt><trkpt lat="43.3744333" lon="11.79878"><ele>268.0</ele><time>2026-04-10T16:33:54.979Z</time></trkpt><trkpt lat="43.374435" lon="11.7988667"><ele>267.4</ele><time>2026-04-10T16:33:55.975Z</time></trkpt><trkpt lat="43.37443" lon="11.7989533"><ele>266.8</ele><time>2026-04-10T16:33:56.983Z</time></trkpt><trkpt lat="43.3744233" lon="11.7990417"><ele>266.2</ele><time>2026-04-10T16:33:57.977Z</time></trkpt><trkpt lat="43.3744133" lon="11.7992067"><ele>265.6</ele><time>2026-04-10T16:33:59.98Z</time></trkpt><trkpt lat="43.3744067" lon="11.7993633"><ele>265.0</ele><time>2026-04-10T16:34:01.975Z</time></trkpt><trkpt lat="43.374405" lon="11.7995167"><ele>264.75</ele><time>2026-04-10T16:34:03.976Z</time></trkpt><trkpt lat="43.3743967" lon="11.7996733"><ele>264.5</ele><time>2026-04-10T16:34:05.977Z</time></trkpt><trkpt lat="43.3743883" lon="11.7998267"><ele>264.25</ele><time>2026-04-10T16:34:07.983Z</time></trkpt><trkpt lat="43.3743783" lon="11.7999767"><ele>264.0</ele><time>2026-04-10T16:34:09.978Z</time></trkpt><trkpt lat="43.37437" lon="11.800135"><ele>263.75</ele><time>2026-04-10T16:34:11.982Z</time></trkpt><trkpt lat="43.3743617" lon="11.8002917"><ele>263.5</ele><time>2026-04-10T16:34:13.976Z</time></trkpt><trkpt lat="43.37436" lon="11.8004433"><ele>263.25</ele><time>2026-04-10T16:34:15.977Z</time></trkpt><trkpt lat="43.37436" lon="11.8005933"><ele>263.0</ele><time>2026-04-10T16:34:17.981Z</time></trkpt><trkpt lat="43.37435" lon="11.800755"><ele>263.0</ele><time>2026-04-10T16:34:19.977Z</time></trkpt><trkpt lat="43.3743467" lon="11.8009167"><ele>263.0</ele><time>2026-04-10T16:34:21.979Z</time></trkpt><trkpt lat="43.3743417" lon="11.8010683"><ele>263.0</ele><time>2026-04-10T16:34:23.979Z</time></trkpt><trkpt lat="43.37434" lon="11.80123"><ele>263.0</ele><time>2026-04-10T16:34:25.981Z</time></trkpt><trkpt lat="43.374325" lon="11.8013767"><ele>262.83333333333337</ele><time>2026-04-10T16:34:27.976Z</time></trkpt><trkpt lat="43.3742983" lon="11.8015133"><ele>262.6666666666667</ele><time>2026-04-10T16:34:29.976Z</time></trkpt><trkpt lat="43.3742683" lon="11.8016333"><ele>262.5</ele><time>2026-04-10T16:34:31.976Z</time></trkpt><trkpt lat="43.3742283" lon="11.8017333"><ele>262.3333333333333</ele><time>2026-04-10T16:34:33.979Z</time></trkpt><trkpt lat="43.37419" lon="11.8018133"><ele>262.16666666666663</ele><time>2026-04-10T16:34:35.98Z</time></trkpt><trkpt lat="43.3741383" lon="11.801865"><ele>262.0</ele><time>2026-04-10T16:34:37.979Z</time></trkpt><trkpt lat="43.3740783" lon="11.8019"><ele>261.16666666666663</ele><time>2026-04-10T16:34:39.978Z</time></trkpt><trkpt lat="43.3739767" lon="11.8019633"><ele>260.3333333333333</ele><time>2026-04-10T16:34:42.979Z</time></trkpt><trkpt lat="43.373865" lon="11.8020217"><ele>259.5</ele><time>2026-04-10T16:34:44.977Z</time></trkpt><trkpt lat="43.3737983" lon="11.8020533"><ele>258.6666666666667</ele><time>2026-04-10T16:34:45.981Z</time></trkpt><trkpt lat="43.3737317" lon="11.8020933"><ele>257.83333333333337</ele><time>2026-04-10T16:34:46.981Z</time></trkpt><trkpt lat="43.37367" lon="11.8021167"><ele>257.0</ele><time>2026-04-10T16:34:47.981Z</time></trkpt><trkpt lat="43.373605" lon="11.8021467"><ele>257.0</ele><time>2026-04-10T16:34:48.978Z</time></trkpt><trkpt lat="43.3735417" lon="11.80218"><ele>257.0</ele><time>2026-04-10T16:34:49.978Z</time></trkpt><trkpt lat="43.373435" lon="11.8022417"><ele>257.0</ele><time>2026-04-10T16:34:51.981Z</time></trkpt><trkpt lat="43.3733583" lon="11.802345"><ele>257.0</ele><time>2026-04-10T16:34:53.981Z</time></trkpt><trkpt lat="43.37333" lon="11.8025083"><ele>257.0</ele><time>2026-04-10T16:34:55.977Z</time></trkpt><trkpt lat="43.3733117" lon="11.802595"><ele>256.33333333333337</ele><time>2026-04-10T16:34:56.978Z</time></trkpt><trkpt lat="43.373295" lon="11.8027633"><ele>255.66666666666669</ele><time>2026-04-10T16:34:58.979Z</time></trkpt><trkpt lat="43.37331" lon="11.8028533"><ele>255.0</ele><time>2026-04-10T16:34:59.978Z</time></trkpt><trkpt lat="43.3733483" lon="11.80293"><ele>254.33333333333331</ele><time>2026-04-10T16:35:00.981Z</time></trkpt><trkpt lat="43.3734017" lon="11.8029917"><ele>253.66666666666666</ele><time>2026-04-10T16:35:01.977Z</time></trkpt><trkpt lat="43.3734517" lon="11.8030533"><ele>253.0</ele><time>2026-04-10T16:35:02.981Z</time></trkpt><trkpt lat="43.373495" lon="11.803125"><ele>253.00000000000003</ele><time>2026-04-10T16:35:03.976Z</time></trkpt><trkpt lat="43.3735267" lon="11.80321"><ele>253.0</ele><time>2026-04-10T16:35:04.978Z</time></trkpt><trkpt lat="43.3735483" lon="11.8033017"><ele>253.00000000000003</ele><time>2026-04-10T16:35:05.976Z</time></trkpt><trkpt lat="43.3735567" lon="11.8033967"><ele>253.00000000000003</ele><time>2026-04-10T16:35:06.979Z</time></trkpt><trkpt lat="43.373565" lon="11.803495"><ele>253.0</ele><time>2026-04-10T16:35:07.98Z</time></trkpt><trkpt lat="43.3735767" lon="11.8035933"><ele>253.00000000000003</ele><time>2026-04-10T16:35:08.983Z</time></trkpt><trkpt lat="43.3735917" lon="11.8036917"><ele>253.00000000000003</ele><time>2026-04-10T16:35:09.975Z</time></trkpt><trkpt lat="43.37361" lon="11.8037867"><ele>253.00000000000003</ele><time>2026-04-10T16:35:10.978Z</time></trkpt><trkpt lat="43.3736317" lon="11.80388"><ele>253.0</ele><time>2026-04-10T16:35:11.975Z</time></trkpt><trkpt lat="43.37365" lon="11.803975"><ele>253.00000000000003</ele><time>2026-04-10T16:35:12.98Z</time></trkpt><trkpt lat="43.3736733" lon="11.80407"><ele>253.00000000000003</ele><time>2026-04-10T16:35:13.979Z</time></trkpt><trkpt lat="43.3736967" lon="11.804165"><ele>253.0</ele><time>2026-04-10T16:35:14.977Z</time></trkpt><trkpt lat="43.37372" lon="11.8042633"><ele>253.00000000000003</ele><time>2026-04-10T16:35:15.978Z</time></trkpt><trkpt lat="43.373745" lon="11.804365"><ele>253.00000000000003</ele><time>2026-04-10T16:35:16.978Z</time></trkpt><trkpt lat="43.3737683" lon="11.804465"><ele>252.66666666666666</ele><time>2026-04-10T16:35:17.979Z</time></trkpt><trkpt lat="43.3737917" lon="11.804565"><ele>252.33333333333331</ele><time>2026-04-10T16:35:18.977Z</time></trkpt><trkpt lat="43.3738167" lon="11.804665"><ele>252.0</ele><time>2026-04-10T16:35:19.98Z</time></trkpt><trkpt lat="43.37384" lon="11.8047633"><ele>251.66666666666669</ele><time>2026-04-10T16:35:20.979Z</time></trkpt><trkpt lat="43.3738633" lon="11.8048633"><ele>251.33333333333334</ele><time>2026-04-10T16:35:21.977Z</time></trkpt><trkpt lat="43.373885" lon="11.8049617"><ele>251.0</ele><time>2026-04-10T16:35:22.975Z</time></trkpt><trkpt lat="43.373905" lon="11.8050583"><ele>250.83333333333334</ele><time>2026-04-10T16:35:23.977Z</time></trkpt><trkpt lat="43.3739267" lon="11.8051533"><ele>250.66666666666669</ele><time>2026-04-10T16:35:24.978Z</time></trkpt><trkpt lat="43.3739683" lon="11.805345"><ele>250.5</ele><time>2026-04-10T16:35:26.977Z</time></trkpt><trkpt lat="43.3739867" lon="11.8054367"><ele>250.33333333333331</ele><time>2026-04-10T16:35:27.977Z</time></trkpt><trkpt lat="43.3740083" lon="11.8055283"><ele>250.16666666666666</ele><time>2026-04-10T16:35:28.983Z</time></trkpt><trkpt lat="43.3740333" lon="11.8056233"><ele>250.0</ele><time>2026-04-10T16:35:29.98Z</time></trkpt><trkpt lat="43.3740533" lon="11.805715"><ele>249.99999999999997</ele><time>2026-04-10T16:35:30.979Z</time></trkpt><trkpt lat="43.374075" lon="11.805805"><ele>250.0</ele><time>2026-04-10T16:35:31.977Z</time></trkpt><trkpt lat="43.3740967" lon="11.8058933"><ele>250.0</ele><time>2026-04-10T16:35:32.982Z</time></trkpt><trkpt lat="43.3741183" lon="11.8059817"><ele>250.0</ele><time>2026-04-10T16:35:33.979Z</time></trkpt><trkpt lat="43.3741417" lon="11.806065"><ele>249.99999999999997</ele><time>2026-04-10T16:35:34.978Z</time></trkpt><trkpt lat="43.3741667" lon="11.8061467"><ele>250.0</ele><time>2026-04-10T16:35:35.979Z</time></trkpt><trkpt lat="43.374205" lon="11.8063083"><ele>249.83333333333331</ele><time>2026-04-10T16:35:37.978Z</time></trkpt><trkpt lat="43.3742267" lon="11.8063917"><ele>249.66666666666666</ele><time>2026-04-10T16:35:38.98Z</time></trkpt><trkpt lat="43.3742467" lon="11.8064767"><ele>249.5</ele><time>2026-04-10T16:35:39.974Z</time></trkpt><trkpt lat="43.3742717" lon="11.8065567"><ele>249.33333333333331</ele><time>2026-04-10T16:35:40.975Z</time></trkpt><trkpt lat="43.37432" lon="11.8067117"><ele>249.16666666666666</ele><time>2026-04-10T16:35:42.979Z</time></trkpt><trkpt lat="43.374355" lon="11.806875"><ele>249.0</ele><time>2026-04-10T16:35:44.977Z</time></trkpt><trkpt lat="43.3743917" lon="11.8070367"><ele>249.0</ele><time>2026-04-10T16:35:46.977Z</time></trkpt><trkpt lat="43.3744167" lon="11.8071167"><ele>248.99999999999997</ele><time>2026-04-10T16:35:47.977Z</time></trkpt><trkpt lat="43.3744683" lon="11.807265"><ele>248.99999999999997</ele><time>2026-04-10T16:35:49.977Z</time></trkpt><trkpt lat="43.3745033" lon="11.8074183"><ele>249.0</ele><time>2026-04-10T16:35:51.978Z</time></trkpt><trkpt lat="43.3745317" lon="11.80756"><ele>249.0</ele><time>2026-04-10T16:35:53.975Z</time></trkpt><trkpt lat="43.3745433" lon="11.8076917"><ele>249.0</ele><time>2026-04-10T16:35:55.976Z</time></trkpt><trkpt lat="43.3745067" lon="11.80782"><ele>248.99999999999997</ele><time>2026-04-10T16:35:57.981Z</time></trkpt><trkpt lat="43.374455" lon="11.807925"><ele>248.99999999999997</ele><time>2026-04-10T16:35:59.977Z</time></trkpt><trkpt lat="43.3743733" lon="11.8079867"><ele>249.0</ele><time>2026-04-10T16:36:01.983Z</time></trkpt><trkpt lat="43.3742783" lon="11.808015"><ele>249.0</ele><time>2026-04-10T16:36:03.979Z</time></trkpt><trkpt lat="43.374175" lon="11.8080433"><ele>249.0</ele><time>2026-04-10T16:36:05.982Z</time></trkpt><trkpt lat="43.3740633" lon="11.8080733"><ele>249.0</ele><time>2026-04-10T16:36:07.982Z</time></trkpt><trkpt lat="43.37395" lon="11.808105"><ele>249.0</ele><time>2026-04-10T16:36:09.981Z</time></trkpt><trkpt lat="43.3738333" lon="11.8081367"><ele>249.0</ele><time>2026-04-10T16:36:11.977Z</time></trkpt><trkpt lat="43.373715" lon="11.808165"><ele>249.2</ele><time>2026-04-10T16:36:13.978Z</time></trkpt><trkpt lat="43.3735933" lon="11.8081917"><ele>249.39999999999998</ele><time>2026-04-10T16:36:15.975Z</time></trkpt><trkpt lat="43.3735317" lon="11.80821"><ele>249.6</ele><time>2026-04-10T16:36:16.973Z</time></trkpt><trkpt lat="43.3734067" lon="11.80824"><ele>249.8</ele><time>2026-04-10T16:36:18.978Z</time></trkpt><trkpt lat="43.3732883" lon="11.80827"><ele>250.0</ele><time>2026-04-10T16:36:20.978Z</time></trkpt><trkpt lat="43.3731683" lon="11.8082917"><ele>250.0</ele><time>2026-04-10T16:36:22.978Z</time></trkpt><trkpt lat="43.3730517" lon="11.8083133"><ele>250.0</ele><time>2026-04-10T16:36:24.977Z</time></trkpt><trkpt lat="43.3729317" lon="11.8083267"><ele>250.0</ele><time>2026-04-10T16:36:26.978Z</time></trkpt><trkpt lat="43.3728167" lon="11.8083317"><ele>250.0</ele><time>2026-04-10T16:36:28.977Z</time></trkpt><trkpt lat="43.3726983" lon="11.808335"><ele>249.8</ele><time>2026-04-10T16:36:30.98Z</time></trkpt><trkpt lat="43.3725767" lon="11.808335"><ele>249.6</ele><time>2026-04-10T16:36:32.981Z</time></trkpt><trkpt lat="43.3724633" lon="11.808325"><ele>249.39999999999998</ele><time>2026-04-10T16:36:34.976Z</time></trkpt><trkpt lat="43.3723567" lon="11.8083217"><ele>249.2</ele><time>2026-04-10T16:36:36.977Z</time></trkpt><trkpt lat="43.37226" lon="11.8083117"><ele>249.0</ele><time>2026-04-10T16:36:38.979Z</time></trkpt><trkpt lat="43.372165" lon="11.8083033"><ele>248.83333333333334</ele><time>2026-04-10T16:36:40.981Z</time></trkpt><trkpt lat="43.37207" lon="11.8082933"><ele>248.66666666666669</ele><time>2026-04-10T16:36:42.978Z</time></trkpt><trkpt lat="43.3719983" lon="11.8082267"><ele>248.5</ele><time>2026-04-10T16:36:44.98Z</time></trkpt><trkpt lat="43.372005" lon="11.8081267"><ele>248.33333333333334</ele><time>2026-04-10T16:36:46.977Z</time></trkpt><trkpt lat="43.3720233" lon="11.808025"><ele>248.16666666666669</ele><time>2026-04-10T16:36:48.979Z</time></trkpt><trkpt lat="43.3720317" lon="11.8079067"><ele>248.0</ele><time>2026-04-10T16:36:50.978Z</time></trkpt><trkpt lat="43.3720433" lon="11.807785"><ele>248.0</ele><time>2026-04-10T16:36:52.976Z</time></trkpt><trkpt lat="43.3720467" lon="11.8076633"><ele>248.0</ele><time>2026-04-10T16:36:54.976Z</time></trkpt><trkpt lat="43.3720467" lon="11.8075417"><ele>248.0</ele><time>2026-04-10T16:36:56.979Z</time></trkpt><trkpt lat="43.37205" lon="11.807405"><ele>248.0</ele><time>2026-04-10T16:36:58.98Z</time></trkpt><trkpt lat="43.3720533" lon="11.8072667"><ele>248.0</ele><time>2026-04-10T16:37:00.981Z</time></trkpt><trkpt lat="43.3720517" lon="11.8071333"><ele>247.85714285714286</ele><time>2026-04-10T16:37:02.978Z</time></trkpt><trkpt lat="43.3720567" lon="11.8070167"><ele>247.71428571428572</ele><time>2026-04-10T16:37:04.981Z</time></trkpt><trkpt lat="43.3720617" lon="11.8069067"><ele>247.57142857142858</ele><time>2026-04-10T16:37:06.978Z</time></trkpt><trkpt lat="43.3720733" lon="11.8068133"><ele>247.42857142857144</ele><time>2026-04-10T16:37:09.971Z</time></trkpt><trkpt lat="43.37213" lon="11.806765"><ele>247.28571428571428</ele><time>2026-04-10T16:37:37.98Z</time></trkpt><trkpt lat="43.3720748" lon="11.8068361"><ele>247.14285714285717</ele><time>2026-04-10T16:37:38.935Z</time></trkpt><trkpt lat="43.3721309" lon="11.8067779"><ele>247.0</ele><time>2026-04-10T16:37:41.022Z</time></trkpt><trkpt lat="43.3720683" lon="11.806815"><ele>246.99999999999997</ele><time>2026-04-10T16:38:03.977Z</time></trkpt><trkpt lat="43.3720467" lon="11.8069167"><ele>247.0</ele><time>2026-04-10T16:38:07.981Z</time></trkpt><trkpt lat="43.3720283" lon="11.8070367"><ele>247.0</ele><time>2026-04-10T16:38:10.98Z</time></trkpt><trkpt lat="43.37201" lon="11.807155"><ele>247.0</ele><time>2026-04-10T16:38:13.98Z</time></trkpt><trkpt lat="43.372005" lon="11.8072433"><ele>246.99999999999997</ele><time>2026-04-10T16:38:15.975Z</time></trkpt><trkpt lat="43.3720017" lon="11.8073333"><ele>247.0</ele><time>2026-04-10T16:38:17.977Z</time></trkpt><trkpt lat="43.3720117" lon="11.8074233"><ele>246.99999999999997</ele><time>2026-04-10T16:38:19.977Z</time></trkpt><trkpt lat="43.3720067" lon="11.8075433"><ele>247.0</ele><time>2026-04-10T16:38:22.979Z</time></trkpt><trkpt lat="43.3719967" lon="11.8076583"><ele>247.0</ele><time>2026-04-10T16:38:25.974Z</time></trkpt><trkpt lat="43.37201" lon="11.8077933"><ele>247.0</ele><time>2026-04-10T16:38:27.979Z</time></trkpt><trkpt lat="43.3720233" lon="11.8079133"><ele>246.99999999999997</ele><time>2026-04-10T16:38:29.974Z</time></trkpt><trkpt lat="43.3720233" lon="11.8080367"><ele>247.0</ele><time>2026-04-10T16:38:32.976Z</time></trkpt><trkpt lat="43.3720217" lon="11.8081317"><ele>247.16666666666666</ele><time>2026-04-10T16:38:35.975Z</time></trkpt><trkpt lat="43.372" lon="11.8082467"><ele>247.33333333333331</ele><time>2026-04-10T16:38:40.978Z</time></trkpt><trkpt lat="43.3719317" lon="11.8083183"><ele>247.5</ele><time>2026-04-10T16:38:43.978Z</time></trkpt><trkpt lat="43.3718617" lon="11.808315"><ele>247.66666666666669</ele><time>2026-04-10T16:38:45.976Z</time></trkpt><trkpt lat="43.37179" lon="11.8083"><ele>247.83333333333334</ele><time>2026-04-10T16:38:47.976Z</time></trkpt><trkpt lat="43.37172" lon="11.8082917"><ele>248.0</ele><time>2026-04-10T16:38:49.975Z</time></trkpt><trkpt lat="43.371645" lon="11.808295"><ele>248.00000000000003</ele><time>2026-04-10T16:38:51.977Z</time></trkpt><trkpt lat="43.37156" lon="11.8082933"><ele>248.0</ele><time>2026-04-10T16:38:53.975Z</time></trkpt><trkpt lat="43.3714717" lon="11.8082933"><ele>248.0</ele><time>2026-04-10T16:38:55.976Z</time></trkpt><trkpt lat="43.3713867" lon="11.8082883"><ele>248.0</ele><time>2026-04-10T16:38:57.976Z</time></trkpt><trkpt lat="43.3712967" lon="11.8082733"><ele>248.00000000000003</ele><time>2026-04-10T16:38:59.978Z</time></trkpt><trkpt lat="43.371215" lon="11.808265"><ele>248.0</ele><time>2026-04-10T16:39:01.977Z</time></trkpt><trkpt lat="43.3711367" lon="11.8082533"><ele>248.00000000000003</ele><time>2026-04-10T16:39:03.977Z</time></trkpt><trkpt lat="43.3710567" lon="11.8082433"><ele>248.0</ele><time>2026-04-10T16:39:05.976Z</time></trkpt><trkpt lat="43.3709767" lon="11.80824"><ele>248.0</ele><time>2026-04-10T16:39:07.977Z</time></trkpt><trkpt lat="43.3708867" lon="11.80823"><ele>248.0</ele><time>2026-04-10T16:39:09.976Z</time></trkpt><trkpt lat="43.3707933" lon="11.80822"><ele>248.00000000000003</ele><time>2026-04-10T16:39:11.979Z</time></trkpt><trkpt lat="43.3706967" lon="11.808215"><ele>248.0</ele><time>2026-04-10T16:39:13.979Z</time></trkpt><trkpt lat="43.3706033" lon="11.808205"><ele>247.83333333333334</ele><time>2026-04-10T16:39:15.979Z</time></trkpt><trkpt lat="43.3705133" lon="11.8081917"><ele>247.66666666666669</ele><time>2026-04-10T16:39:17.979Z</time></trkpt><trkpt lat="43.3704267" lon="11.8081833"><ele>247.5</ele><time>2026-04-10T16:39:19.98Z</time></trkpt><trkpt lat="43.3703417" lon="11.808165"><ele>247.33333333333331</ele><time>2026-04-10T16:39:21.978Z</time></trkpt><trkpt lat="43.3702533" lon="11.80816"><ele>247.16666666666666</ele><time>2026-04-10T16:39:23.976Z</time></trkpt><trkpt lat="43.3701633" lon="11.808155"><ele>247.0</ele><time>2026-04-10T16:39:25.977Z</time></trkpt><trkpt lat="43.3700833" lon="11.8081433"><ele>246.99999999999997</ele><time>2026-04-10T16:39:27.979Z</time></trkpt><trkpt lat="43.3700017" lon="11.8081333"><ele>247.0</ele><time>2026-04-10T16:39:29.978Z</time></trkpt><trkpt lat="43.3699183" lon="11.8081183"><ele>247.0</ele><time>2026-04-10T16:39:31.978Z</time></trkpt><trkpt lat="43.36983" lon="11.808105"><ele>247.0</ele><time>2026-04-10T16:39:33.979Z</time></trkpt><trkpt lat="43.3697333" lon="11.80809"><ele>246.99999999999997</ele><time>2026-04-10T16:39:35.977Z</time></trkpt><trkpt lat="43.3696417" lon="11.808075"><ele>247.0</ele><time>2026-04-10T16:39:37.982Z</time></trkpt><trkpt lat="43.3695583" lon="11.8080617"><ele>247.33333333333331</ele><time>2026-04-10T16:39:39.978Z</time></trkpt><trkpt lat="43.369475" lon="11.8080583"><ele>247.66666666666666</ele><time>2026-04-10T16:39:41.977Z</time></trkpt><trkpt lat="43.3693967" lon="11.8080517"><ele>248.0</ele><time>2026-04-10T16:39:43.981Z</time></trkpt><trkpt lat="43.3693233" lon="11.8080417"><ele>248.33333333333331</ele><time>2026-04-10T16:39:45.979Z</time></trkpt><trkpt lat="43.36925" lon="11.8080333"><ele>248.66666666666666</ele><time>2026-04-10T16:39:47.978Z</time></trkpt><trkpt lat="43.3691717" lon="11.8080233"><ele>249.0</ele><time>2026-04-10T16:39:49.977Z</time></trkpt><trkpt lat="43.369095" lon="11.80801"><ele>249.0</ele><time>2026-04-10T16:39:51.981Z</time></trkpt><trkpt lat="43.369015" lon="11.8080017"><ele>249.0</ele><time>2026-04-10T16:39:53.981Z</time></trkpt><trkpt lat="43.3689283" lon="11.8079933"><ele>249.0</ele><time>2026-04-10T16:39:55.983Z</time></trkpt><trkpt lat="43.368845" lon="11.8079833"><ele>249.0</ele><time>2026-04-10T16:39:57.98Z</time></trkpt><trkpt lat="43.3687633" lon="11.8079833"><ele>249.0</ele><time>2026-04-10T16:39:59.978Z</time></trkpt><trkpt lat="43.368695" lon="11.80798"><ele>249.0</ele><time>2026-04-10T16:40:01.98Z</time></trkpt><trkpt lat="43.368605" lon="11.807965"><ele>249.0</ele><time>2026-04-10T16:40:04.979Z</time></trkpt><trkpt lat="43.3685167" lon="11.8079617"><ele>249.0</ele><time>2026-04-10T16:40:07.978Z</time></trkpt><trkpt lat="43.3684367" lon="11.8079583"><ele>249.0</ele><time>2026-04-10T16:40:10.977Z</time></trkpt><trkpt lat="43.3683733" lon="11.8079467"><ele>249.0</ele><time>2026-04-10T16:40:13.982Z</time></trkpt><trkpt lat="43.3683033" lon="11.807885"><ele>249.0</ele><time>2026-04-10T16:40:16.976Z</time></trkpt><trkpt lat="43.3682183" lon="11.80785"><ele>249.0</ele><time>2026-04-10T16:40:18.98Z</time></trkpt><trkpt lat="43.3681033" lon="11.8078433"><ele>249.0</ele><time>2026-04-10T16:40:20.977Z</time></trkpt><trkpt lat="43.3680067" lon="11.807825"><ele>248.99999999999997</ele><time>2026-04-10T16:40:22.977Z</time></trkpt><trkpt lat="43.36791" lon="11.807825"><ele>248.99999999999997</ele><time>2026-04-10T16:40:24.977Z</time></trkpt><trkpt lat="43.367805" lon="11.8077833"><ele>249.0</ele><time>2026-04-10T16:40:26.977Z</time></trkpt><trkpt lat="43.3677133" lon="11.807755"><ele>249.0</ele><time>2026-04-10T16:40:28.978Z</time></trkpt><trkpt lat="43.3676283" lon="11.80773"><ele>249.0</ele><time>2026-04-10T16:40:30.977Z</time></trkpt><trkpt lat="43.3675433" lon="11.8077033"><ele>249.0</ele><time>2026-04-10T16:40:32.978Z</time></trkpt><trkpt lat="43.3674583" lon="11.8076717"><ele>249.0</ele><time>2026-04-10T16:40:34.976Z</time></trkpt><trkpt lat="43.3673767" lon="11.807635"><ele>249.0</ele><time>2026-04-10T16:40:36.978Z</time></trkpt><trkpt lat="43.3673" lon="11.8076017"><ele>249.0</ele><time>2026-04-10T16:40:38.978Z</time></trkpt><trkpt lat="43.3672317" lon="11.807565"><ele>249.0</ele><time>2026-04-10T16:40:40.976Z</time></trkpt><trkpt lat="43.3671683" lon="11.8075283"><ele>249.16666666666666</ele><time>2026-04-10T16:40:42.973Z</time></trkpt><trkpt lat="43.3671017" lon="11.807485"><ele>249.33333333333331</ele><time>2026-04-10T16:40:44.98Z</time></trkpt><trkpt lat="43.3670367" lon="11.8074583"><ele>249.5</ele><time>2026-04-10T16:40:46.979Z</time></trkpt><trkpt lat="43.3669617" lon="11.80745"><ele>249.66666666666666</ele><time>2026-04-10T16:40:48.978Z</time></trkpt><trkpt lat="43.3668833" lon="11.80744"><ele>249.83333333333331</ele><time>2026-04-10T16:40:50.977Z</time></trkpt><trkpt lat="43.3668233" lon="11.8073783"><ele>250.0</ele><time>2026-04-10T16:40:52.975Z</time></trkpt><trkpt lat="43.36678" lon="11.807255"><ele>249.99999999999997</ele><time>2026-04-10T16:40:54.977Z</time></trkpt><trkpt lat="43.3667617" lon="11.8071583"><ele>250.0</ele><time>2026-04-10T16:40:56.979Z</time></trkpt><trkpt lat="43.3667217" lon="11.807025"><ele>250.0</ele><time>2026-04-10T16:40:58.975Z</time></trkpt><trkpt lat="43.3666567" lon="11.80702"><ele>250.0</ele><time>2026-04-10T16:41:00.978Z</time></trkpt><trkpt lat="43.3665917" lon="11.8070917"><ele>249.99999999999997</ele><time>2026-04-10T16:41:02.98Z</time></trkpt><trkpt lat="43.3665567" lon="11.8071917"><ele>250.0</ele><time>2026-04-10T16:41:04.978Z</time></trkpt><trkpt lat="43.3665183" lon="11.807285"><ele>250.0</ele><time>2026-04-10T16:41:06.978Z</time></trkpt><trkpt lat="43.3664533" lon="11.8073283"><ele>250.0</ele><time>2026-04-10T16:41:08.981Z</time></trkpt><trkpt lat="43.3663617" lon="11.80732"><ele>250.0</ele><time>2026-04-10T16:41:10.974Z</time></trkpt><trkpt lat="43.36626" lon="11.8073067"><ele>250.0</ele><time>2026-04-10T16:41:12.979Z</time></trkpt><trkpt lat="43.366165" lon="11.8072967"><ele>250.0</ele><time>2026-04-10T16:41:14.978Z</time></trkpt><trkpt lat="43.36607" lon="11.8072867"><ele>250.2</ele><time>2026-04-10T16:41:16.975Z</time></trkpt><trkpt lat="43.3659733" lon="11.80728"><ele>250.4</ele><time>2026-04-10T16:41:18.982Z</time></trkpt><trkpt lat="43.3658733" lon="11.80726"><ele>250.60000000000002</ele><time>2026-04-10T16:41:20.983Z</time></trkpt><trkpt lat="43.3657583" lon="11.80723"><ele>250.8</ele><time>2026-04-10T16:41:22.977Z</time></trkpt><trkpt lat="43.3656533" lon="11.8072117"><ele>251.0</ele><time>2026-04-10T16:41:24.986Z</time></trkpt><trkpt lat="43.3655367" lon="11.807185"><ele>251.0</ele><time>2026-04-10T16:41:26.98Z</time></trkpt><trkpt lat="43.3654267" lon="11.80716"><ele>251.00000000000003</ele><time>2026-04-10T16:41:28.979Z</time></trkpt><trkpt lat="43.3653217" lon="11.8071317"><ele>251.00000000000003</ele><time>2026-04-10T16:41:30.976Z</time></trkpt><trkpt lat="43.3652167" lon="11.8071067"><ele>251.0</ele><time>2026-04-10T16:41:32.979Z</time></trkpt><trkpt lat="43.3651083" lon="11.8070917"><ele>251.0</ele><time>2026-04-10T16:41:34.978Z</time></trkpt><trkpt lat="43.3650017" lon="11.8070817"><ele>251.0</ele><time>2026-04-10T16:41:36.979Z</time></trkpt><trkpt lat="43.3648917" lon="11.8070833"><ele>251.00000000000003</ele><time>2026-04-10T16:41:38.981Z</time></trkpt><trkpt lat="43.3647867" lon="11.8070683"><ele>251.00000000000003</ele><time>2026-04-10T16:41:40.98Z</time></trkpt><trkpt lat="43.3646783" lon="11.807055"><ele>251.0</ele><time>2026-04-10T16:41:42.977Z</time></trkpt><trkpt lat="43.3645683" lon="11.80704"><ele>251.0</ele><time>2026-04-10T16:41:44.976Z</time></trkpt><trkpt lat="43.3644533" lon="11.8070317"><ele>251.0</ele><time>2026-04-10T16:41:46.977Z</time></trkpt><trkpt lat="43.3643433" lon="11.8070483"><ele>251.0</ele><time>2026-04-10T16:41:48.977Z</time></trkpt><trkpt lat="43.364225" lon="11.807045"><ele>251.0</ele><time>2026-04-10T16:41:50.98Z</time></trkpt><trkpt lat="43.36411" lon="11.80705"><ele>251.0</ele><time>2026-04-10T16:41:52.98Z</time></trkpt><trkpt lat="43.3640017" lon="11.8070567"><ele>251.0</ele><time>2026-04-10T16:41:54.982Z</time></trkpt><trkpt lat="43.3638967" lon="11.8070583"><ele>251.0</ele><time>2026-04-10T16:41:56.978Z</time></trkpt><trkpt lat="43.363775" lon="11.807075"><ele>251.0</ele><time>2026-04-10T16:41:58.978Z</time></trkpt><trkpt lat="43.3636617" lon="11.80711"><ele>251.0</ele><time>2026-04-10T16:42:00.977Z</time></trkpt><trkpt lat="43.3635383" lon="11.807125"><ele>250.66666666666669</ele><time>2026-04-10T16:42:02.98Z</time></trkpt><trkpt lat="43.363415" lon="11.8071383"><ele>250.33333333333334</ele><time>2026-04-10T16:42:04.979Z</time></trkpt><trkpt lat="43.3633483" lon="11.8071417"><ele>250.0</ele><time>2026-04-10T16:42:05.976Z</time></trkpt><trkpt lat="43.3632833" lon="11.8071433"><ele>249.66666666666669</ele><time>2026-04-10T16:42:06.98Z</time></trkpt><trkpt lat="43.3632167" lon="11.80715"><ele>249.33333333333334</ele><time>2026-04-10T16:42:07.978Z</time></trkpt><trkpt lat="43.36315" lon="11.80716"><ele>249.0</ele><time>2026-04-10T16:42:08.979Z</time></trkpt><trkpt lat="43.363025" lon="11.8071883"><ele>248.85714285714283</ele><time>2026-04-10T16:42:10.978Z</time></trkpt><trkpt lat="43.3629617" lon="11.8071983"><ele>248.7142857142857</ele><time>2026-04-10T16:42:11.978Z</time></trkpt><trkpt lat="43.3628967" lon="11.8072067"><ele>248.57142857142856</ele><time>2026-04-10T16:42:12.975Z</time></trkpt><trkpt lat="43.3628333" lon="11.8072133"><ele>248.42857142857144</ele><time>2026-04-10T16:42:13.977Z</time></trkpt><trkpt lat="43.36271" lon="11.8072317"><ele>248.2857142857143</ele><time>2026-04-10T16:42:15.975Z</time></trkpt><trkpt lat="43.3626467" lon="11.80724"><ele>248.14285714285717</ele><time>2026-04-10T16:42:16.982Z</time></trkpt><trkpt lat="43.3625833" lon="11.8072467"><ele>248.0</ele><time>2026-04-10T16:42:17.979Z</time></trkpt><trkpt lat="43.3624583" lon="11.8072667"><ele>248.00000000000003</ele><time>2026-04-10T16:42:19.978Z</time></trkpt><trkpt lat="43.3623383" lon="11.8072883"><ele>248.0</ele><time>2026-04-10T16:42:21.979Z</time></trkpt><trkpt lat="43.362215" lon="11.8073117"><ele>248.0</ele><time>2026-04-10T16:42:23.986Z</time></trkpt><trkpt lat="43.3621517" lon="11.807325"><ele>248.0</ele><time>2026-04-10T16:42:24.978Z</time></trkpt><trkpt lat="43.3620883" lon="11.8073333"><ele>248.00000000000003</ele><time>2026-04-10T16:42:25.975Z</time></trkpt><trkpt lat="43.3620233" lon="11.8073417"><ele>248.0</ele><time>2026-04-10T16:42:26.978Z</time></trkpt><trkpt lat="43.3619583" lon="11.80735"><ele>248.2857142857143</ele><time>2026-04-10T16:42:27.977Z</time></trkpt><trkpt lat="43.3618933" lon="11.80736"><ele>248.5714285714286</ele><time>2026-04-10T16:42:28.977Z</time></trkpt><trkpt lat="43.36183" lon="11.8073717"><ele>248.85714285714286</ele><time>2026-04-10T16:42:29.98Z</time></trkpt><trkpt lat="43.3617667" lon="11.8073783"><ele>249.14285714285717</ele><time>2026-04-10T16:42:30.976Z</time></trkpt><trkpt lat="43.3617033" lon="11.8073883"><ele>249.42857142857144</ele><time>2026-04-10T16:42:31.98Z</time></trkpt><trkpt lat="43.36164" lon="11.8073967"><ele>249.71428571428572</ele><time>2026-04-10T16:42:32.981Z</time></trkpt><trkpt lat="43.361575" lon="11.8074033"><ele>250.0</ele><time>2026-04-10T16:42:33.976Z</time></trkpt><trkpt lat="43.3615083" lon="11.80741"><ele>250.0</ele><time>2026-04-10T16:42:34.976Z</time></trkpt><trkpt lat="43.3614417" lon="11.8074183"><ele>250.0</ele><time>2026-04-10T16:42:35.976Z</time></trkpt><trkpt lat="43.361375" lon="11.8074217"><ele>250.0</ele><time>2026-04-10T16:42:36.977Z</time></trkpt><trkpt lat="43.36131" lon="11.8074317"><ele>250.0</ele><time>2026-04-10T16:42:37.978Z</time></trkpt><trkpt lat="43.3612433" lon="11.80744"><ele>250.0</ele><time>2026-04-10T16:42:38.983Z</time></trkpt><trkpt lat="43.3611783" lon="11.8074483"><ele>250.0</ele><time>2026-04-10T16:42:39.977Z</time></trkpt><trkpt lat="43.3611117" lon="11.80746"><ele>250.0</ele><time>2026-04-10T16:42:40.977Z</time></trkpt><trkpt lat="43.361045" lon="11.80747"><ele>249.57142857142856</ele><time>2026-04-10T16:42:41.976Z</time></trkpt><trkpt lat="43.36098" lon="11.8074817"><ele>249.14285714285717</ele><time>2026-04-10T16:42:42.978Z</time></trkpt><trkpt lat="43.360915" lon="11.807495"><ele>248.71428571428572</ele><time>2026-04-10T16:42:43.976Z</time></trkpt><trkpt lat="43.360845" lon="11.8075067"><ele>248.28571428571428</ele><time>2026-04-10T16:42:44.985Z</time></trkpt><trkpt lat="43.3607783" lon="11.8075183"><ele>247.85714285714283</ele><time>2026-04-10T16:42:45.978Z</time></trkpt><trkpt lat="43.3607133" lon="11.80753"><ele>247.42857142857144</ele><time>2026-04-10T16:42:46.974Z</time></trkpt><trkpt lat="43.3606467" lon="11.8075417"><ele>247.0</ele><time>2026-04-10T16:42:47.976Z</time></trkpt><trkpt lat="43.3605833" lon="11.8075533"><ele>247.33333333333331</ele><time>2026-04-10T16:42:48.981Z</time></trkpt><trkpt lat="43.36046" lon="11.8075783"><ele>247.66666666666666</ele><time>2026-04-10T16:42:50.98Z</time></trkpt><trkpt lat="43.3603967" lon="11.80759"><ele>248.0</ele><time>2026-04-10T16:42:51.975Z</time></trkpt><trkpt lat="43.3603317" lon="11.8075983"><ele>248.33333333333331</ele><time>2026-04-10T16:42:52.978Z</time></trkpt><trkpt lat="43.3602667" lon="11.8076133"><ele>248.66666666666666</ele><time>2026-04-10T16:42:53.978Z</time></trkpt><trkpt lat="43.3602" lon="11.80762"><ele>249.0</ele><time>2026-04-10T16:42:54.979Z</time></trkpt><trkpt lat="43.3601367" lon="11.8076267"><ele>249.0</ele><time>2026-04-10T16:42:55.979Z</time></trkpt><trkpt lat="43.3600717" lon="11.807635"><ele>248.99999999999997</ele><time>2026-04-10T16:42:56.973Z</time></trkpt><trkpt lat="43.3600083" lon="11.807645"><ele>249.0</ele><time>2026-04-10T16:42:57.981Z</time></trkpt><trkpt lat="43.359945" lon="11.8076567"><ele>249.0</ele><time>2026-04-10T16:42:58.977Z</time></trkpt><trkpt lat="43.3598267" lon="11.8076783"><ele>248.99999999999997</ele><time>2026-04-10T16:43:00.978Z</time></trkpt><trkpt lat="43.3597633" lon="11.8076833"><ele>249.0</ele><time>2026-04-10T16:43:01.978Z</time></trkpt><trkpt lat="43.3597" lon="11.8076917"><ele>249.0</ele><time>2026-04-10T16:43:02.976Z</time></trkpt><trkpt lat="43.359635" lon="11.8076967"><ele>248.79999999999998</ele><time>2026-04-10T16:43:03.974Z</time></trkpt><trkpt lat="43.3595717" lon="11.8077017"><ele>248.59999999999997</ele><time>2026-04-10T16:43:04.977Z</time></trkpt><trkpt lat="43.35945" lon="11.8077217"><ele>248.4</ele><time>2026-04-10T16:43:06.974Z</time></trkpt><trkpt lat="43.359335" lon="11.8077333"><ele>248.2</ele><time>2026-04-10T16:43:08.979Z</time></trkpt><trkpt lat="43.35922" lon="11.8077517"><ele>248.0</ele><time>2026-04-10T16:43:10.98Z</time></trkpt><trkpt lat="43.3591133" lon="11.807775"><ele>248.0</ele><time>2026-04-10T16:43:12.978Z</time></trkpt><trkpt lat="43.35901" lon="11.807795"><ele>248.0</ele><time>2026-04-10T16:43:14.976Z</time></trkpt><trkpt lat="43.3589083" lon="11.8078283"><ele>248.0</ele><time>2026-04-10T16:43:16.977Z</time></trkpt><trkpt lat="43.358805" lon="11.8078617"><ele>248.0</ele><time>2026-04-10T16:43:18.975Z</time></trkpt><trkpt lat="43.3587033" lon="11.8079083"><ele>248.0</ele><time>2026-04-10T16:43:20.981Z</time></trkpt><trkpt lat="43.3585983" lon="11.8079617"><ele>248.4</ele><time>2026-04-10T16:43:22.975Z</time></trkpt><trkpt lat="43.3584967" lon="11.8080167"><ele>248.8</ele><time>2026-04-10T16:43:24.98Z</time></trkpt><trkpt lat="43.358385" lon="11.80807"><ele>249.2</ele><time>2026-04-10T16:43:26.976Z</time></trkpt><trkpt lat="43.35827" lon="11.808125"><ele>249.6</ele><time>2026-04-10T16:43:28.978Z</time></trkpt><trkpt lat="43.35821" lon="11.8081517"><ele>250.0</ele><time>2026-04-10T16:43:29.975Z</time></trkpt><trkpt lat="43.3580933" lon="11.808205"><ele>250.0</ele><time>2026-04-10T16:43:31.98Z</time></trkpt><trkpt lat="43.3580333" lon="11.8082317"><ele>250.0</ele><time>2026-04-10T16:43:32.974Z</time></trkpt><trkpt lat="43.3579183" lon="11.808285"><ele>250.0</ele><time>2026-04-10T16:43:34.977Z</time></trkpt><trkpt lat="43.3578583" lon="11.8083117"><ele>250.0</ele><time>2026-04-10T16:43:35.98Z</time></trkpt><trkpt lat="43.3577967" lon="11.80834"><ele>250.0</ele><time>2026-04-10T16:43:36.977Z</time></trkpt><trkpt lat="43.3577367" lon="11.8083683"><ele>250.0</ele><time>2026-04-10T16:43:37.977Z</time></trkpt><trkpt lat="43.357675" lon="11.808395"><ele>250.0</ele><time>2026-04-10T16:43:38.978Z</time></trkpt><trkpt lat="43.35756" lon="11.8084583"><ele>250.0</ele><time>2026-04-10T16:43:40.976Z</time></trkpt><trkpt lat="43.357445" lon="11.8085233"><ele>250.0</ele><time>2026-04-10T16:43:42.978Z</time></trkpt><trkpt lat="43.35733" lon="11.8085867"><ele>250.0</ele><time>2026-04-10T16:43:44.982Z</time></trkpt><trkpt lat="43.3572167" lon="11.8086517"><ele>250.0</ele><time>2026-04-10T16:43:46.975Z</time></trkpt><trkpt lat="43.3571017" lon="11.8087117"><ele>250.0</ele><time>2026-04-10T16:43:48.982Z</time></trkpt><trkpt lat="43.3569867" lon="11.80878"><ele>250.0</ele><time>2026-04-10T16:43:50.98Z</time></trkpt><trkpt lat="43.3569283" lon="11.80882"><ele>250.0</ele><time>2026-04-10T16:43:51.977Z</time></trkpt><trkpt lat="43.35682" lon="11.80889"><ele>250.0</ele><time>2026-04-10T16:43:53.977Z</time></trkpt><trkpt lat="43.356705" lon="11.808965"><ele>250.0</ele><time>2026-04-10T16:43:55.975Z</time></trkpt><trkpt lat="43.3565933" lon="11.8090333"><ele>249.99999999999997</ele><time>2026-04-10T16:43:57.981Z</time></trkpt><trkpt lat="43.35648" lon="11.8091067"><ele>250.0</ele><time>2026-04-10T16:43:59.977Z</time></trkpt><trkpt lat="43.3564233" lon="11.809145"><ele>250.0</ele><time>2026-04-10T16:44:00.978Z</time></trkpt><trkpt lat="43.3563617" lon="11.8091767"><ele>250.0</ele><time>2026-04-10T16:44:01.979Z</time></trkpt><trkpt lat="43.3563033" lon="11.8092133"><ele>249.99999999999997</ele><time>2026-04-10T16:44:02.98Z</time></trkpt><trkpt lat="43.3561933" lon="11.8092967"><ele>250.0</ele><time>2026-04-10T16:44:04.98Z</time></trkpt><trkpt lat="43.3561367" lon="11.8093367"><ele>249.8</ele><time>2026-04-10T16:44:05.979Z</time></trkpt><trkpt lat="43.35608" lon="11.809375"><ele>249.6</ele><time>2026-04-10T16:44:06.976Z</time></trkpt><trkpt lat="43.3559717" lon="11.809455"><ele>249.39999999999998</ele><time>2026-04-10T16:44:08.981Z</time></trkpt><trkpt lat="43.35586" lon="11.8095233"><ele>249.2</ele><time>2026-04-10T16:44:10.976Z</time></trkpt><trkpt lat="43.3557483" lon="11.8095883"><ele>249.0</ele><time>2026-04-10T16:44:12.98Z</time></trkpt><trkpt lat="43.3556433" lon="11.809655"><ele>249.0</ele><time>2026-04-10T16:44:14.978Z</time></trkpt><trkpt lat="43.3555383" lon="11.809715"><ele>248.99999999999997</ele><time>2026-04-10T16:44:16.976Z</time></trkpt><trkpt lat="43.35544" lon="11.8097767"><ele>248.99999999999997</ele><time>2026-04-10T16:44:18.977Z</time></trkpt><trkpt lat="43.355345" lon="11.8098367"><ele>249.0</ele><time>2026-04-10T16:44:20.978Z</time></trkpt><trkpt lat="43.355245" lon="11.80989"><ele>249.0</ele><time>2026-04-10T16:44:22.982Z</time></trkpt><trkpt lat="43.35514" lon="11.8099367"><ele>249.39999999999998</ele><time>2026-04-10T16:44:24.98Z</time></trkpt><trkpt lat="43.35503" lon="11.8099567"><ele>249.79999999999998</ele><time>2026-04-10T16:44:26.979Z</time></trkpt><trkpt lat="43.3549233" lon="11.80997"><ele>250.20000000000002</ele><time>2026-04-10T16:44:28.979Z</time></trkpt><trkpt lat="43.354825" lon="11.8099783"><ele>250.60000000000002</ele><time>2026-04-10T16:44:30.982Z</time></trkpt><trkpt lat="43.3547333" lon="11.8099817"><ele>251.0</ele><time>2026-04-10T16:44:32.978Z</time></trkpt><trkpt lat="43.3546367" lon="11.809975"><ele>251.00000000000003</ele><time>2026-04-10T16:44:34.976Z</time></trkpt><trkpt lat="43.3545433" lon="11.8099617"><ele>251.0</ele><time>2026-04-10T16:44:36.977Z</time></trkpt><trkpt lat="43.354455" lon="11.80994"><ele>251.0</ele><time>2026-04-10T16:44:38.984Z</time></trkpt><trkpt lat="43.3543683" lon="11.809915"><ele>251.0</ele><time>2026-04-10T16:44:40.977Z</time></trkpt><trkpt lat="43.3542833" lon="11.80989"><ele>251.00000000000003</ele><time>2026-04-10T16:44:42.975Z</time></trkpt><trkpt lat="43.3542033" lon="11.8098617"><ele>251.0</ele><time>2026-04-10T16:44:44.977Z</time></trkpt><trkpt lat="43.3541167" lon="11.809845"><ele>251.00000000000003</ele><time>2026-04-10T16:44:46.976Z</time></trkpt><trkpt lat="43.3540283" lon="11.80982"><ele>251.0</ele><time>2026-04-10T16:44:48.984Z</time></trkpt><trkpt lat="43.35394" lon="11.809795"><ele>251.0</ele><time>2026-04-10T16:44:50.975Z</time></trkpt><trkpt lat="43.3538517" lon="11.809775"><ele>251.0</ele><time>2026-04-10T16:44:52.982Z</time></trkpt><trkpt lat="43.353765" lon="11.8097583"><ele>251.00000000000003</ele><time>2026-04-10T16:44:54.981Z</time></trkpt><trkpt lat="43.3536783" lon="11.8097583"><ele>251.0</ele><time>2026-04-10T16:44:56.983Z</time></trkpt><trkpt lat="43.3535817" lon="11.809755"><ele>251.0</ele><time>2026-04-10T16:44:58.977Z</time></trkpt><trkpt lat="43.3534783" lon="11.8097517"><ele>251.00000000000003</ele><time>2026-04-10T16:45:00.975Z</time></trkpt><trkpt lat="43.3533783" lon="11.8097767"><ele>251.00000000000003</ele><time>2026-04-10T16:45:02.977Z</time></trkpt><trkpt lat="43.3532667" lon="11.809815"><ele>251.0</ele><time>2026-04-10T16:45:04.979Z</time></trkpt><trkpt lat="43.3531567" lon="11.8098683"><ele>251.0</ele><time>2026-04-10T16:45:06.976Z</time></trkpt><trkpt lat="43.3530533" lon="11.8099283"><ele>250.75</ele><time>2026-04-10T16:45:08.985Z</time></trkpt><trkpt lat="43.35295" lon="11.81"><ele>250.5</ele><time>2026-04-10T16:45:10.978Z</time></trkpt><trkpt lat="43.35285" lon="11.810085"><ele>250.25</ele><time>2026-04-10T16:45:12.978Z</time></trkpt><trkpt lat="43.3527533" lon="11.810175"><ele>250.0</ele><time>2026-04-10T16:45:14.978Z</time></trkpt><trkpt lat="43.3526583" lon="11.810275"><ele>250.0</ele><time>2026-04-10T16:45:16.981Z</time></trkpt><trkpt lat="43.3525633" lon="11.8103667"><ele>250.0</ele><time>2026-04-10T16:45:18.979Z</time></trkpt><trkpt lat="43.3524633" lon="11.8104433"><ele>250.0</ele><time>2026-04-10T16:45:20.976Z</time></trkpt><trkpt lat="43.3523717" lon="11.8105117"><ele>250.0</ele><time>2026-04-10T16:45:22.975Z</time></trkpt><trkpt lat="43.3522867" lon="11.8105783"><ele>250.0</ele><time>2026-04-10T16:45:24.976Z</time></trkpt><trkpt lat="43.3522033" lon="11.8106317"><ele>250.0</ele><time>2026-04-10T16:45:26.978Z</time></trkpt><trkpt lat="43.352135" lon="11.8106533"><ele>250.0</ele><time>2026-04-10T16:45:28.973Z</time></trkpt><trkpt lat="43.35207" lon="11.8106117"><ele>250.0</ele><time>2026-04-10T16:45:31.976Z</time></trkpt><trkpt lat="43.3520467" lon="11.8105283"><ele>250.0</ele><time>2026-04-10T16:45:35.977Z</time></trkpt><trkpt lat="43.3520317" lon="11.810425"><ele>250.0</ele><time>2026-04-10T16:45:39.979Z</time></trkpt><trkpt lat="43.3520233" lon="11.8103117"><ele>250.0</ele><time>2026-04-10T16:45:44.977Z</time></trkpt><trkpt lat="43.3520083" lon="11.81022"><ele>250.0</ele><time>2026-04-10T16:45:47.981Z</time></trkpt><trkpt lat="43.3519767" lon="11.810145"><ele>250.66666666666666</ele><time>2026-04-10T16:45:50.978Z</time></trkpt><trkpt lat="43.3519433" lon="11.8100533"><ele>251.33333333333331</ele><time>2026-04-10T16:45:54.977Z</time></trkpt><trkpt lat="43.3519217" lon="11.8099667"><ele>252.0</ele><time>2026-04-10T16:45:57.979Z</time></trkpt><trkpt lat="43.351895" lon="11.809885"><ele>252.66666666666669</ele><time>2026-04-10T16:46:00.981Z</time></trkpt><trkpt lat="43.35187" lon="11.80979"><ele>253.33333333333334</ele><time>2026-04-10T16:46:03.977Z</time></trkpt><trkpt lat="43.3518333" lon="11.809685"><ele>254.0</ele><time>2026-04-10T16:46:07.976Z</time></trkpt><trkpt lat="43.35181" lon="11.8095633"><ele>254.0</ele><time>2026-04-10T16:46:11.978Z</time></trkpt><trkpt lat="43.3517867" lon="11.80948"><ele>254.0</ele><time>2026-04-10T16:46:13.974Z</time></trkpt><trkpt lat="43.3517633" lon="11.809375"><ele>254.0</ele><time>2026-04-10T16:46:16.98Z</time></trkpt><trkpt lat="43.3517433" lon="11.8092867"><ele>254.0</ele><time>2026-04-10T16:46:19.976Z</time></trkpt><trkpt lat="43.351725" lon="11.8091783"><ele>254.0</ele><time>2026-04-10T16:46:23.976Z</time></trkpt><trkpt lat="43.3516983" lon="11.8090833"><ele>254.0</ele><time>2026-04-10T16:46:26.978Z</time></trkpt><trkpt lat="43.3516767" lon="11.8089883"><ele>254.0</ele><time>2026-04-10T16:46:29.981Z</time></trkpt><trkpt lat="43.3516583" lon="11.8089017"><ele>254.57142857142858</ele><time>2026-04-10T16:46:32.979Z</time></trkpt><trkpt lat="43.35166" lon="11.8088117"><ele>255.1428571428571</ele><time>2026-04-10T16:46:35.978Z</time></trkpt><trkpt lat="43.3516633" lon="11.8087133"><ele>255.7142857142857</ele><time>2026-04-10T16:46:38.978Z</time></trkpt><trkpt lat="43.3516617" lon="11.808625"><ele>256.2857142857143</ele><time>2026-04-10T16:46:41.978Z</time></trkpt><trkpt lat="43.351655" lon="11.808535"><ele>256.85714285714283</ele><time>2026-04-10T16:46:44.978Z</time></trkpt><trkpt lat="43.3516467" lon="11.8084467"><ele>257.4285714285714</ele><time>2026-04-10T16:46:47.976Z</time></trkpt><trkpt lat="43.35161" lon="11.8083583"><ele>258.0</ele><time>2026-04-10T16:46:50.978Z</time></trkpt><trkpt lat="43.3515617" lon="11.8082717"><ele>258.2857142857143</ele><time>2026-04-10T16:46:54.979Z</time></trkpt><trkpt lat="43.3515117" lon="11.808205"><ele>258.57142857142856</ele><time>2026-04-10T16:46:57.98Z</time></trkpt><trkpt lat="43.3514583" lon="11.8081283"><ele>258.8571428571429</ele><time>2026-04-10T16:47:01.981Z</time></trkpt><trkpt lat="43.351405" lon="11.8080683"><ele>259.1428571428571</ele><time>2026-04-10T16:47:04.974Z</time></trkpt><trkpt lat="43.3513583" lon="11.80801"><ele>259.42857142857144</ele><time>2026-04-10T16:47:07.982Z</time></trkpt><trkpt lat="43.3512967" lon="11.8079167"><ele>259.7142857142857</ele><time>2026-04-10T16:47:12.977Z</time></trkpt><trkpt lat="43.3512633" lon="11.8078317"><ele>260.0</ele><time>2026-04-10T16:47:15.979Z</time></trkpt><trkpt lat="43.35123" lon="11.80775"><ele>262.0</ele><time>2026-04-10T16:47:19.977Z</time></trkpt><trkpt lat="43.3511983" lon="11.8076667"><ele>264.0</ele><time>2026-04-10T16:47:23.977Z</time></trkpt><trkpt lat="43.3511733" lon="11.8075683"><ele>266.0</ele><time>2026-04-10T16:47:27.976Z</time></trkpt><trkpt lat="43.35114" lon="11.8074683"><ele>268.0</ele><time>2026-04-10T16:47:31.976Z</time></trkpt><trkpt lat="43.3511133" lon="11.8073617"><ele>270.0</ele><time>2026-04-10T16:47:35.979Z</time></trkpt><trkpt lat="43.35109" lon="11.8072567"><ele>272.0</ele><time>2026-04-10T16:47:39.978Z</time></trkpt><trkpt lat="43.35108" lon="11.8071617"><ele>271.99999999999994</ele><time>2026-04-10T16:47:43.976Z</time></trkpt><trkpt lat="43.35106" lon="11.8070567"><ele>272.0</ele><time>2026-04-10T16:47:47.975Z</time></trkpt><trkpt lat="43.3510433" lon="11.8069617"><ele>272.0</ele><time>2026-04-10T16:47:51.977Z</time></trkpt><trkpt lat="43.3510183" lon="11.8068633"><ele>272.0</ele><time>2026-04-10T16:47:56.979Z</time></trkpt><trkpt lat="43.35099" lon="11.806765"><ele>272.0</ele><time>2026-04-10T16:48:01.976Z</time></trkpt><trkpt lat="43.3509667" lon="11.80667"><ele>271.99999999999994</ele><time>2026-04-10T16:48:05.981Z</time></trkpt><trkpt lat="43.350945" lon="11.806575"><ele>272.0</ele><time>2026-04-10T16:48:09.977Z</time></trkpt><trkpt lat="43.35092" lon="11.8064867"><ele>272.0</ele><time>2026-04-10T16:48:13.978Z</time></trkpt><trkpt lat="43.350885" lon="11.8063883"><ele>272.0</ele><time>2026-04-10T16:48:17.98Z</time></trkpt><trkpt lat="43.3508633" lon="11.8062983"><ele>272.0</ele><time>2026-04-10T16:48:21.976Z</time></trkpt><trkpt lat="43.350835" lon="11.8062017"><ele>272.0</ele><time>2026-04-10T16:48:25.977Z</time></trkpt><trkpt lat="43.3508033" lon="11.806105"><ele>272.0</ele><time>2026-04-10T16:48:29.98Z</time></trkpt><trkpt lat="43.3507717" lon="11.8059983"><ele>272.0</ele><time>2026-04-10T16:48:33.976Z</time></trkpt><trkpt lat="43.3507483" lon="11.8059017"><ele>272.33333333333337</ele><time>2026-04-10T16:48:37.976Z</time></trkpt><trkpt lat="43.3507283" lon="11.8058183"><ele>272.6666666666667</ele><time>2026-04-10T16:48:40.977Z</time></trkpt><trkpt lat="43.3506983" lon="11.8057317"><ele>273.0</ele><time>2026-04-10T16:48:44.978Z</time></trkpt><trkpt lat="43.35067" lon="11.8056433"><ele>273.3333333333333</ele><time>2026-04-10T16:48:48.975Z</time></trkpt><trkpt lat="43.350645" lon="11.8055433"><ele>273.66666666666663</ele><time>2026-04-10T16:48:52.978Z</time></trkpt><trkpt lat="43.3506217" lon="11.8054367"><ele>274.0</ele><time>2026-04-10T16:48:56.977Z</time></trkpt><trkpt lat="43.3506" lon="11.8053183"><ele>274.00000000000006</ele><time>2026-04-10T16:49:00.977Z</time></trkpt><trkpt lat="43.350575" lon="11.8052217"><ele>274.0</ele><time>2026-04-10T16:49:04.977Z</time></trkpt><trkpt lat="43.3505383" lon="11.8051283"><ele>274.0</ele><time>2026-04-10T16:49:08.978Z</time></trkpt><trkpt lat="43.350505" lon="11.805035"><ele>274.0</ele><time>2026-04-10T16:49:12.975Z</time></trkpt><trkpt lat="43.35047" lon="11.8049417"><ele>274.0</ele><time>2026-04-10T16:49:16.977Z</time></trkpt><trkpt lat="43.3504433" lon="11.80486"><ele>274.00000000000006</ele><time>2026-04-10T16:49:19.975Z</time></trkpt><trkpt lat="43.350405" lon="11.8047633"><ele>274.0</ele><time>2026-04-10T16:49:22.976Z</time></trkpt><trkpt lat="43.35037" lon="11.8046667"><ele>274.5714285714286</ele><time>2026-04-10T16:49:25.976Z</time></trkpt><trkpt lat="43.3503317" lon="11.8045833"><ele>275.14285714285717</ele><time>2026-04-10T16:49:28.981Z</time></trkpt><trkpt lat="43.35029" lon="11.8044967"><ele>275.7142857142857</ele><time>2026-04-10T16:49:32.981Z</time></trkpt><trkpt lat="43.350255" lon="11.8044083"><ele>276.28571428571433</ele><time>2026-04-10T16:49:35.978Z</time></trkpt><trkpt lat="43.3502183" lon="11.8043183"><ele>276.8571428571429</ele><time>2026-04-10T16:49:38.981Z</time></trkpt><trkpt lat="43.3501833" lon="11.804235"><ele>277.42857142857144</ele><time>2026-04-10T16:49:41.976Z</time></trkpt><trkpt lat="43.3501583" lon="11.804155"><ele>278.0</ele><time>2026-04-10T16:49:44.981Z</time></trkpt><trkpt lat="43.350125" lon="11.8040483"><ele>278.42857142857144</ele><time>2026-04-10T16:49:48.975Z</time></trkpt><trkpt lat="43.3500967" lon="11.803965"><ele>278.8571428571429</ele><time>2026-04-10T16:49:51.976Z</time></trkpt><trkpt lat="43.3500683" lon="11.803885"><ele>279.28571428571433</ele><time>2026-04-10T16:49:54.979Z</time></trkpt><trkpt lat="43.3500367" lon="11.8038067"><ele>279.7142857142857</ele><time>2026-04-10T16:49:57.98Z</time></trkpt><trkpt lat="43.3500133" lon="11.8037183"><ele>280.14285714285717</ele><time>2026-04-10T16:50:00.974Z</time></trkpt><trkpt lat="43.3499883" lon="11.8036317"><ele>280.5714285714286</ele><time>2026-04-10T16:50:03.978Z</time></trkpt><trkpt lat="43.34996" lon="11.8035167"><ele>281.0</ele><time>2026-04-10T16:50:06.978Z</time></trkpt><trkpt lat="43.349935" lon="11.80343"><ele>281.1666666666667</ele><time>2026-04-10T16:50:08.976Z</time></trkpt><trkpt lat="43.349905" lon="11.803335"><ele>281.33333333333337</ele><time>2026-04-10T16:50:10.977Z</time></trkpt><trkpt lat="43.3498717" lon="11.8032367"><ele>281.5</ele><time>2026-04-10T16:50:12.977Z</time></trkpt><trkpt lat="43.3498367" lon="11.8031417"><ele>281.6666666666667</ele><time>2026-04-10T16:50:14.977Z</time></trkpt><trkpt lat="43.3497933" lon="11.803045"><ele>281.8333333333333</ele><time>2026-04-10T16:50:16.977Z</time></trkpt><trkpt lat="43.3497567" lon="11.8029433"><ele>282.0</ele><time>2026-04-10T16:50:18.975Z</time></trkpt><trkpt lat="43.34972" lon="11.80284"><ele>282.1666666666667</ele><time>2026-04-10T16:50:20.977Z</time></trkpt><trkpt lat="43.3496883" lon="11.802735"><ele>282.3333333333333</ele><time>2026-04-10T16:50:22.978Z</time></trkpt><trkpt lat="43.3496583" lon="11.8026333"><ele>282.5</ele><time>2026-04-10T16:50:24.979Z</time></trkpt><trkpt lat="43.3496283" lon="11.8025317"><ele>282.66666666666663</ele><time>2026-04-10T16:50:26.98Z</time></trkpt><trkpt lat="43.3495967" lon="11.8024333"><ele>282.8333333333333</ele><time>2026-04-10T16:50:28.978Z</time></trkpt><trkpt lat="43.3495583" lon="11.8023383"><ele>283.0</ele><time>2026-04-10T16:50:30.976Z</time></trkpt><trkpt lat="43.3495183" lon="11.802245"><ele>283.0</ele><time>2026-04-10T16:50:32.978Z</time></trkpt><trkpt lat="43.3494833" lon="11.8021517"><ele>283.0</ele><time>2026-04-10T16:50:34.977Z</time></trkpt><trkpt lat="43.34944" lon="11.80206"><ele>283.0</ele><time>2026-04-10T16:50:36.978Z</time></trkpt><trkpt lat="43.3493833" lon="11.80197"><ele>283.0</ele><time>2026-04-10T16:50:39.976Z</time></trkpt><trkpt lat="43.3493433" lon="11.8018433"><ele>283.0</ele><time>2026-04-10T16:50:42.979Z</time></trkpt><trkpt lat="43.3493233" lon="11.8017317"><ele>283.0</ele><time>2026-04-10T16:50:44.978Z</time></trkpt><trkpt lat="43.3492967" lon="11.8016083"><ele>282.5</ele><time>2026-04-10T16:50:46.978Z</time></trkpt><trkpt lat="43.349265" lon="11.8014767"><ele>282.0</ele><time>2026-04-10T16:50:48.976Z</time></trkpt><trkpt lat="43.3492117" lon="11.80126"><ele>281.5</ele><time>2026-04-10T16:50:51.977Z</time></trkpt><trkpt lat="43.3491733" lon="11.8011117"><ele>281.0</ele><time>2026-04-10T16:50:53.972Z</time></trkpt><trkpt lat="43.3491417" lon="11.800965"><ele>280.25</ele><time>2026-04-10T16:50:55.976Z</time></trkpt><trkpt lat="43.34911" lon="11.8008133"><ele>279.5</ele><time>2026-04-10T16:50:57.972Z</time></trkpt><trkpt lat="43.3490717" lon="11.800665"><ele>278.75</ele><time>2026-04-10T16:50:59.974Z</time></trkpt><trkpt lat="43.3490367" lon="11.8005117"><ele>278.0</ele><time>2026-04-10T16:51:01.976Z</time></trkpt><trkpt lat="43.3490117" lon="11.80036"><ele>278.0</ele><time>2026-04-10T16:51:03.977Z</time></trkpt><trkpt lat="43.3489867" lon="11.80022"><ele>278.0</ele><time>2026-04-10T16:51:05.972Z</time></trkpt><trkpt lat="43.34896" lon="11.80007"><ele>278.0</ele><time>2026-04-10T16:51:07.976Z</time></trkpt><trkpt lat="43.3489433" lon="11.79991"><ele>278.0</ele><time>2026-04-10T16:51:09.981Z</time></trkpt><trkpt lat="43.3489333" lon="11.7997533"><ele>278.0</ele><time>2026-04-10T16:51:11.976Z</time></trkpt><trkpt lat="43.3489267" lon="11.799585"><ele>277.5</ele><time>2026-04-10T16:51:13.979Z</time></trkpt><trkpt lat="43.3489167" lon="11.7994167"><ele>277.0</ele><time>2026-04-10T16:51:15.98Z</time></trkpt><trkpt lat="43.3489083" lon="11.7992483"><ele>276.5</ele><time>2026-04-10T16:51:17.98Z</time></trkpt><trkpt lat="43.3489" lon="11.7990817"><ele>276.0</ele><time>2026-04-10T16:51:19.976Z</time></trkpt><trkpt lat="43.3488933" lon="11.7989167"><ele>276.0</ele><time>2026-04-10T16:51:21.98Z</time></trkpt><trkpt lat="43.3488833" lon="11.7987617"><ele>276.0</ele><time>2026-04-10T16:51:23.976Z</time></trkpt><trkpt lat="43.3488817" lon="11.7986117"><ele>276.0</ele><time>2026-04-10T16:51:25.978Z</time></trkpt><trkpt lat="43.3488867" lon="11.7984733"><ele>276.0</ele><time>2026-04-10T16:51:27.98Z</time></trkpt><trkpt lat="43.34889" lon="11.7983383"><ele>276.0</ele><time>2026-04-10T16:51:29.983Z</time></trkpt><trkpt lat="43.3488967" lon="11.7982133"><ele>276.1666666666667</ele><time>2026-04-10T16:51:31.977Z</time></trkpt><trkpt lat="43.348905" lon="11.7980983"><ele>276.3333333333333</ele><time>2026-04-10T16:51:33.978Z</time></trkpt><trkpt lat="43.3489133" lon="11.797995"><ele>276.5</ele><time>2026-04-10T16:51:35.974Z</time></trkpt><trkpt lat="43.3489233" lon="11.7978933"><ele>276.66666666666663</ele><time>2026-04-10T16:51:37.975Z</time></trkpt><trkpt lat="43.3489283" lon="11.7977917"><ele>276.8333333333333</ele><time>2026-04-10T16:51:39.978Z</time></trkpt><trkpt lat="43.3489433" lon="11.79769"><ele>277.0</ele><time>2026-04-10T16:51:41.977Z</time></trkpt><trkpt lat="43.34896" lon="11.7975817"><ele>277.16666666666663</ele><time>2026-04-10T16:51:43.976Z</time></trkpt><trkpt lat="43.3489783" lon="11.79748"><ele>277.3333333333333</ele><time>2026-04-10T16:51:45.981Z</time></trkpt><trkpt lat="43.348995" lon="11.79737"><ele>277.5</ele><time>2026-04-10T16:51:47.975Z</time></trkpt><trkpt lat="43.3490117" lon="11.7972583"><ele>277.6666666666667</ele><time>2026-04-10T16:51:49.977Z</time></trkpt><trkpt lat="43.34903" lon="11.7971467"><ele>277.83333333333337</ele><time>2026-04-10T16:51:51.978Z</time></trkpt><trkpt lat="43.3490517" lon="11.7970267"><ele>278.0</ele><time>2026-04-10T16:51:53.978Z</time></trkpt><trkpt lat="43.3490733" lon="11.7969183"><ele>278.1666666666667</ele><time>2026-04-10T16:51:55.979Z</time></trkpt><trkpt lat="43.3490917" lon="11.796805"><ele>278.33333333333337</ele><time>2026-04-10T16:51:57.979Z</time></trkpt><trkpt lat="43.3491133" lon="11.7966917"><ele>278.5</ele><time>2026-04-10T16:51:59.975Z</time></trkpt><trkpt lat="43.349125" lon="11.79658"><ele>278.6666666666667</ele><time>2026-04-10T16:52:01.979Z</time></trkpt><trkpt lat="43.3491383" lon="11.79647"><ele>278.8333333333333</ele><time>2026-04-10T16:52:03.973Z</time></trkpt><trkpt lat="43.3491517" lon="11.7963583"><ele>279.0</ele><time>2026-04-10T16:52:05.98Z</time></trkpt><trkpt lat="43.3491667" lon="11.79626"><ele>278.99999999999994</ele><time>2026-04-10T16:52:07.978Z</time></trkpt><trkpt lat="43.3491783" lon="11.7961517"><ele>279.0</ele><time>2026-04-10T16:52:09.976Z</time></trkpt><trkpt lat="43.3491967" lon="11.7960467"><ele>279.0</ele><time>2026-04-10T16:52:11.977Z</time></trkpt><trkpt lat="43.3492133" lon="11.7959483"><ele>279.0</ele><time>2026-04-10T16:52:13.978Z</time></trkpt><trkpt lat="43.3492267" lon="11.7958533"><ele>279.0</ele><time>2026-04-10T16:52:15.983Z</time></trkpt><trkpt lat="43.349245" lon="11.795765"><ele>278.99999999999994</ele><time>2026-04-10T16:52:17.977Z</time></trkpt><trkpt lat="43.34926" lon="11.7956733"><ele>279.0</ele><time>2026-04-10T16:52:19.977Z</time></trkpt><trkpt lat="43.3492667" lon="11.79557"><ele>279.3333333333333</ele><time>2026-04-10T16:52:21.981Z</time></trkpt><trkpt lat="43.3492783" lon="11.79547"><ele>279.6666666666667</ele><time>2026-04-10T16:52:23.98Z</time></trkpt><trkpt lat="43.3492917" lon="11.7953767"><ele>280.0</ele><time>2026-04-10T16:52:25.977Z</time></trkpt><trkpt lat="43.3493083" lon="11.7952833"><ele>280.33333333333337</ele><time>2026-04-10T16:52:27.978Z</time></trkpt><trkpt lat="43.3493183" lon="11.7951567"><ele>280.6666666666667</ele><time>2026-04-10T16:52:30.975Z</time></trkpt><trkpt lat="43.34933" lon="11.7950483"><ele>281.0</ele><time>2026-04-10T16:52:33.981Z</time></trkpt><trkpt lat="43.3493367" lon="11.79492"><ele>281.6666666666667</ele><time>2026-04-10T16:52:36.977Z</time></trkpt><trkpt lat="43.3493317" lon="11.7948017"><ele>282.33333333333337</ele><time>2026-04-10T16:52:39.974Z</time></trkpt><trkpt lat="43.349335" lon="11.7946783"><ele>283.0</ele><time>2026-04-10T16:52:42.979Z</time></trkpt><trkpt lat="43.3493333" lon="11.7945883"><ele>283.6666666666667</ele><time>2026-04-10T16:52:44.983Z</time></trkpt><trkpt lat="43.3493233" lon="11.7944933"><ele>284.3333333333333</ele><time>2026-04-10T16:52:46.977Z</time></trkpt><trkpt lat="43.3493183" lon="11.794405"><ele>285.0</ele><time>2026-04-10T16:52:48.983Z</time></trkpt><trkpt lat="43.349315" lon="11.7942717"><ele>285.3333333333333</ele><time>2026-04-10T16:52:51.979Z</time></trkpt><trkpt lat="43.3493033" lon="11.7941733"><ele>285.6666666666667</ele><time>2026-04-10T16:52:53.979Z</time></trkpt><trkpt lat="43.3493" lon="11.79406"><ele>286.0</ele><time>2026-04-10T16:52:56.977Z</time></trkpt><trkpt lat="43.34928" lon="11.7939583"><ele>286.33333333333337</ele><time>2026-04-10T16:52:58.976Z</time></trkpt><trkpt lat="43.34928" lon="11.79383"><ele>286.6666666666667</ele><time>2026-04-10T16:53:01.979Z</time></trkpt><trkpt lat="43.349275" lon="11.7937317"><ele>287.0</ele><time>2026-04-10T16:53:03.978Z</time></trkpt><trkpt lat="43.3492667" lon="11.7936017"><ele>287.33333333333337</ele><time>2026-04-10T16:53:06.979Z</time></trkpt><trkpt lat="43.3492583" lon="11.7934683"><ele>287.6666666666667</ele><time>2026-04-10T16:53:09.979Z</time></trkpt><trkpt lat="43.3492533" lon="11.7933767"><ele>288.0</ele><time>2026-04-10T16:53:11.979Z</time></trkpt><trkpt lat="43.3492433" lon="11.7932433"><ele>288.3333333333333</ele><time>2026-04-10T16:53:14.988Z</time></trkpt><trkpt lat="43.3492467" lon="11.793145"><ele>288.66666666666663</ele><time>2026-04-10T16:53:16.979Z</time></trkpt><trkpt lat="43.3492517" lon="11.7930217"><ele>289.0</ele><time>2026-04-10T16:53:19.977Z</time></trkpt><trkpt lat="43.349255" lon="11.7929317"><ele>289.0</ele><time>2026-04-10T16:53:21.977Z</time></trkpt><trkpt lat="43.3492583" lon="11.79284"><ele>289.0</ele><time>2026-04-10T16:53:23.978Z</time></trkpt><trkpt lat="43.34925" lon="11.792735"><ele>289.0</ele><time>2026-04-10T16:53:25.978Z</time></trkpt><trkpt lat="43.3492483" lon="11.7926467"><ele>289.0</ele><time>2026-04-10T16:53:27.98Z</time></trkpt><trkpt lat="43.3492383" lon="11.792535"><ele>289.0</ele><time>2026-04-10T16:53:29.982Z</time></trkpt><trkpt lat="43.3492317" lon="11.7924367"><ele>289.0</ele><time>2026-04-10T16:53:31.979Z</time></trkpt><trkpt lat="43.34923" lon="11.792345"><ele>289.0</ele><time>2026-04-10T16:53:33.975Z</time></trkpt><trkpt lat="43.3492317" lon="11.7922483"><ele>289.14285714285717</ele><time>2026-04-10T16:53:36.98Z</time></trkpt><trkpt lat="43.349225" lon="11.7921583"><ele>289.2857142857143</ele><time>2026-04-10T16:53:38.976Z</time></trkpt><trkpt lat="43.3492183" lon="11.7920517"><ele>289.42857142857144</ele><time>2026-04-10T16:53:41.979Z</time></trkpt><trkpt lat="43.3492167" lon="11.791935"><ele>289.57142857142856</ele><time>2026-04-10T16:53:45.98Z</time></trkpt><trkpt lat="43.3492117" lon="11.791845"><ele>289.7142857142857</ele><time>2026-04-10T16:53:48.979Z</time></trkpt><trkpt lat="43.349205" lon="11.7917467"><ele>289.8571428571429</ele><time>2026-04-10T16:53:51.977Z</time></trkpt><trkpt lat="43.3491967" lon="11.7916467"><ele>290.0</ele><time>2026-04-10T16:53:54.978Z</time></trkpt><trkpt lat="43.3491867" lon="11.7915517"><ele>290.2857142857143</ele><time>2026-04-10T16:53:57.977Z</time></trkpt><trkpt lat="43.3491767" lon="11.7914417"><ele>290.5714285714286</ele><time>2026-04-10T16:54:01.981Z</time></trkpt><trkpt lat="43.3491717" lon="11.7913333"><ele>290.8571428571429</ele><time>2026-04-10T16:54:04.98Z</time></trkpt><trkpt lat="43.3491633" lon="11.7912367"><ele>291.14285714285717</ele><time>2026-04-10T16:54:07.978Z</time></trkpt><trkpt lat="43.3492067" lon="11.7911683"><ele>291.42857142857144</ele><time>2026-04-10T16:54:10.976Z</time></trkpt><trkpt lat="43.3492867" lon="11.791135"><ele>291.7142857142857</ele><time>2026-04-10T16:54:13.979Z</time></trkpt><trkpt lat="43.34935" lon="11.79112"><ele>292.0</ele><time>2026-04-10T16:54:15.979Z</time></trkpt><trkpt lat="43.3494167" lon="11.7911267"><ele>292.0</ele><time>2026-04-10T16:54:17.98Z</time></trkpt><trkpt lat="43.3494933" lon="11.7911283"><ele>292.0</ele><time>2026-04-10T16:54:19.979Z</time></trkpt><trkpt lat="43.34958" lon="11.7911117"><ele>292.0</ele><time>2026-04-10T16:54:21.98Z</time></trkpt><trkpt lat="43.349665" lon="11.7910967"><ele>292.0</ele><time>2026-04-10T16:54:23.978Z</time></trkpt><trkpt lat="43.3497517" lon="11.7910867"><ele>292.0</ele><time>2026-04-10T16:54:25.979Z</time></trkpt><trkpt lat="43.3498417" lon="11.7910633"><ele>292.0</ele><time>2026-04-10T16:54:27.979Z</time></trkpt><trkpt lat="43.3499283" lon="11.791055"><ele>292.0</ele><time>2026-04-10T16:54:29.979Z</time></trkpt><trkpt lat="43.3500183" lon="11.79104"><ele>292.0</ele><time>2026-04-10T16:54:31.982Z</time></trkpt><trkpt lat="43.350115" lon="11.791015"><ele>292.0</ele><time>2026-04-10T16:54:33.98Z</time></trkpt><trkpt lat="43.35021" lon="11.79099"><ele>292.0</ele><time>2026-04-10T16:54:35.976Z</time></trkpt><trkpt lat="43.3503083" lon="11.790965"><ele>292.0</ele><time>2026-04-10T16:54:37.979Z</time></trkpt><trkpt lat="43.3504" lon="11.7909467"><ele>292.0</ele><time>2026-04-10T16:54:39.978Z</time></trkpt><trkpt lat="43.350495" lon="11.79093"><ele>292.0</ele><time>2026-04-10T16:54:41.982Z</time></trkpt><trkpt lat="43.35059" lon="11.7909117"><ele>292.0</ele><time>2026-04-10T16:54:43.98Z</time></trkpt><trkpt lat="43.3506867" lon="11.7908967"><ele>292.0</ele><time>2026-04-10T16:54:45.979Z</time></trkpt><trkpt lat="43.3507833" lon="11.790885"><ele>292.0</ele><time>2026-04-10T16:54:47.978Z</time></trkpt><trkpt lat="43.3508867" lon="11.7908733"><ele>291.6</ele><time>2026-04-10T16:54:49.978Z</time></trkpt><trkpt lat="43.350985" lon="11.7908567"><ele>291.2</ele><time>2026-04-10T16:54:51.978Z</time></trkpt><trkpt lat="43.3510883" lon="11.7908333"><ele>290.8</ele><time>2026-04-10T16:54:53.977Z</time></trkpt><trkpt lat="43.3511867" lon="11.7908067"><ele>290.4</ele><time>2026-04-10T16:54:55.981Z</time></trkpt><trkpt lat="43.35128" lon="11.790765"><ele>290.0</ele><time>2026-04-10T16:54:57.981Z</time></trkpt><trkpt lat="43.3513683" lon="11.7906967"><ele>289.8</ele><time>2026-04-10T16:54:59.978Z</time></trkpt><trkpt lat="43.351455" lon="11.790615"><ele>289.6</ele><time>2026-04-10T16:55:01.977Z</time></trkpt><trkpt lat="43.3515467" lon="11.790535"><ele>289.4</ele><time>2026-04-10T16:55:03.977Z</time></trkpt><trkpt lat="43.3516483" lon="11.7904883"><ele>289.2</ele><time>2026-04-10T16:55:05.978Z</time></trkpt><trkpt lat="43.3517517" lon="11.7904917"><ele>289.0</ele><time>2026-04-10T16:55:07.981Z</time></trkpt><trkpt lat="43.3518583" lon="11.79053"><ele>289.0</ele><time>2026-04-10T16:55:09.981Z</time></trkpt><trkpt lat="43.3519633" lon="11.7905867"><ele>289.0</ele><time>2026-04-10T16:55:11.978Z</time></trkpt><trkpt lat="43.3520617" lon="11.790655"><ele>289.0</ele><time>2026-04-10T16:55:13.979Z</time></trkpt><trkpt lat="43.3521467" lon="11.7907167"><ele>289.0</ele><time>2026-04-10T16:55:15.978Z</time></trkpt><trkpt lat="43.352235" lon="11.7907767"><ele>289.0</ele><time>2026-04-10T16:55:17.977Z</time></trkpt><trkpt lat="43.352315" lon="11.7908283"><ele>289.0</ele><time>2026-04-10T16:55:19.98Z</time></trkpt><trkpt lat="43.3524" lon="11.79088"><ele>289.0</ele><time>2026-04-10T16:55:21.977Z</time></trkpt><trkpt lat="43.352485" lon="11.7909333"><ele>289.0</ele><time>2026-04-10T16:55:23.976Z</time></trkpt><trkpt lat="43.35257" lon="11.790985"><ele>289.0</ele><time>2026-04-10T16:55:25.98Z</time></trkpt><trkpt lat="43.3526717" lon="11.7910417"><ele>289.0</ele><time>2026-04-10T16:55:27.974Z</time></trkpt><trkpt lat="43.35277" lon="11.7910883"><ele>288.8</ele><time>2026-04-10T16:55:29.98Z</time></trkpt><trkpt lat="43.3528733" lon="11.7911133"><ele>288.59999999999997</ele><time>2026-04-10T16:55:31.976Z</time></trkpt><trkpt lat="43.3529383" lon="11.7911267"><ele>288.4</ele><time>2026-04-10T16:55:32.979Z</time></trkpt><trkpt lat="43.35305" lon="11.79114"><ele>288.2</ele><time>2026-04-10T16:55:34.979Z</time></trkpt><trkpt lat="43.353165" lon="11.7911467"><ele>288.0</ele><time>2026-04-10T16:55:36.978Z</time></trkpt><trkpt lat="43.3532283" lon="11.791145"><ele>287.5</ele><time>2026-04-10T16:55:37.978Z</time></trkpt><trkpt lat="43.3533517" lon="11.7911433"><ele>287.0</ele><time>2026-04-10T16:55:39.978Z</time></trkpt><trkpt lat="43.35347" lon="11.7911433"><ele>286.5</ele><time>2026-04-10T16:55:41.98Z</time></trkpt><trkpt lat="43.353585" lon="11.7911417"><ele>286.0</ele><time>2026-04-10T16:55:43.979Z</time></trkpt><trkpt lat="43.3537033" lon="11.79114"><ele>286.0</ele><time>2026-04-10T16:55:45.979Z</time></trkpt><trkpt lat="43.3538183" lon="11.79114"><ele>286.0</ele><time>2026-04-10T16:55:47.98Z</time></trkpt><trkpt lat="43.35393" lon="11.7911367"><ele>286.0</ele><time>2026-04-10T16:55:49.978Z</time></trkpt><trkpt lat="43.3540433" lon="11.79114"><ele>286.0</ele><time>2026-04-10T16:55:51.978Z</time></trkpt><trkpt lat="43.3541583" lon="11.7911467"><ele>285.75</ele><time>2026-04-10T16:55:53.982Z</time></trkpt><trkpt lat="43.354275" lon="11.79115"><ele>285.5</ele><time>2026-04-10T16:55:55.976Z</time></trkpt><trkpt lat="43.354395" lon="11.791155"><ele>285.25</ele><time>2026-04-10T16:55:57.977Z</time></trkpt><trkpt lat="43.3545133" lon="11.7911617"><ele>285.0</ele><time>2026-04-10T16:55:59.978Z</time></trkpt><trkpt lat="43.354635" lon="11.7911617"><ele>285.0</ele><time>2026-04-10T16:56:01.979Z</time></trkpt><trkpt lat="43.3547533" lon="11.7911583"><ele>285.0</ele><time>2026-04-10T16:56:03.98Z</time></trkpt><trkpt lat="43.354875" lon="11.7911567"><ele>285.0</ele><time>2026-04-10T16:56:05.977Z</time></trkpt><trkpt lat="43.355" lon="11.79116"><ele>285.0</ele><time>2026-04-10T16:56:07.977Z</time></trkpt><trkpt lat="43.355125" lon="11.79116"><ele>285.0</ele><time>2026-04-10T16:56:09.975Z</time></trkpt><trkpt lat="43.3552433" lon="11.7911583"><ele>285.0</ele><time>2026-04-10T16:56:11.979Z</time></trkpt><trkpt lat="43.35536" lon="11.7911483"><ele>285.0</ele><time>2026-04-10T16:56:13.979Z</time></trkpt><trkpt lat="43.355465" lon="11.79115"><ele>285.0</ele><time>2026-04-10T16:56:15.979Z</time></trkpt><trkpt lat="43.3555683" lon="11.79115"><ele>285.0</ele><time>2026-04-10T16:56:17.98Z</time></trkpt><trkpt lat="43.3556733" lon="11.7911483"><ele>285.2</ele><time>2026-04-10T16:56:19.979Z</time></trkpt><trkpt lat="43.3557783" lon="11.79115"><ele>285.4</ele><time>2026-04-10T16:56:21.977Z</time></trkpt><trkpt lat="43.3558817" lon="11.7911517"><ele>285.6</ele><time>2026-04-10T16:56:23.98Z</time></trkpt><trkpt lat="43.3559867" lon="11.7911517"><ele>285.8</ele><time>2026-04-10T16:56:25.98Z</time></trkpt><trkpt lat="43.3560933" lon="11.7911583"><ele>286.0</ele><time>2026-04-10T16:56:27.985Z</time></trkpt><trkpt lat="43.3561933" lon="11.79118"><ele>286.0</ele><time>2026-04-10T16:56:29.977Z</time></trkpt><trkpt lat="43.3562967" lon="11.791185"><ele>286.0</ele><time>2026-04-10T16:56:31.977Z</time></trkpt><trkpt lat="43.35639" lon="11.7911383"><ele>286.0</ele><time>2026-04-10T16:56:33.982Z</time></trkpt><trkpt lat="43.3564467" lon="11.7910483"><ele>286.0</ele><time>2026-04-10T16:56:35.977Z</time></trkpt><trkpt lat="43.35647" lon="11.7909333"><ele>286.0</ele><time>2026-04-10T16:56:37.985Z</time></trkpt><trkpt lat="43.356465" lon="11.7908067"><ele>286.25</ele><time>2026-04-10T16:56:39.98Z</time></trkpt><trkpt lat="43.3564467" lon="11.790655"><ele>286.5</ele><time>2026-04-10T16:56:41.981Z</time></trkpt><trkpt lat="43.3564267" lon="11.7905183"><ele>286.75</ele><time>2026-04-10T16:56:43.98Z</time></trkpt><trkpt lat="43.3563767" lon="11.7903583"><ele>287.0</ele><time>2026-04-10T16:56:45.978Z</time></trkpt><trkpt lat="43.3563467" lon="11.7902017"><ele>286.75</ele><time>2026-04-10T16:56:47.977Z</time></trkpt><trkpt lat="43.3563167" lon="11.7900433"><ele>286.5</ele><time>2026-04-10T16:56:49.978Z</time></trkpt><trkpt lat="43.356285" lon="11.7898817"><ele>286.25</ele><time>2026-04-10T16:56:51.977Z</time></trkpt><trkpt lat="43.3562583" lon="11.78972"><ele>286.0</ele><time>2026-04-10T16:56:53.98Z</time></trkpt><trkpt lat="43.3562317" lon="11.7895583"><ele>286.0</ele><time>2026-04-10T16:56:55.978Z</time></trkpt><trkpt lat="43.35621" lon="11.7894"><ele>286.0</ele><time>2026-04-10T16:56:57.977Z</time></trkpt><trkpt lat="43.3561817" lon="11.7892517"><ele>286.0</ele><time>2026-04-10T16:56:59.983Z</time></trkpt><trkpt lat="43.3561617" lon="11.789095"><ele>286.0</ele><time>2026-04-10T16:57:01.978Z</time></trkpt><trkpt lat="43.3561417" lon="11.7889333"><ele>285.6</ele><time>2026-04-10T16:57:03.976Z</time></trkpt><trkpt lat="43.3561167" lon="11.78877"><ele>285.20000000000005</ele><time>2026-04-10T16:57:05.979Z</time></trkpt><trkpt lat="43.35609" lon="11.7886083"><ele>284.79999999999995</ele><time>2026-04-10T16:57:07.98Z</time></trkpt><trkpt lat="43.3560667" lon="11.7885233"><ele>284.4</ele><time>2026-04-10T16:57:08.981Z</time></trkpt><trkpt lat="43.3560467" lon="11.7883567"><ele>284.0</ele><time>2026-04-10T16:57:10.978Z</time></trkpt><trkpt lat="43.3560383" lon="11.78819"><ele>284.0</ele><time>2026-04-10T16:57:12.981Z</time></trkpt><trkpt lat="43.3560333" lon="11.7880267"><ele>284.0</ele><time>2026-04-10T16:57:14.978Z</time></trkpt><trkpt lat="43.3560217" lon="11.7879367"><ele>284.0</ele><time>2026-04-10T16:57:15.978Z</time></trkpt><trkpt lat="43.3560183" lon="11.7877833"><ele>284.0</ele><time>2026-04-10T16:57:17.978Z</time></trkpt><trkpt lat="43.35601" lon="11.7876267"><ele>284.0</ele><time>2026-04-10T16:57:19.979Z</time></trkpt><trkpt lat="43.356005" lon="11.7874667"><ele>284.0</ele><time>2026-04-10T16:57:21.976Z</time></trkpt><trkpt lat="43.355995" lon="11.7873033"><ele>284.0</ele><time>2026-04-10T16:57:23.978Z</time></trkpt><trkpt lat="43.3559917" lon="11.7871417"><ele>284.0</ele><time>2026-04-10T16:57:25.98Z</time></trkpt><trkpt lat="43.3559817" lon="11.78698"><ele>284.0</ele><time>2026-04-10T16:57:27.981Z</time></trkpt><trkpt lat="43.3559733" lon="11.786825"><ele>284.0</ele><time>2026-04-10T16:57:29.981Z</time></trkpt><trkpt lat="43.3559617" lon="11.786675"><ele>284.0</ele><time>2026-04-10T16:57:31.977Z</time></trkpt><trkpt lat="43.355965" lon="11.7865283"><ele>284.0</ele><time>2026-04-10T16:57:33.978Z</time></trkpt><trkpt lat="43.3559667" lon="11.7863883"><ele>284.0</ele><time>2026-04-10T16:57:35.976Z</time></trkpt><trkpt lat="43.355965" lon="11.7862483"><ele>284.0</ele><time>2026-04-10T16:57:37.982Z</time></trkpt><trkpt lat="43.3559567" lon="11.7861133"><ele>284.0</ele><time>2026-04-10T16:57:39.976Z</time></trkpt><trkpt lat="43.355945" lon="11.7859817"><ele>284.0</ele><time>2026-04-10T16:57:41.98Z</time></trkpt><trkpt lat="43.3559483" lon="11.7858317"><ele>284.0</ele><time>2026-04-10T16:57:43.98Z</time></trkpt><trkpt lat="43.3559567" lon="11.7856833"><ele>284.0</ele><time>2026-04-10T16:57:45.973Z</time></trkpt><trkpt lat="43.3559583" lon="11.7855533"><ele>284.0</ele><time>2026-04-10T16:57:47.972Z</time></trkpt><trkpt lat="43.3559567" lon="11.7854167"><ele>284.0</ele><time>2026-04-10T16:57:49.975Z</time></trkpt><trkpt lat="43.355955" lon="11.7852767"><ele>284.0</ele><time>2026-04-10T16:57:51.976Z</time></trkpt><trkpt lat="43.3559583" lon="11.7851283"><ele>284.0</ele><time>2026-04-10T16:57:53.976Z</time></trkpt><trkpt lat="43.355955" lon="11.78497"><ele>284.0</ele><time>2026-04-10T16:57:55.976Z</time></trkpt><trkpt lat="43.35597" lon="11.7848167"><ele>284.0</ele><time>2026-04-10T16:57:57.978Z</time></trkpt><trkpt lat="43.3559783" lon="11.7846667"><ele>283.8</ele><time>2026-04-10T16:57:59.975Z</time></trkpt><trkpt lat="43.3559867" lon="11.7845117"><ele>283.59999999999997</ele><time>2026-04-10T16:58:01.974Z</time></trkpt><trkpt lat="43.3559867" lon="11.784355"><ele>283.4</ele><time>2026-04-10T16:58:03.975Z</time></trkpt><trkpt lat="43.3559933" lon="11.784205"><ele>283.2</ele><time>2026-04-10T16:58:05.98Z</time></trkpt><trkpt lat="43.355995" lon="11.7840533"><ele>283.0</ele><time>2026-04-10T16:58:07.979Z</time></trkpt><trkpt lat="43.3559967" lon="11.7839083"><ele>283.0</ele><time>2026-04-10T16:58:09.981Z</time></trkpt><trkpt lat="43.3559917" lon="11.783775"><ele>283.0</ele><time>2026-04-10T16:58:11.98Z</time></trkpt><trkpt lat="43.35598" lon="11.783635"><ele>283.0</ele><time>2026-04-10T16:58:13.979Z</time></trkpt><trkpt lat="43.3559683" lon="11.783495"><ele>283.0</ele><time>2026-04-10T16:58:15.975Z</time></trkpt><trkpt lat="43.3559533" lon="11.7833533"><ele>283.0</ele><time>2026-04-10T16:58:17.979Z</time></trkpt><trkpt lat="43.3559267" lon="11.7832233"><ele>283.0</ele><time>2026-04-10T16:58:19.979Z</time></trkpt><trkpt lat="43.355905" lon="11.7830917"><ele>283.0</ele><time>2026-04-10T16:58:21.975Z</time></trkpt><trkpt lat="43.355885" lon="11.7829633"><ele>283.0</ele><time>2026-04-10T16:58:23.972Z</time></trkpt><trkpt lat="43.355865" lon="11.7828367"><ele>283.0</ele><time>2026-04-10T16:58:25.973Z</time></trkpt><trkpt lat="43.3558433" lon="11.7827167"><ele>283.0</ele><time>2026-04-10T16:58:27.981Z</time></trkpt><trkpt lat="43.3558217" lon="11.782605"><ele>283.3333333333333</ele><time>2026-04-10T16:58:29.98Z</time></trkpt><trkpt lat="43.355805" lon="11.7824983"><ele>283.66666666666663</ele><time>2026-04-10T16:58:31.975Z</time></trkpt><trkpt lat="43.35579" lon="11.7823933"><ele>284.0</ele><time>2026-04-10T16:58:33.983Z</time></trkpt><trkpt lat="43.3557733" lon="11.7822883"><ele>284.3333333333333</ele><time>2026-04-10T16:58:35.978Z</time></trkpt><trkpt lat="43.35576" lon="11.78218"><ele>284.6666666666667</ele><time>2026-04-10T16:58:37.978Z</time></trkpt><trkpt lat="43.3557467" lon="11.7820783"><ele>285.0</ele><time>2026-04-10T16:58:39.977Z</time></trkpt><trkpt lat="43.35573" lon="11.7819767"><ele>285.0</ele><time>2026-04-10T16:58:41.977Z</time></trkpt><trkpt lat="43.3557133" lon="11.7818733"><ele>285.0</ele><time>2026-04-10T16:58:43.98Z</time></trkpt><trkpt lat="43.3556867" lon="11.7817667"><ele>285.0</ele><time>2026-04-10T16:58:45.978Z</time></trkpt><trkpt lat="43.3556617" lon="11.7816683"><ele>285.0</ele><time>2026-04-10T16:58:47.979Z</time></trkpt><trkpt lat="43.355655" lon="11.7815567"><ele>285.0</ele><time>2026-04-10T16:58:49.977Z</time></trkpt><trkpt lat="43.355635" lon="11.7814733"><ele>285.0</ele><time>2026-04-10T16:58:51.981Z</time></trkpt><trkpt lat="43.3556167" lon="11.7813783"><ele>285.3333333333333</ele><time>2026-04-10T16:58:53.979Z</time></trkpt><trkpt lat="43.355605" lon="11.781275"><ele>285.6666666666667</ele><time>2026-04-10T16:58:55.975Z</time></trkpt><trkpt lat="43.3555933" lon="11.7811717"><ele>286.0</ele><time>2026-04-10T16:58:57.977Z</time></trkpt><trkpt lat="43.3555883" lon="11.781085"><ele>286.33333333333337</ele><time>2026-04-10T16:58:59.978Z</time></trkpt><trkpt lat="43.3556267" lon="11.7809833"><ele>286.6666666666667</ele><time>2026-04-10T16:59:02.978Z</time></trkpt><trkpt lat="43.3556933" lon="11.780955"><ele>287.0</ele><time>2026-04-10T16:59:05.973Z</time></trkpt><trkpt lat="43.355775" lon="11.78099"><ele>287.0</ele><time>2026-04-10T16:59:08.977Z</time></trkpt><trkpt lat="43.3558667" lon="11.7810367"><ele>287.0</ele><time>2026-04-10T16:59:11.975Z</time></trkpt><trkpt lat="43.3559333" lon="11.7810583"><ele>287.0</ele><time>2026-04-10T16:59:13.975Z</time></trkpt><trkpt lat="43.35601" lon="11.7810733"><ele>287.0</ele><time>2026-04-10T16:59:15.979Z</time></trkpt><trkpt lat="43.3560933" lon="11.781095"><ele>287.0</ele><time>2026-04-10T16:59:17.978Z</time></trkpt><trkpt lat="43.3561817" lon="11.7811183"><ele>287.0</ele><time>2026-04-10T16:59:19.98Z</time></trkpt><trkpt lat="43.3562733" lon="11.7811417"><ele>287.0</ele><time>2026-04-10T16:59:21.978Z</time></trkpt><trkpt lat="43.3563667" lon="11.7811617"><ele>287.0</ele><time>2026-04-10T16:59:23.978Z</time></trkpt><trkpt lat="43.35646" lon="11.7811883"><ele>287.0</ele><time>2026-04-10T16:59:25.976Z</time></trkpt><trkpt lat="43.3565533" lon="11.78121"><ele>287.0</ele><time>2026-04-10T16:59:27.979Z</time></trkpt><trkpt lat="43.3566533" lon="11.7812317"><ele>287.0</ele><time>2026-04-10T16:59:29.976Z</time></trkpt><trkpt lat="43.3567517" lon="11.7812533"><ele>287.2</ele><time>2026-04-10T16:59:31.975Z</time></trkpt><trkpt lat="43.3568483" lon="11.7812767"><ele>287.4</ele><time>2026-04-10T16:59:33.978Z</time></trkpt><trkpt lat="43.3569433" lon="11.7813033"><ele>287.6</ele><time>2026-04-10T16:59:35.979Z</time></trkpt><trkpt lat="43.3570417" lon="11.78133"><ele>287.8</ele><time>2026-04-10T16:59:37.979Z</time></trkpt><trkpt lat="43.3571383" lon="11.7813617"><ele>288.0</ele><time>2026-04-10T16:59:39.975Z</time></trkpt><trkpt lat="43.35723" lon="11.781395"><ele>288.0</ele><time>2026-04-10T16:59:41.982Z</time></trkpt><trkpt lat="43.3573183" lon="11.7814383"><ele>288.0</ele><time>2026-04-10T16:59:43.983Z</time></trkpt><trkpt lat="43.3574183" lon="11.781475"><ele>288.0</ele><time>2026-04-10T16:59:45.982Z</time></trkpt><trkpt lat="43.3575233" lon="11.7815133"><ele>288.0</ele><time>2026-04-10T16:59:47.976Z</time></trkpt><trkpt lat="43.3576283" lon="11.7815533"><ele>288.0</ele><time>2026-04-10T16:59:49.976Z</time></trkpt><trkpt lat="43.3577333" lon="11.7815967"><ele>288.0</ele><time>2026-04-10T16:59:51.981Z</time></trkpt><trkpt lat="43.35784" lon="11.781645"><ele>288.0</ele><time>2026-04-10T16:59:53.973Z</time></trkpt><trkpt lat="43.3579433" lon="11.7816967"><ele>288.0</ele><time>2026-04-10T16:59:55.979Z</time></trkpt><trkpt lat="43.3580433" lon="11.781755"><ele>288.0</ele><time>2026-04-10T16:59:57.977Z</time></trkpt><trkpt lat="43.3581433" lon="11.7818017"><ele>288.0</ele><time>2026-04-10T16:59:59.98Z</time></trkpt><trkpt lat="43.3582483" lon="11.7818583"><ele>288.2</ele><time>2026-04-10T17:00:01.978Z</time></trkpt><trkpt lat="43.3583517" lon="11.7819033"><ele>288.4</ele><time>2026-04-10T17:00:03.977Z</time></trkpt><trkpt lat="43.358455" lon="11.7819667"><ele>288.59999999999997</ele><time>2026-04-10T17:00:05.977Z</time></trkpt><trkpt lat="43.3585583" lon="11.7820267"><ele>288.8</ele><time>2026-04-10T17:00:07.98Z</time></trkpt><trkpt lat="43.3586483" lon="11.78209"><ele>289.0</ele><time>2026-04-10T17:00:09.978Z</time></trkpt><trkpt lat="43.3587483" lon="11.7821467"><ele>289.0</ele><time>2026-04-10T17:00:11.977Z</time></trkpt><trkpt lat="43.3588533" lon="11.7822083"><ele>289.0</ele><time>2026-04-10T17:00:13.976Z</time></trkpt><trkpt lat="43.35896" lon="11.782255"><ele>289.0</ele><time>2026-04-10T17:00:15.975Z</time></trkpt><trkpt lat="43.3590683" lon="11.782305"><ele>289.0</ele><time>2026-04-10T17:00:17.979Z</time></trkpt><trkpt lat="43.3591767" lon="11.782345"><ele>288.2</ele><time>2026-04-10T17:00:19.979Z</time></trkpt><trkpt lat="43.3592767" lon="11.782395"><ele>287.4</ele><time>2026-04-10T17:00:21.982Z</time></trkpt><trkpt lat="43.3593783" lon="11.7824567"><ele>286.6</ele><time>2026-04-10T17:00:23.981Z</time></trkpt><trkpt lat="43.35947" lon="11.782515"><ele>285.8</ele><time>2026-04-10T17:00:25.977Z</time></trkpt><trkpt lat="43.3595733" lon="11.7825733"><ele>285.0</ele><time>2026-04-10T17:00:27.981Z</time></trkpt><trkpt lat="43.3596817" lon="11.7826283"><ele>285.0</ele><time>2026-04-10T17:00:29.979Z</time></trkpt><trkpt lat="43.3597933" lon="11.782695"><ele>285.0</ele><time>2026-04-10T17:00:31.977Z</time></trkpt><trkpt lat="43.3598967" lon="11.782765"><ele>285.0</ele><time>2026-04-10T17:00:33.979Z</time></trkpt><trkpt lat="43.36" lon="11.7828483"><ele>285.0</ele><time>2026-04-10T17:00:35.981Z</time></trkpt><trkpt lat="43.3601" lon="11.7829367"><ele>285.0</ele><time>2026-04-10T17:00:37.976Z</time></trkpt><trkpt lat="43.3601917" lon="11.7830333"><ele>285.0</ele><time>2026-04-10T17:00:39.98Z</time></trkpt><trkpt lat="43.3602733" lon="11.7831417"><ele>285.0</ele><time>2026-04-10T17:00:41.982Z</time></trkpt><trkpt lat="43.3603483" lon="11.7832583"><ele>285.0</ele><time>2026-04-10T17:00:43.976Z</time></trkpt><trkpt lat="43.3604217" lon="11.7833783"><ele>285.0</ele><time>2026-04-10T17:00:45.979Z</time></trkpt><trkpt lat="43.3604967" lon="11.7835017"><ele>285.0</ele><time>2026-04-10T17:00:47.98Z</time></trkpt><trkpt lat="43.3605667" lon="11.78362"><ele>285.0</ele><time>2026-04-10T17:00:49.981Z</time></trkpt><trkpt lat="43.3606367" lon="11.7837367"><ele>285.0</ele><time>2026-04-10T17:00:51.976Z</time></trkpt><trkpt lat="43.360705" lon="11.78385"><ele>285.0</ele><time>2026-04-10T17:00:53.979Z</time></trkpt><trkpt lat="43.3607667" lon="11.78397"><ele>285.0</ele><time>2026-04-10T17:00:55.976Z</time></trkpt><trkpt lat="43.3608333" lon="11.7840917"><ele>285.0</ele><time>2026-04-10T17:00:57.983Z</time></trkpt><trkpt lat="43.3609183" lon="11.7842067"><ele>285.0</ele><time>2026-04-10T17:00:59.98Z</time></trkpt><trkpt lat="43.3610233" lon="11.7842933"><ele>285.0</ele><time>2026-04-10T17:01:01.977Z</time></trkpt><trkpt lat="43.361145" lon="11.784325"><ele>285.0</ele><time>2026-04-10T17:01:03.98Z</time></trkpt><trkpt lat="43.3612133" lon="11.7843133"><ele>285.0</ele><time>2026-04-10T17:01:04.974Z</time></trkpt><trkpt lat="43.3613483" lon="11.7842717"><ele>285.0</ele><time>2026-04-10T17:01:06.981Z</time></trkpt><trkpt lat="43.3614683" lon="11.7842233"><ele>285.0</ele><time>2026-04-10T17:01:08.978Z</time></trkpt><trkpt lat="43.3615867" lon="11.784195"><ele>284.6666666666667</ele><time>2026-04-10T17:01:10.98Z</time></trkpt><trkpt lat="43.361705" lon="11.7841767"><ele>284.3333333333333</ele><time>2026-04-10T17:01:12.976Z</time></trkpt><trkpt lat="43.3617683" lon="11.7841767"><ele>284.0</ele><time>2026-04-10T17:01:13.977Z</time></trkpt><trkpt lat="43.3618917" lon="11.7841983"><ele>283.66666666666663</ele><time>2026-04-10T17:01:15.98Z</time></trkpt><trkpt lat="43.3619533" lon="11.7842167"><ele>283.3333333333333</ele><time>2026-04-10T17:01:16.979Z</time></trkpt><trkpt lat="43.3620167" lon="11.7842367"><ele>283.0</ele><time>2026-04-10T17:01:17.978Z</time></trkpt><trkpt lat="43.36208" lon="11.7842583"><ele>283.0</ele><time>2026-04-10T17:01:18.979Z</time></trkpt><trkpt lat="43.3621433" lon="11.7842817"><ele>283.0</ele><time>2026-04-10T17:01:19.979Z</time></trkpt><trkpt lat="43.362265" lon="11.78433"><ele>283.0</ele><time>2026-04-10T17:01:21.977Z</time></trkpt><trkpt lat="43.3623817" lon="11.784375"><ele>283.0</ele><time>2026-04-10T17:01:23.976Z</time></trkpt><trkpt lat="43.362495" lon="11.784425"><ele>283.0</ele><time>2026-04-10T17:01:25.976Z</time></trkpt><trkpt lat="43.36261" lon="11.7844717"><ele>283.0</ele><time>2026-04-10T17:01:27.976Z</time></trkpt><trkpt lat="43.3627267" lon="11.7845133"><ele>283.0</ele><time>2026-04-10T17:01:29.979Z</time></trkpt><trkpt lat="43.3628517" lon="11.7845533"><ele>283.0</ele><time>2026-04-10T17:01:31.976Z</time></trkpt><trkpt lat="43.3629733" lon="11.7845983"><ele>283.0</ele><time>2026-04-10T17:01:33.981Z</time></trkpt><trkpt lat="43.363035" lon="11.7846217"><ele>283.0</ele><time>2026-04-10T17:01:34.977Z</time></trkpt><trkpt lat="43.3630967" lon="11.78464"><ele>282.7142857142857</ele><time>2026-04-10T17:01:35.977Z</time></trkpt><trkpt lat="43.3631617" lon="11.78466"><ele>282.42857142857144</ele><time>2026-04-10T17:01:36.981Z</time></trkpt><trkpt lat="43.3632233" lon="11.78468"><ele>282.14285714285717</ele><time>2026-04-10T17:01:37.978Z</time></trkpt><trkpt lat="43.3632867" lon="11.7847017"><ele>281.8571428571429</ele><time>2026-04-10T17:01:38.978Z</time></trkpt><trkpt lat="43.36335" lon="11.7847217"><ele>281.57142857142856</ele><time>2026-04-10T17:01:39.978Z</time></trkpt><trkpt lat="43.3634133" lon="11.784745"><ele>281.28571428571433</ele><time>2026-04-10T17:01:40.974Z</time></trkpt><trkpt lat="43.363475" lon="11.78477"><ele>281.0</ele><time>2026-04-10T17:01:41.978Z</time></trkpt><trkpt lat="43.3635383" lon="11.784795"><ele>281.00000000000006</ele><time>2026-04-10T17:01:42.977Z</time></trkpt><trkpt lat="43.3636017" lon="11.7848233"><ele>281.0</ele><time>2026-04-10T17:01:43.976Z</time></trkpt><trkpt lat="43.3636617" lon="11.78485"><ele>281.0</ele><time>2026-04-10T17:01:44.976Z</time></trkpt><trkpt lat="43.3637267" lon="11.784875"><ele>281.0</ele><time>2026-04-10T17:01:45.975Z</time></trkpt><trkpt lat="43.36379" lon="11.7849033"><ele>281.0</ele><time>2026-04-10T17:01:46.976Z</time></trkpt><trkpt lat="43.3638533" lon="11.7849367"><ele>281.00000000000006</ele><time>2026-04-10T17:01:47.976Z</time></trkpt><trkpt lat="43.363915" lon="11.7849783"><ele>281.0</ele><time>2026-04-10T17:01:48.979Z</time></trkpt><trkpt lat="43.3639767" lon="11.7850233"><ele>280.8571428571429</ele><time>2026-04-10T17:01:49.979Z</time></trkpt><trkpt lat="43.36404" lon="11.785065"><ele>280.7142857142857</ele><time>2026-04-10T17:01:50.978Z</time></trkpt><trkpt lat="43.3641033" lon="11.7851067"><ele>280.57142857142856</ele><time>2026-04-10T17:01:51.975Z</time></trkpt><trkpt lat="43.3641633" lon="11.785145"><ele>280.42857142857144</ele><time>2026-04-10T17:01:52.975Z</time></trkpt><trkpt lat="43.3642233" lon="11.7851833"><ele>280.2857142857143</ele><time>2026-04-10T17:01:53.979Z</time></trkpt><trkpt lat="43.3642933" lon="11.7852217"><ele>280.14285714285717</ele><time>2026-04-10T17:01:54.977Z</time></trkpt><trkpt lat="43.3643617" lon="11.7852583"><ele>280.0</ele><time>2026-04-10T17:01:55.976Z</time></trkpt><trkpt lat="43.3644283" lon="11.7852967"><ele>279.85714285714283</ele><time>2026-04-10T17:01:56.98Z</time></trkpt><trkpt lat="43.364495" lon="11.7853333"><ele>279.7142857142857</ele><time>2026-04-10T17:01:57.978Z</time></trkpt><trkpt lat="43.3645583" lon="11.78536"><ele>279.57142857142856</ele><time>2026-04-10T17:01:58.98Z</time></trkpt><trkpt lat="43.3646233" lon="11.7853833"><ele>279.42857142857144</ele><time>2026-04-10T17:01:59.974Z</time></trkpt><trkpt lat="43.3646867" lon="11.7853967"><ele>279.2857142857143</ele><time>2026-04-10T17:02:00.978Z</time></trkpt><trkpt lat="43.3647517" lon="11.785405"><ele>279.1428571428571</ele><time>2026-04-10T17:02:01.98Z</time></trkpt><trkpt lat="43.3648233" lon="11.7854083"><ele>279.0</ele><time>2026-04-10T17:02:02.98Z</time></trkpt><trkpt lat="43.3648933" lon="11.7854117"><ele>278.71428571428567</ele><time>2026-04-10T17:02:03.979Z</time></trkpt><trkpt lat="43.3649667" lon="11.7854167"><ele>278.42857142857144</ele><time>2026-04-10T17:02:04.976Z</time></trkpt><trkpt lat="43.3650367" lon="11.7854233"><ele>278.1428571428571</ele><time>2026-04-10T17:02:05.974Z</time></trkpt><trkpt lat="43.365105" lon="11.785425"><ele>277.85714285714283</ele><time>2026-04-10T17:02:06.975Z</time></trkpt><trkpt lat="43.3651733" lon="11.7854217"><ele>277.57142857142856</ele><time>2026-04-10T17:02:07.978Z</time></trkpt><trkpt lat="43.3652417" lon="11.78542"><ele>277.2857142857143</ele><time>2026-04-10T17:02:08.976Z</time></trkpt><trkpt lat="43.3653133" lon="11.78541"><ele>277.0</ele><time>2026-04-10T17:02:09.978Z</time></trkpt><trkpt lat="43.3653783" lon="11.7854017"><ele>277.0</ele><time>2026-04-10T17:02:10.979Z</time></trkpt><trkpt lat="43.365445" lon="11.7853917"><ele>277.0</ele><time>2026-04-10T17:02:11.977Z</time></trkpt><trkpt lat="43.3655117" lon="11.78538"><ele>277.0</ele><time>2026-04-10T17:02:12.978Z</time></trkpt><trkpt lat="43.3655767" lon="11.7853733"><ele>277.0</ele><time>2026-04-10T17:02:13.977Z</time></trkpt><trkpt lat="43.3656417" lon="11.7853667"><ele>277.0</ele><time>2026-04-10T17:02:14.975Z</time></trkpt><trkpt lat="43.3657717" lon="11.785365"><ele>277.0</ele><time>2026-04-10T17:02:16.981Z</time></trkpt><trkpt lat="43.3658383" lon="11.785365"><ele>277.2857142857143</ele><time>2026-04-10T17:02:17.976Z</time></trkpt><trkpt lat="43.3659017" lon="11.7853617"><ele>277.57142857142856</ele><time>2026-04-10T17:02:18.975Z</time></trkpt><trkpt lat="43.365965" lon="11.7853583"><ele>277.85714285714283</ele><time>2026-04-10T17:02:19.975Z</time></trkpt><trkpt lat="43.3660317" lon="11.78536"><ele>278.1428571428571</ele><time>2026-04-10T17:02:20.979Z</time></trkpt><trkpt lat="43.3660983" lon="11.7853617"><ele>278.42857142857144</ele><time>2026-04-10T17:02:21.98Z</time></trkpt><trkpt lat="43.3661633" lon="11.7853667"><ele>278.71428571428567</ele><time>2026-04-10T17:02:22.977Z</time></trkpt><trkpt lat="43.3662267" lon="11.78537"><ele>279.0</ele><time>2026-04-10T17:02:23.98Z</time></trkpt><trkpt lat="43.3662917" lon="11.78538"><ele>278.99999999999994</ele><time>2026-04-10T17:02:24.978Z</time></trkpt><trkpt lat="43.3663567" lon="11.7853983"><ele>279.0</ele><time>2026-04-10T17:02:25.975Z</time></trkpt><trkpt lat="43.3664217" lon="11.785415"><ele>279.0</ele><time>2026-04-10T17:02:26.979Z</time></trkpt><trkpt lat="43.3664833" lon="11.7854333"><ele>279.0</ele><time>2026-04-10T17:02:27.976Z</time></trkpt><trkpt lat="43.3665483" lon="11.7854533"><ele>279.0</ele><time>2026-04-10T17:02:28.974Z</time></trkpt><trkpt lat="43.3666083" lon="11.78548"><ele>278.99999999999994</ele><time>2026-04-10T17:02:29.978Z</time></trkpt><trkpt lat="43.36667" lon="11.7855067"><ele>279.0</ele><time>2026-04-10T17:02:30.979Z</time></trkpt><trkpt lat="43.366785" lon="11.7855583"><ele>279.25</ele><time>2026-04-10T17:02:32.979Z</time></trkpt><trkpt lat="43.3668967" lon="11.785615"><ele>279.5</ele><time>2026-04-10T17:02:34.98Z</time></trkpt><trkpt lat="43.3670067" lon="11.7856667"><ele>279.75</ele><time>2026-04-10T17:02:36.976Z</time></trkpt><trkpt lat="43.3671133" lon="11.785715"><ele>280.0</ele><time>2026-04-10T17:02:38.98Z</time></trkpt><trkpt lat="43.3672183" lon="11.785765"><ele>279.5</ele><time>2026-04-10T17:02:40.978Z</time></trkpt><trkpt lat="43.3673217" lon="11.7858183"><ele>279.0</ele><time>2026-04-10T17:02:42.974Z</time></trkpt><trkpt lat="43.3674333" lon="11.7858667"><ele>278.5</ele><time>2026-04-10T17:02:44.979Z</time></trkpt><trkpt lat="43.3675467" lon="11.78591"><ele>278.0</ele><time>2026-04-10T17:02:46.978Z</time></trkpt><trkpt lat="43.367665" lon="11.7859433"><ele>278.0</ele><time>2026-04-10T17:02:48.981Z</time></trkpt><trkpt lat="43.3677883" lon="11.7859667"><ele>278.0</ele><time>2026-04-10T17:02:50.977Z</time></trkpt><trkpt lat="43.367855" lon="11.7859767"><ele>278.0</ele><time>2026-04-10T17:02:51.98Z</time></trkpt><trkpt lat="43.36792" lon="11.78599"><ele>278.0</ele><time>2026-04-10T17:02:52.975Z</time></trkpt><trkpt lat="43.3680367" lon="11.7860133"><ele>278.0</ele><time>2026-04-10T17:02:54.98Z</time></trkpt><trkpt lat="43.36816" lon="11.7860283"><ele>278.0</ele><time>2026-04-10T17:02:56.977Z</time></trkpt><trkpt lat="43.368285" lon="11.78604"><ele>278.0</ele><time>2026-04-10T17:02:58.973Z</time></trkpt><trkpt lat="43.3684033" lon="11.78606"><ele>278.0</ele><time>2026-04-10T17:03:00.974Z</time></trkpt><trkpt lat="43.3685217" lon="11.78609"><ele>278.0</ele><time>2026-04-10T17:03:02.979Z</time></trkpt><trkpt lat="43.3686367" lon="11.7861183"><ele>278.0</ele><time>2026-04-10T17:03:04.981Z</time></trkpt><trkpt lat="43.3687517" lon="11.78615"><ele>278.0</ele><time>2026-04-10T17:03:06.977Z</time></trkpt><trkpt lat="43.368865" lon="11.786185"><ele>278.0</ele><time>2026-04-10T17:03:08.981Z</time></trkpt><trkpt lat="43.3689817" lon="11.7862033"><ele>278.0</ele><time>2026-04-10T17:03:10.977Z</time></trkpt><trkpt lat="43.3691033" lon="11.786225"><ele>277.8</ele><time>2026-04-10T17:03:12.98Z</time></trkpt><trkpt lat="43.3692267" lon="11.7862467"><ele>277.6</ele><time>2026-04-10T17:03:14.979Z</time></trkpt><trkpt lat="43.36929" lon="11.78626"><ele>277.4</ele><time>2026-04-10T17:03:15.977Z</time></trkpt><trkpt lat="43.36941" lon="11.786285"><ele>277.2</ele><time>2026-04-10T17:03:17.98Z</time></trkpt><trkpt lat="43.3695267" lon="11.7863167"><ele>277.0</ele><time>2026-04-10T17:03:19.979Z</time></trkpt><trkpt lat="43.3696417" lon="11.786355"><ele>277.2</ele><time>2026-04-10T17:03:21.978Z</time></trkpt><trkpt lat="43.3697467" lon="11.7863967"><ele>277.4</ele><time>2026-04-10T17:03:23.98Z</time></trkpt><trkpt lat="43.36985" lon="11.7864333"><ele>277.6</ele><time>2026-04-10T17:03:25.981Z</time></trkpt><trkpt lat="43.3699583" lon="11.7864717"><ele>277.8</ele><time>2026-04-10T17:03:27.979Z</time></trkpt><trkpt lat="43.370065" lon="11.7865083"><ele>278.0</ele><time>2026-04-10T17:03:29.977Z</time></trkpt><trkpt lat="43.3701733" lon="11.786555"><ele>278.0</ele><time>2026-04-10T17:03:31.978Z</time></trkpt><trkpt lat="43.3702783" lon="11.7866133"><ele>278.0</ele><time>2026-04-10T17:03:33.975Z</time></trkpt><trkpt lat="43.3703817" lon="11.78667"><ele>278.0</ele><time>2026-04-10T17:03:35.974Z</time></trkpt><trkpt lat="43.3704917" lon="11.7867233"><ele>278.0</ele><time>2026-04-10T17:03:37.978Z</time></trkpt><trkpt lat="43.3706" lon="11.7867767"><ele>277.83333333333337</ele><time>2026-04-10T17:03:39.976Z</time></trkpt><trkpt lat="43.3707083" lon="11.7868283"><ele>277.6666666666667</ele><time>2026-04-10T17:03:41.975Z</time></trkpt><trkpt lat="43.3708233" lon="11.786865"><ele>277.5</ele><time>2026-04-10T17:03:43.977Z</time></trkpt><trkpt lat="43.3708883" lon="11.7868683"><ele>277.3333333333333</ele><time>2026-04-10T17:03:44.977Z</time></trkpt><trkpt lat="43.3709567" lon="11.7868733"><ele>277.16666666666663</ele><time>2026-04-10T17:03:45.978Z</time></trkpt><trkpt lat="43.3710233" lon="11.7868817"><ele>277.0</ele><time>2026-04-10T17:03:46.979Z</time></trkpt><trkpt lat="43.37109" lon="11.7868867"><ele>276.8333333333333</ele><time>2026-04-10T17:03:47.975Z</time></trkpt><trkpt lat="43.371155" lon="11.7868967"><ele>276.66666666666663</ele><time>2026-04-10T17:03:48.976Z</time></trkpt><trkpt lat="43.3712217" lon="11.786905"><ele>276.5</ele><time>2026-04-10T17:03:49.978Z</time></trkpt><trkpt lat="43.371285" lon="11.7869117"><ele>276.3333333333333</ele><time>2026-04-10T17:03:50.975Z</time></trkpt><trkpt lat="43.37135" lon="11.7869183"><ele>276.1666666666667</ele><time>2026-04-10T17:03:51.984Z</time></trkpt><trkpt lat="43.37147" lon="11.7869333"><ele>276.0</ele><time>2026-04-10T17:03:53.979Z</time></trkpt><trkpt lat="43.3715933" lon="11.786945"><ele>276.40000000000003</ele><time>2026-04-10T17:03:55.981Z</time></trkpt><trkpt lat="43.3716567" lon="11.78695"><ele>276.8</ele><time>2026-04-10T17:03:56.978Z</time></trkpt><trkpt lat="43.3717783" lon="11.786965"><ele>277.20000000000005</ele><time>2026-04-10T17:03:58.98Z</time></trkpt><trkpt lat="43.3718983" lon="11.7869767"><ele>277.6</ele><time>2026-04-10T17:04:00.978Z</time></trkpt><trkpt lat="43.37202" lon="11.7869933"><ele>278.0</ele><time>2026-04-10T17:04:02.977Z</time></trkpt><trkpt lat="43.3721433" lon="11.78702"><ele>277.6</ele><time>2026-04-10T17:04:04.979Z</time></trkpt><trkpt lat="43.3722667" lon="11.787035"><ele>277.20000000000005</ele><time>2026-04-10T17:04:06.977Z</time></trkpt><trkpt lat="43.3723333" lon="11.7870417"><ele>276.8</ele><time>2026-04-10T17:04:07.976Z</time></trkpt><trkpt lat="43.37246" lon="11.78706"><ele>276.40000000000003</ele><time>2026-04-10T17:04:09.981Z</time></trkpt><trkpt lat="43.3725267" lon="11.787065"><ele>276.0</ele><time>2026-04-10T17:04:10.978Z</time></trkpt><trkpt lat="43.3725933" lon="11.7870767"><ele>276.0</ele><time>2026-04-10T17:04:11.975Z</time></trkpt><trkpt lat="43.3726583" lon="11.787085"><ele>276.0</ele><time>2026-04-10T17:04:12.975Z</time></trkpt><trkpt lat="43.372725" lon="11.7870933"><ele>276.0</ele><time>2026-04-10T17:04:13.978Z</time></trkpt><trkpt lat="43.37279" lon="11.7871033"><ele>276.0</ele><time>2026-04-10T17:04:14.979Z</time></trkpt><trkpt lat="43.37291" lon="11.7871233"><ele>276.0</ele><time>2026-04-10T17:04:16.976Z</time></trkpt><trkpt lat="43.373035" lon="11.787135"><ele>276.0</ele><time>2026-04-10T17:04:18.976Z</time></trkpt><trkpt lat="43.3731017" lon="11.7871417"><ele>275.8571428571429</ele><time>2026-04-10T17:04:19.98Z</time></trkpt><trkpt lat="43.3731683" lon="11.78715"><ele>275.7142857142857</ele><time>2026-04-10T17:04:20.977Z</time></trkpt><trkpt lat="43.3732333" lon="11.7871583"><ele>275.57142857142856</ele><time>2026-04-10T17:04:21.982Z</time></trkpt><trkpt lat="43.3732983" lon="11.78717"><ele>275.42857142857144</ele><time>2026-04-10T17:04:22.975Z</time></trkpt><trkpt lat="43.3733633" lon="11.7871817"><ele>275.2857142857143</ele><time>2026-04-10T17:04:23.979Z</time></trkpt><trkpt lat="43.3734283" lon="11.7871867"><ele>275.14285714285717</ele><time>2026-04-10T17:04:24.977Z</time></trkpt><trkpt lat="43.373495" lon="11.7871983"><ele>275.0</ele><time>2026-04-10T17:04:25.974Z</time></trkpt><trkpt lat="43.3735583" lon="11.7872083"><ele>275.0</ele><time>2026-04-10T17:04:26.977Z</time></trkpt><trkpt lat="43.373685" lon="11.7872267"><ele>275.0</ele><time>2026-04-10T17:04:28.975Z</time></trkpt><trkpt lat="43.3737483" lon="11.787235"><ele>275.0</ele><time>2026-04-10T17:04:29.979Z</time></trkpt><trkpt lat="43.3738117" lon="11.78724"><ele>275.0</ele><time>2026-04-10T17:04:30.981Z</time></trkpt><trkpt lat="43.3738767" lon="11.7872467"><ele>275.0</ele><time>2026-04-10T17:04:31.977Z</time></trkpt><trkpt lat="43.3739417" lon="11.7872567"><ele>275.0</ele><time>2026-04-10T17:04:32.977Z</time></trkpt><trkpt lat="43.3740067" lon="11.7872617"><ele>275.14285714285717</ele><time>2026-04-10T17:04:33.978Z</time></trkpt><trkpt lat="43.3740717" lon="11.7872683"><ele>275.2857142857143</ele><time>2026-04-10T17:04:34.976Z</time></trkpt><trkpt lat="43.3741367" lon="11.7872783"><ele>275.42857142857144</ele><time>2026-04-10T17:04:35.98Z</time></trkpt><trkpt lat="43.3742" lon="11.7872917"><ele>275.57142857142856</ele><time>2026-04-10T17:04:36.977Z</time></trkpt><trkpt lat="43.374265" lon="11.7873017"><ele>275.7142857142857</ele><time>2026-04-10T17:04:37.976Z</time></trkpt><trkpt lat="43.3743283" lon="11.787315"><ele>275.8571428571429</ele><time>2026-04-10T17:04:38.978Z</time></trkpt><trkpt lat="43.3744483" lon="11.78734"><ele>276.0</ele><time>2026-04-10T17:04:40.977Z</time></trkpt><trkpt lat="43.3745567" lon="11.7873567"><ele>276.0</ele><time>2026-04-10T17:04:42.977Z</time></trkpt><trkpt lat="43.374655" lon="11.7873483"><ele>276.0</ele><time>2026-04-10T17:04:44.977Z</time></trkpt><trkpt lat="43.3747517" lon="11.7873183"><ele>276.0</ele><time>2026-04-10T17:04:46.982Z</time></trkpt><trkpt lat="43.3748417" lon="11.78727"><ele>276.0</ele><time>2026-04-10T17:04:48.982Z</time></trkpt><trkpt lat="43.37493" lon="11.7872033"><ele>276.0</ele><time>2026-04-10T17:04:50.982Z</time></trkpt><trkpt lat="43.3750167" lon="11.7871117"><ele>276.0</ele><time>2026-04-10T17:04:52.978Z</time></trkpt><trkpt lat="43.3751033" lon="11.787005"><ele>276.0</ele><time>2026-04-10T17:04:54.981Z</time></trkpt><trkpt lat="43.375185" lon="11.7868983"><ele>276.0</ele><time>2026-04-10T17:04:56.98Z</time></trkpt><trkpt lat="43.3752667" lon="11.7867917"><ele>276.0</ele><time>2026-04-10T17:04:58.978Z</time></trkpt><trkpt lat="43.37535" lon="11.78668"><ele>276.0</ele><time>2026-04-10T17:05:00.981Z</time></trkpt><trkpt lat="43.3754283" lon="11.78661"><ele>276.0</ele><time>2026-04-10T17:05:02.977Z</time></trkpt><trkpt lat="43.3754967" lon="11.7866617"><ele>276.0</ele><time>2026-04-10T17:05:04.98Z</time></trkpt><trkpt lat="43.3754883" lon="11.786795"><ele>276.0</ele><time>2026-04-10T17:05:06.977Z</time></trkpt><trkpt lat="43.3754683" lon="11.7869333"><ele>276.0</ele><time>2026-04-10T17:05:08.975Z</time></trkpt><trkpt lat="43.3754617" lon="11.7870517"><ele>275.8333333333333</ele><time>2026-04-10T17:05:10.976Z</time></trkpt><trkpt lat="43.3754583" lon="11.7871767"><ele>275.6666666666667</ele><time>2026-04-10T17:05:12.976Z</time></trkpt><trkpt lat="43.3754567" lon="11.787295"><ele>275.5</ele><time>2026-04-10T17:05:14.977Z</time></trkpt><trkpt lat="43.37546" lon="11.787395"><ele>275.33333333333337</ele><time>2026-04-10T17:05:16.977Z</time></trkpt><trkpt lat="43.3754633" lon="11.787485"><ele>275.1666666666667</ele><time>2026-04-10T17:05:18.978Z</time></trkpt><trkpt lat="43.375475" lon="11.78758"><ele>275.0</ele><time>2026-04-10T17:05:21.977Z</time></trkpt><trkpt lat="43.3755833" lon="11.7876567"><ele>274.5</ele><time>2026-04-10T17:05:51.978Z</time></trkpt><trkpt lat="43.3756483" lon="11.7877067"><ele>274.0</ele><time>2026-04-10T17:05:54.976Z</time></trkpt><trkpt lat="43.3757217" lon="11.78775"><ele>273.5</ele><time>2026-04-10T17:05:58.978Z</time></trkpt><trkpt lat="43.3758033" lon="11.787765"><ele>273.0</ele><time>2026-04-10T17:06:02.98Z</time></trkpt><trkpt lat="43.37589" lon="11.7877817"><ele>272.5</ele><time>2026-04-10T17:06:06.983Z</time></trkpt><trkpt lat="43.375955" lon="11.787825"><ele>272.0</ele><time>2026-04-10T17:06:09.982Z</time></trkpt><trkpt lat="43.37593" lon="11.7879133"><ele>272.0</ele><time>2026-04-10T17:06:18.976Z</time></trkpt><trkpt lat="43.3760367" lon="11.7879267"><ele>272.0</ele><time>2026-04-10T17:07:31.972Z</time></trkpt></trkseg></trk></gpx>